<?xml version="1.0" encoding="UTF-8" standalone="no" ?>
<gpx xmlns="http://www.topografix.com/GPX/1/1" xmlns:xsi="http://www.w3.org/2001/XMLSchema-instance" xsi:schemaLocation="http://www.topografix.com/GPX/1/1 http://www.topografix.com/GPX/1/1/gpx.xsd" version="1.1" creator="VisuGPX - https://www.visugpx.com">
  <metadata>
    <name>DEROUILLANTE 2010</name>
    <desc><![CDATA[même parcours que l'année dernière mais presque pas tous les mêmes participants : Patrice L, Sébastien C, Yohann, Jean-Luc et Denis]]></desc>
  </metadata>
  <wpt lat="49.28997" lon="1.40249">
    <ele>-40</ele>
  </wpt>
  <wpt lat="49.28019" lon="1.44547">
    <ele>74</ele>
  </wpt>
  <trk>
    <name><![CDATA[DEROUILLANTE 2010_1]]></name>
    <trkseg>
      <trkpt lat="49.28997" lon="1.40249">
        <ele>-40</ele>
        <time>2010-03-28T07:08:34Z</time>
      </trkpt>
      <trkpt lat="49.29003" lon="1.40232">
        <ele>-34</ele>
        <time>2010-03-28T07:08:35Z</time>
      </trkpt>
      <trkpt lat="49.28999" lon="1.4025">
        <ele>-34</ele>
        <time>2010-03-28T07:08:35Z</time>
      </trkpt>
      <trkpt lat="49.28996" lon="1.40269">
        <ele>-19</ele>
        <time>2010-03-28T07:08:43Z</time>
      </trkpt>
      <trkpt lat="49.28998" lon="1.40255">
        <ele>-31</ele>
        <time>2010-03-28T07:08:49Z</time>
      </trkpt>
      <trkpt lat="49.28976" lon="1.40449">
        <ele>79</ele>
        <time>2010-03-28T07:09:03Z</time>
      </trkpt>
      <trkpt lat="49.28971" lon="1.40498">
        <ele>108</ele>
        <time>2010-03-28T07:09:04Z</time>
      </trkpt>
      <trkpt lat="49.28968" lon="1.40515">
        <ele>118</ele>
        <time>2010-03-28T07:09:06Z</time>
      </trkpt>
      <trkpt lat="49.28967" lon="1.40499">
        <ele>144</ele>
        <time>2010-03-28T07:12:18Z</time>
      </trkpt>
      <trkpt lat="49.28972" lon="1.40487">
        <ele>144</ele>
        <time>2010-03-28T07:12:22Z</time>
      </trkpt>
      <trkpt lat="49.2898" lon="1.40473">
        <ele>144</ele>
        <time>2010-03-28T07:12:26Z</time>
      </trkpt>
      <trkpt lat="49.28987" lon="1.40459">
        <ele>144</ele>
        <time>2010-03-28T07:12:30Z</time>
      </trkpt>
      <trkpt lat="49.28991" lon="1.40444">
        <ele>144</ele>
        <time>2010-03-28T07:12:33Z</time>
      </trkpt>
      <trkpt lat="49.28992" lon="1.40426">
        <ele>144</ele>
        <time>2010-03-28T07:12:36Z</time>
      </trkpt>
      <trkpt lat="49.28987" lon="1.4041">
        <ele>144</ele>
        <time>2010-03-28T07:12:39Z</time>
      </trkpt>
      <trkpt lat="49.28982" lon="1.40394">
        <ele>144</ele>
        <time>2010-03-28T07:12:42Z</time>
      </trkpt>
      <trkpt lat="49.28977" lon="1.4038">
        <ele>144</ele>
        <time>2010-03-28T07:12:45Z</time>
      </trkpt>
      <trkpt lat="49.2897" lon="1.40366">
        <ele>144</ele>
        <time>2010-03-28T07:12:48Z</time>
      </trkpt>
      <trkpt lat="49.28963" lon="1.40354">
        <ele>144</ele>
        <time>2010-03-28T07:12:51Z</time>
      </trkpt>
      <trkpt lat="49.28959" lon="1.40339">
        <ele>144</ele>
        <time>2010-03-28T07:12:54Z</time>
      </trkpt>
      <trkpt lat="49.28965" lon="1.40327">
        <ele>144</ele>
        <time>2010-03-28T07:12:57Z</time>
      </trkpt>
      <trkpt lat="49.28974" lon="1.40318">
        <ele>144</ele>
        <time>2010-03-28T07:13:00Z</time>
      </trkpt>
      <trkpt lat="49.28982" lon="1.40311">
        <ele>144</ele>
        <time>2010-03-28T07:13:03Z</time>
      </trkpt>
      <trkpt lat="49.28992" lon="1.40302">
        <ele>144</ele>
        <time>2010-03-28T07:13:06Z</time>
      </trkpt>
      <trkpt lat="49.28998" lon="1.40287">
        <ele>144</ele>
        <time>2010-03-28T07:13:09Z</time>
      </trkpt>
      <trkpt lat="49.28991" lon="1.40272">
        <ele>144</ele>
        <time>2010-03-28T07:13:12Z</time>
      </trkpt>
      <trkpt lat="49.28982" lon="1.4026">
        <ele>144</ele>
        <time>2010-03-28T07:13:15Z</time>
      </trkpt>
      <trkpt lat="49.28975" lon="1.40249">
        <ele>144</ele>
        <time>2010-03-28T07:13:18Z</time>
      </trkpt>
      <trkpt lat="49.28967" lon="1.40239">
        <ele>144</ele>
        <time>2010-03-28T07:13:21Z</time>
      </trkpt>
      <trkpt lat="49.28959" lon="1.40228">
        <ele>144</ele>
        <time>2010-03-28T07:13:24Z</time>
      </trkpt>
      <trkpt lat="49.28952" lon="1.40217">
        <ele>144</ele>
        <time>2010-03-28T07:13:27Z</time>
      </trkpt>
      <trkpt lat="49.28947" lon="1.40202">
        <ele>144</ele>
        <time>2010-03-28T07:13:31Z</time>
      </trkpt>
      <trkpt lat="49.28954" lon="1.40188">
        <ele>144</ele>
        <time>2010-03-28T07:13:35Z</time>
      </trkpt>
      <trkpt lat="49.28963" lon="1.40185">
        <ele>144</ele>
        <time>2010-03-28T07:13:38Z</time>
      </trkpt>
      <trkpt lat="49.28974" lon="1.40179">
        <ele>144</ele>
        <time>2010-03-28T07:13:42Z</time>
      </trkpt>
      <trkpt lat="49.28985" lon="1.40173">
        <ele>144</ele>
        <time>2010-03-28T07:13:46Z</time>
      </trkpt>
      <trkpt lat="49.28994" lon="1.40168">
        <ele>144</ele>
        <time>2010-03-28T07:13:49Z</time>
      </trkpt>
      <trkpt lat="49.29005" lon="1.40162">
        <ele>144</ele>
        <time>2010-03-28T07:13:52Z</time>
      </trkpt>
      <trkpt lat="49.29016" lon="1.40157">
        <ele>144</ele>
        <time>2010-03-28T07:13:55Z</time>
      </trkpt>
      <trkpt lat="49.29027" lon="1.40152">
        <ele>144</ele>
        <time>2010-03-28T07:13:58Z</time>
      </trkpt>
      <trkpt lat="49.29038" lon="1.40144">
        <ele>144</ele>
        <time>2010-03-28T07:14:01Z</time>
      </trkpt>
      <trkpt lat="49.29049" lon="1.40138">
        <ele>144</ele>
        <time>2010-03-28T07:14:04Z</time>
      </trkpt>
      <trkpt lat="49.29061" lon="1.40131">
        <ele>144</ele>
        <time>2010-03-28T07:14:07Z</time>
      </trkpt>
      <trkpt lat="49.29071" lon="1.40124">
        <ele>144</ele>
        <time>2010-03-28T07:14:10Z</time>
      </trkpt>
      <trkpt lat="49.29082" lon="1.40115">
        <ele>144</ele>
        <time>2010-03-28T07:14:13Z</time>
      </trkpt>
      <trkpt lat="49.29093" lon="1.40105">
        <ele>144</ele>
        <time>2010-03-28T07:14:16Z</time>
      </trkpt>
      <trkpt lat="49.29103" lon="1.40096">
        <ele>144</ele>
        <time>2010-03-28T07:14:19Z</time>
      </trkpt>
      <trkpt lat="49.29115" lon="1.40088">
        <ele>144</ele>
        <time>2010-03-28T07:14:22Z</time>
      </trkpt>
      <trkpt lat="49.29125" lon="1.40078">
        <ele>144</ele>
        <time>2010-03-28T07:14:25Z</time>
      </trkpt>
      <trkpt lat="49.29134" lon="1.40067">
        <ele>144</ele>
        <time>2010-03-28T07:14:28Z</time>
      </trkpt>
      <trkpt lat="49.29143" lon="1.40056">
        <ele>144</ele>
        <time>2010-03-28T07:14:31Z</time>
      </trkpt>
      <trkpt lat="49.29153" lon="1.40046">
        <ele>144</ele>
        <time>2010-03-28T07:14:34Z</time>
      </trkpt>
      <trkpt lat="49.29163" lon="1.40037">
        <ele>144</ele>
        <time>2010-03-28T07:14:37Z</time>
      </trkpt>
      <trkpt lat="49.29172" lon="1.40027">
        <ele>144</ele>
        <time>2010-03-28T07:14:40Z</time>
      </trkpt>
      <trkpt lat="49.29181" lon="1.40017">
        <ele>144</ele>
        <time>2010-03-28T07:14:43Z</time>
      </trkpt>
      <trkpt lat="49.2919" lon="1.40006">
        <ele>144</ele>
        <time>2010-03-28T07:14:46Z</time>
      </trkpt>
      <trkpt lat="49.29199" lon="1.39995">
        <ele>144</ele>
        <time>2010-03-28T07:14:49Z</time>
      </trkpt>
      <trkpt lat="49.29208" lon="1.39985">
        <ele>144</ele>
        <time>2010-03-28T07:14:52Z</time>
      </trkpt>
      <trkpt lat="49.29217" lon="1.39975">
        <ele>144</ele>
        <time>2010-03-28T07:14:55Z</time>
      </trkpt>
      <trkpt lat="49.29226" lon="1.39964">
        <ele>144</ele>
        <time>2010-03-28T07:14:58Z</time>
      </trkpt>
      <trkpt lat="49.29235" lon="1.39952">
        <ele>144</ele>
        <time>2010-03-28T07:15:01Z</time>
      </trkpt>
      <trkpt lat="49.29243" lon="1.3994">
        <ele>144</ele>
        <time>2010-03-28T07:15:04Z</time>
      </trkpt>
      <trkpt lat="49.29252" lon="1.39927">
        <ele>144</ele>
        <time>2010-03-28T07:15:07Z</time>
      </trkpt>
      <trkpt lat="49.2926" lon="1.39914">
        <ele>144</ele>
        <time>2010-03-28T07:15:10Z</time>
      </trkpt>
      <trkpt lat="49.29268" lon="1.399">
        <ele>144</ele>
        <time>2010-03-28T07:15:13Z</time>
      </trkpt>
      <trkpt lat="49.29275" lon="1.39886">
        <ele>144</ele>
        <time>2010-03-28T07:15:16Z</time>
      </trkpt>
      <trkpt lat="49.29281" lon="1.39871">
        <ele>144</ele>
        <time>2010-03-28T07:15:19Z</time>
      </trkpt>
      <trkpt lat="49.29287" lon="1.39857">
        <ele>144</ele>
        <time>2010-03-28T07:15:22Z</time>
      </trkpt>
      <trkpt lat="49.29293" lon="1.39843">
        <ele>144</ele>
        <time>2010-03-28T07:15:25Z</time>
      </trkpt>
      <trkpt lat="49.29298" lon="1.3983">
        <ele>144</ele>
        <time>2010-03-28T07:15:28Z</time>
      </trkpt>
      <trkpt lat="49.29303" lon="1.39816">
        <ele>144</ele>
        <time>2010-03-28T07:15:32Z</time>
      </trkpt>
      <trkpt lat="49.29303" lon="1.398">
        <ele>144</ele>
        <time>2010-03-28T07:15:36Z</time>
      </trkpt>
      <trkpt lat="49.29296" lon="1.39789">
        <ele>144</ele>
        <time>2010-03-28T07:15:40Z</time>
      </trkpt>
      <trkpt lat="49.29288" lon="1.39777">
        <ele>144</ele>
        <time>2010-03-28T07:15:44Z</time>
      </trkpt>
      <trkpt lat="49.29281" lon="1.39764">
        <ele>144</ele>
        <time>2010-03-28T07:15:48Z</time>
      </trkpt>
      <trkpt lat="49.29275" lon="1.39753">
        <ele>144</ele>
        <time>2010-03-28T07:15:51Z</time>
      </trkpt>
      <trkpt lat="49.29269" lon="1.39741">
        <ele>144</ele>
        <time>2010-03-28T07:15:54Z</time>
      </trkpt>
      <trkpt lat="49.29263" lon="1.3973">
        <ele>144</ele>
        <time>2010-03-28T07:15:57Z</time>
      </trkpt>
      <trkpt lat="49.29256" lon="1.39719">
        <ele>144</ele>
        <time>2010-03-28T07:16:00Z</time>
      </trkpt>
      <trkpt lat="49.29249" lon="1.39708">
        <ele>144</ele>
        <time>2010-03-28T07:16:03Z</time>
      </trkpt>
      <trkpt lat="49.29242" lon="1.39696">
        <ele>144</ele>
        <time>2010-03-28T07:16:06Z</time>
      </trkpt>
      <trkpt lat="49.29236" lon="1.39685">
        <ele>144</ele>
        <time>2010-03-28T07:16:09Z</time>
      </trkpt>
      <trkpt lat="49.2923" lon="1.39675">
        <ele>144</ele>
        <time>2010-03-28T07:16:12Z</time>
      </trkpt>
      <trkpt lat="49.29223" lon="1.39663">
        <ele>144</ele>
        <time>2010-03-28T07:16:15Z</time>
      </trkpt>
      <trkpt lat="49.29217" lon="1.3965">
        <ele>144</ele>
        <time>2010-03-28T07:16:18Z</time>
      </trkpt>
      <trkpt lat="49.2921" lon="1.39639">
        <ele>144</ele>
        <time>2010-03-28T07:16:21Z</time>
      </trkpt>
      <trkpt lat="49.29203" lon="1.39626">
        <ele>144</ele>
        <time>2010-03-28T07:16:24Z</time>
      </trkpt>
      <trkpt lat="49.29196" lon="1.39614">
        <ele>144</ele>
        <time>2010-03-28T07:16:27Z</time>
      </trkpt>
      <trkpt lat="49.2919" lon="1.39603">
        <ele>144</ele>
        <time>2010-03-28T07:16:30Z</time>
      </trkpt>
      <trkpt lat="49.29183" lon="1.3959">
        <ele>144</ele>
        <time>2010-03-28T07:16:33Z</time>
      </trkpt>
      <trkpt lat="49.29176" lon="1.39578">
        <ele>144</ele>
        <time>2010-03-28T07:16:36Z</time>
      </trkpt>
      <trkpt lat="49.29169" lon="1.39565">
        <ele>144</ele>
        <time>2010-03-28T07:16:39Z</time>
      </trkpt>
      <trkpt lat="49.29162" lon="1.39552">
        <ele>144</ele>
        <time>2010-03-28T07:16:42Z</time>
      </trkpt>
      <trkpt lat="49.29155" lon="1.3954">
        <ele>144</ele>
        <time>2010-03-28T07:16:45Z</time>
      </trkpt>
      <trkpt lat="49.29148" lon="1.39527">
        <ele>144</ele>
        <time>2010-03-28T07:16:48Z</time>
      </trkpt>
      <trkpt lat="49.2914" lon="1.39515">
        <ele>144</ele>
        <time>2010-03-28T07:16:51Z</time>
      </trkpt>
      <trkpt lat="49.29132" lon="1.395">
        <ele>144</ele>
        <time>2010-03-28T07:16:54Z</time>
      </trkpt>
      <trkpt lat="49.29125" lon="1.39486">
        <ele>144</ele>
        <time>2010-03-28T07:16:57Z</time>
      </trkpt>
      <trkpt lat="49.29118" lon="1.39472">
        <ele>144</ele>
        <time>2010-03-28T07:17:00Z</time>
      </trkpt>
      <trkpt lat="49.2911" lon="1.3946">
        <ele>144</ele>
        <time>2010-03-28T07:17:03Z</time>
      </trkpt>
      <trkpt lat="49.29102" lon="1.39447">
        <ele>144</ele>
        <time>2010-03-28T07:17:06Z</time>
      </trkpt>
      <trkpt lat="49.29095" lon="1.39434">
        <ele>144</ele>
        <time>2010-03-28T07:17:09Z</time>
      </trkpt>
      <trkpt lat="49.29086" lon="1.39419">
        <ele>144</ele>
        <time>2010-03-28T07:17:12Z</time>
      </trkpt>
      <trkpt lat="49.29079" lon="1.39406">
        <ele>144</ele>
        <time>2010-03-28T07:17:15Z</time>
      </trkpt>
      <trkpt lat="49.29071" lon="1.39392">
        <ele>144</ele>
        <time>2010-03-28T07:17:18Z</time>
      </trkpt>
      <trkpt lat="49.29062" lon="1.39376">
        <ele>144</ele>
        <time>2010-03-28T07:17:21Z</time>
      </trkpt>
      <trkpt lat="49.29055" lon="1.3936">
        <ele>144</ele>
        <time>2010-03-28T07:17:24Z</time>
      </trkpt>
      <trkpt lat="49.29047" lon="1.39342">
        <ele>144</ele>
        <time>2010-03-28T07:17:27Z</time>
      </trkpt>
      <trkpt lat="49.29041" lon="1.39325">
        <ele>149</ele>
        <time>2010-03-28T07:17:30Z</time>
      </trkpt>
      <trkpt lat="49.29035" lon="1.39305">
        <ele>149</ele>
        <time>2010-03-28T07:17:33Z</time>
      </trkpt>
      <trkpt lat="49.29031" lon="1.39286">
        <ele>149</ele>
        <time>2010-03-28T07:17:36Z</time>
      </trkpt>
      <trkpt lat="49.29027" lon="1.39266">
        <ele>149</ele>
        <time>2010-03-28T07:17:39Z</time>
      </trkpt>
      <trkpt lat="49.29025" lon="1.39247">
        <ele>149</ele>
        <time>2010-03-28T07:17:42Z</time>
      </trkpt>
      <trkpt lat="49.29023" lon="1.39227">
        <ele>149</ele>
        <time>2010-03-28T07:17:45Z</time>
      </trkpt>
      <trkpt lat="49.29022" lon="1.39209">
        <ele>149</ele>
        <time>2010-03-28T07:17:48Z</time>
      </trkpt>
      <trkpt lat="49.29024" lon="1.39196">
        <ele>149</ele>
        <time>2010-03-28T07:17:51Z</time>
      </trkpt>
      <trkpt lat="49.29034" lon="1.39191">
        <ele>149</ele>
        <time>2010-03-28T07:17:55Z</time>
      </trkpt>
      <trkpt lat="49.29045" lon="1.39186">
        <ele>149</ele>
        <time>2010-03-28T07:17:59Z</time>
      </trkpt>
      <trkpt lat="49.29055" lon="1.3918">
        <ele>149</ele>
        <time>2010-03-28T07:18:02Z</time>
      </trkpt>
      <trkpt lat="49.29063" lon="1.39173">
        <ele>149</ele>
        <time>2010-03-28T07:18:05Z</time>
      </trkpt>
      <trkpt lat="49.29073" lon="1.39167">
        <ele>149</ele>
        <time>2010-03-28T07:18:08Z</time>
      </trkpt>
      <trkpt lat="49.29082" lon="1.39161">
        <ele>149</ele>
        <time>2010-03-28T07:18:11Z</time>
      </trkpt>
      <trkpt lat="49.29092" lon="1.39154">
        <ele>154</ele>
        <time>2010-03-28T07:18:14Z</time>
      </trkpt>
      <trkpt lat="49.29102" lon="1.39146">
        <ele>154</ele>
        <time>2010-03-28T07:18:17Z</time>
      </trkpt>
      <trkpt lat="49.29113" lon="1.39139">
        <ele>154</ele>
        <time>2010-03-28T07:18:20Z</time>
      </trkpt>
      <trkpt lat="49.29123" lon="1.39132">
        <ele>154</ele>
        <time>2010-03-28T07:18:23Z</time>
      </trkpt>
      <trkpt lat="49.29135" lon="1.39125">
        <ele>154</ele>
        <time>2010-03-28T07:18:26Z</time>
      </trkpt>
      <trkpt lat="49.29145" lon="1.39118">
        <ele>154</ele>
        <time>2010-03-28T07:18:29Z</time>
      </trkpt>
      <trkpt lat="49.29155" lon="1.39111">
        <ele>154</ele>
        <time>2010-03-28T07:18:32Z</time>
      </trkpt>
      <trkpt lat="49.29165" lon="1.39104">
        <ele>154</ele>
        <time>2010-03-28T07:18:35Z</time>
      </trkpt>
      <trkpt lat="49.29175" lon="1.39097">
        <ele>154</ele>
        <time>2010-03-28T07:18:38Z</time>
      </trkpt>
      <trkpt lat="49.29185" lon="1.3909">
        <ele>154</ele>
        <time>2010-03-28T07:18:41Z</time>
      </trkpt>
      <trkpt lat="49.29195" lon="1.39083">
        <ele>154</ele>
        <time>2010-03-28T07:18:44Z</time>
      </trkpt>
      <trkpt lat="49.29205" lon="1.39076">
        <ele>154</ele>
        <time>2010-03-28T07:18:47Z</time>
      </trkpt>
      <trkpt lat="49.29215" lon="1.39069">
        <ele>154</ele>
        <time>2010-03-28T07:18:50Z</time>
      </trkpt>
      <trkpt lat="49.29225" lon="1.39062">
        <ele>154</ele>
        <time>2010-03-28T07:18:53Z</time>
      </trkpt>
      <trkpt lat="49.29236" lon="1.39054">
        <ele>154</ele>
        <time>2010-03-28T07:18:56Z</time>
      </trkpt>
      <trkpt lat="49.29247" lon="1.39047">
        <ele>154</ele>
        <time>2010-03-28T07:18:59Z</time>
      </trkpt>
      <trkpt lat="49.29257" lon="1.39039">
        <ele>154</ele>
        <time>2010-03-28T07:19:02Z</time>
      </trkpt>
      <trkpt lat="49.29267" lon="1.39032">
        <ele>154</ele>
        <time>2010-03-28T07:19:05Z</time>
      </trkpt>
      <trkpt lat="49.29277" lon="1.39025">
        <ele>154</ele>
        <time>2010-03-28T07:19:08Z</time>
      </trkpt>
      <trkpt lat="49.29288" lon="1.39018">
        <ele>154</ele>
        <time>2010-03-28T07:19:11Z</time>
      </trkpt>
      <trkpt lat="49.29299" lon="1.39011">
        <ele>154</ele>
        <time>2010-03-28T07:19:14Z</time>
      </trkpt>
      <trkpt lat="49.29309" lon="1.39004">
        <ele>154</ele>
        <time>2010-03-28T07:19:17Z</time>
      </trkpt>
      <trkpt lat="49.2932" lon="1.38997">
        <ele>154</ele>
        <time>2010-03-28T07:19:20Z</time>
      </trkpt>
      <trkpt lat="49.2933" lon="1.38991">
        <ele>149</ele>
        <time>2010-03-28T07:19:23Z</time>
      </trkpt>
      <trkpt lat="49.2934" lon="1.38984">
        <ele>149</ele>
        <time>2010-03-28T07:19:26Z</time>
      </trkpt>
      <trkpt lat="49.29349" lon="1.38977">
        <ele>149</ele>
        <time>2010-03-28T07:19:29Z</time>
      </trkpt>
      <trkpt lat="49.29359" lon="1.38969">
        <ele>149</ele>
        <time>2010-03-28T07:19:32Z</time>
      </trkpt>
      <trkpt lat="49.29369" lon="1.38962">
        <ele>149</ele>
        <time>2010-03-28T07:19:35Z</time>
      </trkpt>
      <trkpt lat="49.29379" lon="1.38955">
        <ele>149</ele>
        <time>2010-03-28T07:19:38Z</time>
      </trkpt>
      <trkpt lat="49.2939" lon="1.38947">
        <ele>149</ele>
        <time>2010-03-28T07:19:41Z</time>
      </trkpt>
      <trkpt lat="49.29401" lon="1.3894">
        <ele>149</ele>
        <time>2010-03-28T07:19:44Z</time>
      </trkpt>
      <trkpt lat="49.29412" lon="1.38932">
        <ele>149</ele>
        <time>2010-03-28T07:19:47Z</time>
      </trkpt>
      <trkpt lat="49.29424" lon="1.38925">
        <ele>149</ele>
        <time>2010-03-28T07:19:50Z</time>
      </trkpt>
      <trkpt lat="49.29435" lon="1.38916">
        <ele>149</ele>
        <time>2010-03-28T07:19:53Z</time>
      </trkpt>
      <trkpt lat="49.29447" lon="1.38908">
        <ele>149</ele>
        <time>2010-03-28T07:19:56Z</time>
      </trkpt>
      <trkpt lat="49.29458" lon="1.389">
        <ele>149</ele>
        <time>2010-03-28T07:19:59Z</time>
      </trkpt>
      <trkpt lat="49.2947" lon="1.38892">
        <ele>143</ele>
        <time>2010-03-28T07:20:02Z</time>
      </trkpt>
      <trkpt lat="49.29482" lon="1.38884">
        <ele>143</ele>
        <time>2010-03-28T07:20:05Z</time>
      </trkpt>
      <trkpt lat="49.29494" lon="1.38876">
        <ele>143</ele>
        <time>2010-03-28T07:20:08Z</time>
      </trkpt>
      <trkpt lat="49.29505" lon="1.38868">
        <ele>143</ele>
        <time>2010-03-28T07:20:11Z</time>
      </trkpt>
      <trkpt lat="49.29516" lon="1.3886">
        <ele>143</ele>
        <time>2010-03-28T07:20:14Z</time>
      </trkpt>
      <trkpt lat="49.29528" lon="1.38853">
        <ele>143</ele>
        <time>2010-03-28T07:20:17Z</time>
      </trkpt>
      <trkpt lat="49.29539" lon="1.38845">
        <ele>143</ele>
        <time>2010-03-28T07:20:20Z</time>
      </trkpt>
      <trkpt lat="49.29551" lon="1.38836">
        <ele>143</ele>
        <time>2010-03-28T07:20:23Z</time>
      </trkpt>
      <trkpt lat="49.29563" lon="1.38828">
        <ele>143</ele>
        <time>2010-03-28T07:20:26Z</time>
      </trkpt>
      <trkpt lat="49.29575" lon="1.3882">
        <ele>143</ele>
        <time>2010-03-28T07:20:29Z</time>
      </trkpt>
      <trkpt lat="49.29586" lon="1.38812">
        <ele>143</ele>
        <time>2010-03-28T07:20:32Z</time>
      </trkpt>
      <trkpt lat="49.29595" lon="1.38806">
        <ele>143</ele>
        <time>2010-03-28T07:20:34Z</time>
      </trkpt>
      <trkpt lat="49.29606" lon="1.38798">
        <ele>143</ele>
        <time>2010-03-28T07:20:37Z</time>
      </trkpt>
      <trkpt lat="49.29618" lon="1.38789">
        <ele>143</ele>
        <time>2010-03-28T07:20:40Z</time>
      </trkpt>
      <trkpt lat="49.29629" lon="1.38782">
        <ele>143</ele>
        <time>2010-03-28T07:20:43Z</time>
      </trkpt>
      <trkpt lat="49.29639" lon="1.38774">
        <ele>143</ele>
        <time>2010-03-28T07:20:46Z</time>
      </trkpt>
      <trkpt lat="49.2965" lon="1.38767">
        <ele>143</ele>
        <time>2010-03-28T07:20:49Z</time>
      </trkpt>
      <trkpt lat="49.29662" lon="1.38758">
        <ele>143</ele>
        <time>2010-03-28T07:20:52Z</time>
      </trkpt>
      <trkpt lat="49.29672" lon="1.38751">
        <ele>143</ele>
        <time>2010-03-28T07:20:55Z</time>
      </trkpt>
      <trkpt lat="49.29683" lon="1.38741">
        <ele>143</ele>
        <time>2010-03-28T07:20:58Z</time>
      </trkpt>
      <trkpt lat="49.29694" lon="1.3873">
        <ele>143</ele>
        <time>2010-03-28T07:21:01Z</time>
      </trkpt>
      <trkpt lat="49.29701" lon="1.38721">
        <ele>143</ele>
        <time>2010-03-28T07:21:03Z</time>
      </trkpt>
      <trkpt lat="49.29709" lon="1.38707">
        <ele>143</ele>
        <time>2010-03-28T07:21:06Z</time>
      </trkpt>
      <trkpt lat="49.29717" lon="1.38693">
        <ele>143</ele>
        <time>2010-03-28T07:21:09Z</time>
      </trkpt>
      <trkpt lat="49.29724" lon="1.38677">
        <ele>143</ele>
        <time>2010-03-28T07:21:12Z</time>
      </trkpt>
      <trkpt lat="49.29731" lon="1.38662">
        <ele>143</ele>
        <time>2010-03-28T07:21:15Z</time>
      </trkpt>
      <trkpt lat="49.29736" lon="1.38646">
        <ele>143</ele>
        <time>2010-03-28T07:21:18Z</time>
      </trkpt>
      <trkpt lat="49.29742" lon="1.38631">
        <ele>143</ele>
        <time>2010-03-28T07:21:21Z</time>
      </trkpt>
      <trkpt lat="49.29747" lon="1.38614">
        <ele>143</ele>
        <time>2010-03-28T07:21:24Z</time>
      </trkpt>
      <trkpt lat="49.29753" lon="1.38598">
        <ele>143</ele>
        <time>2010-03-28T07:21:27Z</time>
      </trkpt>
      <trkpt lat="49.29758" lon="1.38581">
        <ele>143</ele>
        <time>2010-03-28T07:21:30Z</time>
      </trkpt>
      <trkpt lat="49.29763" lon="1.38564">
        <ele>143</ele>
        <time>2010-03-28T07:21:33Z</time>
      </trkpt>
      <trkpt lat="49.29768" lon="1.38547">
        <ele>143</ele>
        <time>2010-03-28T07:21:36Z</time>
      </trkpt>
      <trkpt lat="49.29772" lon="1.3853">
        <ele>143</ele>
        <time>2010-03-28T07:21:39Z</time>
      </trkpt>
      <trkpt lat="49.29776" lon="1.38513">
        <ele>143</ele>
        <time>2010-03-28T07:21:42Z</time>
      </trkpt>
      <trkpt lat="49.2978" lon="1.38498">
        <ele>143</ele>
        <time>2010-03-28T07:21:45Z</time>
      </trkpt>
      <trkpt lat="49.29784" lon="1.38484">
        <ele>143</ele>
        <time>2010-03-28T07:21:48Z</time>
      </trkpt>
      <trkpt lat="49.29787" lon="1.3847">
        <ele>143</ele>
        <time>2010-03-28T07:21:52Z</time>
      </trkpt>
      <trkpt lat="49.2979" lon="1.38456">
        <ele>143</ele>
        <time>2010-03-28T07:21:57Z</time>
      </trkpt>
      <trkpt lat="49.29793" lon="1.38441">
        <ele>143</ele>
        <time>2010-03-28T07:22:01Z</time>
      </trkpt>
      <trkpt lat="49.29796" lon="1.38428">
        <ele>143</ele>
        <time>2010-03-28T07:22:04Z</time>
      </trkpt>
      <trkpt lat="49.29798" lon="1.38414">
        <ele>143</ele>
        <time>2010-03-28T07:22:07Z</time>
      </trkpt>
      <trkpt lat="49.298" lon="1.38401">
        <ele>143</ele>
        <time>2010-03-28T07:22:10Z</time>
      </trkpt>
      <trkpt lat="49.29803" lon="1.38387">
        <ele>143</ele>
        <time>2010-03-28T07:22:13Z</time>
      </trkpt>
      <trkpt lat="49.29805" lon="1.38374">
        <ele>143</ele>
        <time>2010-03-28T07:22:16Z</time>
      </trkpt>
      <trkpt lat="49.29807" lon="1.3836">
        <ele>143</ele>
        <time>2010-03-28T07:22:19Z</time>
      </trkpt>
      <trkpt lat="49.2981" lon="1.38346">
        <ele>143</ele>
        <time>2010-03-28T07:22:22Z</time>
      </trkpt>
      <trkpt lat="49.29812" lon="1.38332">
        <ele>143</ele>
        <time>2010-03-28T07:22:25Z</time>
      </trkpt>
      <trkpt lat="49.29814" lon="1.38316">
        <ele>143</ele>
        <time>2010-03-28T07:22:28Z</time>
      </trkpt>
      <trkpt lat="49.29816" lon="1.38301">
        <ele>143</ele>
        <time>2010-03-28T07:22:31Z</time>
      </trkpt>
      <trkpt lat="49.29818" lon="1.38288">
        <ele>143</ele>
        <time>2010-03-28T07:22:34Z</time>
      </trkpt>
      <trkpt lat="49.29821" lon="1.3827">
        <ele>143</ele>
        <time>2010-03-28T07:22:38Z</time>
      </trkpt>
      <trkpt lat="49.29823" lon="1.38253">
        <ele>143</ele>
        <time>2010-03-28T07:22:42Z</time>
      </trkpt>
      <trkpt lat="49.29825" lon="1.38238">
        <ele>143</ele>
        <time>2010-03-28T07:22:45Z</time>
      </trkpt>
      <trkpt lat="49.29827" lon="1.38224">
        <ele>143</ele>
        <time>2010-03-28T07:22:48Z</time>
      </trkpt>
      <trkpt lat="49.29828" lon="1.38209">
        <ele>143</ele>
        <time>2010-03-28T07:22:51Z</time>
      </trkpt>
      <trkpt lat="49.2983" lon="1.38191">
        <ele>143</ele>
        <time>2010-03-28T07:22:55Z</time>
      </trkpt>
      <trkpt lat="49.2983" lon="1.38175">
        <ele>143</ele>
        <time>2010-03-28T07:22:58Z</time>
      </trkpt>
      <trkpt lat="49.29831" lon="1.38158">
        <ele>143</ele>
        <time>2010-03-28T07:23:01Z</time>
      </trkpt>
      <trkpt lat="49.29831" lon="1.38141">
        <ele>143</ele>
        <time>2010-03-28T07:23:04Z</time>
      </trkpt>
      <trkpt lat="49.29831" lon="1.38124">
        <ele>143</ele>
        <time>2010-03-28T07:23:07Z</time>
      </trkpt>
      <trkpt lat="49.29832" lon="1.38108">
        <ele>143</ele>
        <time>2010-03-28T07:23:10Z</time>
      </trkpt>
      <trkpt lat="49.29832" lon="1.38091">
        <ele>143</ele>
        <time>2010-03-28T07:23:13Z</time>
      </trkpt>
      <trkpt lat="49.29833" lon="1.38074">
        <ele>143</ele>
        <time>2010-03-28T07:23:16Z</time>
      </trkpt>
      <trkpt lat="49.29836" lon="1.38057">
        <ele>143</ele>
        <time>2010-03-28T07:23:19Z</time>
      </trkpt>
      <trkpt lat="49.2984" lon="1.3804">
        <ele>143</ele>
        <time>2010-03-28T07:23:22Z</time>
      </trkpt>
      <trkpt lat="49.29844" lon="1.38023">
        <ele>143</ele>
        <time>2010-03-28T07:23:25Z</time>
      </trkpt>
      <trkpt lat="49.2985" lon="1.38007">
        <ele>143</ele>
        <time>2010-03-28T07:23:28Z</time>
      </trkpt>
      <trkpt lat="49.29855" lon="1.37991">
        <ele>143</ele>
        <time>2010-03-28T07:23:31Z</time>
      </trkpt>
      <trkpt lat="49.2986" lon="1.37977">
        <ele>143</ele>
        <time>2010-03-28T07:23:34Z</time>
      </trkpt>
      <trkpt lat="49.29865" lon="1.37962">
        <ele>143</ele>
        <time>2010-03-28T07:23:37Z</time>
      </trkpt>
      <trkpt lat="49.2987" lon="1.37948">
        <ele>143</ele>
        <time>2010-03-28T07:23:40Z</time>
      </trkpt>
      <trkpt lat="49.29875" lon="1.37934">
        <ele>143</ele>
        <time>2010-03-28T07:23:43Z</time>
      </trkpt>
      <trkpt lat="49.2988" lon="1.37919">
        <ele>143</ele>
        <time>2010-03-28T07:23:46Z</time>
      </trkpt>
      <trkpt lat="49.29885" lon="1.37906">
        <ele>143</ele>
        <time>2010-03-28T07:23:49Z</time>
      </trkpt>
      <trkpt lat="49.2989" lon="1.37891">
        <ele>143</ele>
        <time>2010-03-28T07:23:52Z</time>
      </trkpt>
      <trkpt lat="49.29895" lon="1.37877">
        <ele>143</ele>
        <time>2010-03-28T07:23:55Z</time>
      </trkpt>
      <trkpt lat="49.299" lon="1.37863">
        <ele>143</ele>
        <time>2010-03-28T07:23:58Z</time>
      </trkpt>
      <trkpt lat="49.29905" lon="1.37847">
        <ele>143</ele>
        <time>2010-03-28T07:24:01Z</time>
      </trkpt>
      <trkpt lat="49.29911" lon="1.37833">
        <ele>143</ele>
        <time>2010-03-28T07:24:04Z</time>
      </trkpt>
      <trkpt lat="49.29915" lon="1.37817">
        <ele>143</ele>
        <time>2010-03-28T07:24:07Z</time>
      </trkpt>
      <trkpt lat="49.29921" lon="1.37802">
        <ele>143</ele>
        <time>2010-03-28T07:24:10Z</time>
      </trkpt>
      <trkpt lat="49.29926" lon="1.37785">
        <ele>143</ele>
        <time>2010-03-28T07:24:13Z</time>
      </trkpt>
      <trkpt lat="49.29932" lon="1.3777">
        <ele>143</ele>
        <time>2010-03-28T07:24:16Z</time>
      </trkpt>
      <trkpt lat="49.29937" lon="1.37755">
        <ele>143</ele>
        <time>2010-03-28T07:24:19Z</time>
      </trkpt>
      <trkpt lat="49.29942" lon="1.37741">
        <ele>143</ele>
        <time>2010-03-28T07:24:22Z</time>
      </trkpt>
      <trkpt lat="49.29947" lon="1.37725">
        <ele>143</ele>
        <time>2010-03-28T07:24:25Z</time>
      </trkpt>
      <trkpt lat="49.29952" lon="1.3771">
        <ele>143</ele>
        <time>2010-03-28T07:24:28Z</time>
      </trkpt>
      <trkpt lat="49.29956" lon="1.37696">
        <ele>143</ele>
        <time>2010-03-28T07:24:31Z</time>
      </trkpt>
      <trkpt lat="49.29961" lon="1.37681">
        <ele>143</ele>
        <time>2010-03-28T07:24:34Z</time>
      </trkpt>
      <trkpt lat="49.29967" lon="1.37667">
        <ele>143</ele>
        <time>2010-03-28T07:24:37Z</time>
      </trkpt>
      <trkpt lat="49.29972" lon="1.37652">
        <ele>143</ele>
        <time>2010-03-28T07:24:40Z</time>
      </trkpt>
      <trkpt lat="49.29977" lon="1.37638">
        <ele>143</ele>
        <time>2010-03-28T07:24:43Z</time>
      </trkpt>
      <trkpt lat="49.29983" lon="1.37625">
        <ele>143</ele>
        <time>2010-03-28T07:24:46Z</time>
      </trkpt>
      <trkpt lat="49.2999" lon="1.3761">
        <ele>143</ele>
        <time>2010-03-28T07:24:49Z</time>
      </trkpt>
      <trkpt lat="49.29998" lon="1.37597">
        <ele>143</ele>
        <time>2010-03-28T07:24:52Z</time>
      </trkpt>
      <trkpt lat="49.30006" lon="1.37584">
        <ele>143</ele>
        <time>2010-03-28T07:24:55Z</time>
      </trkpt>
      <trkpt lat="49.30015" lon="1.37572">
        <ele>143</ele>
        <time>2010-03-28T07:24:58Z</time>
      </trkpt>
      <trkpt lat="49.30023" lon="1.37559">
        <ele>143</ele>
        <time>2010-03-28T07:25:01Z</time>
      </trkpt>
      <trkpt lat="49.30031" lon="1.37547">
        <ele>143</ele>
        <time>2010-03-28T07:25:04Z</time>
      </trkpt>
      <trkpt lat="49.3004" lon="1.37536">
        <ele>143</ele>
        <time>2010-03-28T07:25:07Z</time>
      </trkpt>
      <trkpt lat="49.30048" lon="1.37524">
        <ele>143</ele>
        <time>2010-03-28T07:25:10Z</time>
      </trkpt>
      <trkpt lat="49.30056" lon="1.37511">
        <ele>143</ele>
        <time>2010-03-28T07:25:13Z</time>
      </trkpt>
      <trkpt lat="49.30064" lon="1.375">
        <ele>143</ele>
        <time>2010-03-28T07:25:16Z</time>
      </trkpt>
      <trkpt lat="49.30073" lon="1.37487">
        <ele>143</ele>
        <time>2010-03-28T07:25:19Z</time>
      </trkpt>
      <trkpt lat="49.3008" lon="1.37476">
        <ele>143</ele>
        <time>2010-03-28T07:25:22Z</time>
      </trkpt>
      <trkpt lat="49.30088" lon="1.37465">
        <ele>143</ele>
        <time>2010-03-28T07:25:25Z</time>
      </trkpt>
      <trkpt lat="49.30096" lon="1.37454">
        <ele>143</ele>
        <time>2010-03-28T07:25:29Z</time>
      </trkpt>
      <trkpt lat="49.30106" lon="1.37447">
        <ele>143</ele>
        <time>2010-03-28T07:25:34Z</time>
      </trkpt>
      <trkpt lat="49.30116" lon="1.37445">
        <ele>143</ele>
        <time>2010-03-28T07:25:40Z</time>
      </trkpt>
      <trkpt lat="49.30125" lon="1.37453">
        <ele>143</ele>
        <time>2010-03-28T07:27:06Z</time>
      </trkpt>
      <trkpt lat="49.30136" lon="1.37453">
        <ele>143</ele>
        <time>2010-03-28T07:27:11Z</time>
      </trkpt>
      <trkpt lat="49.30147" lon="1.37454">
        <ele>143</ele>
        <time>2010-03-28T07:27:15Z</time>
      </trkpt>
      <trkpt lat="49.30157" lon="1.37454">
        <ele>143</ele>
        <time>2010-03-28T07:27:18Z</time>
      </trkpt>
      <trkpt lat="49.30167" lon="1.37455">
        <ele>143</ele>
        <time>2010-03-28T07:27:21Z</time>
      </trkpt>
      <trkpt lat="49.30177" lon="1.37455">
        <ele>143</ele>
        <time>2010-03-28T07:27:24Z</time>
      </trkpt>
      <trkpt lat="49.30186" lon="1.37455">
        <ele>143</ele>
        <time>2010-03-28T07:27:27Z</time>
      </trkpt>
      <trkpt lat="49.30197" lon="1.37456">
        <ele>143</ele>
        <time>2010-03-28T07:27:30Z</time>
      </trkpt>
      <trkpt lat="49.30208" lon="1.37456">
        <ele>143</ele>
        <time>2010-03-28T07:27:33Z</time>
      </trkpt>
      <trkpt lat="49.30219" lon="1.37456">
        <ele>143</ele>
        <time>2010-03-28T07:27:36Z</time>
      </trkpt>
      <trkpt lat="49.30228" lon="1.37462">
        <ele>143</ele>
        <time>2010-03-28T07:27:39Z</time>
      </trkpt>
      <trkpt lat="49.30231" lon="1.37478">
        <ele>143</ele>
        <time>2010-03-28T07:27:42Z</time>
      </trkpt>
      <trkpt lat="49.30233" lon="1.37493">
        <ele>143</ele>
        <time>2010-03-28T07:27:44Z</time>
      </trkpt>
      <trkpt lat="49.30234" lon="1.37507">
        <ele>143</ele>
        <time>2010-03-28T07:27:46Z</time>
      </trkpt>
      <trkpt lat="49.30236" lon="1.37527">
        <ele>143</ele>
        <time>2010-03-28T07:27:49Z</time>
      </trkpt>
      <trkpt lat="49.30237" lon="1.37546">
        <ele>143</ele>
        <time>2010-03-28T07:27:52Z</time>
      </trkpt>
      <trkpt lat="49.30239" lon="1.37566">
        <ele>143</ele>
        <time>2010-03-28T07:27:55Z</time>
      </trkpt>
      <trkpt lat="49.30241" lon="1.37583">
        <ele>143</ele>
        <time>2010-03-28T07:27:58Z</time>
      </trkpt>
      <trkpt lat="49.30243" lon="1.37602">
        <ele>143</ele>
        <time>2010-03-28T07:28:01Z</time>
      </trkpt>
      <trkpt lat="49.30244" lon="1.3762">
        <ele>143</ele>
        <time>2010-03-28T07:28:04Z</time>
      </trkpt>
      <trkpt lat="49.30246" lon="1.37638">
        <ele>150</ele>
        <time>2010-03-28T07:28:07Z</time>
      </trkpt>
      <trkpt lat="49.3025" lon="1.37655">
        <ele>150</ele>
        <time>2010-03-28T07:28:10Z</time>
      </trkpt>
      <trkpt lat="49.30253" lon="1.37673">
        <ele>150</ele>
        <time>2010-03-28T07:28:13Z</time>
      </trkpt>
      <trkpt lat="49.30258" lon="1.37691">
        <ele>150</ele>
        <time>2010-03-28T07:28:16Z</time>
      </trkpt>
      <trkpt lat="49.30263" lon="1.37709">
        <ele>150</ele>
        <time>2010-03-28T07:28:19Z</time>
      </trkpt>
      <trkpt lat="49.30267" lon="1.37722">
        <ele>150</ele>
        <time>2010-03-28T07:28:21Z</time>
      </trkpt>
      <trkpt lat="49.30273" lon="1.3774">
        <ele>150</ele>
        <time>2010-03-28T07:28:24Z</time>
      </trkpt>
      <trkpt lat="49.30277" lon="1.37753">
        <ele>150</ele>
        <time>2010-03-28T07:28:26Z</time>
      </trkpt>
      <trkpt lat="49.30281" lon="1.37767">
        <ele>150</ele>
        <time>2010-03-28T07:28:28Z</time>
      </trkpt>
      <trkpt lat="49.30285" lon="1.3778">
        <ele>150</ele>
        <time>2010-03-28T07:28:30Z</time>
      </trkpt>
      <trkpt lat="49.3029" lon="1.37794">
        <ele>150</ele>
        <time>2010-03-28T07:28:32Z</time>
      </trkpt>
      <trkpt lat="49.30295" lon="1.3781">
        <ele>150</ele>
        <time>2010-03-28T07:28:34Z</time>
      </trkpt>
      <trkpt lat="49.303" lon="1.37823">
        <ele>150</ele>
        <time>2010-03-28T07:28:36Z</time>
      </trkpt>
      <trkpt lat="49.30304" lon="1.37838">
        <ele>150</ele>
        <time>2010-03-28T07:28:38Z</time>
      </trkpt>
      <trkpt lat="49.30309" lon="1.37853">
        <ele>150</ele>
        <time>2010-03-28T07:28:40Z</time>
      </trkpt>
      <trkpt lat="49.30314" lon="1.37867">
        <ele>150</ele>
        <time>2010-03-28T07:28:42Z</time>
      </trkpt>
      <trkpt lat="49.3032" lon="1.3788">
        <ele>150</ele>
        <time>2010-03-28T07:28:44Z</time>
      </trkpt>
      <trkpt lat="49.30329" lon="1.3789">
        <ele>150</ele>
        <time>2010-03-28T07:28:46Z</time>
      </trkpt>
      <trkpt lat="49.30339" lon="1.37895">
        <ele>150</ele>
        <time>2010-03-28T07:28:48Z</time>
      </trkpt>
      <trkpt lat="49.30349" lon="1.37896">
        <ele>150</ele>
        <time>2010-03-28T07:28:50Z</time>
      </trkpt>
      <trkpt lat="49.30359" lon="1.37898">
        <ele>150</ele>
        <time>2010-03-28T07:28:52Z</time>
      </trkpt>
      <trkpt lat="49.30369" lon="1.37899">
        <ele>150</ele>
        <time>2010-03-28T07:28:54Z</time>
      </trkpt>
      <trkpt lat="49.30378" lon="1.37899">
        <ele>150</ele>
        <time>2010-03-28T07:28:56Z</time>
      </trkpt>
      <trkpt lat="49.30391" lon="1.379">
        <ele>150</ele>
        <time>2010-03-28T07:28:59Z</time>
      </trkpt>
      <trkpt lat="49.30403" lon="1.37898">
        <ele>150</ele>
        <time>2010-03-28T07:29:02Z</time>
      </trkpt>
      <trkpt lat="49.30415" lon="1.37888">
        <ele>150</ele>
        <time>2010-03-28T07:29:05Z</time>
      </trkpt>
      <trkpt lat="49.30423" lon="1.37873">
        <ele>150</ele>
        <time>2010-03-28T07:29:08Z</time>
      </trkpt>
      <trkpt lat="49.30429" lon="1.37857">
        <ele>150</ele>
        <time>2010-03-28T07:29:11Z</time>
      </trkpt>
      <trkpt lat="49.30434" lon="1.3784">
        <ele>150</ele>
        <time>2010-03-28T07:29:14Z</time>
      </trkpt>
      <trkpt lat="49.30439" lon="1.37823">
        <ele>150</ele>
        <time>2010-03-28T07:29:17Z</time>
      </trkpt>
      <trkpt lat="49.30444" lon="1.37804">
        <ele>150</ele>
        <time>2010-03-28T07:29:20Z</time>
      </trkpt>
      <trkpt lat="49.3045" lon="1.37786">
        <ele>150</ele>
        <time>2010-03-28T07:29:23Z</time>
      </trkpt>
      <trkpt lat="49.30455" lon="1.37767">
        <ele>150</ele>
        <time>2010-03-28T07:29:26Z</time>
      </trkpt>
      <trkpt lat="49.30461" lon="1.37749">
        <ele>150</ele>
        <time>2010-03-28T07:29:29Z</time>
      </trkpt>
      <trkpt lat="49.30465" lon="1.37732">
        <ele>150</ele>
        <time>2010-03-28T07:29:32Z</time>
      </trkpt>
      <trkpt lat="49.3047" lon="1.37714">
        <ele>150</ele>
        <time>2010-03-28T07:29:35Z</time>
      </trkpt>
      <trkpt lat="49.30475" lon="1.37696">
        <ele>150</ele>
        <time>2010-03-28T07:29:38Z</time>
      </trkpt>
      <trkpt lat="49.3048" lon="1.37678">
        <ele>150</ele>
        <time>2010-03-28T07:29:41Z</time>
      </trkpt>
      <trkpt lat="49.30485" lon="1.37659">
        <ele>150</ele>
        <time>2010-03-28T07:29:44Z</time>
      </trkpt>
      <trkpt lat="49.30489" lon="1.37646">
        <ele>150</ele>
        <time>2010-03-28T07:29:46Z</time>
      </trkpt>
      <trkpt lat="49.30493" lon="1.37634">
        <ele>150</ele>
        <time>2010-03-28T07:29:48Z</time>
      </trkpt>
      <trkpt lat="49.30498" lon="1.37616">
        <ele>150</ele>
        <time>2010-03-28T07:29:51Z</time>
      </trkpt>
      <trkpt lat="49.30505" lon="1.37598">
        <ele>150</ele>
        <time>2010-03-28T07:29:54Z</time>
      </trkpt>
      <trkpt lat="49.3051" lon="1.3758">
        <ele>150</ele>
        <time>2010-03-28T07:29:57Z</time>
      </trkpt>
      <trkpt lat="49.30516" lon="1.37568">
        <ele>150</ele>
        <time>2010-03-28T07:29:59Z</time>
      </trkpt>
      <trkpt lat="49.30525" lon="1.37553">
        <ele>150</ele>
        <time>2010-03-28T07:30:02Z</time>
      </trkpt>
      <trkpt lat="49.30532" lon="1.37544">
        <ele>150</ele>
        <time>2010-03-28T07:30:04Z</time>
      </trkpt>
      <trkpt lat="49.30541" lon="1.37537">
        <ele>150</ele>
        <time>2010-03-28T07:30:06Z</time>
      </trkpt>
      <trkpt lat="49.3055" lon="1.37531">
        <ele>150</ele>
        <time>2010-03-28T07:30:08Z</time>
      </trkpt>
      <trkpt lat="49.30559" lon="1.37527">
        <ele>150</ele>
        <time>2010-03-28T07:30:10Z</time>
      </trkpt>
      <trkpt lat="49.30568" lon="1.37522">
        <ele>150</ele>
        <time>2010-03-28T07:30:12Z</time>
      </trkpt>
      <trkpt lat="49.30577" lon="1.37518">
        <ele>150</ele>
        <time>2010-03-28T07:30:14Z</time>
      </trkpt>
      <trkpt lat="49.30586" lon="1.37514">
        <ele>150</ele>
        <time>2010-03-28T07:30:16Z</time>
      </trkpt>
      <trkpt lat="49.30596" lon="1.3751">
        <ele>150</ele>
        <time>2010-03-28T07:30:18Z</time>
      </trkpt>
      <trkpt lat="49.30605" lon="1.37506">
        <ele>150</ele>
        <time>2010-03-28T07:30:20Z</time>
      </trkpt>
      <trkpt lat="49.30614" lon="1.37502">
        <ele>150</ele>
        <time>2010-03-28T07:30:22Z</time>
      </trkpt>
      <trkpt lat="49.30623" lon="1.37499">
        <ele>150</ele>
        <time>2010-03-28T07:30:24Z</time>
      </trkpt>
      <trkpt lat="49.30632" lon="1.37495">
        <ele>150</ele>
        <time>2010-03-28T07:30:26Z</time>
      </trkpt>
      <trkpt lat="49.30641" lon="1.37493">
        <ele>150</ele>
        <time>2010-03-28T07:30:28Z</time>
      </trkpt>
      <trkpt lat="49.30651" lon="1.37489">
        <ele>150</ele>
        <time>2010-03-28T07:30:30Z</time>
      </trkpt>
      <trkpt lat="49.3066" lon="1.37486">
        <ele>150</ele>
        <time>2010-03-28T07:30:32Z</time>
      </trkpt>
      <trkpt lat="49.3067" lon="1.37483">
        <ele>150</ele>
        <time>2010-03-28T07:30:34Z</time>
      </trkpt>
      <trkpt lat="49.30679" lon="1.3748">
        <ele>150</ele>
        <time>2010-03-28T07:30:36Z</time>
      </trkpt>
      <trkpt lat="49.30688" lon="1.37477">
        <ele>150</ele>
        <time>2010-03-28T07:30:38Z</time>
      </trkpt>
      <trkpt lat="49.30702" lon="1.37473">
        <ele>150</ele>
        <time>2010-03-28T07:30:41Z</time>
      </trkpt>
      <trkpt lat="49.30715" lon="1.37468">
        <ele>150</ele>
        <time>2010-03-28T07:30:44Z</time>
      </trkpt>
      <trkpt lat="49.30728" lon="1.37464">
        <ele>150</ele>
        <time>2010-03-28T07:30:47Z</time>
      </trkpt>
      <trkpt lat="49.30737" lon="1.3746">
        <ele>150</ele>
        <time>2010-03-28T07:30:49Z</time>
      </trkpt>
      <trkpt lat="49.30746" lon="1.37456">
        <ele>155</ele>
        <time>2010-03-28T07:30:51Z</time>
      </trkpt>
      <trkpt lat="49.30756" lon="1.37443">
        <ele>155</ele>
        <time>2010-03-28T07:30:54Z</time>
      </trkpt>
      <trkpt lat="49.30758" lon="1.37423">
        <ele>155</ele>
        <time>2010-03-28T07:30:57Z</time>
      </trkpt>
      <trkpt lat="49.30758" lon="1.37408">
        <ele>155</ele>
        <time>2010-03-28T07:30:59Z</time>
      </trkpt>
      <trkpt lat="49.30758" lon="1.37394">
        <ele>155</ele>
        <time>2010-03-28T07:31:01Z</time>
      </trkpt>
      <trkpt lat="49.30758" lon="1.37379">
        <ele>155</ele>
        <time>2010-03-28T07:31:03Z</time>
      </trkpt>
      <trkpt lat="49.30757" lon="1.37364">
        <ele>155</ele>
        <time>2010-03-28T07:31:05Z</time>
      </trkpt>
      <trkpt lat="49.30755" lon="1.37343">
        <ele>155</ele>
        <time>2010-03-28T07:31:08Z</time>
      </trkpt>
      <trkpt lat="49.30755" lon="1.37329">
        <ele>155</ele>
        <time>2010-03-28T07:31:10Z</time>
      </trkpt>
      <trkpt lat="49.30755" lon="1.37314">
        <ele>155</ele>
        <time>2010-03-28T07:31:12Z</time>
      </trkpt>
      <trkpt lat="49.30755" lon="1.37294">
        <ele>155</ele>
        <time>2010-03-28T07:31:15Z</time>
      </trkpt>
      <trkpt lat="49.30756" lon="1.37274">
        <ele>155</ele>
        <time>2010-03-28T07:31:18Z</time>
      </trkpt>
      <trkpt lat="49.30757" lon="1.37255">
        <ele>155</ele>
        <time>2010-03-28T07:31:21Z</time>
      </trkpt>
      <trkpt lat="49.30757" lon="1.37237">
        <ele>155</ele>
        <time>2010-03-28T07:31:24Z</time>
      </trkpt>
      <trkpt lat="49.30758" lon="1.37219">
        <ele>155</ele>
        <time>2010-03-28T07:31:27Z</time>
      </trkpt>
      <trkpt lat="49.30758" lon="1.37201">
        <ele>155</ele>
        <time>2010-03-28T07:31:30Z</time>
      </trkpt>
      <trkpt lat="49.30759" lon="1.37183">
        <ele>155</ele>
        <time>2010-03-28T07:31:33Z</time>
      </trkpt>
      <trkpt lat="49.30759" lon="1.37165">
        <ele>155</ele>
        <time>2010-03-28T07:31:36Z</time>
      </trkpt>
      <trkpt lat="49.3076" lon="1.37146">
        <ele>155</ele>
        <time>2010-03-28T07:31:39Z</time>
      </trkpt>
      <trkpt lat="49.30761" lon="1.37126">
        <ele>155</ele>
        <time>2010-03-28T07:31:42Z</time>
      </trkpt>
      <trkpt lat="49.30761" lon="1.37107">
        <ele>155</ele>
        <time>2010-03-28T07:31:45Z</time>
      </trkpt>
      <trkpt lat="49.30761" lon="1.37088">
        <ele>155</ele>
        <time>2010-03-28T07:31:48Z</time>
      </trkpt>
      <trkpt lat="49.30761" lon="1.37069">
        <ele>155</ele>
        <time>2010-03-28T07:31:51Z</time>
      </trkpt>
      <trkpt lat="49.30761" lon="1.37052">
        <ele>155</ele>
        <time>2010-03-28T07:31:54Z</time>
      </trkpt>
      <trkpt lat="49.30762" lon="1.37032">
        <ele>155</ele>
        <time>2010-03-28T07:31:57Z</time>
      </trkpt>
      <trkpt lat="49.30763" lon="1.37012">
        <ele>155</ele>
        <time>2010-03-28T07:32:00Z</time>
      </trkpt>
      <trkpt lat="49.30764" lon="1.36998">
        <ele>155</ele>
        <time>2010-03-28T07:32:02Z</time>
      </trkpt>
      <trkpt lat="49.30765" lon="1.36978">
        <ele>155</ele>
        <time>2010-03-28T07:32:05Z</time>
      </trkpt>
      <trkpt lat="49.30765" lon="1.36958">
        <ele>155</ele>
        <time>2010-03-28T07:32:08Z</time>
      </trkpt>
      <trkpt lat="49.30766" lon="1.36939">
        <ele>155</ele>
        <time>2010-03-28T07:32:11Z</time>
      </trkpt>
      <trkpt lat="49.30766" lon="1.36921">
        <ele>155</ele>
        <time>2010-03-28T07:32:14Z</time>
      </trkpt>
      <trkpt lat="49.30767" lon="1.36903">
        <ele>155</ele>
        <time>2010-03-28T07:32:17Z</time>
      </trkpt>
      <trkpt lat="49.30767" lon="1.36886">
        <ele>155</ele>
        <time>2010-03-28T07:32:20Z</time>
      </trkpt>
      <trkpt lat="49.30768" lon="1.36869">
        <ele>155</ele>
        <time>2010-03-28T07:32:23Z</time>
      </trkpt>
      <trkpt lat="49.30768" lon="1.36851">
        <ele>155</ele>
        <time>2010-03-28T07:32:26Z</time>
      </trkpt>
      <trkpt lat="49.30769" lon="1.36834">
        <ele>155</ele>
        <time>2010-03-28T07:32:29Z</time>
      </trkpt>
      <trkpt lat="49.3077" lon="1.36817">
        <ele>155</ele>
        <time>2010-03-28T07:32:32Z</time>
      </trkpt>
      <trkpt lat="49.30771" lon="1.36803">
        <ele>155</ele>
        <time>2010-03-28T07:32:35Z</time>
      </trkpt>
      <trkpt lat="49.30781" lon="1.36797">
        <ele>155</ele>
        <time>2010-03-28T07:32:40Z</time>
      </trkpt>
      <trkpt lat="49.30792" lon="1.36806">
        <ele>155</ele>
        <time>2010-03-28T07:32:44Z</time>
      </trkpt>
      <trkpt lat="49.30803" lon="1.36813">
        <ele>155</ele>
        <time>2010-03-28T07:32:48Z</time>
      </trkpt>
      <trkpt lat="49.30812" lon="1.36818">
        <ele>155</ele>
        <time>2010-03-28T07:32:51Z</time>
      </trkpt>
      <trkpt lat="49.30821" lon="1.36823">
        <ele>155</ele>
        <time>2010-03-28T07:32:54Z</time>
      </trkpt>
      <trkpt lat="49.30832" lon="1.36829">
        <ele>155</ele>
        <time>2010-03-28T07:32:57Z</time>
      </trkpt>
      <trkpt lat="49.30842" lon="1.36834">
        <ele>155</ele>
        <time>2010-03-28T07:33:00Z</time>
      </trkpt>
      <trkpt lat="49.30854" lon="1.36841">
        <ele>155</ele>
        <time>2010-03-28T07:33:03Z</time>
      </trkpt>
      <trkpt lat="49.30864" lon="1.36846">
        <ele>155</ele>
        <time>2010-03-28T07:33:05Z</time>
      </trkpt>
      <trkpt lat="49.30876" lon="1.36853">
        <ele>155</ele>
        <time>2010-03-28T07:33:08Z</time>
      </trkpt>
      <trkpt lat="49.30885" lon="1.36858">
        <ele>155</ele>
        <time>2010-03-28T07:33:10Z</time>
      </trkpt>
      <trkpt lat="49.30898" lon="1.36865">
        <ele>150</ele>
        <time>2010-03-28T07:33:13Z</time>
      </trkpt>
      <trkpt lat="49.30911" lon="1.36872">
        <ele>150</ele>
        <time>2010-03-28T07:33:16Z</time>
      </trkpt>
      <trkpt lat="49.3092" lon="1.36876">
        <ele>150</ele>
        <time>2010-03-28T07:33:18Z</time>
      </trkpt>
      <trkpt lat="49.30932" lon="1.36884">
        <ele>150</ele>
        <time>2010-03-28T07:33:21Z</time>
      </trkpt>
      <trkpt lat="49.30945" lon="1.3689">
        <ele>150</ele>
        <time>2010-03-28T07:33:24Z</time>
      </trkpt>
      <trkpt lat="49.30958" lon="1.36897">
        <ele>150</ele>
        <time>2010-03-28T07:33:27Z</time>
      </trkpt>
      <trkpt lat="49.30967" lon="1.36902">
        <ele>150</ele>
        <time>2010-03-28T07:33:29Z</time>
      </trkpt>
      <trkpt lat="49.30976" lon="1.36906">
        <ele>150</ele>
        <time>2010-03-28T07:33:31Z</time>
      </trkpt>
      <trkpt lat="49.30985" lon="1.36911">
        <ele>150</ele>
        <time>2010-03-28T07:33:33Z</time>
      </trkpt>
      <trkpt lat="49.30994" lon="1.36917">
        <ele>150</ele>
        <time>2010-03-28T07:33:35Z</time>
      </trkpt>
      <trkpt lat="49.31004" lon="1.36922">
        <ele>150</ele>
        <time>2010-03-28T07:33:37Z</time>
      </trkpt>
      <trkpt lat="49.31014" lon="1.36928">
        <ele>150</ele>
        <time>2010-03-28T07:33:39Z</time>
      </trkpt>
      <trkpt lat="49.31024" lon="1.36933">
        <ele>150</ele>
        <time>2010-03-28T07:33:41Z</time>
      </trkpt>
      <trkpt lat="49.31033" lon="1.36938">
        <ele>150</ele>
        <time>2010-03-28T07:33:43Z</time>
      </trkpt>
      <trkpt lat="49.31043" lon="1.36944">
        <ele>150</ele>
        <time>2010-03-28T07:33:45Z</time>
      </trkpt>
      <trkpt lat="49.31053" lon="1.36948">
        <ele>150</ele>
        <time>2010-03-28T07:33:47Z</time>
      </trkpt>
      <trkpt lat="49.31064" lon="1.36951">
        <ele>150</ele>
        <time>2010-03-28T07:33:49Z</time>
      </trkpt>
      <trkpt lat="49.31074" lon="1.36951">
        <ele>150</ele>
        <time>2010-03-28T07:33:51Z</time>
      </trkpt>
      <trkpt lat="49.31084" lon="1.36948">
        <ele>150</ele>
        <time>2010-03-28T07:33:53Z</time>
      </trkpt>
      <trkpt lat="49.31093" lon="1.36944">
        <ele>150</ele>
        <time>2010-03-28T07:33:55Z</time>
      </trkpt>
      <trkpt lat="49.31102" lon="1.36938">
        <ele>150</ele>
        <time>2010-03-28T07:33:57Z</time>
      </trkpt>
      <trkpt lat="49.31114" lon="1.36929">
        <ele>150</ele>
        <time>2010-03-28T07:34:00Z</time>
      </trkpt>
      <trkpt lat="49.31123" lon="1.36924">
        <ele>150</ele>
        <time>2010-03-28T07:34:02Z</time>
      </trkpt>
      <trkpt lat="49.31132" lon="1.3692">
        <ele>150</ele>
        <time>2010-03-28T07:34:04Z</time>
      </trkpt>
      <trkpt lat="49.31144" lon="1.36919">
        <ele>150</ele>
        <time>2010-03-28T07:34:07Z</time>
      </trkpt>
      <trkpt lat="49.31153" lon="1.36912">
        <ele>150</ele>
        <time>2010-03-28T07:34:11Z</time>
      </trkpt>
      <trkpt lat="49.31157" lon="1.36899">
        <ele>150</ele>
        <time>2010-03-28T07:34:49Z</time>
      </trkpt>
      <trkpt lat="49.31162" lon="1.36887">
        <ele>150</ele>
        <time>2010-03-28T07:34:53Z</time>
      </trkpt>
      <trkpt lat="49.31169" lon="1.36875">
        <ele>150</ele>
        <time>2010-03-28T07:34:57Z</time>
      </trkpt>
      <trkpt lat="49.31175" lon="1.36865">
        <ele>150</ele>
        <time>2010-03-28T07:35:01Z</time>
      </trkpt>
      <trkpt lat="49.31181" lon="1.36854">
        <ele>150</ele>
        <time>2010-03-28T07:35:05Z</time>
      </trkpt>
      <trkpt lat="49.31188" lon="1.36842">
        <ele>150</ele>
        <time>2010-03-28T07:35:09Z</time>
      </trkpt>
      <trkpt lat="49.31195" lon="1.3683">
        <ele>150</ele>
        <time>2010-03-28T07:35:13Z</time>
      </trkpt>
      <trkpt lat="49.31202" lon="1.36816">
        <ele>150</ele>
        <time>2010-03-28T07:35:17Z</time>
      </trkpt>
      <trkpt lat="49.31208" lon="1.36804">
        <ele>150</ele>
        <time>2010-03-28T07:35:20Z</time>
      </trkpt>
      <trkpt lat="49.31214" lon="1.36791">
        <ele>150</ele>
        <time>2010-03-28T07:35:23Z</time>
      </trkpt>
      <trkpt lat="49.31221" lon="1.36776">
        <ele>150</ele>
        <time>2010-03-28T07:35:27Z</time>
      </trkpt>
      <trkpt lat="49.31227" lon="1.3676">
        <ele>150</ele>
        <time>2010-03-28T07:35:31Z</time>
      </trkpt>
      <trkpt lat="49.31232" lon="1.36748">
        <ele>150</ele>
        <time>2010-03-28T07:35:34Z</time>
      </trkpt>
      <trkpt lat="49.31238" lon="1.36735">
        <ele>150</ele>
        <time>2010-03-28T07:35:37Z</time>
      </trkpt>
      <trkpt lat="49.31244" lon="1.36722">
        <ele>150</ele>
        <time>2010-03-28T07:35:40Z</time>
      </trkpt>
      <trkpt lat="49.31249" lon="1.36708">
        <ele>150</ele>
        <time>2010-03-28T07:35:43Z</time>
      </trkpt>
      <trkpt lat="49.31255" lon="1.36695">
        <ele>150</ele>
        <time>2010-03-28T07:35:46Z</time>
      </trkpt>
      <trkpt lat="49.31261" lon="1.36681">
        <ele>150</ele>
        <time>2010-03-28T07:35:49Z</time>
      </trkpt>
      <trkpt lat="49.31267" lon="1.36667">
        <ele>150</ele>
        <time>2010-03-28T07:35:52Z</time>
      </trkpt>
      <trkpt lat="49.31273" lon="1.36653">
        <ele>150</ele>
        <time>2010-03-28T07:35:55Z</time>
      </trkpt>
      <trkpt lat="49.31279" lon="1.36637">
        <ele>150</ele>
        <time>2010-03-28T07:35:58Z</time>
      </trkpt>
      <trkpt lat="49.31284" lon="1.36623">
        <ele>150</ele>
        <time>2010-03-28T07:36:01Z</time>
      </trkpt>
      <trkpt lat="49.3129" lon="1.3661">
        <ele>150</ele>
        <time>2010-03-28T07:36:04Z</time>
      </trkpt>
      <trkpt lat="49.31298" lon="1.36596">
        <ele>150</ele>
        <time>2010-03-28T07:36:07Z</time>
      </trkpt>
      <trkpt lat="49.31304" lon="1.36583">
        <ele>150</ele>
        <time>2010-03-28T07:36:10Z</time>
      </trkpt>
      <trkpt lat="49.3131" lon="1.36571">
        <ele>150</ele>
        <time>2010-03-28T07:36:13Z</time>
      </trkpt>
      <trkpt lat="49.31316" lon="1.36558">
        <ele>150</ele>
        <time>2010-03-28T07:36:16Z</time>
      </trkpt>
      <trkpt lat="49.31322" lon="1.36546">
        <ele>150</ele>
        <time>2010-03-28T07:36:19Z</time>
      </trkpt>
      <trkpt lat="49.31329" lon="1.36533">
        <ele>150</ele>
        <time>2010-03-28T07:36:22Z</time>
      </trkpt>
      <trkpt lat="49.31336" lon="1.36521">
        <ele>150</ele>
        <time>2010-03-28T07:36:25Z</time>
      </trkpt>
      <trkpt lat="49.31342" lon="1.36509">
        <ele>150</ele>
        <time>2010-03-28T07:36:28Z</time>
      </trkpt>
      <trkpt lat="49.31348" lon="1.36498">
        <ele>150</ele>
        <time>2010-03-28T07:36:31Z</time>
      </trkpt>
      <trkpt lat="49.31355" lon="1.36486">
        <ele>150</ele>
        <time>2010-03-28T07:36:34Z</time>
      </trkpt>
      <trkpt lat="49.31363" lon="1.36473">
        <ele>150</ele>
        <time>2010-03-28T07:36:37Z</time>
      </trkpt>
      <trkpt lat="49.31372" lon="1.36459">
        <ele>150</ele>
        <time>2010-03-28T07:36:40Z</time>
      </trkpt>
      <trkpt lat="49.3138" lon="1.36445">
        <ele>150</ele>
        <time>2010-03-28T07:36:43Z</time>
      </trkpt>
      <trkpt lat="49.31388" lon="1.3643">
        <ele>150</ele>
        <time>2010-03-28T07:36:46Z</time>
      </trkpt>
      <trkpt lat="49.31394" lon="1.36414">
        <ele>150</ele>
        <time>2010-03-28T07:36:49Z</time>
      </trkpt>
      <trkpt lat="49.31399" lon="1.36396">
        <ele>150</ele>
        <time>2010-03-28T07:36:52Z</time>
      </trkpt>
      <trkpt lat="49.31402" lon="1.36376">
        <ele>150</ele>
        <time>2010-03-28T07:36:55Z</time>
      </trkpt>
      <trkpt lat="49.31406" lon="1.36357">
        <ele>150</ele>
        <time>2010-03-28T07:36:58Z</time>
      </trkpt>
      <trkpt lat="49.31409" lon="1.36339">
        <ele>150</ele>
        <time>2010-03-28T07:37:01Z</time>
      </trkpt>
      <trkpt lat="49.31413" lon="1.36323">
        <ele>150</ele>
        <time>2010-03-28T07:37:04Z</time>
      </trkpt>
      <trkpt lat="49.31417" lon="1.36307">
        <ele>150</ele>
        <time>2010-03-28T07:37:07Z</time>
      </trkpt>
      <trkpt lat="49.3142" lon="1.36291">
        <ele>150</ele>
        <time>2010-03-28T07:37:10Z</time>
      </trkpt>
      <trkpt lat="49.31423" lon="1.36274">
        <ele>150</ele>
        <time>2010-03-28T07:37:13Z</time>
      </trkpt>
      <trkpt lat="49.31426" lon="1.36257">
        <ele>150</ele>
        <time>2010-03-28T07:37:16Z</time>
      </trkpt>
      <trkpt lat="49.3143" lon="1.36239">
        <ele>150</ele>
        <time>2010-03-28T07:37:19Z</time>
      </trkpt>
      <trkpt lat="49.31432" lon="1.36226">
        <ele>150</ele>
        <time>2010-03-28T07:37:21Z</time>
      </trkpt>
      <trkpt lat="49.31436" lon="1.36207">
        <ele>150</ele>
        <time>2010-03-28T07:37:24Z</time>
      </trkpt>
      <trkpt lat="49.3144" lon="1.36189">
        <ele>150</ele>
        <time>2010-03-28T07:37:27Z</time>
      </trkpt>
      <trkpt lat="49.31444" lon="1.3617">
        <ele>150</ele>
        <time>2010-03-28T07:37:30Z</time>
      </trkpt>
      <trkpt lat="49.31447" lon="1.36153">
        <ele>150</ele>
        <time>2010-03-28T07:37:33Z</time>
      </trkpt>
      <trkpt lat="49.31451" lon="1.36136">
        <ele>150</ele>
        <time>2010-03-28T07:37:36Z</time>
      </trkpt>
      <trkpt lat="49.31454" lon="1.36119">
        <ele>150</ele>
        <time>2010-03-28T07:37:39Z</time>
      </trkpt>
      <trkpt lat="49.31458" lon="1.36104">
        <ele>150</ele>
        <time>2010-03-28T07:37:42Z</time>
      </trkpt>
      <trkpt lat="49.31461" lon="1.36087">
        <ele>150</ele>
        <time>2010-03-28T07:37:45Z</time>
      </trkpt>
      <trkpt lat="49.31464" lon="1.36071">
        <ele>150</ele>
        <time>2010-03-28T07:37:48Z</time>
      </trkpt>
      <trkpt lat="49.31468" lon="1.36053">
        <ele>150</ele>
        <time>2010-03-28T07:37:51Z</time>
      </trkpt>
      <trkpt lat="49.31471" lon="1.36037">
        <ele>150</ele>
        <time>2010-03-28T07:37:54Z</time>
      </trkpt>
      <trkpt lat="49.31474" lon="1.36021">
        <ele>150</ele>
        <time>2010-03-28T07:37:57Z</time>
      </trkpt>
      <trkpt lat="49.31478" lon="1.36005">
        <ele>150</ele>
        <time>2010-03-28T07:38:00Z</time>
      </trkpt>
      <trkpt lat="49.31481" lon="1.35988">
        <ele>150</ele>
        <time>2010-03-28T07:38:03Z</time>
      </trkpt>
      <trkpt lat="49.31484" lon="1.35971">
        <ele>150</ele>
        <time>2010-03-28T07:38:06Z</time>
      </trkpt>
      <trkpt lat="49.31488" lon="1.35953">
        <ele>150</ele>
        <time>2010-03-28T07:38:09Z</time>
      </trkpt>
      <trkpt lat="49.31491" lon="1.35939">
        <ele>150</ele>
        <time>2010-03-28T07:38:11Z</time>
      </trkpt>
      <trkpt lat="49.31495" lon="1.35922">
        <ele>150</ele>
        <time>2010-03-28T07:38:14Z</time>
      </trkpt>
      <trkpt lat="49.31499" lon="1.35904">
        <ele>150</ele>
        <time>2010-03-28T07:38:17Z</time>
      </trkpt>
      <trkpt lat="49.31503" lon="1.35888">
        <ele>150</ele>
        <time>2010-03-28T07:38:20Z</time>
      </trkpt>
      <trkpt lat="49.31507" lon="1.35872">
        <ele>150</ele>
        <time>2010-03-28T07:38:23Z</time>
      </trkpt>
      <trkpt lat="49.3151" lon="1.35853">
        <ele>150</ele>
        <time>2010-03-28T07:38:26Z</time>
      </trkpt>
      <trkpt lat="49.31513" lon="1.3584">
        <ele>150</ele>
        <time>2010-03-28T07:38:28Z</time>
      </trkpt>
      <trkpt lat="49.31517" lon="1.35821">
        <ele>144</ele>
        <time>2010-03-28T07:38:31Z</time>
      </trkpt>
      <trkpt lat="49.3152" lon="1.35807">
        <ele>144</ele>
        <time>2010-03-28T07:38:34Z</time>
      </trkpt>
      <trkpt lat="49.31523" lon="1.35792">
        <ele>144</ele>
        <time>2010-03-28T07:38:37Z</time>
      </trkpt>
      <trkpt lat="49.31525" lon="1.35778">
        <ele>144</ele>
        <time>2010-03-28T07:38:40Z</time>
      </trkpt>
      <trkpt lat="49.31528" lon="1.35759">
        <ele>144</ele>
        <time>2010-03-28T07:38:44Z</time>
      </trkpt>
      <trkpt lat="49.3153" lon="1.35742">
        <ele>144</ele>
        <time>2010-03-28T07:38:48Z</time>
      </trkpt>
      <trkpt lat="49.31531" lon="1.35724">
        <ele>144</ele>
        <time>2010-03-28T07:38:52Z</time>
      </trkpt>
      <trkpt lat="49.31533" lon="1.35708">
        <ele>144</ele>
        <time>2010-03-28T07:38:55Z</time>
      </trkpt>
      <trkpt lat="49.31535" lon="1.35691">
        <ele>144</ele>
        <time>2010-03-28T07:38:58Z</time>
      </trkpt>
      <trkpt lat="49.31538" lon="1.35675">
        <ele>144</ele>
        <time>2010-03-28T07:39:01Z</time>
      </trkpt>
      <trkpt lat="49.31542" lon="1.3566">
        <ele>144</ele>
        <time>2010-03-28T07:39:04Z</time>
      </trkpt>
      <trkpt lat="49.31546" lon="1.35645">
        <ele>144</ele>
        <time>2010-03-28T07:39:07Z</time>
      </trkpt>
      <trkpt lat="49.31548" lon="1.3563">
        <ele>144</ele>
        <time>2010-03-28T07:39:10Z</time>
      </trkpt>
      <trkpt lat="49.31551" lon="1.35615">
        <ele>144</ele>
        <time>2010-03-28T07:39:13Z</time>
      </trkpt>
      <trkpt lat="49.31552" lon="1.356">
        <ele>144</ele>
        <time>2010-03-28T07:39:16Z</time>
      </trkpt>
      <trkpt lat="49.31555" lon="1.35583">
        <ele>144</ele>
        <time>2010-03-28T07:39:19Z</time>
      </trkpt>
      <trkpt lat="49.31557" lon="1.35564">
        <ele>144</ele>
        <time>2010-03-28T07:39:22Z</time>
      </trkpt>
      <trkpt lat="49.31558" lon="1.35547">
        <ele>144</ele>
        <time>2010-03-28T07:39:25Z</time>
      </trkpt>
      <trkpt lat="49.3156" lon="1.3553">
        <ele>144</ele>
        <time>2010-03-28T07:39:28Z</time>
      </trkpt>
      <trkpt lat="49.31562" lon="1.35515">
        <ele>144</ele>
        <time>2010-03-28T07:39:31Z</time>
      </trkpt>
      <trkpt lat="49.31564" lon="1.35501">
        <ele>144</ele>
        <time>2010-03-28T07:39:34Z</time>
      </trkpt>
      <trkpt lat="49.31565" lon="1.35487">
        <ele>144</ele>
        <time>2010-03-28T07:39:37Z</time>
      </trkpt>
      <trkpt lat="49.31567" lon="1.35471">
        <ele>144</ele>
        <time>2010-03-28T07:39:40Z</time>
      </trkpt>
      <trkpt lat="49.31568" lon="1.35457">
        <ele>144</ele>
        <time>2010-03-28T07:39:43Z</time>
      </trkpt>
      <trkpt lat="49.31569" lon="1.35443">
        <ele>144</ele>
        <time>2010-03-28T07:39:46Z</time>
      </trkpt>
      <trkpt lat="49.31571" lon="1.35428">
        <ele>144</ele>
        <time>2010-03-28T07:39:49Z</time>
      </trkpt>
      <trkpt lat="49.31573" lon="1.35412">
        <ele>144</ele>
        <time>2010-03-28T07:39:52Z</time>
      </trkpt>
      <trkpt lat="49.31575" lon="1.35398">
        <ele>144</ele>
        <time>2010-03-28T07:39:55Z</time>
      </trkpt>
      <trkpt lat="49.31577" lon="1.35379">
        <ele>144</ele>
        <time>2010-03-28T07:39:59Z</time>
      </trkpt>
      <trkpt lat="49.31579" lon="1.35364">
        <ele>144</ele>
        <time>2010-03-28T07:40:02Z</time>
      </trkpt>
      <trkpt lat="49.31581" lon="1.35349">
        <ele>144</ele>
        <time>2010-03-28T07:40:05Z</time>
      </trkpt>
      <trkpt lat="49.31584" lon="1.35333">
        <ele>144</ele>
        <time>2010-03-28T07:40:08Z</time>
      </trkpt>
      <trkpt lat="49.31586" lon="1.35316">
        <ele>144</ele>
        <time>2010-03-28T07:40:11Z</time>
      </trkpt>
      <trkpt lat="49.31589" lon="1.35298">
        <ele>144</ele>
        <time>2010-03-28T07:40:14Z</time>
      </trkpt>
      <trkpt lat="49.31592" lon="1.35283">
        <ele>144</ele>
        <time>2010-03-28T07:40:17Z</time>
      </trkpt>
      <trkpt lat="49.31594" lon="1.35266">
        <ele>144</ele>
        <time>2010-03-28T07:40:21Z</time>
      </trkpt>
      <trkpt lat="49.31597" lon="1.3525">
        <ele>144</ele>
        <time>2010-03-28T07:40:25Z</time>
      </trkpt>
      <trkpt lat="49.31599" lon="1.35236">
        <ele>144</ele>
        <time>2010-03-28T07:40:30Z</time>
      </trkpt>
      <trkpt lat="49.31601" lon="1.35222">
        <ele>144</ele>
        <time>2010-03-28T07:40:36Z</time>
      </trkpt>
      <trkpt lat="49.31603" lon="1.35206">
        <ele>144</ele>
        <time>2010-03-28T07:41:08Z</time>
      </trkpt>
      <trkpt lat="49.31605" lon="1.35188">
        <ele>144</ele>
        <time>2010-03-28T07:41:13Z</time>
      </trkpt>
      <trkpt lat="49.31607" lon="1.35173">
        <ele>144</ele>
        <time>2010-03-28T07:41:17Z</time>
      </trkpt>
      <trkpt lat="49.3161" lon="1.35157">
        <ele>144</ele>
        <time>2010-03-28T07:41:21Z</time>
      </trkpt>
      <trkpt lat="49.31613" lon="1.35139">
        <ele>144</ele>
        <time>2010-03-28T07:41:25Z</time>
      </trkpt>
      <trkpt lat="49.31615" lon="1.35126">
        <ele>144</ele>
        <time>2010-03-28T07:41:28Z</time>
      </trkpt>
      <trkpt lat="49.31618" lon="1.35112">
        <ele>144</ele>
        <time>2010-03-28T07:41:31Z</time>
      </trkpt>
      <trkpt lat="49.31619" lon="1.35098">
        <ele>144</ele>
        <time>2010-03-28T07:41:34Z</time>
      </trkpt>
      <trkpt lat="49.31622" lon="1.35083">
        <ele>144</ele>
        <time>2010-03-28T07:41:37Z</time>
      </trkpt>
      <trkpt lat="49.31625" lon="1.35069">
        <ele>144</ele>
        <time>2010-03-28T07:41:40Z</time>
      </trkpt>
      <trkpt lat="49.31628" lon="1.35053">
        <ele>144</ele>
        <time>2010-03-28T07:41:43Z</time>
      </trkpt>
      <trkpt lat="49.3163" lon="1.35037">
        <ele>144</ele>
        <time>2010-03-28T07:41:46Z</time>
      </trkpt>
      <trkpt lat="49.31633" lon="1.35021">
        <ele>144</ele>
        <time>2010-03-28T07:41:49Z</time>
      </trkpt>
      <trkpt lat="49.31637" lon="1.35004">
        <ele>144</ele>
        <time>2010-03-28T07:41:52Z</time>
      </trkpt>
      <trkpt lat="49.3164" lon="1.34987">
        <ele>144</ele>
        <time>2010-03-28T07:41:55Z</time>
      </trkpt>
      <trkpt lat="49.31644" lon="1.34968">
        <ele>144</ele>
        <time>2010-03-28T07:41:58Z</time>
      </trkpt>
      <trkpt lat="49.31648" lon="1.34949">
        <ele>144</ele>
        <time>2010-03-28T07:42:01Z</time>
      </trkpt>
      <trkpt lat="49.31651" lon="1.34936">
        <ele>144</ele>
        <time>2010-03-28T07:42:03Z</time>
      </trkpt>
      <trkpt lat="49.31656" lon="1.34917">
        <ele>139</ele>
        <time>2010-03-28T07:42:06Z</time>
      </trkpt>
      <trkpt lat="49.31661" lon="1.34899">
        <ele>139</ele>
        <time>2010-03-28T07:42:09Z</time>
      </trkpt>
      <trkpt lat="49.31665" lon="1.34886">
        <ele>139</ele>
        <time>2010-03-28T07:42:11Z</time>
      </trkpt>
      <trkpt lat="49.31669" lon="1.34868">
        <ele>139</ele>
        <time>2010-03-28T07:42:14Z</time>
      </trkpt>
      <trkpt lat="49.31673" lon="1.34849">
        <ele>139</ele>
        <time>2010-03-28T07:42:17Z</time>
      </trkpt>
      <trkpt lat="49.31677" lon="1.3483">
        <ele>139</ele>
        <time>2010-03-28T07:42:20Z</time>
      </trkpt>
      <trkpt lat="49.31679" lon="1.3481">
        <ele>139</ele>
        <time>2010-03-28T07:42:23Z</time>
      </trkpt>
      <trkpt lat="49.31682" lon="1.34797">
        <ele>139</ele>
        <time>2010-03-28T07:42:25Z</time>
      </trkpt>
      <trkpt lat="49.31683" lon="1.3478">
        <ele>139</ele>
        <time>2010-03-28T07:42:28Z</time>
      </trkpt>
      <trkpt lat="49.31685" lon="1.34759">
        <ele>139</ele>
        <time>2010-03-28T07:42:31Z</time>
      </trkpt>
      <trkpt lat="49.31685" lon="1.34745">
        <ele>139</ele>
        <time>2010-03-28T07:42:33Z</time>
      </trkpt>
      <trkpt lat="49.31686" lon="1.34729">
        <ele>139</ele>
        <time>2010-03-28T07:42:35Z</time>
      </trkpt>
      <trkpt lat="49.31686" lon="1.34712">
        <ele>139</ele>
        <time>2010-03-28T07:42:37Z</time>
      </trkpt>
      <trkpt lat="49.31686" lon="1.34692">
        <ele>134</ele>
        <time>2010-03-28T07:42:39Z</time>
      </trkpt>
      <trkpt lat="49.31686" lon="1.34669">
        <ele>134</ele>
        <time>2010-03-28T07:42:41Z</time>
      </trkpt>
      <trkpt lat="49.31688" lon="1.34645">
        <ele>134</ele>
        <time>2010-03-28T07:42:43Z</time>
      </trkpt>
      <trkpt lat="49.31688" lon="1.34619">
        <ele>134</ele>
        <time>2010-03-28T07:42:45Z</time>
      </trkpt>
      <trkpt lat="49.31691" lon="1.34592">
        <ele>134</ele>
        <time>2010-03-28T07:42:47Z</time>
      </trkpt>
      <trkpt lat="49.31695" lon="1.34567">
        <ele>128</ele>
        <time>2010-03-28T07:42:49Z</time>
      </trkpt>
      <trkpt lat="49.31699" lon="1.34543">
        <ele>128</ele>
        <time>2010-03-28T07:42:51Z</time>
      </trkpt>
      <trkpt lat="49.31702" lon="1.34521">
        <ele>128</ele>
        <time>2010-03-28T07:42:53Z</time>
      </trkpt>
      <trkpt lat="49.31707" lon="1.34499">
        <ele>128</ele>
        <time>2010-03-28T07:42:55Z</time>
      </trkpt>
      <trkpt lat="49.31711" lon="1.34478">
        <ele>128</ele>
        <time>2010-03-28T07:42:57Z</time>
      </trkpt>
      <trkpt lat="49.31714" lon="1.34457">
        <ele>128</ele>
        <time>2010-03-28T07:42:59Z</time>
      </trkpt>
      <trkpt lat="49.31716" lon="1.34437">
        <ele>128</ele>
        <time>2010-03-28T07:43:01Z</time>
      </trkpt>
      <trkpt lat="49.31717" lon="1.34419">
        <ele>128</ele>
        <time>2010-03-28T07:43:03Z</time>
      </trkpt>
      <trkpt lat="49.31716" lon="1.34401">
        <ele>128</ele>
        <time>2010-03-28T07:43:05Z</time>
      </trkpt>
      <trkpt lat="49.31714" lon="1.34387">
        <ele>133</ele>
        <time>2010-03-28T07:43:07Z</time>
      </trkpt>
      <trkpt lat="49.31712" lon="1.34374">
        <ele>133</ele>
        <time>2010-03-28T07:43:09Z</time>
      </trkpt>
      <trkpt lat="49.31707" lon="1.34355">
        <ele>133</ele>
        <time>2010-03-28T07:43:12Z</time>
      </trkpt>
      <trkpt lat="49.31702" lon="1.34337">
        <ele>133</ele>
        <time>2010-03-28T07:43:15Z</time>
      </trkpt>
      <trkpt lat="49.31697" lon="1.34321">
        <ele>138</ele>
        <time>2010-03-28T07:43:18Z</time>
      </trkpt>
      <trkpt lat="49.31693" lon="1.34303">
        <ele>138</ele>
        <time>2010-03-28T07:43:21Z</time>
      </trkpt>
      <trkpt lat="49.31688" lon="1.34284">
        <ele>138</ele>
        <time>2010-03-28T07:43:24Z</time>
      </trkpt>
      <trkpt lat="49.31683" lon="1.34264">
        <ele>138</ele>
        <time>2010-03-28T07:43:27Z</time>
      </trkpt>
      <trkpt lat="49.31678" lon="1.34244">
        <ele>138</ele>
        <time>2010-03-28T07:43:30Z</time>
      </trkpt>
      <trkpt lat="49.31673" lon="1.34225">
        <ele>144</ele>
        <time>2010-03-28T07:43:33Z</time>
      </trkpt>
      <trkpt lat="49.31668" lon="1.34206">
        <ele>144</ele>
        <time>2010-03-28T07:43:36Z</time>
      </trkpt>
      <trkpt lat="49.31663" lon="1.34188">
        <ele>144</ele>
        <time>2010-03-28T07:43:39Z</time>
      </trkpt>
      <trkpt lat="49.31658" lon="1.34169">
        <ele>144</ele>
        <time>2010-03-28T07:43:42Z</time>
      </trkpt>
      <trkpt lat="49.31653" lon="1.34151">
        <ele>144</ele>
        <time>2010-03-28T07:43:45Z</time>
      </trkpt>
      <trkpt lat="49.31649" lon="1.34133">
        <ele>144</ele>
        <time>2010-03-28T07:43:48Z</time>
      </trkpt>
      <trkpt lat="49.31644" lon="1.34114">
        <ele>144</ele>
        <time>2010-03-28T07:43:51Z</time>
      </trkpt>
      <trkpt lat="49.31639" lon="1.34095">
        <ele>144</ele>
        <time>2010-03-28T07:43:54Z</time>
      </trkpt>
      <trkpt lat="49.31634" lon="1.34077">
        <ele>144</ele>
        <time>2010-03-28T07:43:57Z</time>
      </trkpt>
      <trkpt lat="49.31629" lon="1.34059">
        <ele>144</ele>
        <time>2010-03-28T07:44:00Z</time>
      </trkpt>
      <trkpt lat="49.31625" lon="1.34041">
        <ele>144</ele>
        <time>2010-03-28T07:44:03Z</time>
      </trkpt>
      <trkpt lat="49.3162" lon="1.34022">
        <ele>144</ele>
        <time>2010-03-28T07:44:06Z</time>
      </trkpt>
      <trkpt lat="49.31615" lon="1.34004">
        <ele>144</ele>
        <time>2010-03-28T07:44:09Z</time>
      </trkpt>
      <trkpt lat="49.31611" lon="1.33987">
        <ele>144</ele>
        <time>2010-03-28T07:44:12Z</time>
      </trkpt>
      <trkpt lat="49.31606" lon="1.33969">
        <ele>149</ele>
        <time>2010-03-28T07:44:15Z</time>
      </trkpt>
      <trkpt lat="49.31602" lon="1.33954">
        <ele>149</ele>
        <time>2010-03-28T07:44:18Z</time>
      </trkpt>
      <trkpt lat="49.31598" lon="1.33939">
        <ele>149</ele>
        <time>2010-03-28T07:44:21Z</time>
      </trkpt>
      <trkpt lat="49.31594" lon="1.33923">
        <ele>149</ele>
        <time>2010-03-28T07:44:24Z</time>
      </trkpt>
      <trkpt lat="49.31589" lon="1.33907">
        <ele>149</ele>
        <time>2010-03-28T07:44:27Z</time>
      </trkpt>
      <trkpt lat="49.31585" lon="1.33889">
        <ele>149</ele>
        <time>2010-03-28T07:44:30Z</time>
      </trkpt>
      <trkpt lat="49.31581" lon="1.3387">
        <ele>149</ele>
        <time>2010-03-28T07:44:33Z</time>
      </trkpt>
      <trkpt lat="49.31577" lon="1.33856">
        <ele>149</ele>
        <time>2010-03-28T07:44:35Z</time>
      </trkpt>
      <trkpt lat="49.31573" lon="1.33837">
        <ele>149</ele>
        <time>2010-03-28T07:44:38Z</time>
      </trkpt>
      <trkpt lat="49.31569" lon="1.33824">
        <ele>149</ele>
        <time>2010-03-28T07:44:40Z</time>
      </trkpt>
      <trkpt lat="49.31567" lon="1.3381">
        <ele>149</ele>
        <time>2010-03-28T07:44:42Z</time>
      </trkpt>
      <trkpt lat="49.31564" lon="1.33796">
        <ele>149</ele>
        <time>2010-03-28T07:44:44Z</time>
      </trkpt>
      <trkpt lat="49.31561" lon="1.33782">
        <ele>149</ele>
        <time>2010-03-28T07:44:46Z</time>
      </trkpt>
      <trkpt lat="49.31558" lon="1.33767">
        <ele>149</ele>
        <time>2010-03-28T07:44:48Z</time>
      </trkpt>
      <trkpt lat="49.31556" lon="1.33753">
        <ele>149</ele>
        <time>2010-03-28T07:44:50Z</time>
      </trkpt>
      <trkpt lat="49.31553" lon="1.33739">
        <ele>149</ele>
        <time>2010-03-28T07:44:52Z</time>
      </trkpt>
      <trkpt lat="49.31551" lon="1.33725">
        <ele>149</ele>
        <time>2010-03-28T07:44:54Z</time>
      </trkpt>
      <trkpt lat="49.31548" lon="1.33711">
        <ele>149</ele>
        <time>2010-03-28T07:44:56Z</time>
      </trkpt>
      <trkpt lat="49.31545" lon="1.33697">
        <ele>149</ele>
        <time>2010-03-28T07:44:58Z</time>
      </trkpt>
      <trkpt lat="49.31542" lon="1.33682">
        <ele>149</ele>
        <time>2010-03-28T07:45:00Z</time>
      </trkpt>
      <trkpt lat="49.3154" lon="1.33667">
        <ele>149</ele>
        <time>2010-03-28T07:45:02Z</time>
      </trkpt>
      <trkpt lat="49.31537" lon="1.33652">
        <ele>149</ele>
        <time>2010-03-28T07:45:04Z</time>
      </trkpt>
      <trkpt lat="49.31535" lon="1.33637">
        <ele>149</ele>
        <time>2010-03-28T07:45:06Z</time>
      </trkpt>
      <trkpt lat="49.31532" lon="1.33623">
        <ele>149</ele>
        <time>2010-03-28T07:45:08Z</time>
      </trkpt>
      <trkpt lat="49.31529" lon="1.33608">
        <ele>149</ele>
        <time>2010-03-28T07:45:10Z</time>
      </trkpt>
      <trkpt lat="49.31527" lon="1.33592">
        <ele>149</ele>
        <time>2010-03-28T07:45:12Z</time>
      </trkpt>
      <trkpt lat="49.31524" lon="1.33576">
        <ele>149</ele>
        <time>2010-03-28T07:45:14Z</time>
      </trkpt>
      <trkpt lat="49.31521" lon="1.3356">
        <ele>149</ele>
        <time>2010-03-28T07:45:16Z</time>
      </trkpt>
      <trkpt lat="49.31518" lon="1.33542">
        <ele>149</ele>
        <time>2010-03-28T07:45:18Z</time>
      </trkpt>
      <trkpt lat="49.31515" lon="1.33524">
        <ele>149</ele>
        <time>2010-03-28T07:45:20Z</time>
      </trkpt>
      <trkpt lat="49.31512" lon="1.33506">
        <ele>149</ele>
        <time>2010-03-28T07:45:22Z</time>
      </trkpt>
      <trkpt lat="49.31509" lon="1.33487">
        <ele>149</ele>
        <time>2010-03-28T07:45:24Z</time>
      </trkpt>
      <trkpt lat="49.31506" lon="1.33468">
        <ele>149</ele>
        <time>2010-03-28T07:45:26Z</time>
      </trkpt>
      <trkpt lat="49.31503" lon="1.33449">
        <ele>149</ele>
        <time>2010-03-28T07:45:28Z</time>
      </trkpt>
      <trkpt lat="49.315" lon="1.3343">
        <ele>149</ele>
        <time>2010-03-28T07:45:30Z</time>
      </trkpt>
      <trkpt lat="49.31496" lon="1.33412">
        <ele>149</ele>
        <time>2010-03-28T07:45:32Z</time>
      </trkpt>
      <trkpt lat="49.31493" lon="1.33393">
        <ele>149</ele>
        <time>2010-03-28T07:45:34Z</time>
      </trkpt>
      <trkpt lat="49.31489" lon="1.33374">
        <ele>149</ele>
        <time>2010-03-28T07:45:36Z</time>
      </trkpt>
      <trkpt lat="49.31487" lon="1.33355">
        <ele>149</ele>
        <time>2010-03-28T07:45:38Z</time>
      </trkpt>
      <trkpt lat="49.31484" lon="1.33336">
        <ele>149</ele>
        <time>2010-03-28T07:45:40Z</time>
      </trkpt>
      <trkpt lat="49.3148" lon="1.33315">
        <ele>149</ele>
        <time>2010-03-28T07:45:42Z</time>
      </trkpt>
      <trkpt lat="49.31477" lon="1.33296">
        <ele>149</ele>
        <time>2010-03-28T07:45:44Z</time>
      </trkpt>
      <trkpt lat="49.31474" lon="1.33275">
        <ele>143</ele>
        <time>2010-03-28T07:45:46Z</time>
      </trkpt>
      <trkpt lat="49.31471" lon="1.33255">
        <ele>143</ele>
        <time>2010-03-28T07:45:48Z</time>
      </trkpt>
      <trkpt lat="49.31468" lon="1.33235">
        <ele>143</ele>
        <time>2010-03-28T07:45:50Z</time>
      </trkpt>
      <trkpt lat="49.31461" lon="1.33217">
        <ele>143</ele>
        <time>2010-03-28T07:45:52Z</time>
      </trkpt>
      <trkpt lat="49.31451" lon="1.33202">
        <ele>143</ele>
        <time>2010-03-28T07:45:54Z</time>
      </trkpt>
      <trkpt lat="49.31434" lon="1.33187">
        <ele>143</ele>
        <time>2010-03-28T07:45:57Z</time>
      </trkpt>
      <trkpt lat="49.31424" lon="1.33185">
        <ele>143</ele>
        <time>2010-03-28T07:45:58Z</time>
      </trkpt>
      <trkpt lat="49.31408" lon="1.33182">
        <ele>143</ele>
        <time>2010-03-28T07:46:00Z</time>
      </trkpt>
      <trkpt lat="49.31395" lon="1.33183">
        <ele>143</ele>
        <time>2010-03-28T07:46:01Z</time>
      </trkpt>
      <trkpt lat="49.31384" lon="1.33185">
        <ele>143</ele>
        <time>2010-03-28T07:46:02Z</time>
      </trkpt>
      <trkpt lat="49.31373" lon="1.33188">
        <ele>143</ele>
        <time>2010-03-28T07:46:03Z</time>
      </trkpt>
      <trkpt lat="49.31363" lon="1.3319">
        <ele>136</ele>
        <time>2010-03-28T07:46:04Z</time>
      </trkpt>
      <trkpt lat="49.31353" lon="1.33191">
        <ele>136</ele>
        <time>2010-03-28T07:46:05Z</time>
      </trkpt>
      <trkpt lat="49.31343" lon="1.33194">
        <ele>136</ele>
        <time>2010-03-28T07:46:06Z</time>
      </trkpt>
      <trkpt lat="49.31332" lon="1.33196">
        <ele>136</ele>
        <time>2010-03-28T07:46:07Z</time>
      </trkpt>
      <trkpt lat="49.31322" lon="1.33199">
        <ele>136</ele>
        <time>2010-03-28T07:46:08Z</time>
      </trkpt>
      <trkpt lat="49.31312" lon="1.33203">
        <ele>136</ele>
        <time>2010-03-28T07:46:09Z</time>
      </trkpt>
      <trkpt lat="49.31303" lon="1.33209">
        <ele>136</ele>
        <time>2010-03-28T07:46:10Z</time>
      </trkpt>
      <trkpt lat="49.31295" lon="1.33217">
        <ele>136</ele>
        <time>2010-03-28T07:46:11Z</time>
      </trkpt>
      <trkpt lat="49.31286" lon="1.33225">
        <ele>136</ele>
        <time>2010-03-28T07:46:12Z</time>
      </trkpt>
      <trkpt lat="49.31278" lon="1.33232">
        <ele>136</ele>
        <time>2010-03-28T07:46:13Z</time>
      </trkpt>
      <trkpt lat="49.31269" lon="1.33239">
        <ele>136</ele>
        <time>2010-03-28T07:46:14Z</time>
      </trkpt>
      <trkpt lat="49.31266" lon="1.33253">
        <ele>136</ele>
        <time>2010-03-28T07:46:15Z</time>
      </trkpt>
      <trkpt lat="49.31264" lon="1.33269">
        <ele>136</ele>
        <time>2010-03-28T07:46:16Z</time>
      </trkpt>
      <trkpt lat="49.31256" lon="1.33295">
        <ele>136</ele>
        <time>2010-03-28T07:46:18Z</time>
      </trkpt>
      <trkpt lat="49.31249" lon="1.33306">
        <ele>136</ele>
        <time>2010-03-28T07:46:19Z</time>
      </trkpt>
      <trkpt lat="49.31243" lon="1.33318">
        <ele>136</ele>
        <time>2010-03-28T07:46:20Z</time>
      </trkpt>
      <trkpt lat="49.31236" lon="1.33331">
        <ele>136</ele>
        <time>2010-03-28T07:46:21Z</time>
      </trkpt>
      <trkpt lat="49.3123" lon="1.33341">
        <ele>136</ele>
        <time>2010-03-28T07:46:22Z</time>
      </trkpt>
      <trkpt lat="49.31222" lon="1.33349">
        <ele>136</ele>
        <time>2010-03-28T07:46:23Z</time>
      </trkpt>
      <trkpt lat="49.31211" lon="1.33371">
        <ele>136</ele>
        <time>2010-03-28T07:46:25Z</time>
      </trkpt>
      <trkpt lat="49.31202" lon="1.3339">
        <ele>136</ele>
        <time>2010-03-28T07:46:27Z</time>
      </trkpt>
      <trkpt lat="49.31191" lon="1.334">
        <ele>136</ele>
        <time>2010-03-28T07:46:29Z</time>
      </trkpt>
      <trkpt lat="49.31175" lon="1.33388">
        <ele>129</ele>
        <time>2010-03-28T07:46:31Z</time>
      </trkpt>
      <trkpt lat="49.31164" lon="1.33369">
        <ele>129</ele>
        <time>2010-03-28T07:46:33Z</time>
      </trkpt>
      <trkpt lat="49.31159" lon="1.33346">
        <ele>129</ele>
        <time>2010-03-28T07:46:35Z</time>
      </trkpt>
      <trkpt lat="49.31156" lon="1.33327">
        <ele>129</ele>
        <time>2010-03-28T07:46:37Z</time>
      </trkpt>
      <trkpt lat="49.31154" lon="1.33309">
        <ele>123</ele>
        <time>2010-03-28T07:46:39Z</time>
      </trkpt>
      <trkpt lat="49.31152" lon="1.33291">
        <ele>123</ele>
        <time>2010-03-28T07:46:41Z</time>
      </trkpt>
      <trkpt lat="49.3115" lon="1.33274">
        <ele>123</ele>
        <time>2010-03-28T07:46:43Z</time>
      </trkpt>
      <trkpt lat="49.31148" lon="1.33257">
        <ele>123</ele>
        <time>2010-03-28T07:46:45Z</time>
      </trkpt>
      <trkpt lat="49.31147" lon="1.33239">
        <ele>123</ele>
        <time>2010-03-28T07:46:47Z</time>
      </trkpt>
      <trkpt lat="49.31145" lon="1.33222">
        <ele>123</ele>
        <time>2010-03-28T07:46:49Z</time>
      </trkpt>
      <trkpt lat="49.31143" lon="1.33206">
        <ele>123</ele>
        <time>2010-03-28T07:46:51Z</time>
      </trkpt>
      <trkpt lat="49.31141" lon="1.33191">
        <ele>123</ele>
        <time>2010-03-28T07:46:53Z</time>
      </trkpt>
      <trkpt lat="49.3114" lon="1.33177">
        <ele>123</ele>
        <time>2010-03-28T07:46:55Z</time>
      </trkpt>
      <trkpt lat="49.31138" lon="1.33163">
        <ele>123</ele>
        <time>2010-03-28T07:46:57Z</time>
      </trkpt>
      <trkpt lat="49.31137" lon="1.33142">
        <ele>123</ele>
        <time>2010-03-28T07:47:00Z</time>
      </trkpt>
      <trkpt lat="49.31134" lon="1.33122">
        <ele>129</ele>
        <time>2010-03-28T07:47:03Z</time>
      </trkpt>
      <trkpt lat="49.31133" lon="1.33103">
        <ele>129</ele>
        <time>2010-03-28T07:47:06Z</time>
      </trkpt>
      <trkpt lat="49.31132" lon="1.33085">
        <ele>129</ele>
        <time>2010-03-28T07:47:09Z</time>
      </trkpt>
      <trkpt lat="49.31131" lon="1.33069">
        <ele>129</ele>
        <time>2010-03-28T07:47:12Z</time>
      </trkpt>
      <trkpt lat="49.3113" lon="1.33053">
        <ele>129</ele>
        <time>2010-03-28T07:47:15Z</time>
      </trkpt>
      <trkpt lat="49.31129" lon="1.33037">
        <ele>134</ele>
        <time>2010-03-28T07:47:18Z</time>
      </trkpt>
      <trkpt lat="49.31128" lon="1.33021">
        <ele>134</ele>
        <time>2010-03-28T07:47:21Z</time>
      </trkpt>
      <trkpt lat="49.31127" lon="1.33006">
        <ele>134</ele>
        <time>2010-03-28T07:47:24Z</time>
      </trkpt>
      <trkpt lat="49.31126" lon="1.32991">
        <ele>134</ele>
        <time>2010-03-28T07:47:27Z</time>
      </trkpt>
      <trkpt lat="49.31125" lon="1.32972">
        <ele>134</ele>
        <time>2010-03-28T07:47:31Z</time>
      </trkpt>
      <trkpt lat="49.31124" lon="1.32958">
        <ele>134</ele>
        <time>2010-03-28T07:47:34Z</time>
      </trkpt>
      <trkpt lat="49.31124" lon="1.32944">
        <ele>134</ele>
        <time>2010-03-28T07:47:37Z</time>
      </trkpt>
      <trkpt lat="49.31123" lon="1.32929">
        <ele>134</ele>
        <time>2010-03-28T07:47:40Z</time>
      </trkpt>
      <trkpt lat="49.31122" lon="1.32915">
        <ele>134</ele>
        <time>2010-03-28T07:47:43Z</time>
      </trkpt>
      <trkpt lat="49.31121" lon="1.32899">
        <ele>134</ele>
        <time>2010-03-28T07:47:46Z</time>
      </trkpt>
      <trkpt lat="49.3112" lon="1.32882">
        <ele>134</ele>
        <time>2010-03-28T07:47:49Z</time>
      </trkpt>
      <trkpt lat="49.3112" lon="1.32864">
        <ele>134</ele>
        <time>2010-03-28T07:47:52Z</time>
      </trkpt>
      <trkpt lat="49.3112" lon="1.32847">
        <ele>134</ele>
        <time>2010-03-28T07:47:55Z</time>
      </trkpt>
      <trkpt lat="49.31121" lon="1.3283">
        <ele>134</ele>
        <time>2010-03-28T07:47:58Z</time>
      </trkpt>
      <trkpt lat="49.31122" lon="1.32814">
        <ele>134</ele>
        <time>2010-03-28T07:48:01Z</time>
      </trkpt>
      <trkpt lat="49.31124" lon="1.32798">
        <ele>134</ele>
        <time>2010-03-28T07:48:04Z</time>
      </trkpt>
      <trkpt lat="49.31125" lon="1.32782">
        <ele>134</ele>
        <time>2010-03-28T07:48:07Z</time>
      </trkpt>
      <trkpt lat="49.31127" lon="1.32766">
        <ele>134</ele>
        <time>2010-03-28T07:48:10Z</time>
      </trkpt>
      <trkpt lat="49.31128" lon="1.32749">
        <ele>134</ele>
        <time>2010-03-28T07:48:13Z</time>
      </trkpt>
      <trkpt lat="49.31129" lon="1.32733">
        <ele>139</ele>
        <time>2010-03-28T07:48:16Z</time>
      </trkpt>
      <trkpt lat="49.31131" lon="1.32717">
        <ele>139</ele>
        <time>2010-03-28T07:48:19Z</time>
      </trkpt>
      <trkpt lat="49.31133" lon="1.32701">
        <ele>139</ele>
        <time>2010-03-28T07:48:22Z</time>
      </trkpt>
      <trkpt lat="49.31133" lon="1.32685">
        <ele>139</ele>
        <time>2010-03-28T07:48:25Z</time>
      </trkpt>
      <trkpt lat="49.31134" lon="1.32668">
        <ele>139</ele>
        <time>2010-03-28T07:48:28Z</time>
      </trkpt>
      <trkpt lat="49.31134" lon="1.32651">
        <ele>139</ele>
        <time>2010-03-28T07:48:31Z</time>
      </trkpt>
      <trkpt lat="49.31134" lon="1.32634">
        <ele>139</ele>
        <time>2010-03-28T07:48:34Z</time>
      </trkpt>
      <trkpt lat="49.31133" lon="1.32616">
        <ele>139</ele>
        <time>2010-03-28T07:48:37Z</time>
      </trkpt>
      <trkpt lat="49.31132" lon="1.32599">
        <ele>139</ele>
        <time>2010-03-28T07:48:40Z</time>
      </trkpt>
      <trkpt lat="49.3113" lon="1.32583">
        <ele>139</ele>
        <time>2010-03-28T07:48:43Z</time>
      </trkpt>
      <trkpt lat="49.31128" lon="1.32568">
        <ele>139</ele>
        <time>2010-03-28T07:48:46Z</time>
      </trkpt>
      <trkpt lat="49.31127" lon="1.32552">
        <ele>139</ele>
        <time>2010-03-28T07:48:49Z</time>
      </trkpt>
      <trkpt lat="49.31125" lon="1.32537">
        <ele>139</ele>
        <time>2010-03-28T07:48:52Z</time>
      </trkpt>
      <trkpt lat="49.31123" lon="1.32521">
        <ele>139</ele>
        <time>2010-03-28T07:48:55Z</time>
      </trkpt>
      <trkpt lat="49.31121" lon="1.32505">
        <ele>139</ele>
        <time>2010-03-28T07:48:58Z</time>
      </trkpt>
      <trkpt lat="49.31118" lon="1.32487">
        <ele>139</ele>
        <time>2010-03-28T07:49:01Z</time>
      </trkpt>
      <trkpt lat="49.31117" lon="1.3247">
        <ele>139</ele>
        <time>2010-03-28T07:49:04Z</time>
      </trkpt>
      <trkpt lat="49.31114" lon="1.32454">
        <ele>145</ele>
        <time>2010-03-28T07:49:07Z</time>
      </trkpt>
      <trkpt lat="49.31112" lon="1.32437">
        <ele>145</ele>
        <time>2010-03-28T07:49:10Z</time>
      </trkpt>
      <trkpt lat="49.3111" lon="1.3242">
        <ele>145</ele>
        <time>2010-03-28T07:49:13Z</time>
      </trkpt>
      <trkpt lat="49.31108" lon="1.32403">
        <ele>145</ele>
        <time>2010-03-28T07:49:16Z</time>
      </trkpt>
      <trkpt lat="49.31105" lon="1.32386">
        <ele>145</ele>
        <time>2010-03-28T07:49:19Z</time>
      </trkpt>
      <trkpt lat="49.31103" lon="1.32369">
        <ele>145</ele>
        <time>2010-03-28T07:49:22Z</time>
      </trkpt>
      <trkpt lat="49.31101" lon="1.32352">
        <ele>145</ele>
        <time>2010-03-28T07:49:25Z</time>
      </trkpt>
      <trkpt lat="49.31097" lon="1.32336">
        <ele>145</ele>
        <time>2010-03-28T07:49:28Z</time>
      </trkpt>
      <trkpt lat="49.31094" lon="1.3232">
        <ele>145</ele>
        <time>2010-03-28T07:49:31Z</time>
      </trkpt>
      <trkpt lat="49.3109" lon="1.32306">
        <ele>145</ele>
        <time>2010-03-28T07:49:34Z</time>
      </trkpt>
      <trkpt lat="49.31086" lon="1.32292">
        <ele>145</ele>
        <time>2010-03-28T07:49:37Z</time>
      </trkpt>
      <trkpt lat="49.31081" lon="1.3228">
        <ele>145</ele>
        <time>2010-03-28T07:49:40Z</time>
      </trkpt>
      <trkpt lat="49.31074" lon="1.32267">
        <ele>145</ele>
        <time>2010-03-28T07:49:43Z</time>
      </trkpt>
      <trkpt lat="49.31068" lon="1.32255">
        <ele>145</ele>
        <time>2010-03-28T07:49:46Z</time>
      </trkpt>
      <trkpt lat="49.3106" lon="1.32244">
        <ele>145</ele>
        <time>2010-03-28T07:49:49Z</time>
      </trkpt>
      <trkpt lat="49.31053" lon="1.32234">
        <ele>150</ele>
        <time>2010-03-28T07:49:52Z</time>
      </trkpt>
      <trkpt lat="49.31044" lon="1.32224">
        <ele>150</ele>
        <time>2010-03-28T07:49:55Z</time>
      </trkpt>
      <trkpt lat="49.31036" lon="1.32214">
        <ele>150</ele>
        <time>2010-03-28T07:49:58Z</time>
      </trkpt>
      <trkpt lat="49.31027" lon="1.32204">
        <ele>150</ele>
        <time>2010-03-28T07:50:01Z</time>
      </trkpt>
      <trkpt lat="49.31019" lon="1.32197">
        <ele>150</ele>
        <time>2010-03-28T07:50:04Z</time>
      </trkpt>
      <trkpt lat="49.31011" lon="1.32186">
        <ele>150</ele>
        <time>2010-03-28T07:50:08Z</time>
      </trkpt>
      <trkpt lat="49.31005" lon="1.32173">
        <ele>150</ele>
        <time>2010-03-28T07:50:12Z</time>
      </trkpt>
      <trkpt lat="49.30996" lon="1.32173">
        <ele>150</ele>
        <time>2010-03-28T07:50:18Z</time>
      </trkpt>
      <trkpt lat="49.31006" lon="1.32177">
        <ele>155</ele>
        <time>2010-03-28T07:50:57Z</time>
      </trkpt>
      <trkpt lat="49.31013" lon="1.32191">
        <ele>155</ele>
        <time>2010-03-28T07:51:01Z</time>
      </trkpt>
      <trkpt lat="49.31023" lon="1.32201">
        <ele>155</ele>
        <time>2010-03-28T07:51:04Z</time>
      </trkpt>
      <trkpt lat="49.31033" lon="1.32211">
        <ele>155</ele>
        <time>2010-03-28T07:51:07Z</time>
      </trkpt>
      <trkpt lat="49.3104" lon="1.3222">
        <ele>155</ele>
        <time>2010-03-28T07:51:09Z</time>
      </trkpt>
      <trkpt lat="49.31047" lon="1.32228">
        <ele>155</ele>
        <time>2010-03-28T07:51:11Z</time>
      </trkpt>
      <trkpt lat="49.31054" lon="1.32237">
        <ele>150</ele>
        <time>2010-03-28T07:51:13Z</time>
      </trkpt>
      <trkpt lat="49.31062" lon="1.32248">
        <ele>150</ele>
        <time>2010-03-28T07:51:15Z</time>
      </trkpt>
      <trkpt lat="49.31069" lon="1.3226">
        <ele>150</ele>
        <time>2010-03-28T07:51:17Z</time>
      </trkpt>
      <trkpt lat="49.31075" lon="1.32272">
        <ele>150</ele>
        <time>2010-03-28T07:51:19Z</time>
      </trkpt>
      <trkpt lat="49.31081" lon="1.32287">
        <ele>150</ele>
        <time>2010-03-28T07:51:22Z</time>
      </trkpt>
      <trkpt lat="49.31086" lon="1.323">
        <ele>150</ele>
        <time>2010-03-28T07:51:28Z</time>
      </trkpt>
      <trkpt lat="49.31081" lon="1.32286">
        <ele>150</ele>
        <time>2010-03-28T07:51:36Z</time>
      </trkpt>
      <trkpt lat="49.31076" lon="1.32274">
        <ele>150</ele>
        <time>2010-03-28T07:51:39Z</time>
      </trkpt>
      <trkpt lat="49.3107" lon="1.32264">
        <ele>150</ele>
        <time>2010-03-28T07:51:42Z</time>
      </trkpt>
      <trkpt lat="49.31064" lon="1.32254">
        <ele>150</ele>
        <time>2010-03-28T07:51:45Z</time>
      </trkpt>
      <trkpt lat="49.31056" lon="1.32242">
        <ele>150</ele>
        <time>2010-03-28T07:51:49Z</time>
      </trkpt>
      <trkpt lat="49.31048" lon="1.32233">
        <ele>150</ele>
        <time>2010-03-28T07:51:53Z</time>
      </trkpt>
      <trkpt lat="49.3104" lon="1.32223">
        <ele>150</ele>
        <time>2010-03-28T07:51:57Z</time>
      </trkpt>
      <trkpt lat="49.31031" lon="1.32213">
        <ele>150</ele>
        <time>2010-03-28T07:52:01Z</time>
      </trkpt>
      <trkpt lat="49.31023" lon="1.32204">
        <ele>150</ele>
        <time>2010-03-28T07:52:05Z</time>
      </trkpt>
      <trkpt lat="49.31015" lon="1.32194">
        <ele>150</ele>
        <time>2010-03-28T07:52:09Z</time>
      </trkpt>
      <trkpt lat="49.31008" lon="1.32183">
        <ele>150</ele>
        <time>2010-03-28T07:52:13Z</time>
      </trkpt>
      <trkpt lat="49.31001" lon="1.32172">
        <ele>150</ele>
        <time>2010-03-28T07:52:18Z</time>
      </trkpt>
      <trkpt lat="49.30993" lon="1.3218">
        <ele>150</ele>
        <time>2010-03-28T07:52:27Z</time>
      </trkpt>
      <trkpt lat="49.30989" lon="1.32193">
        <ele>150</ele>
        <time>2010-03-28T07:52:32Z</time>
      </trkpt>
      <trkpt lat="49.30984" lon="1.32206">
        <ele>150</ele>
        <time>2010-03-28T07:52:37Z</time>
      </trkpt>
      <trkpt lat="49.3098" lon="1.32219">
        <ele>150</ele>
        <time>2010-03-28T07:52:41Z</time>
      </trkpt>
      <trkpt lat="49.30976" lon="1.32232">
        <ele>150</ele>
        <time>2010-03-28T07:52:45Z</time>
      </trkpt>
      <trkpt lat="49.30969" lon="1.32247">
        <ele>150</ele>
        <time>2010-03-28T07:52:50Z</time>
      </trkpt>
      <trkpt lat="49.30965" lon="1.32261">
        <ele>150</ele>
        <time>2010-03-28T07:52:54Z</time>
      </trkpt>
      <trkpt lat="49.3096" lon="1.32276">
        <ele>150</ele>
        <time>2010-03-28T07:52:58Z</time>
      </trkpt>
      <trkpt lat="49.30955" lon="1.3229">
        <ele>150</ele>
        <time>2010-03-28T07:53:02Z</time>
      </trkpt>
      <trkpt lat="49.3095" lon="1.32304">
        <ele>150</ele>
        <time>2010-03-28T07:53:06Z</time>
      </trkpt>
      <trkpt lat="49.30944" lon="1.32317">
        <ele>150</ele>
        <time>2010-03-28T07:53:10Z</time>
      </trkpt>
      <trkpt lat="49.30938" lon="1.32328">
        <ele>150</ele>
        <time>2010-03-28T07:53:14Z</time>
      </trkpt>
      <trkpt lat="49.30932" lon="1.32342">
        <ele>150</ele>
        <time>2010-03-28T07:53:19Z</time>
      </trkpt>
      <trkpt lat="49.30925" lon="1.32352">
        <ele>150</ele>
        <time>2010-03-28T07:53:23Z</time>
      </trkpt>
      <trkpt lat="49.30919" lon="1.32362">
        <ele>155</ele>
        <time>2010-03-28T07:53:27Z</time>
      </trkpt>
      <trkpt lat="49.30913" lon="1.32374">
        <ele>155</ele>
        <time>2010-03-28T07:53:31Z</time>
      </trkpt>
      <trkpt lat="49.30907" lon="1.32387">
        <ele>155</ele>
        <time>2010-03-28T07:53:36Z</time>
      </trkpt>
      <trkpt lat="49.30901" lon="1.324">
        <ele>155</ele>
        <time>2010-03-28T07:53:40Z</time>
      </trkpt>
      <trkpt lat="49.30894" lon="1.32414">
        <ele>155</ele>
        <time>2010-03-28T07:53:44Z</time>
      </trkpt>
      <trkpt lat="49.30888" lon="1.32428">
        <ele>155</ele>
        <time>2010-03-28T07:53:48Z</time>
      </trkpt>
      <trkpt lat="49.30882" lon="1.32441">
        <ele>155</ele>
        <time>2010-03-28T07:53:52Z</time>
      </trkpt>
      <trkpt lat="49.30877" lon="1.32456">
        <ele>155</ele>
        <time>2010-03-28T07:53:56Z</time>
      </trkpt>
      <trkpt lat="49.30873" lon="1.32469">
        <ele>155</ele>
        <time>2010-03-28T07:54:00Z</time>
      </trkpt>
      <trkpt lat="49.30868" lon="1.32485">
        <ele>155</ele>
        <time>2010-03-28T07:54:04Z</time>
      </trkpt>
      <trkpt lat="49.30864" lon="1.32498">
        <ele>155</ele>
        <time>2010-03-28T07:54:07Z</time>
      </trkpt>
      <trkpt lat="49.30858" lon="1.32515">
        <ele>155</ele>
        <time>2010-03-28T07:54:11Z</time>
      </trkpt>
      <trkpt lat="49.30854" lon="1.32528">
        <ele>155</ele>
        <time>2010-03-28T07:54:14Z</time>
      </trkpt>
      <trkpt lat="49.30849" lon="1.32545">
        <ele>155</ele>
        <time>2010-03-28T07:54:18Z</time>
      </trkpt>
      <trkpt lat="49.30845" lon="1.32557">
        <ele>155</ele>
        <time>2010-03-28T07:54:21Z</time>
      </trkpt>
      <trkpt lat="49.30841" lon="1.32571">
        <ele>155</ele>
        <time>2010-03-28T07:54:24Z</time>
      </trkpt>
      <trkpt lat="49.30837" lon="1.32583">
        <ele>155</ele>
        <time>2010-03-28T07:54:27Z</time>
      </trkpt>
      <trkpt lat="49.30833" lon="1.32596">
        <ele>155</ele>
        <time>2010-03-28T07:54:30Z</time>
      </trkpt>
      <trkpt lat="49.30828" lon="1.32613">
        <ele>155</ele>
        <time>2010-03-28T07:54:34Z</time>
      </trkpt>
      <trkpt lat="49.30824" lon="1.32626">
        <ele>155</ele>
        <time>2010-03-28T07:54:37Z</time>
      </trkpt>
      <trkpt lat="49.30819" lon="1.32643">
        <ele>155</ele>
        <time>2010-03-28T07:54:41Z</time>
      </trkpt>
      <trkpt lat="49.30815" lon="1.32657">
        <ele>155</ele>
        <time>2010-03-28T07:54:44Z</time>
      </trkpt>
      <trkpt lat="49.30811" lon="1.3267">
        <ele>155</ele>
        <time>2010-03-28T07:54:47Z</time>
      </trkpt>
      <trkpt lat="49.30806" lon="1.32688">
        <ele>155</ele>
        <time>2010-03-28T07:54:51Z</time>
      </trkpt>
      <trkpt lat="49.30802" lon="1.32704">
        <ele>155</ele>
        <time>2010-03-28T07:54:55Z</time>
      </trkpt>
      <trkpt lat="49.30799" lon="1.32717">
        <ele>155</ele>
        <time>2010-03-28T07:54:58Z</time>
      </trkpt>
      <trkpt lat="49.30795" lon="1.32734">
        <ele>155</ele>
        <time>2010-03-28T07:55:02Z</time>
      </trkpt>
      <trkpt lat="49.30791" lon="1.32748">
        <ele>155</ele>
        <time>2010-03-28T07:55:05Z</time>
      </trkpt>
      <trkpt lat="49.30787" lon="1.32766">
        <ele>155</ele>
        <time>2010-03-28T07:55:09Z</time>
      </trkpt>
      <trkpt lat="49.30782" lon="1.32783">
        <ele>155</ele>
        <time>2010-03-28T07:55:13Z</time>
      </trkpt>
      <trkpt lat="49.3078" lon="1.32796">
        <ele>155</ele>
        <time>2010-03-28T07:55:16Z</time>
      </trkpt>
      <trkpt lat="49.30776" lon="1.3281">
        <ele>155</ele>
        <time>2010-03-28T07:55:19Z</time>
      </trkpt>
      <trkpt lat="49.30773" lon="1.32823">
        <ele>155</ele>
        <time>2010-03-28T07:55:22Z</time>
      </trkpt>
      <trkpt lat="49.3077" lon="1.32837">
        <ele>155</ele>
        <time>2010-03-28T07:55:25Z</time>
      </trkpt>
      <trkpt lat="49.30767" lon="1.3285">
        <ele>155</ele>
        <time>2010-03-28T07:55:28Z</time>
      </trkpt>
      <trkpt lat="49.30764" lon="1.32864">
        <ele>155</ele>
        <time>2010-03-28T07:55:31Z</time>
      </trkpt>
      <trkpt lat="49.30759" lon="1.32882">
        <ele>155</ele>
        <time>2010-03-28T07:55:35Z</time>
      </trkpt>
      <trkpt lat="49.30755" lon="1.32899">
        <ele>155</ele>
        <time>2010-03-28T07:55:39Z</time>
      </trkpt>
      <trkpt lat="49.30752" lon="1.32912">
        <ele>155</ele>
        <time>2010-03-28T07:55:42Z</time>
      </trkpt>
      <trkpt lat="49.30749" lon="1.32929">
        <ele>155</ele>
        <time>2010-03-28T07:55:46Z</time>
      </trkpt>
      <trkpt lat="49.30746" lon="1.32944">
        <ele>155</ele>
        <time>2010-03-28T07:55:49Z</time>
      </trkpt>
      <trkpt lat="49.30743" lon="1.32957">
        <ele>155</ele>
        <time>2010-03-28T07:55:52Z</time>
      </trkpt>
      <trkpt lat="49.30739" lon="1.32974">
        <ele>155</ele>
        <time>2010-03-28T07:55:56Z</time>
      </trkpt>
      <trkpt lat="49.30735" lon="1.3299">
        <ele>155</ele>
        <time>2010-03-28T07:56:00Z</time>
      </trkpt>
      <trkpt lat="49.30732" lon="1.33006">
        <ele>155</ele>
        <time>2010-03-28T07:56:04Z</time>
      </trkpt>
      <trkpt lat="49.30729" lon="1.33022">
        <ele>155</ele>
        <time>2010-03-28T07:56:07Z</time>
      </trkpt>
      <trkpt lat="49.30725" lon="1.33038">
        <ele>155</ele>
        <time>2010-03-28T07:56:10Z</time>
      </trkpt>
      <trkpt lat="49.30719" lon="1.33053">
        <ele>155</ele>
        <time>2010-03-28T07:56:13Z</time>
      </trkpt>
      <trkpt lat="49.30715" lon="1.33069">
        <ele>155</ele>
        <time>2010-03-28T07:56:16Z</time>
      </trkpt>
      <trkpt lat="49.30711" lon="1.33084">
        <ele>155</ele>
        <time>2010-03-28T07:56:19Z</time>
      </trkpt>
      <trkpt lat="49.30706" lon="1.33098">
        <ele>155</ele>
        <time>2010-03-28T07:56:22Z</time>
      </trkpt>
      <trkpt lat="49.30702" lon="1.33113">
        <ele>155</ele>
        <time>2010-03-28T07:56:25Z</time>
      </trkpt>
      <trkpt lat="49.30697" lon="1.33129">
        <ele>155</ele>
        <time>2010-03-28T07:56:28Z</time>
      </trkpt>
      <trkpt lat="49.30693" lon="1.33145">
        <ele>155</ele>
        <time>2010-03-28T07:56:31Z</time>
      </trkpt>
      <trkpt lat="49.3069" lon="1.3316">
        <ele>155</ele>
        <time>2010-03-28T07:56:34Z</time>
      </trkpt>
      <trkpt lat="49.30685" lon="1.33175">
        <ele>155</ele>
        <time>2010-03-28T07:56:37Z</time>
      </trkpt>
      <trkpt lat="49.3068" lon="1.3319">
        <ele>155</ele>
        <time>2010-03-28T07:56:40Z</time>
      </trkpt>
      <trkpt lat="49.30675" lon="1.33204">
        <ele>155</ele>
        <time>2010-03-28T07:56:43Z</time>
      </trkpt>
      <trkpt lat="49.3067" lon="1.33218">
        <ele>155</ele>
        <time>2010-03-28T07:56:46Z</time>
      </trkpt>
      <trkpt lat="49.30664" lon="1.33233">
        <ele>155</ele>
        <time>2010-03-28T07:56:49Z</time>
      </trkpt>
      <trkpt lat="49.30659" lon="1.33246">
        <ele>155</ele>
        <time>2010-03-28T07:56:52Z</time>
      </trkpt>
      <trkpt lat="49.30653" lon="1.33261">
        <ele>155</ele>
        <time>2010-03-28T07:56:55Z</time>
      </trkpt>
      <trkpt lat="49.30647" lon="1.33274">
        <ele>155</ele>
        <time>2010-03-28T07:56:58Z</time>
      </trkpt>
      <trkpt lat="49.30641" lon="1.33288">
        <ele>155</ele>
        <time>2010-03-28T07:57:01Z</time>
      </trkpt>
      <trkpt lat="49.30636" lon="1.33302">
        <ele>155</ele>
        <time>2010-03-28T07:57:04Z</time>
      </trkpt>
      <trkpt lat="49.3063" lon="1.33315">
        <ele>155</ele>
        <time>2010-03-28T07:57:07Z</time>
      </trkpt>
      <trkpt lat="49.30624" lon="1.33329">
        <ele>155</ele>
        <time>2010-03-28T07:57:10Z</time>
      </trkpt>
      <trkpt lat="49.30619" lon="1.33343">
        <ele>155</ele>
        <time>2010-03-28T07:57:13Z</time>
      </trkpt>
      <trkpt lat="49.30613" lon="1.33358">
        <ele>155</ele>
        <time>2010-03-28T07:57:16Z</time>
      </trkpt>
      <trkpt lat="49.30607" lon="1.33371">
        <ele>155</ele>
        <time>2010-03-28T07:57:19Z</time>
      </trkpt>
      <trkpt lat="49.30602" lon="1.33385">
        <ele>155</ele>
        <time>2010-03-28T07:57:22Z</time>
      </trkpt>
      <trkpt lat="49.30597" lon="1.33399">
        <ele>155</ele>
        <time>2010-03-28T07:57:25Z</time>
      </trkpt>
      <trkpt lat="49.30592" lon="1.33412">
        <ele>155</ele>
        <time>2010-03-28T07:57:28Z</time>
      </trkpt>
      <trkpt lat="49.30586" lon="1.33425">
        <ele>155</ele>
        <time>2010-03-28T07:57:31Z</time>
      </trkpt>
      <trkpt lat="49.3058" lon="1.33437">
        <ele>155</ele>
        <time>2010-03-28T07:57:34Z</time>
      </trkpt>
      <trkpt lat="49.30575" lon="1.33449">
        <ele>155</ele>
        <time>2010-03-28T07:57:37Z</time>
      </trkpt>
      <trkpt lat="49.3057" lon="1.33461">
        <ele>155</ele>
        <time>2010-03-28T07:57:40Z</time>
      </trkpt>
      <trkpt lat="49.30563" lon="1.33476">
        <ele>155</ele>
        <time>2010-03-28T07:57:44Z</time>
      </trkpt>
      <trkpt lat="49.30559" lon="1.33491">
        <ele>155</ele>
        <time>2010-03-28T07:57:48Z</time>
      </trkpt>
      <trkpt lat="49.30559" lon="1.33509">
        <ele>155</ele>
        <time>2010-03-28T07:57:53Z</time>
      </trkpt>
      <trkpt lat="49.3056" lon="1.33525">
        <ele>155</ele>
        <time>2010-03-28T07:57:57Z</time>
      </trkpt>
      <trkpt lat="49.30563" lon="1.33538">
        <ele>155</ele>
        <time>2010-03-28T07:58:00Z</time>
      </trkpt>
      <trkpt lat="49.30565" lon="1.33553">
        <ele>155</ele>
        <time>2010-03-28T07:58:03Z</time>
      </trkpt>
      <trkpt lat="49.30567" lon="1.33569">
        <ele>155</ele>
        <time>2010-03-28T07:58:06Z</time>
      </trkpt>
      <trkpt lat="49.3057" lon="1.33584">
        <ele>155</ele>
        <time>2010-03-28T07:58:09Z</time>
      </trkpt>
      <trkpt lat="49.30574" lon="1.336">
        <ele>150</ele>
        <time>2010-03-28T07:58:12Z</time>
      </trkpt>
      <trkpt lat="49.30577" lon="1.33618">
        <ele>150</ele>
        <time>2010-03-28T07:58:15Z</time>
      </trkpt>
      <trkpt lat="49.30579" lon="1.33635">
        <ele>150</ele>
        <time>2010-03-28T07:58:18Z</time>
      </trkpt>
      <trkpt lat="49.30579" lon="1.33652">
        <ele>150</ele>
        <time>2010-03-28T07:58:21Z</time>
      </trkpt>
      <trkpt lat="49.3058" lon="1.33668">
        <ele>150</ele>
        <time>2010-03-28T07:58:24Z</time>
      </trkpt>
      <trkpt lat="49.3058" lon="1.33683">
        <ele>150</ele>
        <time>2010-03-28T07:58:27Z</time>
      </trkpt>
      <trkpt lat="49.3058" lon="1.33699">
        <ele>150</ele>
        <time>2010-03-28T07:58:30Z</time>
      </trkpt>
      <trkpt lat="49.30581" lon="1.33716">
        <ele>150</ele>
        <time>2010-03-28T07:58:33Z</time>
      </trkpt>
      <trkpt lat="49.30581" lon="1.33733">
        <ele>150</ele>
        <time>2010-03-28T07:58:36Z</time>
      </trkpt>
      <trkpt lat="49.30581" lon="1.33748">
        <ele>150</ele>
        <time>2010-03-28T07:58:39Z</time>
      </trkpt>
      <trkpt lat="49.30582" lon="1.33765">
        <ele>150</ele>
        <time>2010-03-28T07:58:42Z</time>
      </trkpt>
      <trkpt lat="49.30582" lon="1.3378">
        <ele>150</ele>
        <time>2010-03-28T07:58:45Z</time>
      </trkpt>
      <trkpt lat="49.30582" lon="1.33796">
        <ele>150</ele>
        <time>2010-03-28T07:58:48Z</time>
      </trkpt>
      <trkpt lat="49.30581" lon="1.3381">
        <ele>150</ele>
        <time>2010-03-28T07:58:51Z</time>
      </trkpt>
      <trkpt lat="49.30581" lon="1.33826">
        <ele>150</ele>
        <time>2010-03-28T07:58:54Z</time>
      </trkpt>
      <trkpt lat="49.30579" lon="1.33841">
        <ele>150</ele>
        <time>2010-03-28T07:59:00Z</time>
      </trkpt>
      <trkpt lat="49.30577" lon="1.3386">
        <ele>150</ele>
        <time>2010-03-28T07:59:05Z</time>
      </trkpt>
      <trkpt lat="49.30576" lon="1.33876">
        <ele>150</ele>
        <time>2010-03-28T07:59:08Z</time>
      </trkpt>
      <trkpt lat="49.30575" lon="1.33894">
        <ele>150</ele>
        <time>2010-03-28T07:59:11Z</time>
      </trkpt>
      <trkpt lat="49.30575" lon="1.33911">
        <ele>150</ele>
        <time>2010-03-28T07:59:14Z</time>
      </trkpt>
      <trkpt lat="49.30573" lon="1.3393">
        <ele>150</ele>
        <time>2010-03-28T07:59:17Z</time>
      </trkpt>
      <trkpt lat="49.30573" lon="1.33947">
        <ele>150</ele>
        <time>2010-03-28T07:59:20Z</time>
      </trkpt>
      <trkpt lat="49.30574" lon="1.33963">
        <ele>150</ele>
        <time>2010-03-28T07:59:23Z</time>
      </trkpt>
      <trkpt lat="49.30575" lon="1.33978">
        <ele>150</ele>
        <time>2010-03-28T07:59:26Z</time>
      </trkpt>
      <trkpt lat="49.30575" lon="1.33995">
        <ele>150</ele>
        <time>2010-03-28T07:59:29Z</time>
      </trkpt>
      <trkpt lat="49.30575" lon="1.34013">
        <ele>150</ele>
        <time>2010-03-28T07:59:32Z</time>
      </trkpt>
      <trkpt lat="49.30577" lon="1.3403">
        <ele>150</ele>
        <time>2010-03-28T07:59:35Z</time>
      </trkpt>
      <trkpt lat="49.30578" lon="1.34048">
        <ele>150</ele>
        <time>2010-03-28T07:59:38Z</time>
      </trkpt>
      <trkpt lat="49.30579" lon="1.34066">
        <ele>150</ele>
        <time>2010-03-28T07:59:41Z</time>
      </trkpt>
      <trkpt lat="49.3058" lon="1.34082">
        <ele>150</ele>
        <time>2010-03-28T07:59:44Z</time>
      </trkpt>
      <trkpt lat="49.30582" lon="1.34097">
        <ele>150</ele>
        <time>2010-03-28T07:59:47Z</time>
      </trkpt>
      <trkpt lat="49.30583" lon="1.34111">
        <ele>150</ele>
        <time>2010-03-28T07:59:50Z</time>
      </trkpt>
      <trkpt lat="49.30583" lon="1.34128">
        <ele>150</ele>
        <time>2010-03-28T07:59:53Z</time>
      </trkpt>
      <trkpt lat="49.30584" lon="1.34143">
        <ele>150</ele>
        <time>2010-03-28T07:59:56Z</time>
      </trkpt>
      <trkpt lat="49.30586" lon="1.34159">
        <ele>145</ele>
        <time>2010-03-28T07:59:59Z</time>
      </trkpt>
      <trkpt lat="49.30587" lon="1.34175">
        <ele>145</ele>
        <time>2010-03-28T08:00:02Z</time>
      </trkpt>
      <trkpt lat="49.30588" lon="1.34191">
        <ele>145</ele>
        <time>2010-03-28T08:00:05Z</time>
      </trkpt>
      <trkpt lat="49.30588" lon="1.34207">
        <ele>145</ele>
        <time>2010-03-28T08:00:08Z</time>
      </trkpt>
      <trkpt lat="49.30587" lon="1.34224">
        <ele>145</ele>
        <time>2010-03-28T08:00:11Z</time>
      </trkpt>
      <trkpt lat="49.30587" lon="1.3424">
        <ele>145</ele>
        <time>2010-03-28T08:00:14Z</time>
      </trkpt>
      <trkpt lat="49.30586" lon="1.34257">
        <ele>145</ele>
        <time>2010-03-28T08:00:17Z</time>
      </trkpt>
      <trkpt lat="49.30586" lon="1.34273">
        <ele>145</ele>
        <time>2010-03-28T08:00:20Z</time>
      </trkpt>
      <trkpt lat="49.30584" lon="1.34289">
        <ele>145</ele>
        <time>2010-03-28T08:00:23Z</time>
      </trkpt>
      <trkpt lat="49.30583" lon="1.34306">
        <ele>145</ele>
        <time>2010-03-28T08:00:26Z</time>
      </trkpt>
      <trkpt lat="49.30582" lon="1.34322">
        <ele>145</ele>
        <time>2010-03-28T08:00:29Z</time>
      </trkpt>
      <trkpt lat="49.30582" lon="1.34338">
        <ele>145</ele>
        <time>2010-03-28T08:00:32Z</time>
      </trkpt>
      <trkpt lat="49.30583" lon="1.34356">
        <ele>145</ele>
        <time>2010-03-28T08:00:36Z</time>
      </trkpt>
      <trkpt lat="49.30586" lon="1.34369">
        <ele>145</ele>
        <time>2010-03-28T08:00:39Z</time>
      </trkpt>
      <trkpt lat="49.30591" lon="1.34383">
        <ele>145</ele>
        <time>2010-03-28T08:00:43Z</time>
      </trkpt>
      <trkpt lat="49.30595" lon="1.34398">
        <ele>145</ele>
        <time>2010-03-28T08:00:47Z</time>
      </trkpt>
      <trkpt lat="49.30599" lon="1.3441">
        <ele>145</ele>
        <time>2010-03-28T08:00:50Z</time>
      </trkpt>
      <trkpt lat="49.30604" lon="1.34423">
        <ele>145</ele>
        <time>2010-03-28T08:00:53Z</time>
      </trkpt>
      <trkpt lat="49.30609" lon="1.34437">
        <ele>145</ele>
        <time>2010-03-28T08:00:56Z</time>
      </trkpt>
      <trkpt lat="49.30613" lon="1.34449">
        <ele>145</ele>
        <time>2010-03-28T08:00:59Z</time>
      </trkpt>
      <trkpt lat="49.30616" lon="1.34463">
        <ele>145</ele>
        <time>2010-03-28T08:01:02Z</time>
      </trkpt>
      <trkpt lat="49.3061" lon="1.34477">
        <ele>145</ele>
        <time>2010-03-28T08:01:06Z</time>
      </trkpt>
      <trkpt lat="49.306" lon="1.34484">
        <ele>145</ele>
        <time>2010-03-28T08:01:10Z</time>
      </trkpt>
      <trkpt lat="49.3059" lon="1.34492">
        <ele>145</ele>
        <time>2010-03-28T08:01:14Z</time>
      </trkpt>
      <trkpt lat="49.30581" lon="1.34499">
        <ele>145</ele>
        <time>2010-03-28T08:01:17Z</time>
      </trkpt>
      <trkpt lat="49.3057" lon="1.34507">
        <ele>145</ele>
        <time>2010-03-28T08:01:21Z</time>
      </trkpt>
      <trkpt lat="49.30562" lon="1.34514">
        <ele>145</ele>
        <time>2010-03-28T08:01:24Z</time>
      </trkpt>
      <trkpt lat="49.30554" lon="1.34521">
        <ele>145</ele>
        <time>2010-03-28T08:01:27Z</time>
      </trkpt>
      <trkpt lat="49.30544" lon="1.34529">
        <ele>150</ele>
        <time>2010-03-28T08:01:31Z</time>
      </trkpt>
      <trkpt lat="49.30536" lon="1.34536">
        <ele>150</ele>
        <time>2010-03-28T08:01:34Z</time>
      </trkpt>
      <trkpt lat="49.30527" lon="1.34543">
        <ele>150</ele>
        <time>2010-03-28T08:01:37Z</time>
      </trkpt>
      <trkpt lat="49.30518" lon="1.34551">
        <ele>150</ele>
        <time>2010-03-28T08:01:40Z</time>
      </trkpt>
      <trkpt lat="49.30508" lon="1.3456">
        <ele>150</ele>
        <time>2010-03-28T08:01:43Z</time>
      </trkpt>
      <trkpt lat="49.30497" lon="1.34569">
        <ele>150</ele>
        <time>2010-03-28T08:01:46Z</time>
      </trkpt>
      <trkpt lat="49.30486" lon="1.34578">
        <ele>150</ele>
        <time>2010-03-28T08:01:49Z</time>
      </trkpt>
      <trkpt lat="49.30476" lon="1.34587">
        <ele>150</ele>
        <time>2010-03-28T08:01:52Z</time>
      </trkpt>
      <trkpt lat="49.30465" lon="1.34596">
        <ele>150</ele>
        <time>2010-03-28T08:01:55Z</time>
      </trkpt>
      <trkpt lat="49.30455" lon="1.34604">
        <ele>150</ele>
        <time>2010-03-28T08:01:58Z</time>
      </trkpt>
      <trkpt lat="49.30444" lon="1.34613">
        <ele>150</ele>
        <time>2010-03-28T08:02:01Z</time>
      </trkpt>
      <trkpt lat="49.30434" lon="1.34621">
        <ele>150</ele>
        <time>2010-03-28T08:02:04Z</time>
      </trkpt>
      <trkpt lat="49.30425" lon="1.34629">
        <ele>150</ele>
        <time>2010-03-28T08:02:07Z</time>
      </trkpt>
      <trkpt lat="49.30416" lon="1.34636">
        <ele>150</ele>
        <time>2010-03-28T08:02:10Z</time>
      </trkpt>
      <trkpt lat="49.30407" lon="1.34644">
        <ele>150</ele>
        <time>2010-03-28T08:02:13Z</time>
      </trkpt>
      <trkpt lat="49.30397" lon="1.34652">
        <ele>150</ele>
        <time>2010-03-28T08:02:16Z</time>
      </trkpt>
      <trkpt lat="49.30387" lon="1.3466">
        <ele>150</ele>
        <time>2010-03-28T08:02:19Z</time>
      </trkpt>
      <trkpt lat="49.30377" lon="1.34668">
        <ele>150</ele>
        <time>2010-03-28T08:02:22Z</time>
      </trkpt>
      <trkpt lat="49.30367" lon="1.34675">
        <ele>150</ele>
        <time>2010-03-28T08:02:25Z</time>
      </trkpt>
      <trkpt lat="49.30358" lon="1.34683">
        <ele>150</ele>
        <time>2010-03-28T08:02:28Z</time>
      </trkpt>
      <trkpt lat="49.30348" lon="1.34691">
        <ele>150</ele>
        <time>2010-03-28T08:02:31Z</time>
      </trkpt>
      <trkpt lat="49.30339" lon="1.34698">
        <ele>150</ele>
        <time>2010-03-28T08:02:34Z</time>
      </trkpt>
      <trkpt lat="49.3033" lon="1.34705">
        <ele>150</ele>
        <time>2010-03-28T08:02:37Z</time>
      </trkpt>
      <trkpt lat="49.30321" lon="1.34712">
        <ele>150</ele>
        <time>2010-03-28T08:02:40Z</time>
      </trkpt>
      <trkpt lat="49.30313" lon="1.34719">
        <ele>155</ele>
        <time>2010-03-28T08:02:43Z</time>
      </trkpt>
      <trkpt lat="49.30305" lon="1.34726">
        <ele>155</ele>
        <time>2010-03-28T08:02:46Z</time>
      </trkpt>
      <trkpt lat="49.30296" lon="1.34733">
        <ele>155</ele>
        <time>2010-03-28T08:02:49Z</time>
      </trkpt>
      <trkpt lat="49.30288" lon="1.3474">
        <ele>155</ele>
        <time>2010-03-28T08:02:52Z</time>
      </trkpt>
      <trkpt lat="49.30278" lon="1.34749">
        <ele>155</ele>
        <time>2010-03-28T08:02:56Z</time>
      </trkpt>
      <trkpt lat="49.30268" lon="1.34757">
        <ele>155</ele>
        <time>2010-03-28T08:03:00Z</time>
      </trkpt>
      <trkpt lat="49.30258" lon="1.34765">
        <ele>155</ele>
        <time>2010-03-28T08:03:04Z</time>
      </trkpt>
      <trkpt lat="49.30248" lon="1.34773">
        <ele>155</ele>
        <time>2010-03-28T08:03:08Z</time>
      </trkpt>
      <trkpt lat="49.30239" lon="1.34782">
        <ele>155</ele>
        <time>2010-03-28T08:03:12Z</time>
      </trkpt>
      <trkpt lat="49.30229" lon="1.3479">
        <ele>155</ele>
        <time>2010-03-28T08:03:16Z</time>
      </trkpt>
      <trkpt lat="49.3022" lon="1.34797">
        <ele>155</ele>
        <time>2010-03-28T08:03:20Z</time>
      </trkpt>
      <trkpt lat="49.30211" lon="1.34805">
        <ele>155</ele>
        <time>2010-03-28T08:03:24Z</time>
      </trkpt>
      <trkpt lat="49.30203" lon="1.34812">
        <ele>155</ele>
        <time>2010-03-28T08:03:28Z</time>
      </trkpt>
      <trkpt lat="49.30194" lon="1.34819">
        <ele>155</ele>
        <time>2010-03-28T08:03:32Z</time>
      </trkpt>
      <trkpt lat="49.30184" lon="1.34828">
        <ele>161</ele>
        <time>2010-03-28T08:03:36Z</time>
      </trkpt>
      <trkpt lat="49.30173" lon="1.34836">
        <ele>161</ele>
        <time>2010-03-28T08:03:40Z</time>
      </trkpt>
      <trkpt lat="49.30163" lon="1.34844">
        <ele>161</ele>
        <time>2010-03-28T08:03:44Z</time>
      </trkpt>
      <trkpt lat="49.30154" lon="1.34852">
        <ele>161</ele>
        <time>2010-03-28T08:03:47Z</time>
      </trkpt>
      <trkpt lat="49.30146" lon="1.34859">
        <ele>161</ele>
        <time>2010-03-28T08:03:50Z</time>
      </trkpt>
      <trkpt lat="49.30137" lon="1.34865">
        <ele>161</ele>
        <time>2010-03-28T08:03:53Z</time>
      </trkpt>
      <trkpt lat="49.30129" lon="1.34872">
        <ele>161</ele>
        <time>2010-03-28T08:03:56Z</time>
      </trkpt>
      <trkpt lat="49.30119" lon="1.34881">
        <ele>161</ele>
        <time>2010-03-28T08:04:00Z</time>
      </trkpt>
      <trkpt lat="49.30111" lon="1.34887">
        <ele>161</ele>
        <time>2010-03-28T08:04:03Z</time>
      </trkpt>
      <trkpt lat="49.30103" lon="1.34894">
        <ele>161</ele>
        <time>2010-03-28T08:04:06Z</time>
      </trkpt>
      <trkpt lat="49.30095" lon="1.34901">
        <ele>161</ele>
        <time>2010-03-28T08:04:09Z</time>
      </trkpt>
      <trkpt lat="49.30086" lon="1.34907">
        <ele>161</ele>
        <time>2010-03-28T08:04:12Z</time>
      </trkpt>
      <trkpt lat="49.30076" lon="1.34916">
        <ele>161</ele>
        <time>2010-03-28T08:04:16Z</time>
      </trkpt>
      <trkpt lat="49.30065" lon="1.34925">
        <ele>161</ele>
        <time>2010-03-28T08:04:20Z</time>
      </trkpt>
      <trkpt lat="49.30056" lon="1.34932">
        <ele>161</ele>
        <time>2010-03-28T08:04:23Z</time>
      </trkpt>
      <trkpt lat="49.30048" lon="1.3494">
        <ele>161</ele>
        <time>2010-03-28T08:04:26Z</time>
      </trkpt>
      <trkpt lat="49.30038" lon="1.34947">
        <ele>161</ele>
        <time>2010-03-28T08:04:29Z</time>
      </trkpt>
      <trkpt lat="49.30029" lon="1.34955">
        <ele>161</ele>
        <time>2010-03-28T08:04:32Z</time>
      </trkpt>
      <trkpt lat="49.3002" lon="1.34962">
        <ele>161</ele>
        <time>2010-03-28T08:04:35Z</time>
      </trkpt>
      <trkpt lat="49.30011" lon="1.3497">
        <ele>161</ele>
        <time>2010-03-28T08:04:38Z</time>
      </trkpt>
      <trkpt lat="49.30001" lon="1.34979">
        <ele>161</ele>
        <time>2010-03-28T08:04:41Z</time>
      </trkpt>
      <trkpt lat="49.29991" lon="1.34987">
        <ele>166</ele>
        <time>2010-03-28T08:04:44Z</time>
      </trkpt>
      <trkpt lat="49.29981" lon="1.34994">
        <ele>166</ele>
        <time>2010-03-28T08:04:47Z</time>
      </trkpt>
      <trkpt lat="49.2997" lon="1.35002">
        <ele>166</ele>
        <time>2010-03-28T08:04:50Z</time>
      </trkpt>
      <trkpt lat="49.29961" lon="1.3501">
        <ele>166</ele>
        <time>2010-03-28T08:04:53Z</time>
      </trkpt>
      <trkpt lat="49.29952" lon="1.35016">
        <ele>160</ele>
        <time>2010-03-28T08:04:56Z</time>
      </trkpt>
      <trkpt lat="49.29942" lon="1.35022">
        <ele>160</ele>
        <time>2010-03-28T08:04:59Z</time>
      </trkpt>
      <trkpt lat="49.29932" lon="1.35029">
        <ele>160</ele>
        <time>2010-03-28T08:05:03Z</time>
      </trkpt>
      <trkpt lat="49.29922" lon="1.3503">
        <ele>160</ele>
        <time>2010-03-28T08:05:08Z</time>
      </trkpt>
      <trkpt lat="49.29923" lon="1.35045">
        <ele>149</ele>
        <time>2010-03-28T08:08:49Z</time>
      </trkpt>
      <trkpt lat="49.29925" lon="1.35058">
        <ele>154</ele>
        <time>2010-03-28T08:08:56Z</time>
      </trkpt>
      <trkpt lat="49.29927" lon="1.35074">
        <ele>165</ele>
        <time>2010-03-28T08:09:03Z</time>
      </trkpt>
      <trkpt lat="49.29922" lon="1.35088">
        <ele>165</ele>
        <time>2010-03-28T08:09:08Z</time>
      </trkpt>
      <trkpt lat="49.29919" lon="1.35101">
        <ele>165</ele>
        <time>2010-03-28T08:09:17Z</time>
      </trkpt>
      <trkpt lat="49.29914" lon="1.35113">
        <ele>156</ele>
        <time>2010-03-28T08:09:42Z</time>
      </trkpt>
      <trkpt lat="49.29913" lon="1.35129">
        <ele>156</ele>
        <time>2010-03-28T08:09:53Z</time>
      </trkpt>
      <trkpt lat="49.29906" lon="1.3514">
        <ele>156</ele>
        <time>2010-03-28T08:10:00Z</time>
      </trkpt>
      <trkpt lat="49.29897" lon="1.3514">
        <ele>156</ele>
        <time>2010-03-28T08:10:05Z</time>
      </trkpt>
      <trkpt lat="49.29887" lon="1.35135">
        <ele>156</ele>
        <time>2010-03-28T08:10:10Z</time>
      </trkpt>
      <trkpt lat="49.29878" lon="1.35134">
        <ele>156</ele>
        <time>2010-03-28T08:10:14Z</time>
      </trkpt>
      <trkpt lat="49.29866" lon="1.35135">
        <ele>156</ele>
        <time>2010-03-28T08:10:19Z</time>
      </trkpt>
      <trkpt lat="49.29857" lon="1.35126">
        <ele>156</ele>
        <time>2010-03-28T08:10:24Z</time>
      </trkpt>
      <trkpt lat="49.29852" lon="1.35111">
        <ele>164</ele>
        <time>2010-03-28T08:10:29Z</time>
      </trkpt>
      <trkpt lat="49.29848" lon="1.35096">
        <ele>164</ele>
        <time>2010-03-28T08:10:33Z</time>
      </trkpt>
      <trkpt lat="49.2984" lon="1.35082">
        <ele>164</ele>
        <time>2010-03-28T08:10:37Z</time>
      </trkpt>
      <trkpt lat="49.29833" lon="1.3507">
        <ele>164</ele>
        <time>2010-03-28T08:10:41Z</time>
      </trkpt>
      <trkpt lat="49.29826" lon="1.3506">
        <ele>152</ele>
        <time>2010-03-28T08:10:44Z</time>
      </trkpt>
      <trkpt lat="49.2982" lon="1.35048">
        <ele>152</ele>
        <time>2010-03-28T08:10:47Z</time>
      </trkpt>
      <trkpt lat="49.29813" lon="1.35036">
        <ele>152</ele>
        <time>2010-03-28T08:10:50Z</time>
      </trkpt>
      <trkpt lat="49.29805" lon="1.35022">
        <ele>152</ele>
        <time>2010-03-28T08:10:53Z</time>
      </trkpt>
      <trkpt lat="49.29797" lon="1.35007">
        <ele>152</ele>
        <time>2010-03-28T08:10:56Z</time>
      </trkpt>
      <trkpt lat="49.29791" lon="1.34996">
        <ele>152</ele>
        <time>2010-03-28T08:10:58Z</time>
      </trkpt>
      <trkpt lat="49.29783" lon="1.34981">
        <ele>152</ele>
        <time>2010-03-28T08:11:01Z</time>
      </trkpt>
      <trkpt lat="49.29777" lon="1.3497">
        <ele>152</ele>
        <time>2010-03-28T08:11:03Z</time>
      </trkpt>
      <trkpt lat="49.29771" lon="1.34958">
        <ele>152</ele>
        <time>2010-03-28T08:11:05Z</time>
      </trkpt>
      <trkpt lat="49.29766" lon="1.34947">
        <ele>152</ele>
        <time>2010-03-28T08:11:07Z</time>
      </trkpt>
      <trkpt lat="49.29759" lon="1.34936">
        <ele>152</ele>
        <time>2010-03-28T08:11:09Z</time>
      </trkpt>
      <trkpt lat="49.29753" lon="1.34925">
        <ele>152</ele>
        <time>2010-03-28T08:11:11Z</time>
      </trkpt>
      <trkpt lat="49.29746" lon="1.34914">
        <ele>152</ele>
        <time>2010-03-28T08:11:13Z</time>
      </trkpt>
      <trkpt lat="49.2974" lon="1.34903">
        <ele>152</ele>
        <time>2010-03-28T08:11:15Z</time>
      </trkpt>
      <trkpt lat="49.29734" lon="1.34892">
        <ele>152</ele>
        <time>2010-03-28T08:11:17Z</time>
      </trkpt>
      <trkpt lat="49.29729" lon="1.34881">
        <ele>152</ele>
        <time>2010-03-28T08:11:19Z</time>
      </trkpt>
      <trkpt lat="49.2972" lon="1.34869">
        <ele>152</ele>
        <time>2010-03-28T08:11:22Z</time>
      </trkpt>
      <trkpt lat="49.29711" lon="1.3487">
        <ele>152</ele>
        <time>2010-03-28T08:11:25Z</time>
      </trkpt>
      <trkpt lat="49.29703" lon="1.34882">
        <ele>152</ele>
        <time>2010-03-28T08:11:28Z</time>
      </trkpt>
      <trkpt lat="49.29693" lon="1.34894">
        <ele>152</ele>
        <time>2010-03-28T08:11:31Z</time>
      </trkpt>
      <trkpt lat="49.29683" lon="1.34908">
        <ele>152</ele>
        <time>2010-03-28T08:11:34Z</time>
      </trkpt>
      <trkpt lat="49.29673" lon="1.34922">
        <ele>152</ele>
        <time>2010-03-28T08:11:37Z</time>
      </trkpt>
      <trkpt lat="49.29666" lon="1.34931">
        <ele>152</ele>
        <time>2010-03-28T08:11:39Z</time>
      </trkpt>
      <trkpt lat="49.29656" lon="1.34944">
        <ele>152</ele>
        <time>2010-03-28T08:11:42Z</time>
      </trkpt>
      <trkpt lat="49.29646" lon="1.34958">
        <ele>152</ele>
        <time>2010-03-28T08:11:45Z</time>
      </trkpt>
      <trkpt lat="49.29636" lon="1.34971">
        <ele>152</ele>
        <time>2010-03-28T08:11:48Z</time>
      </trkpt>
      <trkpt lat="49.29626" lon="1.34982">
        <ele>152</ele>
        <time>2010-03-28T08:11:51Z</time>
      </trkpt>
      <trkpt lat="49.29615" lon="1.34988">
        <ele>152</ele>
        <time>2010-03-28T08:11:54Z</time>
      </trkpt>
      <trkpt lat="49.29603" lon="1.34988">
        <ele>152</ele>
        <time>2010-03-28T08:11:57Z</time>
      </trkpt>
      <trkpt lat="49.29591" lon="1.34986">
        <ele>152</ele>
        <time>2010-03-28T08:12:00Z</time>
      </trkpt>
      <trkpt lat="49.29579" lon="1.34986">
        <ele>152</ele>
        <time>2010-03-28T08:12:03Z</time>
      </trkpt>
      <trkpt lat="49.29566" lon="1.34985">
        <ele>152</ele>
        <time>2010-03-28T08:12:06Z</time>
      </trkpt>
      <trkpt lat="49.29553" lon="1.34983">
        <ele>152</ele>
        <time>2010-03-28T08:12:09Z</time>
      </trkpt>
      <trkpt lat="49.29541" lon="1.34983">
        <ele>152</ele>
        <time>2010-03-28T08:12:12Z</time>
      </trkpt>
      <trkpt lat="49.29528" lon="1.34982">
        <ele>152</ele>
        <time>2010-03-28T08:12:15Z</time>
      </trkpt>
      <trkpt lat="49.29516" lon="1.34982">
        <ele>152</ele>
        <time>2010-03-28T08:12:18Z</time>
      </trkpt>
      <trkpt lat="49.29503" lon="1.34983">
        <ele>152</ele>
        <time>2010-03-28T08:12:21Z</time>
      </trkpt>
      <trkpt lat="49.29492" lon="1.34983">
        <ele>152</ele>
        <time>2010-03-28T08:12:24Z</time>
      </trkpt>
      <trkpt lat="49.29479" lon="1.34983">
        <ele>152</ele>
        <time>2010-03-28T08:12:27Z</time>
      </trkpt>
      <trkpt lat="49.29466" lon="1.34983">
        <ele>152</ele>
        <time>2010-03-28T08:12:30Z</time>
      </trkpt>
      <trkpt lat="49.29457" lon="1.34982">
        <ele>152</ele>
        <time>2010-03-28T08:12:32Z</time>
      </trkpt>
      <trkpt lat="49.29447" lon="1.34981">
        <ele>152</ele>
        <time>2010-03-28T08:12:34Z</time>
      </trkpt>
      <trkpt lat="49.29437" lon="1.3498">
        <ele>152</ele>
        <time>2010-03-28T08:12:36Z</time>
      </trkpt>
      <trkpt lat="49.29427" lon="1.3498">
        <ele>152</ele>
        <time>2010-03-28T08:12:38Z</time>
      </trkpt>
      <trkpt lat="49.29417" lon="1.3498">
        <ele>152</ele>
        <time>2010-03-28T08:12:40Z</time>
      </trkpt>
      <trkpt lat="49.29405" lon="1.34979">
        <ele>146</ele>
        <time>2010-03-28T08:12:42Z</time>
      </trkpt>
      <trkpt lat="49.29394" lon="1.34978">
        <ele>146</ele>
        <time>2010-03-28T08:12:44Z</time>
      </trkpt>
      <trkpt lat="49.29383" lon="1.34976">
        <ele>146</ele>
        <time>2010-03-28T08:12:46Z</time>
      </trkpt>
      <trkpt lat="49.29371" lon="1.34973">
        <ele>146</ele>
        <time>2010-03-28T08:12:48Z</time>
      </trkpt>
      <trkpt lat="49.29361" lon="1.34969">
        <ele>146</ele>
        <time>2010-03-28T08:12:50Z</time>
      </trkpt>
      <trkpt lat="49.29352" lon="1.34966">
        <ele>146</ele>
        <time>2010-03-28T08:12:52Z</time>
      </trkpt>
      <trkpt lat="49.29342" lon="1.34962">
        <ele>146</ele>
        <time>2010-03-28T08:12:54Z</time>
      </trkpt>
      <trkpt lat="49.29333" lon="1.34959">
        <ele>146</ele>
        <time>2010-03-28T08:12:56Z</time>
      </trkpt>
      <trkpt lat="49.29322" lon="1.34958">
        <ele>141</ele>
        <time>2010-03-28T08:12:58Z</time>
      </trkpt>
      <trkpt lat="49.29313" lon="1.3496">
        <ele>141</ele>
        <time>2010-03-28T08:13:00Z</time>
      </trkpt>
      <trkpt lat="49.29301" lon="1.34967">
        <ele>141</ele>
        <time>2010-03-28T08:13:03Z</time>
      </trkpt>
      <trkpt lat="49.29289" lon="1.34976">
        <ele>141</ele>
        <time>2010-03-28T08:13:06Z</time>
      </trkpt>
      <trkpt lat="49.29277" lon="1.34985">
        <ele>141</ele>
        <time>2010-03-28T08:13:09Z</time>
      </trkpt>
      <trkpt lat="49.29266" lon="1.34993">
        <ele>141</ele>
        <time>2010-03-28T08:13:12Z</time>
      </trkpt>
      <trkpt lat="49.29254" lon="1.35002">
        <ele>141</ele>
        <time>2010-03-28T08:13:15Z</time>
      </trkpt>
      <trkpt lat="49.29246" lon="1.35009">
        <ele>141</ele>
        <time>2010-03-28T08:13:17Z</time>
      </trkpt>
      <trkpt lat="49.29236" lon="1.35018">
        <ele>146</ele>
        <time>2010-03-28T08:13:20Z</time>
      </trkpt>
      <trkpt lat="49.29226" lon="1.35029">
        <ele>146</ele>
        <time>2010-03-28T08:13:23Z</time>
      </trkpt>
      <trkpt lat="49.29217" lon="1.35039">
        <ele>146</ele>
        <time>2010-03-28T08:13:26Z</time>
      </trkpt>
      <trkpt lat="49.29211" lon="1.35051">
        <ele>146</ele>
        <time>2010-03-28T08:13:29Z</time>
      </trkpt>
      <trkpt lat="49.29205" lon="1.35065">
        <ele>146</ele>
        <time>2010-03-28T08:13:33Z</time>
      </trkpt>
      <trkpt lat="49.29195" lon="1.35068">
        <ele>146</ele>
        <time>2010-03-28T08:13:38Z</time>
      </trkpt>
      <trkpt lat="49.29185" lon="1.35064">
        <ele>146</ele>
        <time>2010-03-28T08:13:42Z</time>
      </trkpt>
      <trkpt lat="49.29173" lon="1.35061">
        <ele>146</ele>
        <time>2010-03-28T08:13:46Z</time>
      </trkpt>
      <trkpt lat="49.29163" lon="1.35059">
        <ele>146</ele>
        <time>2010-03-28T08:13:49Z</time>
      </trkpt>
      <trkpt lat="49.29154" lon="1.35057">
        <ele>146</ele>
        <time>2010-03-28T08:13:52Z</time>
      </trkpt>
      <trkpt lat="49.29143" lon="1.35055">
        <ele>146</ele>
        <time>2010-03-28T08:13:56Z</time>
      </trkpt>
      <trkpt lat="49.29132" lon="1.35053">
        <ele>146</ele>
        <time>2010-03-28T08:14:00Z</time>
      </trkpt>
      <trkpt lat="49.2912" lon="1.35051">
        <ele>146</ele>
        <time>2010-03-28T08:14:04Z</time>
      </trkpt>
      <trkpt lat="49.2911" lon="1.35048">
        <ele>146</ele>
        <time>2010-03-28T08:14:07Z</time>
      </trkpt>
      <trkpt lat="49.29101" lon="1.35046">
        <ele>146</ele>
        <time>2010-03-28T08:14:10Z</time>
      </trkpt>
      <trkpt lat="49.29089" lon="1.35043">
        <ele>146</ele>
        <time>2010-03-28T08:14:14Z</time>
      </trkpt>
      <trkpt lat="49.2908" lon="1.3504">
        <ele>146</ele>
        <time>2010-03-28T08:14:17Z</time>
      </trkpt>
      <trkpt lat="49.2907" lon="1.35038">
        <ele>146</ele>
        <time>2010-03-28T08:14:20Z</time>
      </trkpt>
      <trkpt lat="49.29059" lon="1.35037">
        <ele>146</ele>
        <time>2010-03-28T08:14:23Z</time>
      </trkpt>
      <trkpt lat="49.29049" lon="1.35035">
        <ele>146</ele>
        <time>2010-03-28T08:14:26Z</time>
      </trkpt>
      <trkpt lat="49.29038" lon="1.35033">
        <ele>146</ele>
        <time>2010-03-28T08:14:29Z</time>
      </trkpt>
      <trkpt lat="49.29026" lon="1.35031">
        <ele>146</ele>
        <time>2010-03-28T08:14:32Z</time>
      </trkpt>
      <trkpt lat="49.29015" lon="1.35029">
        <ele>146</ele>
        <time>2010-03-28T08:14:35Z</time>
      </trkpt>
      <trkpt lat="49.29004" lon="1.35028">
        <ele>146</ele>
        <time>2010-03-28T08:14:38Z</time>
      </trkpt>
      <trkpt lat="49.28994" lon="1.35027">
        <ele>146</ele>
        <time>2010-03-28T08:14:41Z</time>
      </trkpt>
      <trkpt lat="49.28984" lon="1.35024">
        <ele>146</ele>
        <time>2010-03-28T08:14:44Z</time>
      </trkpt>
      <trkpt lat="49.28974" lon="1.35022">
        <ele>146</ele>
        <time>2010-03-28T08:14:47Z</time>
      </trkpt>
      <trkpt lat="49.28964" lon="1.3502">
        <ele>146</ele>
        <time>2010-03-28T08:14:50Z</time>
      </trkpt>
      <trkpt lat="49.28952" lon="1.3502">
        <ele>146</ele>
        <time>2010-03-28T08:14:53Z</time>
      </trkpt>
      <trkpt lat="49.28942" lon="1.3502">
        <ele>146</ele>
        <time>2010-03-28T08:14:56Z</time>
      </trkpt>
      <trkpt lat="49.28931" lon="1.3502">
        <ele>146</ele>
        <time>2010-03-28T08:14:59Z</time>
      </trkpt>
      <trkpt lat="49.28921" lon="1.3502">
        <ele>146</ele>
        <time>2010-03-28T08:15:02Z</time>
      </trkpt>
      <trkpt lat="49.2891" lon="1.35021">
        <ele>146</ele>
        <time>2010-03-28T08:15:05Z</time>
      </trkpt>
      <trkpt lat="49.28899" lon="1.35021">
        <ele>146</ele>
        <time>2010-03-28T08:15:08Z</time>
      </trkpt>
      <trkpt lat="49.28888" lon="1.35021">
        <ele>146</ele>
        <time>2010-03-28T08:15:11Z</time>
      </trkpt>
      <trkpt lat="49.28878" lon="1.35021">
        <ele>146</ele>
        <time>2010-03-28T08:15:14Z</time>
      </trkpt>
      <trkpt lat="49.28868" lon="1.35021">
        <ele>146</ele>
        <time>2010-03-28T08:15:17Z</time>
      </trkpt>
      <trkpt lat="49.28858" lon="1.35021">
        <ele>146</ele>
        <time>2010-03-28T08:15:20Z</time>
      </trkpt>
      <trkpt lat="49.28848" lon="1.35021">
        <ele>146</ele>
        <time>2010-03-28T08:15:23Z</time>
      </trkpt>
      <trkpt lat="49.28838" lon="1.3502">
        <ele>146</ele>
        <time>2010-03-28T08:15:26Z</time>
      </trkpt>
      <trkpt lat="49.28827" lon="1.35021">
        <ele>146</ele>
        <time>2010-03-28T08:15:30Z</time>
      </trkpt>
      <trkpt lat="49.28817" lon="1.3502">
        <ele>146</ele>
        <time>2010-03-28T08:15:33Z</time>
      </trkpt>
      <trkpt lat="49.28807" lon="1.3502">
        <ele>141</ele>
        <time>2010-03-28T08:15:36Z</time>
      </trkpt>
      <trkpt lat="49.28797" lon="1.35021">
        <ele>141</ele>
        <time>2010-03-28T08:15:39Z</time>
      </trkpt>
      <trkpt lat="49.28787" lon="1.35022">
        <ele>141</ele>
        <time>2010-03-28T08:15:42Z</time>
      </trkpt>
      <trkpt lat="49.28778" lon="1.35023">
        <ele>141</ele>
        <time>2010-03-28T08:15:45Z</time>
      </trkpt>
      <trkpt lat="49.28768" lon="1.35024">
        <ele>141</ele>
        <time>2010-03-28T08:15:48Z</time>
      </trkpt>
      <trkpt lat="49.28759" lon="1.35025">
        <ele>141</ele>
        <time>2010-03-28T08:15:51Z</time>
      </trkpt>
      <trkpt lat="49.28747" lon="1.35027">
        <ele>141</ele>
        <time>2010-03-28T08:15:55Z</time>
      </trkpt>
      <trkpt lat="49.28736" lon="1.35029">
        <ele>141</ele>
        <time>2010-03-28T08:15:59Z</time>
      </trkpt>
      <trkpt lat="49.28727" lon="1.35033">
        <ele>141</ele>
        <time>2010-03-28T08:16:02Z</time>
      </trkpt>
      <trkpt lat="49.28715" lon="1.35037">
        <ele>141</ele>
        <time>2010-03-28T08:16:06Z</time>
      </trkpt>
      <trkpt lat="49.28706" lon="1.35042">
        <ele>141</ele>
        <time>2010-03-28T08:16:09Z</time>
      </trkpt>
      <trkpt lat="49.28697" lon="1.35046">
        <ele>141</ele>
        <time>2010-03-28T08:16:12Z</time>
      </trkpt>
      <trkpt lat="49.28686" lon="1.35053">
        <ele>141</ele>
        <time>2010-03-28T08:16:16Z</time>
      </trkpt>
      <trkpt lat="49.28677" lon="1.35058">
        <ele>141</ele>
        <time>2010-03-28T08:16:19Z</time>
      </trkpt>
      <trkpt lat="49.28666" lon="1.35064">
        <ele>141</ele>
        <time>2010-03-28T08:16:23Z</time>
      </trkpt>
      <trkpt lat="49.28657" lon="1.35069">
        <ele>141</ele>
        <time>2010-03-28T08:16:26Z</time>
      </trkpt>
      <trkpt lat="49.28648" lon="1.35074">
        <ele>141</ele>
        <time>2010-03-28T08:16:29Z</time>
      </trkpt>
      <trkpt lat="49.28639" lon="1.35082">
        <ele>141</ele>
        <time>2010-03-28T08:16:32Z</time>
      </trkpt>
      <trkpt lat="49.28629" lon="1.35088">
        <ele>141</ele>
        <time>2010-03-28T08:16:35Z</time>
      </trkpt>
      <trkpt lat="49.28617" lon="1.35093">
        <ele>141</ele>
        <time>2010-03-28T08:16:38Z</time>
      </trkpt>
      <trkpt lat="49.28607" lon="1.351">
        <ele>141</ele>
        <time>2010-03-28T08:16:41Z</time>
      </trkpt>
      <trkpt lat="49.28596" lon="1.35108">
        <ele>141</ele>
        <time>2010-03-28T08:16:44Z</time>
      </trkpt>
      <trkpt lat="49.28585" lon="1.35115">
        <ele>141</ele>
        <time>2010-03-28T08:16:47Z</time>
      </trkpt>
      <trkpt lat="49.28572" lon="1.35122">
        <ele>141</ele>
        <time>2010-03-28T08:16:50Z</time>
      </trkpt>
      <trkpt lat="49.2856" lon="1.35129">
        <ele>141</ele>
        <time>2010-03-28T08:16:53Z</time>
      </trkpt>
      <trkpt lat="49.28551" lon="1.35135">
        <ele>141</ele>
        <time>2010-03-28T08:16:55Z</time>
      </trkpt>
      <trkpt lat="49.28542" lon="1.3514">
        <ele>141</ele>
        <time>2010-03-28T08:16:57Z</time>
      </trkpt>
      <trkpt lat="49.28533" lon="1.35144">
        <ele>141</ele>
        <time>2010-03-28T08:16:59Z</time>
      </trkpt>
      <trkpt lat="49.28524" lon="1.3515">
        <ele>141</ele>
        <time>2010-03-28T08:17:01Z</time>
      </trkpt>
      <trkpt lat="49.28515" lon="1.35154">
        <ele>141</ele>
        <time>2010-03-28T08:17:03Z</time>
      </trkpt>
      <trkpt lat="49.28506" lon="1.3516">
        <ele>141</ele>
        <time>2010-03-28T08:17:05Z</time>
      </trkpt>
      <trkpt lat="49.28496" lon="1.35164">
        <ele>136</ele>
        <time>2010-03-28T08:17:07Z</time>
      </trkpt>
      <trkpt lat="49.28487" lon="1.35169">
        <ele>136</ele>
        <time>2010-03-28T08:17:09Z</time>
      </trkpt>
      <trkpt lat="49.28478" lon="1.35173">
        <ele>136</ele>
        <time>2010-03-28T08:17:11Z</time>
      </trkpt>
      <trkpt lat="49.28467" lon="1.35179">
        <ele>136</ele>
        <time>2010-03-28T08:17:14Z</time>
      </trkpt>
      <trkpt lat="49.28459" lon="1.35186">
        <ele>117</ele>
        <time>2010-03-28T08:18:36Z</time>
      </trkpt>
      <trkpt lat="49.28453" lon="1.35197">
        <ele>117</ele>
        <time>2010-03-28T08:18:43Z</time>
      </trkpt>
      <trkpt lat="49.28446" lon="1.35209">
        <ele>124</ele>
        <time>2010-03-28T08:18:55Z</time>
      </trkpt>
      <trkpt lat="49.2844" lon="1.35222">
        <ele>124</ele>
        <time>2010-03-28T08:18:59Z</time>
      </trkpt>
      <trkpt lat="49.28436" lon="1.35238">
        <ele>124</ele>
        <time>2010-03-28T08:19:02Z</time>
      </trkpt>
      <trkpt lat="49.28436" lon="1.35257">
        <ele>124</ele>
        <time>2010-03-28T08:19:05Z</time>
      </trkpt>
      <trkpt lat="49.28441" lon="1.35269">
        <ele>124</ele>
        <time>2010-03-28T08:19:07Z</time>
      </trkpt>
      <trkpt lat="49.28446" lon="1.35281">
        <ele>124</ele>
        <time>2010-03-28T08:19:09Z</time>
      </trkpt>
      <trkpt lat="49.28454" lon="1.35291">
        <ele>124</ele>
        <time>2010-03-28T08:19:12Z</time>
      </trkpt>
      <trkpt lat="49.28463" lon="1.35296">
        <ele>124</ele>
        <time>2010-03-28T08:19:15Z</time>
      </trkpt>
      <trkpt lat="49.28474" lon="1.35303">
        <ele>124</ele>
        <time>2010-03-28T08:19:19Z</time>
      </trkpt>
      <trkpt lat="49.28484" lon="1.3531">
        <ele>124</ele>
        <time>2010-03-28T08:19:23Z</time>
      </trkpt>
      <trkpt lat="49.28494" lon="1.35317">
        <ele>124</ele>
        <time>2010-03-28T08:19:27Z</time>
      </trkpt>
      <trkpt lat="49.28505" lon="1.35323">
        <ele>124</ele>
        <time>2010-03-28T08:19:30Z</time>
      </trkpt>
      <trkpt lat="49.28515" lon="1.35332">
        <ele>124</ele>
        <time>2010-03-28T08:19:33Z</time>
      </trkpt>
      <trkpt lat="49.28523" lon="1.35339">
        <ele>124</ele>
        <time>2010-03-28T08:19:36Z</time>
      </trkpt>
      <trkpt lat="49.28534" lon="1.35347">
        <ele>124</ele>
        <time>2010-03-28T08:19:40Z</time>
      </trkpt>
      <trkpt lat="49.28544" lon="1.35353">
        <ele>124</ele>
        <time>2010-03-28T08:19:44Z</time>
      </trkpt>
      <trkpt lat="49.28552" lon="1.3536">
        <ele>124</ele>
        <time>2010-03-28T08:19:47Z</time>
      </trkpt>
      <trkpt lat="49.2856" lon="1.35367">
        <ele>124</ele>
        <time>2010-03-28T08:19:50Z</time>
      </trkpt>
      <trkpt lat="49.28569" lon="1.35375">
        <ele>124</ele>
        <time>2010-03-28T08:19:53Z</time>
      </trkpt>
      <trkpt lat="49.28577" lon="1.35382">
        <ele>124</ele>
        <time>2010-03-28T08:19:56Z</time>
      </trkpt>
      <trkpt lat="49.28586" lon="1.3539">
        <ele>131</ele>
        <time>2010-03-28T08:19:59Z</time>
      </trkpt>
      <trkpt lat="49.28596" lon="1.354">
        <ele>131</ele>
        <time>2010-03-28T08:20:03Z</time>
      </trkpt>
      <trkpt lat="49.28603" lon="1.35409">
        <ele>131</ele>
        <time>2010-03-28T08:20:06Z</time>
      </trkpt>
      <trkpt lat="49.28612" lon="1.35417">
        <ele>131</ele>
        <time>2010-03-28T08:20:09Z</time>
      </trkpt>
      <trkpt lat="49.2862" lon="1.35426">
        <ele>131</ele>
        <time>2010-03-28T08:20:13Z</time>
      </trkpt>
      <trkpt lat="49.28629" lon="1.35435">
        <ele>131</ele>
        <time>2010-03-28T08:20:17Z</time>
      </trkpt>
      <trkpt lat="49.28636" lon="1.35445">
        <ele>131</ele>
        <time>2010-03-28T08:20:21Z</time>
      </trkpt>
      <trkpt lat="49.28643" lon="1.35455">
        <ele>131</ele>
        <time>2010-03-28T08:20:25Z</time>
      </trkpt>
      <trkpt lat="49.28651" lon="1.35464">
        <ele>131</ele>
        <time>2010-03-28T08:20:29Z</time>
      </trkpt>
      <trkpt lat="49.28659" lon="1.35474">
        <ele>131</ele>
        <time>2010-03-28T08:20:34Z</time>
      </trkpt>
      <trkpt lat="49.28667" lon="1.35484">
        <ele>131</ele>
        <time>2010-03-28T08:20:39Z</time>
      </trkpt>
      <trkpt lat="49.28677" lon="1.35493">
        <ele>131</ele>
        <time>2010-03-28T08:20:44Z</time>
      </trkpt>
      <trkpt lat="49.28686" lon="1.35501">
        <ele>139</ele>
        <time>2010-03-28T08:20:48Z</time>
      </trkpt>
      <trkpt lat="49.28695" lon="1.35514">
        <ele>139</ele>
        <time>2010-03-28T08:20:52Z</time>
      </trkpt>
      <trkpt lat="49.28703" lon="1.35522">
        <ele>139</ele>
        <time>2010-03-28T08:20:56Z</time>
      </trkpt>
      <trkpt lat="49.28712" lon="1.35528">
        <ele>139</ele>
        <time>2010-03-28T08:21:00Z</time>
      </trkpt>
      <trkpt lat="49.28721" lon="1.35533">
        <ele>139</ele>
        <time>2010-03-28T08:21:03Z</time>
      </trkpt>
      <trkpt lat="49.28732" lon="1.35537">
        <ele>139</ele>
        <time>2010-03-28T08:21:08Z</time>
      </trkpt>
      <trkpt lat="49.28741" lon="1.3554">
        <ele>139</ele>
        <time>2010-03-28T08:21:12Z</time>
      </trkpt>
      <trkpt lat="49.28751" lon="1.35541">
        <ele>139</ele>
        <time>2010-03-28T08:21:16Z</time>
      </trkpt>
      <trkpt lat="49.28761" lon="1.35543">
        <ele>139</ele>
        <time>2010-03-28T08:21:20Z</time>
      </trkpt>
      <trkpt lat="49.28771" lon="1.35545">
        <ele>139</ele>
        <time>2010-03-28T08:21:24Z</time>
      </trkpt>
      <trkpt lat="49.28781" lon="1.35547">
        <ele>139</ele>
        <time>2010-03-28T08:21:28Z</time>
      </trkpt>
      <trkpt lat="49.28791" lon="1.35548">
        <ele>139</ele>
        <time>2010-03-28T08:21:32Z</time>
      </trkpt>
      <trkpt lat="49.28802" lon="1.3555">
        <ele>139</ele>
        <time>2010-03-28T08:21:36Z</time>
      </trkpt>
      <trkpt lat="49.28813" lon="1.35552">
        <ele>139</ele>
        <time>2010-03-28T08:21:40Z</time>
      </trkpt>
      <trkpt lat="49.28824" lon="1.35553">
        <ele>145</ele>
        <time>2010-03-28T08:21:44Z</time>
      </trkpt>
      <trkpt lat="49.28835" lon="1.35554">
        <ele>145</ele>
        <time>2010-03-28T08:21:48Z</time>
      </trkpt>
      <trkpt lat="49.28845" lon="1.35554">
        <ele>145</ele>
        <time>2010-03-28T08:21:52Z</time>
      </trkpt>
      <trkpt lat="49.28857" lon="1.35552">
        <ele>145</ele>
        <time>2010-03-28T08:21:56Z</time>
      </trkpt>
      <trkpt lat="49.28868" lon="1.3555">
        <ele>145</ele>
        <time>2010-03-28T08:22:00Z</time>
      </trkpt>
      <trkpt lat="49.2888" lon="1.35547">
        <ele>145</ele>
        <time>2010-03-28T08:22:04Z</time>
      </trkpt>
      <trkpt lat="49.28891" lon="1.35544">
        <ele>145</ele>
        <time>2010-03-28T08:22:08Z</time>
      </trkpt>
      <trkpt lat="49.28903" lon="1.35541">
        <ele>145</ele>
        <time>2010-03-28T08:22:12Z</time>
      </trkpt>
      <trkpt lat="49.28912" lon="1.35538">
        <ele>150</ele>
        <time>2010-03-28T08:22:15Z</time>
      </trkpt>
      <trkpt lat="49.28922" lon="1.35534">
        <ele>150</ele>
        <time>2010-03-28T08:22:18Z</time>
      </trkpt>
      <trkpt lat="49.28932" lon="1.35532">
        <ele>150</ele>
        <time>2010-03-28T08:22:21Z</time>
      </trkpt>
      <trkpt lat="49.28942" lon="1.35528">
        <ele>150</ele>
        <time>2010-03-28T08:22:24Z</time>
      </trkpt>
      <trkpt lat="49.28952" lon="1.35524">
        <ele>150</ele>
        <time>2010-03-28T08:22:27Z</time>
      </trkpt>
      <trkpt lat="49.28962" lon="1.35521">
        <ele>150</ele>
        <time>2010-03-28T08:22:30Z</time>
      </trkpt>
      <trkpt lat="49.28972" lon="1.35517">
        <ele>150</ele>
        <time>2010-03-28T08:22:33Z</time>
      </trkpt>
      <trkpt lat="49.28982" lon="1.35514">
        <ele>150</ele>
        <time>2010-03-28T08:22:36Z</time>
      </trkpt>
      <trkpt lat="49.28993" lon="1.3551">
        <ele>150</ele>
        <time>2010-03-28T08:22:39Z</time>
      </trkpt>
      <trkpt lat="49.29004" lon="1.35506">
        <ele>150</ele>
        <time>2010-03-28T08:22:42Z</time>
      </trkpt>
      <trkpt lat="49.29015" lon="1.35502">
        <ele>150</ele>
        <time>2010-03-28T08:22:45Z</time>
      </trkpt>
      <trkpt lat="49.29027" lon="1.35497">
        <ele>150</ele>
        <time>2010-03-28T08:22:48Z</time>
      </trkpt>
      <trkpt lat="49.29039" lon="1.35494">
        <ele>150</ele>
        <time>2010-03-28T08:22:51Z</time>
      </trkpt>
      <trkpt lat="49.29051" lon="1.35489">
        <ele>150</ele>
        <time>2010-03-28T08:22:54Z</time>
      </trkpt>
      <trkpt lat="49.29065" lon="1.35485">
        <ele>150</ele>
        <time>2010-03-28T08:22:57Z</time>
      </trkpt>
      <trkpt lat="49.29078" lon="1.3548">
        <ele>150</ele>
        <time>2010-03-28T08:23:00Z</time>
      </trkpt>
      <trkpt lat="49.29087" lon="1.35477">
        <ele>150</ele>
        <time>2010-03-28T08:23:02Z</time>
      </trkpt>
      <trkpt lat="49.29101" lon="1.35472">
        <ele>150</ele>
        <time>2010-03-28T08:23:05Z</time>
      </trkpt>
      <trkpt lat="49.2911" lon="1.3547">
        <ele>150</ele>
        <time>2010-03-28T08:23:07Z</time>
      </trkpt>
      <trkpt lat="49.2912" lon="1.35468">
        <ele>150</ele>
        <time>2010-03-28T08:23:09Z</time>
      </trkpt>
      <trkpt lat="49.29129" lon="1.35465">
        <ele>150</ele>
        <time>2010-03-28T08:23:11Z</time>
      </trkpt>
      <trkpt lat="49.2914" lon="1.35462">
        <ele>150</ele>
        <time>2010-03-28T08:23:13Z</time>
      </trkpt>
      <trkpt lat="49.2915" lon="1.3546">
        <ele>150</ele>
        <time>2010-03-28T08:23:15Z</time>
      </trkpt>
      <trkpt lat="49.2916" lon="1.35456">
        <ele>150</ele>
        <time>2010-03-28T08:23:17Z</time>
      </trkpt>
      <trkpt lat="49.2917" lon="1.35453">
        <ele>150</ele>
        <time>2010-03-28T08:23:19Z</time>
      </trkpt>
      <trkpt lat="49.29179" lon="1.35451">
        <ele>150</ele>
        <time>2010-03-28T08:23:21Z</time>
      </trkpt>
      <trkpt lat="49.29193" lon="1.35447">
        <ele>150</ele>
        <time>2010-03-28T08:23:24Z</time>
      </trkpt>
      <trkpt lat="49.29202" lon="1.35444">
        <ele>150</ele>
        <time>2010-03-28T08:23:26Z</time>
      </trkpt>
      <trkpt lat="49.29212" lon="1.35443">
        <ele>150</ele>
        <time>2010-03-28T08:23:28Z</time>
      </trkpt>
      <trkpt lat="49.29222" lon="1.3544">
        <ele>150</ele>
        <time>2010-03-28T08:23:30Z</time>
      </trkpt>
      <trkpt lat="49.29232" lon="1.35438">
        <ele>150</ele>
        <time>2010-03-28T08:23:32Z</time>
      </trkpt>
      <trkpt lat="49.29242" lon="1.35435">
        <ele>150</ele>
        <time>2010-03-28T08:23:34Z</time>
      </trkpt>
      <trkpt lat="49.29252" lon="1.35432">
        <ele>150</ele>
        <time>2010-03-28T08:23:36Z</time>
      </trkpt>
      <trkpt lat="49.29261" lon="1.35428">
        <ele>150</ele>
        <time>2010-03-28T08:23:38Z</time>
      </trkpt>
      <trkpt lat="49.29271" lon="1.35424">
        <ele>150</ele>
        <time>2010-03-28T08:23:40Z</time>
      </trkpt>
      <trkpt lat="49.2928" lon="1.35418">
        <ele>150</ele>
        <time>2010-03-28T08:23:42Z</time>
      </trkpt>
      <trkpt lat="49.29289" lon="1.35411">
        <ele>150</ele>
        <time>2010-03-28T08:23:44Z</time>
      </trkpt>
      <trkpt lat="49.29297" lon="1.35404">
        <ele>150</ele>
        <time>2010-03-28T08:23:46Z</time>
      </trkpt>
      <trkpt lat="49.29306" lon="1.35396">
        <ele>150</ele>
        <time>2010-03-28T08:23:48Z</time>
      </trkpt>
      <trkpt lat="49.29315" lon="1.35388">
        <ele>150</ele>
        <time>2010-03-28T08:23:50Z</time>
      </trkpt>
      <trkpt lat="49.29324" lon="1.35379">
        <ele>150</ele>
        <time>2010-03-28T08:23:52Z</time>
      </trkpt>
      <trkpt lat="49.29334" lon="1.3537">
        <ele>150</ele>
        <time>2010-03-28T08:23:54Z</time>
      </trkpt>
      <trkpt lat="49.29343" lon="1.3536">
        <ele>150</ele>
        <time>2010-03-28T08:23:56Z</time>
      </trkpt>
      <trkpt lat="49.29353" lon="1.35348">
        <ele>150</ele>
        <time>2010-03-28T08:23:59Z</time>
      </trkpt>
      <trkpt lat="49.29361" lon="1.3534">
        <ele>150</ele>
        <time>2010-03-28T08:24:01Z</time>
      </trkpt>
      <trkpt lat="49.29372" lon="1.35328">
        <ele>150</ele>
        <time>2010-03-28T08:24:04Z</time>
      </trkpt>
      <trkpt lat="49.29383" lon="1.35318">
        <ele>150</ele>
        <time>2010-03-28T08:24:07Z</time>
      </trkpt>
      <trkpt lat="49.29395" lon="1.3532">
        <ele>150</ele>
        <time>2010-03-28T08:24:10Z</time>
      </trkpt>
      <trkpt lat="49.29404" lon="1.35329">
        <ele>150</ele>
        <time>2010-03-28T08:24:12Z</time>
      </trkpt>
      <trkpt lat="49.29412" lon="1.35347">
        <ele>150</ele>
        <time>2010-03-28T08:24:15Z</time>
      </trkpt>
      <trkpt lat="49.2942" lon="1.35364">
        <ele>150</ele>
        <time>2010-03-28T08:24:18Z</time>
      </trkpt>
      <trkpt lat="49.29428" lon="1.3538">
        <ele>150</ele>
        <time>2010-03-28T08:24:21Z</time>
      </trkpt>
      <trkpt lat="49.29436" lon="1.35394">
        <ele>150</ele>
        <time>2010-03-28T08:24:24Z</time>
      </trkpt>
      <trkpt lat="49.29444" lon="1.35409">
        <ele>144</ele>
        <time>2010-03-28T08:24:27Z</time>
      </trkpt>
      <trkpt lat="49.29451" lon="1.35424">
        <ele>144</ele>
        <time>2010-03-28T08:24:30Z</time>
      </trkpt>
      <trkpt lat="49.29458" lon="1.35438">
        <ele>144</ele>
        <time>2010-03-28T08:24:33Z</time>
      </trkpt>
      <trkpt lat="49.29466" lon="1.35452">
        <ele>144</ele>
        <time>2010-03-28T08:24:36Z</time>
      </trkpt>
      <trkpt lat="49.29474" lon="1.35468">
        <ele>144</ele>
        <time>2010-03-28T08:24:39Z</time>
      </trkpt>
      <trkpt lat="49.29481" lon="1.35482">
        <ele>144</ele>
        <time>2010-03-28T08:24:42Z</time>
      </trkpt>
      <trkpt lat="49.29488" lon="1.35496">
        <ele>144</ele>
        <time>2010-03-28T08:24:45Z</time>
      </trkpt>
      <trkpt lat="49.29495" lon="1.35509">
        <ele>144</ele>
        <time>2010-03-28T08:24:48Z</time>
      </trkpt>
      <trkpt lat="49.29502" lon="1.35521">
        <ele>144</ele>
        <time>2010-03-28T08:24:51Z</time>
      </trkpt>
      <trkpt lat="49.29509" lon="1.35533">
        <ele>144</ele>
        <time>2010-03-28T08:24:54Z</time>
      </trkpt>
      <trkpt lat="49.29519" lon="1.35542">
        <ele>149</ele>
        <time>2010-03-28T08:24:57Z</time>
      </trkpt>
      <trkpt lat="49.29531" lon="1.35542">
        <ele>149</ele>
        <time>2010-03-28T08:25:00Z</time>
      </trkpt>
      <trkpt lat="49.29543" lon="1.35537">
        <ele>149</ele>
        <time>2010-03-28T08:25:03Z</time>
      </trkpt>
      <trkpt lat="49.29555" lon="1.3553">
        <ele>149</ele>
        <time>2010-03-28T08:25:06Z</time>
      </trkpt>
      <trkpt lat="49.29566" lon="1.35523">
        <ele>149</ele>
        <time>2010-03-28T08:25:09Z</time>
      </trkpt>
      <trkpt lat="49.29578" lon="1.35517">
        <ele>149</ele>
        <time>2010-03-28T08:25:12Z</time>
      </trkpt>
      <trkpt lat="49.29588" lon="1.35512">
        <ele>149</ele>
        <time>2010-03-28T08:25:15Z</time>
      </trkpt>
      <trkpt lat="49.29599" lon="1.35507">
        <ele>149</ele>
        <time>2010-03-28T08:25:18Z</time>
      </trkpt>
      <trkpt lat="49.29609" lon="1.35509">
        <ele>149</ele>
        <time>2010-03-28T08:25:21Z</time>
      </trkpt>
      <trkpt lat="49.29614" lon="1.35524">
        <ele>149</ele>
        <time>2010-03-28T08:25:25Z</time>
      </trkpt>
      <trkpt lat="49.29618" lon="1.35537">
        <ele>149</ele>
        <time>2010-03-28T08:25:28Z</time>
      </trkpt>
      <trkpt lat="49.29622" lon="1.35552">
        <ele>149</ele>
        <time>2010-03-28T08:25:31Z</time>
      </trkpt>
      <trkpt lat="49.29626" lon="1.35568">
        <ele>149</ele>
        <time>2010-03-28T08:25:34Z</time>
      </trkpt>
      <trkpt lat="49.29631" lon="1.35584">
        <ele>149</ele>
        <time>2010-03-28T08:25:37Z</time>
      </trkpt>
      <trkpt lat="49.29637" lon="1.35599">
        <ele>149</ele>
        <time>2010-03-28T08:25:40Z</time>
      </trkpt>
      <trkpt lat="49.2964" lon="1.35614">
        <ele>149</ele>
        <time>2010-03-28T08:25:43Z</time>
      </trkpt>
      <trkpt lat="49.29644" lon="1.35629">
        <ele>149</ele>
        <time>2010-03-28T08:25:46Z</time>
      </trkpt>
      <trkpt lat="49.29648" lon="1.35649">
        <ele>149</ele>
        <time>2010-03-28T08:25:49Z</time>
      </trkpt>
      <trkpt lat="49.29652" lon="1.35666">
        <ele>149</ele>
        <time>2010-03-28T08:25:52Z</time>
      </trkpt>
      <trkpt lat="49.29649" lon="1.35682">
        <ele>149</ele>
        <time>2010-03-28T08:25:55Z</time>
      </trkpt>
      <trkpt lat="49.29643" lon="1.35698">
        <ele>149</ele>
        <time>2010-03-28T08:25:58Z</time>
      </trkpt>
      <trkpt lat="49.29634" lon="1.35709">
        <ele>144</ele>
        <time>2010-03-28T08:26:01Z</time>
      </trkpt>
      <trkpt lat="49.29624" lon="1.35722">
        <ele>144</ele>
        <time>2010-03-28T08:26:04Z</time>
      </trkpt>
      <trkpt lat="49.29614" lon="1.35733">
        <ele>144</ele>
        <time>2010-03-28T08:26:07Z</time>
      </trkpt>
      <trkpt lat="49.29605" lon="1.35745">
        <ele>144</ele>
        <time>2010-03-28T08:26:10Z</time>
      </trkpt>
      <trkpt lat="49.29596" lon="1.35757">
        <ele>144</ele>
        <time>2010-03-28T08:26:13Z</time>
      </trkpt>
      <trkpt lat="49.2959" lon="1.35772">
        <ele>144</ele>
        <time>2010-03-28T08:26:16Z</time>
      </trkpt>
      <trkpt lat="49.29586" lon="1.3579">
        <ele>144</ele>
        <time>2010-03-28T08:26:19Z</time>
      </trkpt>
      <trkpt lat="49.29585" lon="1.35806">
        <ele>150</ele>
        <time>2010-03-28T08:26:22Z</time>
      </trkpt>
      <trkpt lat="49.29581" lon="1.35822">
        <ele>150</ele>
        <time>2010-03-28T08:26:25Z</time>
      </trkpt>
      <trkpt lat="49.29576" lon="1.35837">
        <ele>150</ele>
        <time>2010-03-28T08:26:28Z</time>
      </trkpt>
      <trkpt lat="49.29571" lon="1.35853">
        <ele>150</ele>
        <time>2010-03-28T08:26:31Z</time>
      </trkpt>
      <trkpt lat="49.29565" lon="1.35869">
        <ele>150</ele>
        <time>2010-03-28T08:26:34Z</time>
      </trkpt>
      <trkpt lat="49.29557" lon="1.35886">
        <ele>150</ele>
        <time>2010-03-28T08:26:37Z</time>
      </trkpt>
      <trkpt lat="49.2955" lon="1.35901">
        <ele>150</ele>
        <time>2010-03-28T08:26:40Z</time>
      </trkpt>
      <trkpt lat="49.29542" lon="1.35915">
        <ele>150</ele>
        <time>2010-03-28T08:26:43Z</time>
      </trkpt>
      <trkpt lat="49.29535" lon="1.35929">
        <ele>150</ele>
        <time>2010-03-28T08:26:46Z</time>
      </trkpt>
      <trkpt lat="49.29528" lon="1.35943">
        <ele>150</ele>
        <time>2010-03-28T08:26:49Z</time>
      </trkpt>
      <trkpt lat="49.29519" lon="1.35957">
        <ele>150</ele>
        <time>2010-03-28T08:26:52Z</time>
      </trkpt>
      <trkpt lat="49.29512" lon="1.35972">
        <ele>150</ele>
        <time>2010-03-28T08:26:55Z</time>
      </trkpt>
      <trkpt lat="49.29503" lon="1.35987">
        <ele>150</ele>
        <time>2010-03-28T08:26:58Z</time>
      </trkpt>
      <trkpt lat="49.29494" lon="1.36">
        <ele>150</ele>
        <time>2010-03-28T08:27:01Z</time>
      </trkpt>
      <trkpt lat="49.29488" lon="1.36011">
        <ele>150</ele>
        <time>2010-03-28T08:27:03Z</time>
      </trkpt>
      <trkpt lat="49.2948" lon="1.36027">
        <ele>150</ele>
        <time>2010-03-28T08:27:06Z</time>
      </trkpt>
      <trkpt lat="49.29472" lon="1.36042">
        <ele>150</ele>
        <time>2010-03-28T08:27:09Z</time>
      </trkpt>
      <trkpt lat="49.29464" lon="1.36057">
        <ele>150</ele>
        <time>2010-03-28T08:27:12Z</time>
      </trkpt>
      <trkpt lat="49.29458" lon="1.36068">
        <ele>150</ele>
        <time>2010-03-28T08:27:14Z</time>
      </trkpt>
      <trkpt lat="49.2945" lon="1.36084">
        <ele>150</ele>
        <time>2010-03-28T08:27:17Z</time>
      </trkpt>
      <trkpt lat="49.29444" lon="1.36095">
        <ele>150</ele>
        <time>2010-03-28T08:27:19Z</time>
      </trkpt>
      <trkpt lat="49.29438" lon="1.36106">
        <ele>150</ele>
        <time>2010-03-28T08:27:21Z</time>
      </trkpt>
      <trkpt lat="49.29431" lon="1.36117">
        <ele>150</ele>
        <time>2010-03-28T08:27:23Z</time>
      </trkpt>
      <trkpt lat="49.29425" lon="1.36129">
        <ele>150</ele>
        <time>2010-03-28T08:27:25Z</time>
      </trkpt>
      <trkpt lat="49.29419" lon="1.36141">
        <ele>150</ele>
        <time>2010-03-28T08:27:27Z</time>
      </trkpt>
      <trkpt lat="49.29412" lon="1.36152">
        <ele>150</ele>
        <time>2010-03-28T08:27:29Z</time>
      </trkpt>
      <trkpt lat="49.29407" lon="1.36163">
        <ele>150</ele>
        <time>2010-03-28T08:27:31Z</time>
      </trkpt>
      <trkpt lat="49.29401" lon="1.36175">
        <ele>155</ele>
        <time>2010-03-28T08:27:33Z</time>
      </trkpt>
      <trkpt lat="49.29394" lon="1.36186">
        <ele>155</ele>
        <time>2010-03-28T08:27:35Z</time>
      </trkpt>
      <trkpt lat="49.29389" lon="1.36198">
        <ele>155</ele>
        <time>2010-03-28T08:27:37Z</time>
      </trkpt>
      <trkpt lat="49.29383" lon="1.3621">
        <ele>155</ele>
        <time>2010-03-28T08:27:39Z</time>
      </trkpt>
      <trkpt lat="49.29377" lon="1.36221">
        <ele>155</ele>
        <time>2010-03-28T08:27:41Z</time>
      </trkpt>
      <trkpt lat="49.2937" lon="1.36233">
        <ele>155</ele>
        <time>2010-03-28T08:27:43Z</time>
      </trkpt>
      <trkpt lat="49.29364" lon="1.36246">
        <ele>155</ele>
        <time>2010-03-28T08:27:45Z</time>
      </trkpt>
      <trkpt lat="49.29358" lon="1.36257">
        <ele>155</ele>
        <time>2010-03-28T08:27:47Z</time>
      </trkpt>
      <trkpt lat="49.29351" lon="1.3627">
        <ele>155</ele>
        <time>2010-03-28T08:27:49Z</time>
      </trkpt>
      <trkpt lat="49.29346" lon="1.36283">
        <ele>155</ele>
        <time>2010-03-28T08:27:51Z</time>
      </trkpt>
      <trkpt lat="49.29339" lon="1.36295">
        <ele>155</ele>
        <time>2010-03-28T08:27:53Z</time>
      </trkpt>
      <trkpt lat="49.29333" lon="1.36309">
        <ele>155</ele>
        <time>2010-03-28T08:27:55Z</time>
      </trkpt>
      <trkpt lat="49.29326" lon="1.36322">
        <ele>155</ele>
        <time>2010-03-28T08:27:57Z</time>
      </trkpt>
      <trkpt lat="49.2932" lon="1.36337">
        <ele>155</ele>
        <time>2010-03-28T08:27:59Z</time>
      </trkpt>
      <trkpt lat="49.29313" lon="1.36353">
        <ele>155</ele>
        <time>2010-03-28T08:28:01Z</time>
      </trkpt>
      <trkpt lat="49.29305" lon="1.36371">
        <ele>155</ele>
        <time>2010-03-28T08:28:03Z</time>
      </trkpt>
      <trkpt lat="49.29297" lon="1.36389">
        <ele>155</ele>
        <time>2010-03-28T08:28:05Z</time>
      </trkpt>
      <trkpt lat="49.29289" lon="1.36407">
        <ele>155</ele>
        <time>2010-03-28T08:28:07Z</time>
      </trkpt>
      <trkpt lat="49.29281" lon="1.36425">
        <ele>155</ele>
        <time>2010-03-28T08:28:09Z</time>
      </trkpt>
      <trkpt lat="49.29273" lon="1.36445">
        <ele>155</ele>
        <time>2010-03-28T08:28:11Z</time>
      </trkpt>
      <trkpt lat="49.29264" lon="1.36465">
        <ele>155</ele>
        <time>2010-03-28T08:28:13Z</time>
      </trkpt>
      <trkpt lat="49.29256" lon="1.36486">
        <ele>155</ele>
        <time>2010-03-28T08:28:15Z</time>
      </trkpt>
      <trkpt lat="49.29247" lon="1.36508">
        <ele>155</ele>
        <time>2010-03-28T08:28:17Z</time>
      </trkpt>
      <trkpt lat="49.29242" lon="1.3652">
        <ele>155</ele>
        <time>2010-03-28T08:28:18Z</time>
      </trkpt>
      <trkpt lat="49.29236" lon="1.36531">
        <ele>155</ele>
        <time>2010-03-28T08:28:19Z</time>
      </trkpt>
      <trkpt lat="49.2923" lon="1.36543">
        <ele>155</ele>
        <time>2010-03-28T08:28:20Z</time>
      </trkpt>
      <trkpt lat="49.29224" lon="1.36555">
        <ele>149</ele>
        <time>2010-03-28T08:28:21Z</time>
      </trkpt>
      <trkpt lat="49.29217" lon="1.36566">
        <ele>149</ele>
        <time>2010-03-28T08:28:22Z</time>
      </trkpt>
      <trkpt lat="49.2921" lon="1.36576">
        <ele>149</ele>
        <time>2010-03-28T08:28:23Z</time>
      </trkpt>
      <trkpt lat="49.29203" lon="1.36587">
        <ele>149</ele>
        <time>2010-03-28T08:28:24Z</time>
      </trkpt>
      <trkpt lat="49.29197" lon="1.36598">
        <ele>149</ele>
        <time>2010-03-28T08:28:25Z</time>
      </trkpt>
      <trkpt lat="49.2919" lon="1.36609">
        <ele>149</ele>
        <time>2010-03-28T08:28:26Z</time>
      </trkpt>
      <trkpt lat="49.29184" lon="1.3662">
        <ele>149</ele>
        <time>2010-03-28T08:28:27Z</time>
      </trkpt>
      <trkpt lat="49.29177" lon="1.36633">
        <ele>143</ele>
        <time>2010-03-28T08:28:28Z</time>
      </trkpt>
      <trkpt lat="49.29172" lon="1.36646">
        <ele>143</ele>
        <time>2010-03-28T08:28:29Z</time>
      </trkpt>
      <trkpt lat="49.29166" lon="1.3666">
        <ele>143</ele>
        <time>2010-03-28T08:28:30Z</time>
      </trkpt>
      <trkpt lat="49.2916" lon="1.36673">
        <ele>143</ele>
        <time>2010-03-28T08:28:31Z</time>
      </trkpt>
      <trkpt lat="49.29155" lon="1.36687">
        <ele>143</ele>
        <time>2010-03-28T08:28:32Z</time>
      </trkpt>
      <trkpt lat="49.2915" lon="1.367">
        <ele>137</ele>
        <time>2010-03-28T08:28:33Z</time>
      </trkpt>
      <trkpt lat="49.29145" lon="1.36714">
        <ele>137</ele>
        <time>2010-03-28T08:28:34Z</time>
      </trkpt>
      <trkpt lat="49.2914" lon="1.36728">
        <ele>137</ele>
        <time>2010-03-28T08:28:35Z</time>
      </trkpt>
      <trkpt lat="49.29136" lon="1.36743">
        <ele>137</ele>
        <time>2010-03-28T08:28:36Z</time>
      </trkpt>
      <trkpt lat="49.29131" lon="1.36757">
        <ele>137</ele>
        <time>2010-03-28T08:28:37Z</time>
      </trkpt>
      <trkpt lat="49.29127" lon="1.36772">
        <ele>131</ele>
        <time>2010-03-28T08:28:38Z</time>
      </trkpt>
      <trkpt lat="49.29122" lon="1.36787">
        <ele>131</ele>
        <time>2010-03-28T08:28:39Z</time>
      </trkpt>
      <trkpt lat="49.29118" lon="1.36802">
        <ele>131</ele>
        <time>2010-03-28T08:28:40Z</time>
      </trkpt>
      <trkpt lat="49.29115" lon="1.36817">
        <ele>131</ele>
        <time>2010-03-28T08:28:41Z</time>
      </trkpt>
      <trkpt lat="49.29112" lon="1.36833">
        <ele>131</ele>
        <time>2010-03-28T08:28:42Z</time>
      </trkpt>
      <trkpt lat="49.29109" lon="1.3685">
        <ele>131</ele>
        <time>2010-03-28T08:28:43Z</time>
      </trkpt>
      <trkpt lat="49.29107" lon="1.36866">
        <ele>126</ele>
        <time>2010-03-28T08:28:44Z</time>
      </trkpt>
      <trkpt lat="49.29105" lon="1.36884">
        <ele>126</ele>
        <time>2010-03-28T08:28:45Z</time>
      </trkpt>
      <trkpt lat="49.29103" lon="1.369">
        <ele>126</ele>
        <time>2010-03-28T08:28:46Z</time>
      </trkpt>
      <trkpt lat="49.29101" lon="1.36916">
        <ele>126</ele>
        <time>2010-03-28T08:28:47Z</time>
      </trkpt>
      <trkpt lat="49.29098" lon="1.36931">
        <ele>126</ele>
        <time>2010-03-28T08:28:48Z</time>
      </trkpt>
      <trkpt lat="49.29095" lon="1.36945">
        <ele>126</ele>
        <time>2010-03-28T08:28:49Z</time>
      </trkpt>
      <trkpt lat="49.29089" lon="1.36969">
        <ele>126</ele>
        <time>2010-03-28T08:28:51Z</time>
      </trkpt>
      <trkpt lat="49.29079" lon="1.36987">
        <ele>126</ele>
        <time>2010-03-28T08:28:53Z</time>
      </trkpt>
      <trkpt lat="49.29064" lon="1.36995">
        <ele>126</ele>
        <time>2010-03-28T08:28:55Z</time>
      </trkpt>
      <trkpt lat="49.29049" lon="1.36995">
        <ele>126</ele>
        <time>2010-03-28T08:28:57Z</time>
      </trkpt>
      <trkpt lat="49.29036" lon="1.36989">
        <ele>126</ele>
        <time>2010-03-28T08:28:59Z</time>
      </trkpt>
      <trkpt lat="49.29024" lon="1.3698">
        <ele>126</ele>
        <time>2010-03-28T08:29:01Z</time>
      </trkpt>
      <trkpt lat="49.29016" lon="1.36967">
        <ele>120</ele>
        <time>2010-03-28T08:29:03Z</time>
      </trkpt>
      <trkpt lat="49.2901" lon="1.36953">
        <ele>120</ele>
        <time>2010-03-28T08:29:05Z</time>
      </trkpt>
      <trkpt lat="49.29006" lon="1.36937">
        <ele>120</ele>
        <time>2010-03-28T08:29:07Z</time>
      </trkpt>
      <trkpt lat="49.29004" lon="1.36922">
        <ele>120</ele>
        <time>2010-03-28T08:29:09Z</time>
      </trkpt>
      <trkpt lat="49.29001" lon="1.36907">
        <ele>120</ele>
        <time>2010-03-28T08:29:11Z</time>
      </trkpt>
      <trkpt lat="49.28996" lon="1.36893">
        <ele>120</ele>
        <time>2010-03-28T08:29:13Z</time>
      </trkpt>
      <trkpt lat="49.28991" lon="1.3688">
        <ele>120</ele>
        <time>2010-03-28T08:29:15Z</time>
      </trkpt>
      <trkpt lat="49.28984" lon="1.36869">
        <ele>120</ele>
        <time>2010-03-28T08:29:17Z</time>
      </trkpt>
      <trkpt lat="49.28975" lon="1.36861">
        <ele>120</ele>
        <time>2010-03-28T08:29:19Z</time>
      </trkpt>
      <trkpt lat="49.28967" lon="1.36857">
        <ele>120</ele>
        <time>2010-03-28T08:29:21Z</time>
      </trkpt>
      <trkpt lat="49.28955" lon="1.36857">
        <ele>128</ele>
        <time>2010-03-28T08:29:24Z</time>
      </trkpt>
      <trkpt lat="49.28944" lon="1.36863">
        <ele>128</ele>
        <time>2010-03-28T08:29:28Z</time>
      </trkpt>
      <trkpt lat="49.28937" lon="1.36873">
        <ele>128</ele>
        <time>2010-03-28T08:29:34Z</time>
      </trkpt>
      <trkpt lat="49.28929" lon="1.36883">
        <ele>135</ele>
        <time>2010-03-28T08:29:38Z</time>
      </trkpt>
      <trkpt lat="49.2892" lon="1.36893">
        <ele>135</ele>
        <time>2010-03-28T08:29:42Z</time>
      </trkpt>
      <trkpt lat="49.28912" lon="1.36903">
        <ele>135</ele>
        <time>2010-03-28T08:29:46Z</time>
      </trkpt>
      <trkpt lat="49.28904" lon="1.36913">
        <ele>135</ele>
        <time>2010-03-28T08:29:50Z</time>
      </trkpt>
      <trkpt lat="49.28895" lon="1.36924">
        <ele>135</ele>
        <time>2010-03-28T08:29:54Z</time>
      </trkpt>
      <trkpt lat="49.28888" lon="1.36934">
        <ele>135</ele>
        <time>2010-03-28T08:29:58Z</time>
      </trkpt>
      <trkpt lat="49.28881" lon="1.36944">
        <ele>135</ele>
        <time>2010-03-28T08:30:02Z</time>
      </trkpt>
      <trkpt lat="49.28874" lon="1.36953">
        <ele>135</ele>
        <time>2010-03-28T08:30:06Z</time>
      </trkpt>
      <trkpt lat="49.28866" lon="1.36961">
        <ele>135</ele>
        <time>2010-03-28T08:30:10Z</time>
      </trkpt>
      <trkpt lat="49.28858" lon="1.3697">
        <ele>135</ele>
        <time>2010-03-28T08:30:14Z</time>
      </trkpt>
      <trkpt lat="49.28851" lon="1.3698">
        <ele>140</ele>
        <time>2010-03-28T08:30:18Z</time>
      </trkpt>
      <trkpt lat="49.28843" lon="1.36989">
        <ele>140</ele>
        <time>2010-03-28T08:30:22Z</time>
      </trkpt>
      <trkpt lat="49.28834" lon="1.36999">
        <ele>140</ele>
        <time>2010-03-28T08:30:26Z</time>
      </trkpt>
      <trkpt lat="49.28826" lon="1.37008">
        <ele>140</ele>
        <time>2010-03-28T08:30:30Z</time>
      </trkpt>
      <trkpt lat="49.28817" lon="1.37016">
        <ele>140</ele>
        <time>2010-03-28T08:30:34Z</time>
      </trkpt>
      <trkpt lat="49.2881" lon="1.37027">
        <ele>140</ele>
        <time>2010-03-28T08:30:39Z</time>
      </trkpt>
      <trkpt lat="49.28807" lon="1.37043">
        <ele>147</ele>
        <time>2010-03-28T08:30:46Z</time>
      </trkpt>
      <trkpt lat="49.28801" lon="1.37059">
        <ele>147</ele>
        <time>2010-03-28T08:30:51Z</time>
      </trkpt>
      <trkpt lat="49.28795" lon="1.37071">
        <ele>147</ele>
        <time>2010-03-28T08:30:55Z</time>
      </trkpt>
      <trkpt lat="49.28789" lon="1.37083">
        <ele>141</ele>
        <time>2010-03-28T08:30:59Z</time>
      </trkpt>
      <trkpt lat="49.28783" lon="1.37096">
        <ele>141</ele>
        <time>2010-03-28T08:31:03Z</time>
      </trkpt>
      <trkpt lat="49.28776" lon="1.37105">
        <ele>141</ele>
        <time>2010-03-28T08:31:07Z</time>
      </trkpt>
      <trkpt lat="49.28767" lon="1.37112">
        <ele>141</ele>
        <time>2010-03-28T08:31:11Z</time>
      </trkpt>
      <trkpt lat="49.28757" lon="1.37115">
        <ele>141</ele>
        <time>2010-03-28T08:31:16Z</time>
      </trkpt>
      <trkpt lat="49.28746" lon="1.37118">
        <ele>141</ele>
        <time>2010-03-28T08:31:22Z</time>
      </trkpt>
      <trkpt lat="49.2874" lon="1.37129">
        <ele>155</ele>
        <time>2010-03-28T08:32:00Z</time>
      </trkpt>
      <trkpt lat="49.2873" lon="1.37123">
        <ele>143</ele>
        <time>2010-03-28T08:33:11Z</time>
      </trkpt>
      <trkpt lat="49.2872" lon="1.37125">
        <ele>143</ele>
        <time>2010-03-28T08:33:15Z</time>
      </trkpt>
      <trkpt lat="49.2871" lon="1.37129">
        <ele>143</ele>
        <time>2010-03-28T08:33:19Z</time>
      </trkpt>
      <trkpt lat="49.287" lon="1.37132">
        <ele>143</ele>
        <time>2010-03-28T08:33:24Z</time>
      </trkpt>
      <trkpt lat="49.2869" lon="1.3713">
        <ele>152</ele>
        <time>2010-03-28T08:34:18Z</time>
      </trkpt>
      <trkpt lat="49.28679" lon="1.37136">
        <ele>152</ele>
        <time>2010-03-28T08:34:24Z</time>
      </trkpt>
      <trkpt lat="49.2867" lon="1.37137">
        <ele>152</ele>
        <time>2010-03-28T08:34:28Z</time>
      </trkpt>
      <trkpt lat="49.28658" lon="1.3714">
        <ele>152</ele>
        <time>2010-03-28T08:34:32Z</time>
      </trkpt>
      <trkpt lat="49.28649" lon="1.37143">
        <ele>152</ele>
        <time>2010-03-28T08:34:35Z</time>
      </trkpt>
      <trkpt lat="49.28639" lon="1.37148">
        <ele>147</ele>
        <time>2010-03-28T08:34:38Z</time>
      </trkpt>
      <trkpt lat="49.2863" lon="1.37153">
        <ele>147</ele>
        <time>2010-03-28T08:34:41Z</time>
      </trkpt>
      <trkpt lat="49.2862" lon="1.37159">
        <ele>147</ele>
        <time>2010-03-28T08:34:44Z</time>
      </trkpt>
      <trkpt lat="49.2861" lon="1.37164">
        <ele>147</ele>
        <time>2010-03-28T08:34:47Z</time>
      </trkpt>
      <trkpt lat="49.28599" lon="1.37167">
        <ele>147</ele>
        <time>2010-03-28T08:34:50Z</time>
      </trkpt>
      <trkpt lat="49.28589" lon="1.37174">
        <ele>147</ele>
        <time>2010-03-28T08:34:53Z</time>
      </trkpt>
      <trkpt lat="49.28578" lon="1.37181">
        <ele>147</ele>
        <time>2010-03-28T08:34:56Z</time>
      </trkpt>
      <trkpt lat="49.28566" lon="1.37188">
        <ele>147</ele>
        <time>2010-03-28T08:34:59Z</time>
      </trkpt>
      <trkpt lat="49.28558" lon="1.37195">
        <ele>147</ele>
        <time>2010-03-28T08:35:01Z</time>
      </trkpt>
      <trkpt lat="49.28549" lon="1.37203">
        <ele>147</ele>
        <time>2010-03-28T08:35:03Z</time>
      </trkpt>
      <trkpt lat="49.28541" lon="1.37211">
        <ele>147</ele>
        <time>2010-03-28T08:35:05Z</time>
      </trkpt>
      <trkpt lat="49.28533" lon="1.3722">
        <ele>147</ele>
        <time>2010-03-28T08:35:07Z</time>
      </trkpt>
      <trkpt lat="49.28525" lon="1.37229">
        <ele>147</ele>
        <time>2010-03-28T08:35:09Z</time>
      </trkpt>
      <trkpt lat="49.28516" lon="1.37239">
        <ele>147</ele>
        <time>2010-03-28T08:35:11Z</time>
      </trkpt>
      <trkpt lat="49.28506" lon="1.37246">
        <ele>147</ele>
        <time>2010-03-28T08:35:13Z</time>
      </trkpt>
      <trkpt lat="49.28496" lon="1.37254">
        <ele>147</ele>
        <time>2010-03-28T08:35:15Z</time>
      </trkpt>
      <trkpt lat="49.28488" lon="1.37263">
        <ele>147</ele>
        <time>2010-03-28T08:35:17Z</time>
      </trkpt>
      <trkpt lat="49.28479" lon="1.37273">
        <ele>147</ele>
        <time>2010-03-28T08:35:19Z</time>
      </trkpt>
      <trkpt lat="49.2847" lon="1.37281">
        <ele>147</ele>
        <time>2010-03-28T08:35:21Z</time>
      </trkpt>
      <trkpt lat="49.28463" lon="1.37291">
        <ele>141</ele>
        <time>2010-03-28T08:35:23Z</time>
      </trkpt>
      <trkpt lat="49.28455" lon="1.37301">
        <ele>141</ele>
        <time>2010-03-28T08:35:25Z</time>
      </trkpt>
      <trkpt lat="49.28448" lon="1.37312">
        <ele>141</ele>
        <time>2010-03-28T08:35:27Z</time>
      </trkpt>
      <trkpt lat="49.28439" lon="1.37319">
        <ele>141</ele>
        <time>2010-03-28T08:35:29Z</time>
      </trkpt>
      <trkpt lat="49.28429" lon="1.37315">
        <ele>141</ele>
        <time>2010-03-28T08:35:31Z</time>
      </trkpt>
      <trkpt lat="49.28422" lon="1.37304">
        <ele>141</ele>
        <time>2010-03-28T08:35:33Z</time>
      </trkpt>
      <trkpt lat="49.28417" lon="1.37292">
        <ele>141</ele>
        <time>2010-03-28T08:35:35Z</time>
      </trkpt>
      <trkpt lat="49.2841" lon="1.37281">
        <ele>141</ele>
        <time>2010-03-28T08:35:37Z</time>
      </trkpt>
      <trkpt lat="49.28403" lon="1.37271">
        <ele>141</ele>
        <time>2010-03-28T08:35:39Z</time>
      </trkpt>
      <trkpt lat="49.28396" lon="1.37259">
        <ele>141</ele>
        <time>2010-03-28T08:35:41Z</time>
      </trkpt>
      <trkpt lat="49.28388" lon="1.37247">
        <ele>141</ele>
        <time>2010-03-28T08:35:43Z</time>
      </trkpt>
      <trkpt lat="49.28381" lon="1.37236">
        <ele>141</ele>
        <time>2010-03-28T08:35:45Z</time>
      </trkpt>
      <trkpt lat="49.28373" lon="1.37224">
        <ele>141</ele>
        <time>2010-03-28T08:35:47Z</time>
      </trkpt>
      <trkpt lat="49.28365" lon="1.37212">
        <ele>141</ele>
        <time>2010-03-28T08:35:49Z</time>
      </trkpt>
      <trkpt lat="49.28358" lon="1.37202">
        <ele>141</ele>
        <time>2010-03-28T08:35:51Z</time>
      </trkpt>
      <trkpt lat="49.28351" lon="1.3719">
        <ele>141</ele>
        <time>2010-03-28T08:35:53Z</time>
      </trkpt>
      <trkpt lat="49.28344" lon="1.3718">
        <ele>141</ele>
        <time>2010-03-28T08:35:55Z</time>
      </trkpt>
      <trkpt lat="49.28336" lon="1.37171">
        <ele>141</ele>
        <time>2010-03-28T08:35:57Z</time>
      </trkpt>
      <trkpt lat="49.28328" lon="1.37162">
        <ele>141</ele>
        <time>2010-03-28T08:35:59Z</time>
      </trkpt>
      <trkpt lat="49.28321" lon="1.37153">
        <ele>147</ele>
        <time>2010-03-28T08:36:01Z</time>
      </trkpt>
      <trkpt lat="49.28313" lon="1.37145">
        <ele>147</ele>
        <time>2010-03-28T08:36:03Z</time>
      </trkpt>
      <trkpt lat="49.28306" lon="1.37136">
        <ele>147</ele>
        <time>2010-03-28T08:36:05Z</time>
      </trkpt>
      <trkpt lat="49.28295" lon="1.37124">
        <ele>147</ele>
        <time>2010-03-28T08:36:08Z</time>
      </trkpt>
      <trkpt lat="49.28288" lon="1.37116">
        <ele>147</ele>
        <time>2010-03-28T08:36:10Z</time>
      </trkpt>
      <trkpt lat="49.28277" lon="1.37104">
        <ele>147</ele>
        <time>2010-03-28T08:36:13Z</time>
      </trkpt>
      <trkpt lat="49.2827" lon="1.37096">
        <ele>147</ele>
        <time>2010-03-28T08:36:15Z</time>
      </trkpt>
      <trkpt lat="49.2826" lon="1.37083">
        <ele>147</ele>
        <time>2010-03-28T08:36:18Z</time>
      </trkpt>
      <trkpt lat="49.28249" lon="1.3707">
        <ele>147</ele>
        <time>2010-03-28T08:36:21Z</time>
      </trkpt>
      <trkpt lat="49.28238" lon="1.37059">
        <ele>147</ele>
        <time>2010-03-28T08:36:24Z</time>
      </trkpt>
      <trkpt lat="49.28228" lon="1.37047">
        <ele>147</ele>
        <time>2010-03-28T08:36:27Z</time>
      </trkpt>
      <trkpt lat="49.28218" lon="1.37034">
        <ele>147</ele>
        <time>2010-03-28T08:36:30Z</time>
      </trkpt>
      <trkpt lat="49.28207" lon="1.37023">
        <ele>147</ele>
        <time>2010-03-28T08:36:33Z</time>
      </trkpt>
      <trkpt lat="49.282" lon="1.37014">
        <ele>147</ele>
        <time>2010-03-28T08:36:35Z</time>
      </trkpt>
      <trkpt lat="49.28189" lon="1.37001">
        <ele>147</ele>
        <time>2010-03-28T08:36:38Z</time>
      </trkpt>
      <trkpt lat="49.28181" lon="1.36993">
        <ele>147</ele>
        <time>2010-03-28T08:36:40Z</time>
      </trkpt>
      <trkpt lat="49.28174" lon="1.36984">
        <ele>147</ele>
        <time>2010-03-28T08:36:42Z</time>
      </trkpt>
      <trkpt lat="49.28164" lon="1.36972">
        <ele>147</ele>
        <time>2010-03-28T08:36:45Z</time>
      </trkpt>
      <trkpt lat="49.28153" lon="1.36959">
        <ele>147</ele>
        <time>2010-03-28T08:36:48Z</time>
      </trkpt>
      <trkpt lat="49.28146" lon="1.36949">
        <ele>147</ele>
        <time>2010-03-28T08:36:50Z</time>
      </trkpt>
      <trkpt lat="49.28138" lon="1.3694">
        <ele>147</ele>
        <time>2010-03-28T08:36:52Z</time>
      </trkpt>
      <trkpt lat="49.2813" lon="1.3693">
        <ele>147</ele>
        <time>2010-03-28T08:36:54Z</time>
      </trkpt>
      <trkpt lat="49.28123" lon="1.3692">
        <ele>147</ele>
        <time>2010-03-28T08:36:56Z</time>
      </trkpt>
      <trkpt lat="49.28115" lon="1.36911">
        <ele>147</ele>
        <time>2010-03-28T08:36:58Z</time>
      </trkpt>
      <trkpt lat="49.28108" lon="1.36902">
        <ele>147</ele>
        <time>2010-03-28T08:37:00Z</time>
      </trkpt>
      <trkpt lat="49.281" lon="1.36893">
        <ele>147</ele>
        <time>2010-03-28T08:37:02Z</time>
      </trkpt>
      <trkpt lat="49.28093" lon="1.36884">
        <ele>147</ele>
        <time>2010-03-28T08:37:04Z</time>
      </trkpt>
      <trkpt lat="49.28086" lon="1.36874">
        <ele>147</ele>
        <time>2010-03-28T08:37:06Z</time>
      </trkpt>
      <trkpt lat="49.28079" lon="1.36864">
        <ele>147</ele>
        <time>2010-03-28T08:37:08Z</time>
      </trkpt>
      <trkpt lat="49.28072" lon="1.36849">
        <ele>147</ele>
        <time>2010-03-28T08:37:11Z</time>
      </trkpt>
      <trkpt lat="49.28066" lon="1.36835">
        <ele>147</ele>
        <time>2010-03-28T08:37:14Z</time>
      </trkpt>
      <trkpt lat="49.2806" lon="1.36818">
        <ele>147</ele>
        <time>2010-03-28T08:37:17Z</time>
      </trkpt>
      <trkpt lat="49.28053" lon="1.368">
        <ele>147</ele>
        <time>2010-03-28T08:37:20Z</time>
      </trkpt>
      <trkpt lat="49.28047" lon="1.36782">
        <ele>147</ele>
        <time>2010-03-28T08:37:23Z</time>
      </trkpt>
      <trkpt lat="49.28042" lon="1.36769">
        <ele>147</ele>
        <time>2010-03-28T08:37:25Z</time>
      </trkpt>
      <trkpt lat="49.28035" lon="1.36751">
        <ele>147</ele>
        <time>2010-03-28T08:37:28Z</time>
      </trkpt>
      <trkpt lat="49.28028" lon="1.36734">
        <ele>147</ele>
        <time>2010-03-28T08:37:31Z</time>
      </trkpt>
      <trkpt lat="49.28021" lon="1.36716">
        <ele>147</ele>
        <time>2010-03-28T08:37:34Z</time>
      </trkpt>
      <trkpt lat="49.28016" lon="1.36705">
        <ele>147</ele>
        <time>2010-03-28T08:37:36Z</time>
      </trkpt>
      <trkpt lat="49.2801" lon="1.36693">
        <ele>147</ele>
        <time>2010-03-28T08:37:38Z</time>
      </trkpt>
      <trkpt lat="49.28005" lon="1.36681">
        <ele>147</ele>
        <time>2010-03-28T08:37:40Z</time>
      </trkpt>
      <trkpt lat="49.28" lon="1.36668">
        <ele>142</ele>
        <time>2010-03-28T08:37:42Z</time>
      </trkpt>
      <trkpt lat="49.27995" lon="1.36654">
        <ele>142</ele>
        <time>2010-03-28T08:37:44Z</time>
      </trkpt>
      <trkpt lat="49.2799" lon="1.36641">
        <ele>142</ele>
        <time>2010-03-28T08:37:46Z</time>
      </trkpt>
      <trkpt lat="49.27985" lon="1.36628">
        <ele>142</ele>
        <time>2010-03-28T08:37:48Z</time>
      </trkpt>
      <trkpt lat="49.27979" lon="1.36615">
        <ele>142</ele>
        <time>2010-03-28T08:37:50Z</time>
      </trkpt>
      <trkpt lat="49.27973" lon="1.36601">
        <ele>142</ele>
        <time>2010-03-28T08:37:52Z</time>
      </trkpt>
      <trkpt lat="49.27967" lon="1.36588">
        <ele>142</ele>
        <time>2010-03-28T08:37:54Z</time>
      </trkpt>
      <trkpt lat="49.27961" lon="1.36575">
        <ele>142</ele>
        <time>2010-03-28T08:37:56Z</time>
      </trkpt>
      <trkpt lat="49.27955" lon="1.3656">
        <ele>142</ele>
        <time>2010-03-28T08:37:58Z</time>
      </trkpt>
      <trkpt lat="49.27949" lon="1.36546">
        <ele>142</ele>
        <time>2010-03-28T08:38:00Z</time>
      </trkpt>
      <trkpt lat="49.27943" lon="1.36531">
        <ele>142</ele>
        <time>2010-03-28T08:38:02Z</time>
      </trkpt>
      <trkpt lat="49.27936" lon="1.36516">
        <ele>142</ele>
        <time>2010-03-28T08:38:04Z</time>
      </trkpt>
      <trkpt lat="49.27929" lon="1.36501">
        <ele>136</ele>
        <time>2010-03-28T08:38:06Z</time>
      </trkpt>
      <trkpt lat="49.27923" lon="1.36485">
        <ele>136</ele>
        <time>2010-03-28T08:38:08Z</time>
      </trkpt>
      <trkpt lat="49.27917" lon="1.3647">
        <ele>136</ele>
        <time>2010-03-28T08:38:10Z</time>
      </trkpt>
      <trkpt lat="49.27911" lon="1.36456">
        <ele>136</ele>
        <time>2010-03-28T08:38:12Z</time>
      </trkpt>
      <trkpt lat="49.27906" lon="1.36442">
        <ele>136</ele>
        <time>2010-03-28T08:38:14Z</time>
      </trkpt>
      <trkpt lat="49.27901" lon="1.3643">
        <ele>136</ele>
        <time>2010-03-28T08:38:16Z</time>
      </trkpt>
      <trkpt lat="49.27895" lon="1.36417">
        <ele>136</ele>
        <time>2010-03-28T08:38:20Z</time>
      </trkpt>
      <trkpt lat="49.27891" lon="1.36404">
        <ele>136</ele>
        <time>2010-03-28T08:38:37Z</time>
      </trkpt>
      <trkpt lat="49.27888" lon="1.36389">
        <ele>136</ele>
        <time>2010-03-28T08:38:42Z</time>
      </trkpt>
      <trkpt lat="49.27883" lon="1.36371">
        <ele>136</ele>
        <time>2010-03-28T08:38:46Z</time>
      </trkpt>
      <trkpt lat="49.27881" lon="1.36356">
        <ele>136</ele>
        <time>2010-03-28T08:38:49Z</time>
      </trkpt>
      <trkpt lat="49.2788" lon="1.36339">
        <ele>136</ele>
        <time>2010-03-28T08:38:54Z</time>
      </trkpt>
      <trkpt lat="49.27879" lon="1.36325">
        <ele>131</ele>
        <time>2010-03-28T08:38:59Z</time>
      </trkpt>
      <trkpt lat="49.27878" lon="1.3631">
        <ele>131</ele>
        <time>2010-03-28T08:39:02Z</time>
      </trkpt>
      <trkpt lat="49.27874" lon="1.36296">
        <ele>131</ele>
        <time>2010-03-28T08:39:05Z</time>
      </trkpt>
      <trkpt lat="49.27865" lon="1.36283">
        <ele>123</ele>
        <time>2010-03-28T08:39:09Z</time>
      </trkpt>
      <trkpt lat="49.27858" lon="1.36274">
        <ele>123</ele>
        <time>2010-03-28T08:39:12Z</time>
      </trkpt>
      <trkpt lat="49.27849" lon="1.3627">
        <ele>123</ele>
        <time>2010-03-28T08:39:15Z</time>
      </trkpt>
      <trkpt lat="49.27839" lon="1.36268">
        <ele>123</ele>
        <time>2010-03-28T08:39:19Z</time>
      </trkpt>
      <trkpt lat="49.27825" lon="1.36274">
        <ele>123</ele>
        <time>2010-03-28T08:39:24Z</time>
      </trkpt>
      <trkpt lat="49.27816" lon="1.3628">
        <ele>123</ele>
        <time>2010-03-28T08:39:26Z</time>
      </trkpt>
      <trkpt lat="49.27806" lon="1.36281">
        <ele>123</ele>
        <time>2010-03-28T08:39:29Z</time>
      </trkpt>
      <trkpt lat="49.27796" lon="1.36283">
        <ele>123</ele>
        <time>2010-03-28T08:39:32Z</time>
      </trkpt>
      <trkpt lat="49.27785" lon="1.36288">
        <ele>123</ele>
        <time>2010-03-28T08:39:35Z</time>
      </trkpt>
      <trkpt lat="49.27773" lon="1.36285">
        <ele>123</ele>
        <time>2010-03-28T08:39:38Z</time>
      </trkpt>
      <trkpt lat="49.27763" lon="1.36283">
        <ele>123</ele>
        <time>2010-03-28T08:39:41Z</time>
      </trkpt>
      <trkpt lat="49.27754" lon="1.36286">
        <ele>123</ele>
        <time>2010-03-28T08:39:47Z</time>
      </trkpt>
      <trkpt lat="49.27744" lon="1.36293">
        <ele>123</ele>
        <time>2010-03-28T08:39:52Z</time>
      </trkpt>
      <trkpt lat="49.27735" lon="1.363">
        <ele>123</ele>
        <time>2010-03-28T08:39:56Z</time>
      </trkpt>
      <trkpt lat="49.27726" lon="1.36307">
        <ele>131</ele>
        <time>2010-03-28T08:40:01Z</time>
      </trkpt>
      <trkpt lat="49.27714" lon="1.36313">
        <ele>138</ele>
        <time>2010-03-28T08:40:06Z</time>
      </trkpt>
      <trkpt lat="49.27702" lon="1.3631">
        <ele>138</ele>
        <time>2010-03-28T08:40:09Z</time>
      </trkpt>
      <trkpt lat="49.27692" lon="1.36309">
        <ele>138</ele>
        <time>2010-03-28T08:40:13Z</time>
      </trkpt>
      <trkpt lat="49.27683" lon="1.36305">
        <ele>148</ele>
        <time>2010-03-28T08:40:17Z</time>
      </trkpt>
      <trkpt lat="49.27674" lon="1.36308">
        <ele>148</ele>
        <time>2010-03-28T08:40:22Z</time>
      </trkpt>
      <trkpt lat="49.27665" lon="1.36311">
        <ele>148</ele>
        <time>2010-03-28T08:40:27Z</time>
      </trkpt>
      <trkpt lat="49.27655" lon="1.36322">
        <ele>148</ele>
        <time>2010-03-28T08:40:30Z</time>
      </trkpt>
      <trkpt lat="49.27645" lon="1.3633">
        <ele>148</ele>
        <time>2010-03-28T08:40:32Z</time>
      </trkpt>
      <trkpt lat="49.27631" lon="1.3634">
        <ele>154</ele>
        <time>2010-03-28T08:40:38Z</time>
      </trkpt>
      <trkpt lat="49.2762" lon="1.36341">
        <ele>160</ele>
        <time>2010-03-28T08:40:41Z</time>
      </trkpt>
      <trkpt lat="49.27614" lon="1.36352">
        <ele>160</ele>
        <time>2010-03-28T08:40:44Z</time>
      </trkpt>
      <trkpt lat="49.27607" lon="1.3636">
        <ele>160</ele>
        <time>2010-03-28T08:40:51Z</time>
      </trkpt>
      <trkpt lat="49.27598" lon="1.36368">
        <ele>160</ele>
        <time>2010-03-28T08:40:58Z</time>
      </trkpt>
      <trkpt lat="49.2759" lon="1.36377">
        <ele>153</ele>
        <time>2010-03-28T08:41:07Z</time>
      </trkpt>
      <trkpt lat="49.27583" lon="1.36386">
        <ele>153</ele>
        <time>2010-03-28T08:41:10Z</time>
      </trkpt>
      <trkpt lat="49.27576" lon="1.36396">
        <ele>153</ele>
        <time>2010-03-28T08:41:15Z</time>
      </trkpt>
      <trkpt lat="49.27568" lon="1.36408">
        <ele>153</ele>
        <time>2010-03-28T08:41:19Z</time>
      </trkpt>
      <trkpt lat="49.27559" lon="1.36424">
        <ele>153</ele>
        <time>2010-03-28T08:41:22Z</time>
      </trkpt>
      <trkpt lat="49.27551" lon="1.36437">
        <ele>153</ele>
        <time>2010-03-28T08:41:25Z</time>
      </trkpt>
      <trkpt lat="49.27544" lon="1.36451">
        <ele>153</ele>
        <time>2010-03-28T08:41:28Z</time>
      </trkpt>
      <trkpt lat="49.2754" lon="1.36464">
        <ele>153</ele>
        <time>2010-03-28T08:41:30Z</time>
      </trkpt>
      <trkpt lat="49.27533" lon="1.36479">
        <ele>147</ele>
        <time>2010-03-28T08:41:32Z</time>
      </trkpt>
      <trkpt lat="49.27527" lon="1.365">
        <ele>136</ele>
        <time>2010-03-28T08:41:35Z</time>
      </trkpt>
      <trkpt lat="49.27524" lon="1.36519">
        <ele>127</ele>
        <time>2010-03-28T08:41:37Z</time>
      </trkpt>
      <trkpt lat="49.27521" lon="1.36534">
        <ele>116</ele>
        <time>2010-03-28T08:41:39Z</time>
      </trkpt>
      <trkpt lat="49.27518" lon="1.36549">
        <ele>101</ele>
        <time>2010-03-28T08:41:41Z</time>
      </trkpt>
      <trkpt lat="49.27519" lon="1.36565">
        <ele>96</ele>
        <time>2010-03-28T08:41:44Z</time>
      </trkpt>
      <trkpt lat="49.2752" lon="1.3658">
        <ele>89</ele>
        <time>2010-03-28T08:41:46Z</time>
      </trkpt>
      <trkpt lat="49.27524" lon="1.36597">
        <ele>81</ele>
        <time>2010-03-28T08:41:50Z</time>
      </trkpt>
      <trkpt lat="49.27524" lon="1.36614">
        <ele>81</ele>
        <time>2010-03-28T08:41:55Z</time>
      </trkpt>
      <trkpt lat="49.27526" lon="1.36628">
        <ele>81</ele>
        <time>2010-03-28T08:41:59Z</time>
      </trkpt>
      <trkpt lat="49.27534" lon="1.36646">
        <ele>81</ele>
        <time>2010-03-28T08:42:02Z</time>
      </trkpt>
      <trkpt lat="49.27542" lon="1.36656">
        <ele>81</ele>
        <time>2010-03-28T08:42:05Z</time>
      </trkpt>
      <trkpt lat="49.27548" lon="1.36666">
        <ele>81</ele>
        <time>2010-03-28T08:42:09Z</time>
      </trkpt>
      <trkpt lat="49.27556" lon="1.36682">
        <ele>87</ele>
        <time>2010-03-28T08:42:11Z</time>
      </trkpt>
      <trkpt lat="49.27565" lon="1.3669">
        <ele>87</ele>
        <time>2010-03-28T08:42:15Z</time>
      </trkpt>
      <trkpt lat="49.27569" lon="1.36709">
        <ele>78</ele>
        <time>2010-03-28T08:42:20Z</time>
      </trkpt>
      <trkpt lat="49.27566" lon="1.36725">
        <ele>78</ele>
        <time>2010-03-28T08:42:23Z</time>
      </trkpt>
      <trkpt lat="49.2756" lon="1.36745">
        <ele>70</ele>
        <time>2010-03-28T08:42:27Z</time>
      </trkpt>
      <trkpt lat="49.27554" lon="1.36756">
        <ele>70</ele>
        <time>2010-03-28T08:42:29Z</time>
      </trkpt>
      <trkpt lat="49.27543" lon="1.36769">
        <ele>70</ele>
        <time>2010-03-28T08:42:32Z</time>
      </trkpt>
      <trkpt lat="49.27534" lon="1.36786">
        <ele>70</ele>
        <time>2010-03-28T08:42:35Z</time>
      </trkpt>
      <trkpt lat="49.27524" lon="1.36802">
        <ele>70</ele>
        <time>2010-03-28T08:42:37Z</time>
      </trkpt>
      <trkpt lat="49.27518" lon="1.36815">
        <ele>70</ele>
        <time>2010-03-28T08:42:39Z</time>
      </trkpt>
      <trkpt lat="49.27508" lon="1.36829">
        <ele>70</ele>
        <time>2010-03-28T08:42:42Z</time>
      </trkpt>
      <trkpt lat="49.27498" lon="1.36843">
        <ele>70</ele>
        <time>2010-03-28T08:42:44Z</time>
      </trkpt>
      <trkpt lat="49.27489" lon="1.36853">
        <ele>70</ele>
        <time>2010-03-28T08:42:46Z</time>
      </trkpt>
      <trkpt lat="49.27481" lon="1.36868">
        <ele>70</ele>
        <time>2010-03-28T08:42:48Z</time>
      </trkpt>
      <trkpt lat="49.27474" lon="1.36878">
        <ele>70</ele>
        <time>2010-03-28T08:42:50Z</time>
      </trkpt>
      <trkpt lat="49.27466" lon="1.36888">
        <ele>70</ele>
        <time>2010-03-28T08:42:52Z</time>
      </trkpt>
      <trkpt lat="49.27458" lon="1.36902">
        <ele>70</ele>
        <time>2010-03-28T08:42:54Z</time>
      </trkpt>
      <trkpt lat="49.27447" lon="1.36915">
        <ele>70</ele>
        <time>2010-03-28T08:42:56Z</time>
      </trkpt>
      <trkpt lat="49.27434" lon="1.36915">
        <ele>70</ele>
        <time>2010-03-28T08:42:58Z</time>
      </trkpt>
      <trkpt lat="49.27424" lon="1.36914">
        <ele>70</ele>
        <time>2010-03-28T08:43:00Z</time>
      </trkpt>
      <trkpt lat="49.27413" lon="1.36914">
        <ele>70</ele>
        <time>2010-03-28T08:43:03Z</time>
      </trkpt>
      <trkpt lat="49.27407" lon="1.36903">
        <ele>70</ele>
        <time>2010-03-28T08:43:07Z</time>
      </trkpt>
      <trkpt lat="49.27402" lon="1.36885">
        <ele>59</ele>
        <time>2010-03-28T08:43:11Z</time>
      </trkpt>
      <trkpt lat="49.27396" lon="1.36875">
        <ele>59</ele>
        <time>2010-03-28T08:43:13Z</time>
      </trkpt>
      <trkpt lat="49.27389" lon="1.36862">
        <ele>54</ele>
        <time>2010-03-28T08:43:15Z</time>
      </trkpt>
      <trkpt lat="49.27383" lon="1.36849">
        <ele>54</ele>
        <time>2010-03-28T08:43:17Z</time>
      </trkpt>
      <trkpt lat="49.27374" lon="1.36832">
        <ele>54</ele>
        <time>2010-03-28T08:43:20Z</time>
      </trkpt>
      <trkpt lat="49.27365" lon="1.36814">
        <ele>54</ele>
        <time>2010-03-28T08:43:22Z</time>
      </trkpt>
      <trkpt lat="49.27355" lon="1.36806">
        <ele>54</ele>
        <time>2010-03-28T08:43:24Z</time>
      </trkpt>
      <trkpt lat="49.27344" lon="1.36796">
        <ele>54</ele>
        <time>2010-03-28T08:43:26Z</time>
      </trkpt>
      <trkpt lat="49.2733" lon="1.36789">
        <ele>54</ele>
        <time>2010-03-28T08:43:30Z</time>
      </trkpt>
      <trkpt lat="49.27317" lon="1.36781">
        <ele>59</ele>
        <time>2010-03-28T08:43:32Z</time>
      </trkpt>
      <trkpt lat="49.27307" lon="1.36773">
        <ele>59</ele>
        <time>2010-03-28T08:43:34Z</time>
      </trkpt>
      <trkpt lat="49.27296" lon="1.36768">
        <ele>59</ele>
        <time>2010-03-28T08:43:36Z</time>
      </trkpt>
      <trkpt lat="49.27285" lon="1.36767">
        <ele>66</ele>
        <time>2010-03-28T08:43:38Z</time>
      </trkpt>
      <trkpt lat="49.2727" lon="1.36768">
        <ele>66</ele>
        <time>2010-03-28T08:43:41Z</time>
      </trkpt>
      <trkpt lat="49.2726" lon="1.36766">
        <ele>71</ele>
        <time>2010-03-28T08:43:43Z</time>
      </trkpt>
      <trkpt lat="49.2725" lon="1.36762">
        <ele>71</ele>
        <time>2010-03-28T08:43:45Z</time>
      </trkpt>
      <trkpt lat="49.2724" lon="1.36767">
        <ele>71</ele>
        <time>2010-03-28T08:43:47Z</time>
      </trkpt>
      <trkpt lat="49.27229" lon="1.36773">
        <ele>71</ele>
        <time>2010-03-28T08:43:49Z</time>
      </trkpt>
      <trkpt lat="49.27218" lon="1.3678">
        <ele>71</ele>
        <time>2010-03-28T08:43:51Z</time>
      </trkpt>
      <trkpt lat="49.2721" lon="1.36789">
        <ele>65</ele>
        <time>2010-03-28T08:43:53Z</time>
      </trkpt>
      <trkpt lat="49.27193" lon="1.36803">
        <ele>65</ele>
        <time>2010-03-28T08:43:57Z</time>
      </trkpt>
      <trkpt lat="49.27185" lon="1.36813">
        <ele>65</ele>
        <time>2010-03-28T08:43:58Z</time>
      </trkpt>
      <trkpt lat="49.27173" lon="1.36819">
        <ele>65</ele>
        <time>2010-03-28T08:44:00Z</time>
      </trkpt>
      <trkpt lat="49.2716" lon="1.36819">
        <ele>65</ele>
        <time>2010-03-28T08:44:03Z</time>
      </trkpt>
      <trkpt lat="49.27146" lon="1.36823">
        <ele>72</ele>
        <time>2010-03-28T08:44:06Z</time>
      </trkpt>
      <trkpt lat="49.27133" lon="1.3683">
        <ele>72</ele>
        <time>2010-03-28T08:44:09Z</time>
      </trkpt>
      <trkpt lat="49.27122" lon="1.36831">
        <ele>72</ele>
        <time>2010-03-28T08:44:11Z</time>
      </trkpt>
      <trkpt lat="49.27112" lon="1.36835">
        <ele>72</ele>
        <time>2010-03-28T08:44:13Z</time>
      </trkpt>
      <trkpt lat="49.27104" lon="1.36842">
        <ele>72</ele>
        <time>2010-03-28T08:44:15Z</time>
      </trkpt>
      <trkpt lat="49.27084" lon="1.36847">
        <ele>72</ele>
        <time>2010-03-28T08:44:19Z</time>
      </trkpt>
      <trkpt lat="49.2707" lon="1.3685">
        <ele>72</ele>
        <time>2010-03-28T08:44:20Z</time>
      </trkpt>
      <trkpt lat="49.27052" lon="1.36853">
        <ele>72</ele>
        <time>2010-03-28T08:44:22Z</time>
      </trkpt>
      <trkpt lat="49.2704" lon="1.3686">
        <ele>72</ele>
        <time>2010-03-28T08:44:25Z</time>
      </trkpt>
      <trkpt lat="49.27029" lon="1.36865">
        <ele>65</ele>
        <time>2010-03-28T08:44:28Z</time>
      </trkpt>
      <trkpt lat="49.27016" lon="1.36869">
        <ele>65</ele>
        <time>2010-03-28T08:44:31Z</time>
      </trkpt>
      <trkpt lat="49.27001" lon="1.36876">
        <ele>65</ele>
        <time>2010-03-28T08:44:34Z</time>
      </trkpt>
      <trkpt lat="49.2699" lon="1.36883">
        <ele>65</ele>
        <time>2010-03-28T08:44:36Z</time>
      </trkpt>
      <trkpt lat="49.26982" lon="1.36898">
        <ele>65</ele>
        <time>2010-03-28T08:44:39Z</time>
      </trkpt>
      <trkpt lat="49.26965" lon="1.36912">
        <ele>71</ele>
        <time>2010-03-28T08:44:44Z</time>
      </trkpt>
      <trkpt lat="49.26947" lon="1.36928">
        <ele>71</ele>
        <time>2010-03-28T08:44:49Z</time>
      </trkpt>
      <trkpt lat="49.26934" lon="1.36939">
        <ele>71</ele>
        <time>2010-03-28T08:44:51Z</time>
      </trkpt>
      <trkpt lat="49.26924" lon="1.36947">
        <ele>63</ele>
        <time>2010-03-28T08:44:53Z</time>
      </trkpt>
      <trkpt lat="49.26912" lon="1.36955">
        <ele>63</ele>
        <time>2010-03-28T08:44:55Z</time>
      </trkpt>
      <trkpt lat="49.269" lon="1.36956">
        <ele>63</ele>
        <time>2010-03-28T08:44:59Z</time>
      </trkpt>
      <trkpt lat="49.26891" lon="1.36963">
        <ele>63</ele>
        <time>2010-03-28T08:45:01Z</time>
      </trkpt>
      <trkpt lat="49.26881" lon="1.36969">
        <ele>57</ele>
        <time>2010-03-28T08:45:03Z</time>
      </trkpt>
      <trkpt lat="49.26872" lon="1.36975">
        <ele>57</ele>
        <time>2010-03-28T08:45:05Z</time>
      </trkpt>
      <trkpt lat="49.26854" lon="1.36995">
        <ele>49</ele>
        <time>2010-03-28T08:45:11Z</time>
      </trkpt>
      <trkpt lat="49.26845" lon="1.37012">
        <ele>49</ele>
        <time>2010-03-28T08:45:14Z</time>
      </trkpt>
      <trkpt lat="49.26837" lon="1.37029">
        <ele>49</ele>
        <time>2010-03-28T08:45:17Z</time>
      </trkpt>
      <trkpt lat="49.26833" lon="1.37044">
        <ele>49</ele>
        <time>2010-03-28T08:45:19Z</time>
      </trkpt>
      <trkpt lat="49.26828" lon="1.37057">
        <ele>49</ele>
        <time>2010-03-28T08:45:21Z</time>
      </trkpt>
      <trkpt lat="49.26825" lon="1.3707">
        <ele>49</ele>
        <time>2010-03-28T08:45:23Z</time>
      </trkpt>
      <trkpt lat="49.2682" lon="1.37082">
        <ele>49</ele>
        <time>2010-03-28T08:45:25Z</time>
      </trkpt>
      <trkpt lat="49.26811" lon="1.37094">
        <ele>60</ele>
        <time>2010-03-28T08:45:29Z</time>
      </trkpt>
      <trkpt lat="49.26803" lon="1.37105">
        <ele>60</ele>
        <time>2010-03-28T08:45:32Z</time>
      </trkpt>
      <trkpt lat="49.26794" lon="1.37116">
        <ele>68</ele>
        <time>2010-03-28T08:45:35Z</time>
      </trkpt>
      <trkpt lat="49.26785" lon="1.37122">
        <ele>74</ele>
        <time>2010-03-28T08:45:37Z</time>
      </trkpt>
      <trkpt lat="49.26775" lon="1.37133">
        <ele>79</ele>
        <time>2010-03-28T08:45:40Z</time>
      </trkpt>
      <trkpt lat="49.26767" lon="1.37143">
        <ele>86</ele>
        <time>2010-03-28T08:45:43Z</time>
      </trkpt>
      <trkpt lat="49.26758" lon="1.37153">
        <ele>86</ele>
        <time>2010-03-28T08:45:46Z</time>
      </trkpt>
      <trkpt lat="49.26751" lon="1.37161">
        <ele>95</ele>
        <time>2010-03-28T08:45:49Z</time>
      </trkpt>
      <trkpt lat="49.26743" lon="1.37169">
        <ele>103</ele>
        <time>2010-03-28T08:45:52Z</time>
      </trkpt>
      <trkpt lat="49.26731" lon="1.37172">
        <ele>110</ele>
        <time>2010-03-28T08:45:56Z</time>
      </trkpt>
      <trkpt lat="49.26721" lon="1.37171">
        <ele>117</ele>
        <time>2010-03-28T08:45:58Z</time>
      </trkpt>
      <trkpt lat="49.26712" lon="1.37183">
        <ele>122</ele>
        <time>2010-03-28T08:46:01Z</time>
      </trkpt>
      <trkpt lat="49.26703" lon="1.37188">
        <ele>122</ele>
        <time>2010-03-28T08:46:03Z</time>
      </trkpt>
      <trkpt lat="49.26694" lon="1.37193">
        <ele>129</ele>
        <time>2010-03-28T08:46:05Z</time>
      </trkpt>
      <trkpt lat="49.26682" lon="1.37196">
        <ele>129</ele>
        <time>2010-03-28T08:46:07Z</time>
      </trkpt>
      <trkpt lat="49.26673" lon="1.372">
        <ele>129</ele>
        <time>2010-03-28T08:46:09Z</time>
      </trkpt>
      <trkpt lat="49.2666" lon="1.37203">
        <ele>129</ele>
        <time>2010-03-28T08:46:12Z</time>
      </trkpt>
      <trkpt lat="49.2665" lon="1.37211">
        <ele>129</ele>
        <time>2010-03-28T08:46:14Z</time>
      </trkpt>
      <trkpt lat="49.2664" lon="1.37213">
        <ele>129</ele>
        <time>2010-03-28T08:46:16Z</time>
      </trkpt>
      <trkpt lat="49.2663" lon="1.3722">
        <ele>134</ele>
        <time>2010-03-28T08:46:18Z</time>
      </trkpt>
      <trkpt lat="49.2662" lon="1.37229">
        <ele>134</ele>
        <time>2010-03-28T08:46:21Z</time>
      </trkpt>
      <trkpt lat="49.26606" lon="1.3724">
        <ele>134</ele>
        <time>2010-03-28T08:46:24Z</time>
      </trkpt>
      <trkpt lat="49.26588" lon="1.37242">
        <ele>134</ele>
        <time>2010-03-28T08:46:26Z</time>
      </trkpt>
      <trkpt lat="49.26573" lon="1.37249">
        <ele>134</ele>
        <time>2010-03-28T08:46:29Z</time>
      </trkpt>
      <trkpt lat="49.26562" lon="1.37259">
        <ele>134</ele>
        <time>2010-03-28T08:46:31Z</time>
      </trkpt>
      <trkpt lat="49.26554" lon="1.37269">
        <ele>125</ele>
        <time>2010-03-28T08:46:33Z</time>
      </trkpt>
      <trkpt lat="49.26546" lon="1.37279">
        <ele>125</ele>
        <time>2010-03-28T08:46:35Z</time>
      </trkpt>
      <trkpt lat="49.26537" lon="1.3729">
        <ele>114</ele>
        <time>2010-03-28T08:46:37Z</time>
      </trkpt>
      <trkpt lat="49.26532" lon="1.37305">
        <ele>114</ele>
        <time>2010-03-28T08:46:39Z</time>
      </trkpt>
      <trkpt lat="49.26523" lon="1.37318">
        <ele>106</ele>
        <time>2010-03-28T08:46:42Z</time>
      </trkpt>
      <trkpt lat="49.26516" lon="1.37327">
        <ele>98</ele>
        <time>2010-03-28T08:46:44Z</time>
      </trkpt>
      <trkpt lat="49.26506" lon="1.37347">
        <ele>88</ele>
        <time>2010-03-28T08:46:48Z</time>
      </trkpt>
      <trkpt lat="49.26494" lon="1.37368">
        <ele>73</ele>
        <time>2010-03-28T08:46:51Z</time>
      </trkpt>
      <trkpt lat="49.26487" lon="1.37378">
        <ele>65</ele>
        <time>2010-03-28T08:46:53Z</time>
      </trkpt>
      <trkpt lat="49.2649" lon="1.37396">
        <ele>55</ele>
        <time>2010-03-28T08:47:08Z</time>
      </trkpt>
      <trkpt lat="49.26494" lon="1.37412">
        <ele>55</ele>
        <time>2010-03-28T08:47:10Z</time>
      </trkpt>
      <trkpt lat="49.26496" lon="1.3744">
        <ele>55</ele>
        <time>2010-03-28T08:47:17Z</time>
      </trkpt>
      <trkpt lat="49.26496" lon="1.3746">
        <ele>62</ele>
        <time>2010-03-28T08:47:20Z</time>
      </trkpt>
      <trkpt lat="49.26494" lon="1.3748">
        <ele>69</ele>
        <time>2010-03-28T08:47:23Z</time>
      </trkpt>
      <trkpt lat="49.26493" lon="1.37501">
        <ele>69</ele>
        <time>2010-03-28T08:47:26Z</time>
      </trkpt>
      <trkpt lat="49.26494" lon="1.37515">
        <ele>69</ele>
        <time>2010-03-28T08:47:28Z</time>
      </trkpt>
      <trkpt lat="49.26494" lon="1.37534">
        <ele>74</ele>
        <time>2010-03-28T08:47:31Z</time>
      </trkpt>
      <trkpt lat="49.26494" lon="1.37548">
        <ele>74</ele>
        <time>2010-03-28T08:47:33Z</time>
      </trkpt>
      <trkpt lat="49.26492" lon="1.37565">
        <ele>74</ele>
        <time>2010-03-28T08:47:36Z</time>
      </trkpt>
      <trkpt lat="49.26493" lon="1.37587">
        <ele>74</ele>
        <time>2010-03-28T08:47:39Z</time>
      </trkpt>
      <trkpt lat="49.26496" lon="1.37601">
        <ele>74</ele>
        <time>2010-03-28T08:47:41Z</time>
      </trkpt>
      <trkpt lat="49.26499" lon="1.37617">
        <ele>86</ele>
        <time>2010-03-28T08:47:45Z</time>
      </trkpt>
      <trkpt lat="49.26502" lon="1.37633">
        <ele>99</ele>
        <time>2010-03-28T08:47:49Z</time>
      </trkpt>
      <trkpt lat="49.26503" lon="1.37651">
        <ele>106</ele>
        <time>2010-03-28T08:47:52Z</time>
      </trkpt>
      <trkpt lat="49.26502" lon="1.37669">
        <ele>114</ele>
        <time>2010-03-28T08:47:55Z</time>
      </trkpt>
      <trkpt lat="49.26504" lon="1.37688">
        <ele>114</ele>
        <time>2010-03-28T08:47:58Z</time>
      </trkpt>
      <trkpt lat="49.26503" lon="1.37704">
        <ele>114</ele>
        <time>2010-03-28T08:48:00Z</time>
      </trkpt>
      <trkpt lat="49.26502" lon="1.37719">
        <ele>114</ele>
        <time>2010-03-28T08:48:02Z</time>
      </trkpt>
      <trkpt lat="49.26505" lon="1.37742">
        <ele>121</ele>
        <time>2010-03-28T08:48:05Z</time>
      </trkpt>
      <trkpt lat="49.26503" lon="1.37766">
        <ele>121</ele>
        <time>2010-03-28T08:48:08Z</time>
      </trkpt>
      <trkpt lat="49.26501" lon="1.37811">
        <ele>121</ele>
        <time>2010-03-28T08:48:12Z</time>
      </trkpt>
      <trkpt lat="49.26497" lon="1.37829">
        <ele>112</ele>
        <time>2010-03-28T08:48:14Z</time>
      </trkpt>
      <trkpt lat="49.26492" lon="1.37847">
        <ele>112</ele>
        <time>2010-03-28T08:48:16Z</time>
      </trkpt>
      <trkpt lat="49.26487" lon="1.37874">
        <ele>106</ele>
        <time>2010-03-28T08:48:19Z</time>
      </trkpt>
      <trkpt lat="49.26481" lon="1.37892">
        <ele>106</ele>
        <time>2010-03-28T08:48:21Z</time>
      </trkpt>
      <trkpt lat="49.26476" lon="1.37913">
        <ele>93</ele>
        <time>2010-03-28T08:48:23Z</time>
      </trkpt>
      <trkpt lat="49.2646" lon="1.37985">
        <ele>74</ele>
        <time>2010-03-28T08:48:30Z</time>
      </trkpt>
      <trkpt lat="49.26451" lon="1.38016">
        <ele>63</ele>
        <time>2010-03-28T08:48:33Z</time>
      </trkpt>
      <trkpt lat="49.26439" lon="1.38037">
        <ele>55</ele>
        <time>2010-03-28T08:48:36Z</time>
      </trkpt>
      <trkpt lat="49.2643" lon="1.38044">
        <ele>50</ele>
        <time>2010-03-28T08:48:37Z</time>
      </trkpt>
      <trkpt lat="49.26416" lon="1.38059">
        <ele>50</ele>
        <time>2010-03-28T08:48:40Z</time>
      </trkpt>
      <trkpt lat="49.26397" lon="1.38068">
        <ele>43</ele>
        <time>2010-03-28T08:48:43Z</time>
      </trkpt>
      <trkpt lat="49.26386" lon="1.38066">
        <ele>43</ele>
        <time>2010-03-28T08:48:44Z</time>
      </trkpt>
      <trkpt lat="49.26373" lon="1.38056">
        <ele>43</ele>
        <time>2010-03-28T08:48:45Z</time>
      </trkpt>
      <trkpt lat="49.26356" lon="1.38053">
        <ele>34</ele>
        <time>2010-03-28T08:48:47Z</time>
      </trkpt>
      <trkpt lat="49.26338" lon="1.38054">
        <ele>34</ele>
        <time>2010-03-28T08:48:49Z</time>
      </trkpt>
      <trkpt lat="49.26323" lon="1.38059">
        <ele>29</ele>
        <time>2010-03-28T08:48:51Z</time>
      </trkpt>
      <trkpt lat="49.26295" lon="1.3807">
        <ele>29</ele>
        <time>2010-03-28T08:48:55Z</time>
      </trkpt>
      <trkpt lat="49.26279" lon="1.38076">
        <ele>29</ele>
        <time>2010-03-28T08:48:57Z</time>
      </trkpt>
      <trkpt lat="49.26271" lon="1.38083">
        <ele>29</ele>
        <time>2010-03-28T08:48:58Z</time>
      </trkpt>
      <trkpt lat="49.26258" lon="1.38094">
        <ele>29</ele>
        <time>2010-03-28T08:49:00Z</time>
      </trkpt>
      <trkpt lat="49.26241" lon="1.38106">
        <ele>29</ele>
        <time>2010-03-28T08:49:03Z</time>
      </trkpt>
      <trkpt lat="49.26232" lon="1.38111">
        <ele>29</ele>
        <time>2010-03-28T08:49:04Z</time>
      </trkpt>
      <trkpt lat="49.26219" lon="1.38119">
        <ele>29</ele>
        <time>2010-03-28T08:49:06Z</time>
      </trkpt>
      <trkpt lat="49.26207" lon="1.3813">
        <ele>29</ele>
        <time>2010-03-28T08:49:09Z</time>
      </trkpt>
      <trkpt lat="49.26196" lon="1.38143">
        <ele>29</ele>
        <time>2010-03-28T08:49:11Z</time>
      </trkpt>
      <trkpt lat="49.26172" lon="1.38165">
        <ele>34</ele>
        <time>2010-03-28T08:49:15Z</time>
      </trkpt>
      <trkpt lat="49.26155" lon="1.38173">
        <ele>34</ele>
        <time>2010-03-28T08:49:17Z</time>
      </trkpt>
      <trkpt lat="49.26144" lon="1.38183">
        <ele>28</ele>
        <time>2010-03-28T08:49:19Z</time>
      </trkpt>
      <trkpt lat="49.26132" lon="1.38191">
        <ele>28</ele>
        <time>2010-03-28T08:49:21Z</time>
      </trkpt>
      <trkpt lat="49.26119" lon="1.382">
        <ele>28</ele>
        <time>2010-03-28T08:49:23Z</time>
      </trkpt>
      <trkpt lat="49.26105" lon="1.38206">
        <ele>28</ele>
        <time>2010-03-28T08:49:25Z</time>
      </trkpt>
      <trkpt lat="49.26087" lon="1.38212">
        <ele>23</ele>
        <time>2010-03-28T08:49:28Z</time>
      </trkpt>
      <trkpt lat="49.26072" lon="1.38213">
        <ele>17</ele>
        <time>2010-03-28T08:49:30Z</time>
      </trkpt>
      <trkpt lat="49.26058" lon="1.38216">
        <ele>17</ele>
        <time>2010-03-28T08:49:32Z</time>
      </trkpt>
      <trkpt lat="49.26045" lon="1.38221">
        <ele>17</ele>
        <time>2010-03-28T08:49:34Z</time>
      </trkpt>
      <trkpt lat="49.26032" lon="1.38223">
        <ele>17</ele>
        <time>2010-03-28T08:49:36Z</time>
      </trkpt>
      <trkpt lat="49.26019" lon="1.38224">
        <ele>17</ele>
        <time>2010-03-28T08:49:38Z</time>
      </trkpt>
      <trkpt lat="49.26005" lon="1.38227">
        <ele>12</ele>
        <time>2010-03-28T08:49:40Z</time>
      </trkpt>
      <trkpt lat="49.25991" lon="1.38228">
        <ele>12</ele>
        <time>2010-03-28T08:49:42Z</time>
      </trkpt>
      <trkpt lat="49.25978" lon="1.38231">
        <ele>12</ele>
        <time>2010-03-28T08:49:44Z</time>
      </trkpt>
      <trkpt lat="49.25963" lon="1.38232">
        <ele>12</ele>
        <time>2010-03-28T08:49:46Z</time>
      </trkpt>
      <trkpt lat="49.25949" lon="1.38227">
        <ele>12</ele>
        <time>2010-03-28T08:49:48Z</time>
      </trkpt>
      <trkpt lat="49.25934" lon="1.38227">
        <ele>20</ele>
        <time>2010-03-28T08:49:50Z</time>
      </trkpt>
      <trkpt lat="49.25921" lon="1.38219">
        <ele>20</ele>
        <time>2010-03-28T08:49:52Z</time>
      </trkpt>
      <trkpt lat="49.25908" lon="1.38211">
        <ele>20</ele>
        <time>2010-03-28T08:49:54Z</time>
      </trkpt>
      <trkpt lat="49.25894" lon="1.38204">
        <ele>20</ele>
        <time>2010-03-28T08:49:56Z</time>
      </trkpt>
      <trkpt lat="49.2588" lon="1.38198">
        <ele>20</ele>
        <time>2010-03-28T08:49:58Z</time>
      </trkpt>
      <trkpt lat="49.25867" lon="1.38193">
        <ele>20</ele>
        <time>2010-03-28T08:50:00Z</time>
      </trkpt>
      <trkpt lat="49.25853" lon="1.38191">
        <ele>20</ele>
        <time>2010-03-28T08:50:02Z</time>
      </trkpt>
      <trkpt lat="49.25839" lon="1.38187">
        <ele>20</ele>
        <time>2010-03-28T08:50:04Z</time>
      </trkpt>
      <trkpt lat="49.25825" lon="1.38188">
        <ele>20</ele>
        <time>2010-03-28T08:50:06Z</time>
      </trkpt>
      <trkpt lat="49.25811" lon="1.38191">
        <ele>20</ele>
        <time>2010-03-28T08:50:08Z</time>
      </trkpt>
      <trkpt lat="49.25798" lon="1.38198">
        <ele>20</ele>
        <time>2010-03-28T08:50:10Z</time>
      </trkpt>
      <trkpt lat="49.25784" lon="1.382">
        <ele>20</ele>
        <time>2010-03-28T08:50:12Z</time>
      </trkpt>
      <trkpt lat="49.25771" lon="1.38201">
        <ele>20</ele>
        <time>2010-03-28T08:50:14Z</time>
      </trkpt>
      <trkpt lat="49.2576" lon="1.38205">
        <ele>20</ele>
        <time>2010-03-28T08:50:16Z</time>
      </trkpt>
      <trkpt lat="49.25748" lon="1.38208">
        <ele>20</ele>
        <time>2010-03-28T08:50:18Z</time>
      </trkpt>
      <trkpt lat="49.25736" lon="1.38209">
        <ele>20</ele>
        <time>2010-03-28T08:50:20Z</time>
      </trkpt>
      <trkpt lat="49.25724" lon="1.3821">
        <ele>20</ele>
        <time>2010-03-28T08:50:22Z</time>
      </trkpt>
      <trkpt lat="49.25711" lon="1.38209">
        <ele>20</ele>
        <time>2010-03-28T08:50:24Z</time>
      </trkpt>
      <trkpt lat="49.25699" lon="1.38202">
        <ele>20</ele>
        <time>2010-03-28T08:50:26Z</time>
      </trkpt>
      <trkpt lat="49.25689" lon="1.38195">
        <ele>20</ele>
        <time>2010-03-28T08:50:28Z</time>
      </trkpt>
      <trkpt lat="49.25679" lon="1.38184">
        <ele>20</ele>
        <time>2010-03-28T08:50:30Z</time>
      </trkpt>
      <trkpt lat="49.25669" lon="1.38173">
        <ele>20</ele>
        <time>2010-03-28T08:50:32Z</time>
      </trkpt>
      <trkpt lat="49.2566" lon="1.38164">
        <ele>20</ele>
        <time>2010-03-28T08:50:34Z</time>
      </trkpt>
      <trkpt lat="49.25652" lon="1.38154">
        <ele>20</ele>
        <time>2010-03-28T08:50:36Z</time>
      </trkpt>
      <trkpt lat="49.25644" lon="1.38145">
        <ele>20</ele>
        <time>2010-03-28T08:50:38Z</time>
      </trkpt>
      <trkpt lat="49.25636" lon="1.38135">
        <ele>20</ele>
        <time>2010-03-28T08:50:40Z</time>
      </trkpt>
      <trkpt lat="49.25629" lon="1.38124">
        <ele>20</ele>
        <time>2010-03-28T08:50:42Z</time>
      </trkpt>
      <trkpt lat="49.25622" lon="1.38113">
        <ele>20</ele>
        <time>2010-03-28T08:50:44Z</time>
      </trkpt>
      <trkpt lat="49.25615" lon="1.38101">
        <ele>13</ele>
        <time>2010-03-28T08:50:46Z</time>
      </trkpt>
      <trkpt lat="49.25609" lon="1.38087">
        <ele>13</ele>
        <time>2010-03-28T08:50:48Z</time>
      </trkpt>
      <trkpt lat="49.25603" lon="1.38074">
        <ele>13</ele>
        <time>2010-03-28T08:50:50Z</time>
      </trkpt>
      <trkpt lat="49.25596" lon="1.3806">
        <ele>13</ele>
        <time>2010-03-28T08:50:52Z</time>
      </trkpt>
      <trkpt lat="49.25592" lon="1.38046">
        <ele>13</ele>
        <time>2010-03-28T08:50:54Z</time>
      </trkpt>
      <trkpt lat="49.25586" lon="1.38032">
        <ele>13</ele>
        <time>2010-03-28T08:50:56Z</time>
      </trkpt>
      <trkpt lat="49.25582" lon="1.38018">
        <ele>13</ele>
        <time>2010-03-28T08:50:58Z</time>
      </trkpt>
      <trkpt lat="49.25575" lon="1.38005">
        <ele>13</ele>
        <time>2010-03-28T08:51:00Z</time>
      </trkpt>
      <trkpt lat="49.25567" lon="1.37996">
        <ele>13</ele>
        <time>2010-03-28T08:51:02Z</time>
      </trkpt>
      <trkpt lat="49.25557" lon="1.37989">
        <ele>13</ele>
        <time>2010-03-28T08:51:04Z</time>
      </trkpt>
      <trkpt lat="49.25547" lon="1.37985">
        <ele>13</ele>
        <time>2010-03-28T08:51:06Z</time>
      </trkpt>
      <trkpt lat="49.25537" lon="1.37979">
        <ele>13</ele>
        <time>2010-03-28T08:51:08Z</time>
      </trkpt>
      <trkpt lat="49.25527" lon="1.37977">
        <ele>13</ele>
        <time>2010-03-28T08:51:10Z</time>
      </trkpt>
      <trkpt lat="49.25517" lon="1.37976">
        <ele>13</ele>
        <time>2010-03-28T08:51:12Z</time>
      </trkpt>
      <trkpt lat="49.25509" lon="1.37972">
        <ele>13</ele>
        <time>2010-03-28T08:51:14Z</time>
      </trkpt>
      <trkpt lat="49.25499" lon="1.37969">
        <ele>13</ele>
        <time>2010-03-28T08:51:16Z</time>
      </trkpt>
      <trkpt lat="49.25488" lon="1.37963">
        <ele>13</ele>
        <time>2010-03-28T08:51:18Z</time>
      </trkpt>
      <trkpt lat="49.25479" lon="1.37958">
        <ele>13</ele>
        <time>2010-03-28T08:51:20Z</time>
      </trkpt>
      <trkpt lat="49.2547" lon="1.37956">
        <ele>13</ele>
        <time>2010-03-28T08:51:22Z</time>
      </trkpt>
      <trkpt lat="49.2546" lon="1.37953">
        <ele>13</ele>
        <time>2010-03-28T08:51:24Z</time>
      </trkpt>
      <trkpt lat="49.25447" lon="1.37953">
        <ele>13</ele>
        <time>2010-03-28T08:51:27Z</time>
      </trkpt>
      <trkpt lat="49.25437" lon="1.37951">
        <ele>13</ele>
        <time>2010-03-28T08:51:29Z</time>
      </trkpt>
      <trkpt lat="49.25428" lon="1.3795">
        <ele>13</ele>
        <time>2010-03-28T08:51:31Z</time>
      </trkpt>
      <trkpt lat="49.25414" lon="1.3795">
        <ele>13</ele>
        <time>2010-03-28T08:51:34Z</time>
      </trkpt>
      <trkpt lat="49.25404" lon="1.37952">
        <ele>13</ele>
        <time>2010-03-28T08:51:37Z</time>
      </trkpt>
      <trkpt lat="49.25394" lon="1.37953">
        <ele>13</ele>
        <time>2010-03-28T08:51:42Z</time>
      </trkpt>
      <trkpt lat="49.25386" lon="1.37961">
        <ele>20</ele>
        <time>2010-03-28T08:52:19Z</time>
      </trkpt>
      <trkpt lat="49.25378" lon="1.3797">
        <ele>20</ele>
        <time>2010-03-28T08:52:22Z</time>
      </trkpt>
      <trkpt lat="49.25367" lon="1.37975">
        <ele>20</ele>
        <time>2010-03-28T08:52:25Z</time>
      </trkpt>
      <trkpt lat="49.25356" lon="1.37979">
        <ele>14</ele>
        <time>2010-03-28T08:52:28Z</time>
      </trkpt>
      <trkpt lat="49.25345" lon="1.37986">
        <ele>14</ele>
        <time>2010-03-28T08:52:31Z</time>
      </trkpt>
      <trkpt lat="49.25334" lon="1.37995">
        <ele>14</ele>
        <time>2010-03-28T08:52:34Z</time>
      </trkpt>
      <trkpt lat="49.25323" lon="1.38003">
        <ele>14</ele>
        <time>2010-03-28T08:52:37Z</time>
      </trkpt>
      <trkpt lat="49.25312" lon="1.3801">
        <ele>14</ele>
        <time>2010-03-28T08:52:40Z</time>
      </trkpt>
      <trkpt lat="49.25299" lon="1.38015">
        <ele>14</ele>
        <time>2010-03-28T08:52:43Z</time>
      </trkpt>
      <trkpt lat="49.25292" lon="1.38028">
        <ele>14</ele>
        <time>2010-03-28T08:52:46Z</time>
      </trkpt>
      <trkpt lat="49.25286" lon="1.38042">
        <ele>14</ele>
        <time>2010-03-28T08:52:49Z</time>
      </trkpt>
      <trkpt lat="49.25281" lon="1.38057">
        <ele>14</ele>
        <time>2010-03-28T08:52:52Z</time>
      </trkpt>
      <trkpt lat="49.25274" lon="1.38071">
        <ele>14</ele>
        <time>2010-03-28T08:52:55Z</time>
      </trkpt>
      <trkpt lat="49.25264" lon="1.38083">
        <ele>14</ele>
        <time>2010-03-28T08:52:58Z</time>
      </trkpt>
      <trkpt lat="49.25253" lon="1.38091">
        <ele>14</ele>
        <time>2010-03-28T08:53:01Z</time>
      </trkpt>
      <trkpt lat="49.25243" lon="1.38103">
        <ele>14</ele>
        <time>2010-03-28T08:53:04Z</time>
      </trkpt>
      <trkpt lat="49.25238" lon="1.38114">
        <ele>14</ele>
        <time>2010-03-28T08:53:06Z</time>
      </trkpt>
      <trkpt lat="49.25233" lon="1.38126">
        <ele>14</ele>
        <time>2010-03-28T08:53:08Z</time>
      </trkpt>
      <trkpt lat="49.25227" lon="1.38138">
        <ele>14</ele>
        <time>2010-03-28T08:53:10Z</time>
      </trkpt>
      <trkpt lat="49.25222" lon="1.3815">
        <ele>14</ele>
        <time>2010-03-28T08:53:12Z</time>
      </trkpt>
      <trkpt lat="49.25216" lon="1.38164">
        <ele>14</ele>
        <time>2010-03-28T08:53:14Z</time>
      </trkpt>
      <trkpt lat="49.25209" lon="1.38179">
        <ele>14</ele>
        <time>2010-03-28T08:53:16Z</time>
      </trkpt>
      <trkpt lat="49.25203" lon="1.38195">
        <ele>14</ele>
        <time>2010-03-28T08:53:18Z</time>
      </trkpt>
      <trkpt lat="49.25195" lon="1.3821">
        <ele>14</ele>
        <time>2010-03-28T08:53:20Z</time>
      </trkpt>
      <trkpt lat="49.25189" lon="1.38227">
        <ele>14</ele>
        <time>2010-03-28T08:53:22Z</time>
      </trkpt>
      <trkpt lat="49.25181" lon="1.3824">
        <ele>14</ele>
        <time>2010-03-28T08:53:24Z</time>
      </trkpt>
      <trkpt lat="49.25174" lon="1.38255">
        <ele>14</ele>
        <time>2010-03-28T08:53:26Z</time>
      </trkpt>
      <trkpt lat="49.25165" lon="1.3827">
        <ele>14</ele>
        <time>2010-03-28T08:53:28Z</time>
      </trkpt>
      <trkpt lat="49.25157" lon="1.38289">
        <ele>14</ele>
        <time>2010-03-28T08:53:30Z</time>
      </trkpt>
      <trkpt lat="49.25151" lon="1.38309">
        <ele>14</ele>
        <time>2010-03-28T08:53:32Z</time>
      </trkpt>
      <trkpt lat="49.25145" lon="1.3833">
        <ele>14</ele>
        <time>2010-03-28T08:53:34Z</time>
      </trkpt>
      <trkpt lat="49.25138" lon="1.3835">
        <ele>14</ele>
        <time>2010-03-28T08:53:36Z</time>
      </trkpt>
      <trkpt lat="49.25132" lon="1.3837">
        <ele>14</ele>
        <time>2010-03-28T08:53:38Z</time>
      </trkpt>
      <trkpt lat="49.25126" lon="1.3839">
        <ele>14</ele>
        <time>2010-03-28T08:53:40Z</time>
      </trkpt>
      <trkpt lat="49.25119" lon="1.3841">
        <ele>14</ele>
        <time>2010-03-28T08:53:42Z</time>
      </trkpt>
      <trkpt lat="49.25113" lon="1.38427">
        <ele>14</ele>
        <time>2010-03-28T08:53:44Z</time>
      </trkpt>
      <trkpt lat="49.25107" lon="1.38442">
        <ele>14</ele>
        <time>2010-03-28T08:53:46Z</time>
      </trkpt>
      <trkpt lat="49.251" lon="1.38458">
        <ele>14</ele>
        <time>2010-03-28T08:53:48Z</time>
      </trkpt>
      <trkpt lat="49.25095" lon="1.38474">
        <ele>14</ele>
        <time>2010-03-28T08:53:50Z</time>
      </trkpt>
      <trkpt lat="49.25089" lon="1.3849">
        <ele>14</ele>
        <time>2010-03-28T08:53:52Z</time>
      </trkpt>
      <trkpt lat="49.25083" lon="1.38505">
        <ele>14</ele>
        <time>2010-03-28T08:53:54Z</time>
      </trkpt>
      <trkpt lat="49.25077" lon="1.38521">
        <ele>14</ele>
        <time>2010-03-28T08:53:56Z</time>
      </trkpt>
      <trkpt lat="49.25072" lon="1.38537">
        <ele>14</ele>
        <time>2010-03-28T08:53:58Z</time>
      </trkpt>
      <trkpt lat="49.25066" lon="1.38554">
        <ele>14</ele>
        <time>2010-03-28T08:54:00Z</time>
      </trkpt>
      <trkpt lat="49.25059" lon="1.38567">
        <ele>14</ele>
        <time>2010-03-28T08:54:02Z</time>
      </trkpt>
      <trkpt lat="49.25053" lon="1.38583">
        <ele>14</ele>
        <time>2010-03-28T08:54:04Z</time>
      </trkpt>
      <trkpt lat="49.25045" lon="1.38597">
        <ele>14</ele>
        <time>2010-03-28T08:54:06Z</time>
      </trkpt>
      <trkpt lat="49.25039" lon="1.38615">
        <ele>14</ele>
        <time>2010-03-28T08:54:08Z</time>
      </trkpt>
      <trkpt lat="49.25032" lon="1.38633">
        <ele>14</ele>
        <time>2010-03-28T08:54:10Z</time>
      </trkpt>
      <trkpt lat="49.25025" lon="1.38651">
        <ele>14</ele>
        <time>2010-03-28T08:54:12Z</time>
      </trkpt>
      <trkpt lat="49.25019" lon="1.38668">
        <ele>14</ele>
        <time>2010-03-28T08:54:14Z</time>
      </trkpt>
      <trkpt lat="49.25012" lon="1.38686">
        <ele>14</ele>
        <time>2010-03-28T08:54:16Z</time>
      </trkpt>
      <trkpt lat="49.25005" lon="1.38705">
        <ele>14</ele>
        <time>2010-03-28T08:54:18Z</time>
      </trkpt>
      <trkpt lat="49.24997" lon="1.38723">
        <ele>14</ele>
        <time>2010-03-28T08:54:20Z</time>
      </trkpt>
      <trkpt lat="49.2499" lon="1.38742">
        <ele>14</ele>
        <time>2010-03-28T08:54:22Z</time>
      </trkpt>
      <trkpt lat="49.24983" lon="1.38761">
        <ele>14</ele>
        <time>2010-03-28T08:54:24Z</time>
      </trkpt>
      <trkpt lat="49.24976" lon="1.38775">
        <ele>14</ele>
        <time>2010-03-28T08:54:26Z</time>
      </trkpt>
      <trkpt lat="49.24968" lon="1.38792">
        <ele>14</ele>
        <time>2010-03-28T08:54:28Z</time>
      </trkpt>
      <trkpt lat="49.2496" lon="1.38806">
        <ele>14</ele>
        <time>2010-03-28T08:54:30Z</time>
      </trkpt>
      <trkpt lat="49.24953" lon="1.38822">
        <ele>14</ele>
        <time>2010-03-28T08:54:32Z</time>
      </trkpt>
      <trkpt lat="49.24945" lon="1.38837">
        <ele>14</ele>
        <time>2010-03-28T08:54:34Z</time>
      </trkpt>
      <trkpt lat="49.24936" lon="1.3885">
        <ele>14</ele>
        <time>2010-03-28T08:54:36Z</time>
      </trkpt>
      <trkpt lat="49.24928" lon="1.38864">
        <ele>14</ele>
        <time>2010-03-28T08:54:38Z</time>
      </trkpt>
      <trkpt lat="49.2492" lon="1.38878">
        <ele>22</ele>
        <time>2010-03-28T08:54:40Z</time>
      </trkpt>
      <trkpt lat="49.24913" lon="1.3889">
        <ele>22</ele>
        <time>2010-03-28T08:54:42Z</time>
      </trkpt>
      <trkpt lat="49.24908" lon="1.38905">
        <ele>29</ele>
        <time>2010-03-28T08:54:44Z</time>
      </trkpt>
      <trkpt lat="49.249" lon="1.38922">
        <ele>29</ele>
        <time>2010-03-28T08:54:46Z</time>
      </trkpt>
      <trkpt lat="49.24892" lon="1.38933">
        <ele>35</ele>
        <time>2010-03-28T08:54:48Z</time>
      </trkpt>
      <trkpt lat="49.24883" lon="1.38944">
        <ele>35</ele>
        <time>2010-03-28T08:54:50Z</time>
      </trkpt>
      <trkpt lat="49.24872" lon="1.3896">
        <ele>35</ele>
        <time>2010-03-28T08:54:52Z</time>
      </trkpt>
      <trkpt lat="49.24862" lon="1.38975">
        <ele>35</ele>
        <time>2010-03-28T08:54:54Z</time>
      </trkpt>
      <trkpt lat="49.24853" lon="1.38991">
        <ele>26</ele>
        <time>2010-03-28T08:54:56Z</time>
      </trkpt>
      <trkpt lat="49.24845" lon="1.39008">
        <ele>26</ele>
        <time>2010-03-28T08:54:58Z</time>
      </trkpt>
      <trkpt lat="49.24837" lon="1.39023">
        <ele>26</ele>
        <time>2010-03-28T08:55:00Z</time>
      </trkpt>
      <trkpt lat="49.2483" lon="1.3904">
        <ele>19</ele>
        <time>2010-03-28T08:55:02Z</time>
      </trkpt>
      <trkpt lat="49.24825" lon="1.39057">
        <ele>19</ele>
        <time>2010-03-28T08:55:04Z</time>
      </trkpt>
      <trkpt lat="49.24818" lon="1.39074">
        <ele>19</ele>
        <time>2010-03-28T08:55:07Z</time>
      </trkpt>
      <trkpt lat="49.2481" lon="1.39084">
        <ele>12</ele>
        <time>2010-03-28T08:55:09Z</time>
      </trkpt>
      <trkpt lat="49.24805" lon="1.39096">
        <ele>12</ele>
        <time>2010-03-28T08:55:11Z</time>
      </trkpt>
      <trkpt lat="49.248" lon="1.39109">
        <ele>7</ele>
        <time>2010-03-28T08:55:13Z</time>
      </trkpt>
      <trkpt lat="49.24793" lon="1.39119">
        <ele>7</ele>
        <time>2010-03-28T08:55:15Z</time>
      </trkpt>
      <trkpt lat="49.24783" lon="1.39133">
        <ele>1</ele>
        <time>2010-03-28T08:55:18Z</time>
      </trkpt>
      <trkpt lat="49.24778" lon="1.39147">
        <ele>1</ele>
        <time>2010-03-28T08:55:20Z</time>
      </trkpt>
      <trkpt lat="49.24772" lon="1.39162">
        <ele>1</ele>
        <time>2010-03-28T08:55:22Z</time>
      </trkpt>
      <trkpt lat="49.24762" lon="1.39175">
        <ele>1</ele>
        <time>2010-03-28T08:55:25Z</time>
      </trkpt>
      <trkpt lat="49.24753" lon="1.39189">
        <ele>1</ele>
        <time>2010-03-28T08:55:28Z</time>
      </trkpt>
      <trkpt lat="49.24742" lon="1.39196">
        <ele>1</ele>
        <time>2010-03-28T08:55:31Z</time>
      </trkpt>
      <trkpt lat="49.24733" lon="1.39203">
        <ele>8</ele>
        <time>2010-03-28T08:55:34Z</time>
      </trkpt>
      <trkpt lat="49.24723" lon="1.3921">
        <ele>8</ele>
        <time>2010-03-28T08:55:37Z</time>
      </trkpt>
      <trkpt lat="49.24713" lon="1.39219">
        <ele>8</ele>
        <time>2010-03-28T08:55:49Z</time>
      </trkpt>
      <trkpt lat="49.24705" lon="1.39234">
        <ele>8</ele>
        <time>2010-03-28T08:55:52Z</time>
      </trkpt>
      <trkpt lat="49.24698" lon="1.39248">
        <ele>8</ele>
        <time>2010-03-28T08:55:55Z</time>
      </trkpt>
      <trkpt lat="49.2469" lon="1.39262">
        <ele>8</ele>
        <time>2010-03-28T08:55:58Z</time>
      </trkpt>
      <trkpt lat="49.24681" lon="1.39278">
        <ele>8</ele>
        <time>2010-03-28T08:56:01Z</time>
      </trkpt>
      <trkpt lat="49.24675" lon="1.39288">
        <ele>8</ele>
        <time>2010-03-28T08:56:03Z</time>
      </trkpt>
      <trkpt lat="49.24666" lon="1.39304">
        <ele>8</ele>
        <time>2010-03-28T08:56:06Z</time>
      </trkpt>
      <trkpt lat="49.24659" lon="1.3932">
        <ele>8</ele>
        <time>2010-03-28T08:56:09Z</time>
      </trkpt>
      <trkpt lat="49.24652" lon="1.39335">
        <ele>8</ele>
        <time>2010-03-28T08:56:12Z</time>
      </trkpt>
      <trkpt lat="49.24644" lon="1.39347">
        <ele>8</ele>
        <time>2010-03-28T08:56:15Z</time>
      </trkpt>
      <trkpt lat="49.24635" lon="1.39357">
        <ele>8</ele>
        <time>2010-03-28T08:56:18Z</time>
      </trkpt>
      <trkpt lat="49.24627" lon="1.39369">
        <ele>8</ele>
        <time>2010-03-28T08:56:21Z</time>
      </trkpt>
      <trkpt lat="49.24621" lon="1.39384">
        <ele>8</ele>
        <time>2010-03-28T08:56:24Z</time>
      </trkpt>
      <trkpt lat="49.24614" lon="1.39399">
        <ele>8</ele>
        <time>2010-03-28T08:56:27Z</time>
      </trkpt>
      <trkpt lat="49.24606" lon="1.39411">
        <ele>8</ele>
        <time>2010-03-28T08:56:30Z</time>
      </trkpt>
      <trkpt lat="49.24599" lon="1.39421">
        <ele>8</ele>
        <time>2010-03-28T08:56:32Z</time>
      </trkpt>
      <trkpt lat="49.24593" lon="1.39431">
        <ele>8</ele>
        <time>2010-03-28T08:56:34Z</time>
      </trkpt>
      <trkpt lat="49.24587" lon="1.39442">
        <ele>8</ele>
        <time>2010-03-28T08:56:36Z</time>
      </trkpt>
      <trkpt lat="49.24582" lon="1.39457">
        <ele>8</ele>
        <time>2010-03-28T08:56:38Z</time>
      </trkpt>
      <trkpt lat="49.24576" lon="1.3947">
        <ele>8</ele>
        <time>2010-03-28T08:56:40Z</time>
      </trkpt>
      <trkpt lat="49.24571" lon="1.39482">
        <ele>8</ele>
        <time>2010-03-28T08:56:42Z</time>
      </trkpt>
      <trkpt lat="49.24563" lon="1.39499">
        <ele>8</ele>
        <time>2010-03-28T08:56:45Z</time>
      </trkpt>
      <trkpt lat="49.24559" lon="1.39512">
        <ele>8</ele>
        <time>2010-03-28T08:56:47Z</time>
      </trkpt>
      <trkpt lat="49.24554" lon="1.39525">
        <ele>8</ele>
        <time>2010-03-28T08:56:49Z</time>
      </trkpt>
      <trkpt lat="49.24549" lon="1.39537">
        <ele>8</ele>
        <time>2010-03-28T08:56:51Z</time>
      </trkpt>
      <trkpt lat="49.24545" lon="1.39552">
        <ele>8</ele>
        <time>2010-03-28T08:56:53Z</time>
      </trkpt>
      <trkpt lat="49.2454" lon="1.39566">
        <ele>8</ele>
        <time>2010-03-28T08:56:55Z</time>
      </trkpt>
      <trkpt lat="49.24535" lon="1.39579">
        <ele>8</ele>
        <time>2010-03-28T08:56:57Z</time>
      </trkpt>
      <trkpt lat="49.24527" lon="1.39589">
        <ele>8</ele>
        <time>2010-03-28T08:56:59Z</time>
      </trkpt>
      <trkpt lat="49.24517" lon="1.39593">
        <ele>1</ele>
        <time>2010-03-28T08:57:01Z</time>
      </trkpt>
      <trkpt lat="49.24507" lon="1.39597">
        <ele>1</ele>
        <time>2010-03-28T08:57:03Z</time>
      </trkpt>
      <trkpt lat="49.24498" lon="1.39605">
        <ele>1</ele>
        <time>2010-03-28T08:57:05Z</time>
      </trkpt>
      <trkpt lat="49.24491" lon="1.39614">
        <ele>1</ele>
        <time>2010-03-28T08:57:07Z</time>
      </trkpt>
      <trkpt lat="49.24484" lon="1.39625">
        <ele>1</ele>
        <time>2010-03-28T08:57:09Z</time>
      </trkpt>
      <trkpt lat="49.24477" lon="1.39637">
        <ele>1</ele>
        <time>2010-03-28T08:57:11Z</time>
      </trkpt>
      <trkpt lat="49.24471" lon="1.39649">
        <ele>7</ele>
        <time>2010-03-28T08:57:13Z</time>
      </trkpt>
      <trkpt lat="49.24465" lon="1.39661">
        <ele>7</ele>
        <time>2010-03-28T08:57:15Z</time>
      </trkpt>
      <trkpt lat="49.24459" lon="1.39672">
        <ele>7</ele>
        <time>2010-03-28T08:57:17Z</time>
      </trkpt>
      <trkpt lat="49.24453" lon="1.39684">
        <ele>7</ele>
        <time>2010-03-28T08:57:19Z</time>
      </trkpt>
      <trkpt lat="49.24446" lon="1.39694">
        <ele>7</ele>
        <time>2010-03-28T08:57:21Z</time>
      </trkpt>
      <trkpt lat="49.2444" lon="1.39705">
        <ele>7</ele>
        <time>2010-03-28T08:57:23Z</time>
      </trkpt>
      <trkpt lat="49.24434" lon="1.39716">
        <ele>7</ele>
        <time>2010-03-28T08:57:25Z</time>
      </trkpt>
      <trkpt lat="49.24428" lon="1.39728">
        <ele>7</ele>
        <time>2010-03-28T08:57:27Z</time>
      </trkpt>
      <trkpt lat="49.24418" lon="1.3974">
        <ele>7</ele>
        <time>2010-03-28T08:57:30Z</time>
      </trkpt>
      <trkpt lat="49.24411" lon="1.39749">
        <ele>7</ele>
        <time>2010-03-28T08:57:32Z</time>
      </trkpt>
      <trkpt lat="49.24401" lon="1.39761">
        <ele>7</ele>
        <time>2010-03-28T08:57:35Z</time>
      </trkpt>
      <trkpt lat="49.24391" lon="1.39771">
        <ele>7</ele>
        <time>2010-03-28T08:57:38Z</time>
      </trkpt>
      <trkpt lat="49.24379" lon="1.39779">
        <ele>7</ele>
        <time>2010-03-28T08:57:41Z</time>
      </trkpt>
      <trkpt lat="49.24368" lon="1.39785">
        <ele>7</ele>
        <time>2010-03-28T08:57:44Z</time>
      </trkpt>
      <trkpt lat="49.24356" lon="1.39793">
        <ele>7</ele>
        <time>2010-03-28T08:57:47Z</time>
      </trkpt>
      <trkpt lat="49.24348" lon="1.398">
        <ele>7</ele>
        <time>2010-03-28T08:57:49Z</time>
      </trkpt>
      <trkpt lat="49.24339" lon="1.39806">
        <ele>7</ele>
        <time>2010-03-28T08:57:51Z</time>
      </trkpt>
      <trkpt lat="49.24329" lon="1.3981">
        <ele>7</ele>
        <time>2010-03-28T08:57:53Z</time>
      </trkpt>
      <trkpt lat="49.24319" lon="1.39813">
        <ele>7</ele>
        <time>2010-03-28T08:57:55Z</time>
      </trkpt>
      <trkpt lat="49.2431" lon="1.39816">
        <ele>7</ele>
        <time>2010-03-28T08:57:57Z</time>
      </trkpt>
      <trkpt lat="49.24301" lon="1.3982">
        <ele>7</ele>
        <time>2010-03-28T08:57:59Z</time>
      </trkpt>
      <trkpt lat="49.24287" lon="1.39826">
        <ele>7</ele>
        <time>2010-03-28T08:58:02Z</time>
      </trkpt>
      <trkpt lat="49.24278" lon="1.3983">
        <ele>7</ele>
        <time>2010-03-28T08:58:04Z</time>
      </trkpt>
      <trkpt lat="49.24266" lon="1.39837">
        <ele>7</ele>
        <time>2010-03-28T08:58:07Z</time>
      </trkpt>
      <trkpt lat="49.24253" lon="1.39845">
        <ele>7</ele>
        <time>2010-03-28T08:58:10Z</time>
      </trkpt>
      <trkpt lat="49.24241" lon="1.39853">
        <ele>7</ele>
        <time>2010-03-28T08:58:13Z</time>
      </trkpt>
      <trkpt lat="49.24229" lon="1.39863">
        <ele>7</ele>
        <time>2010-03-28T08:58:16Z</time>
      </trkpt>
      <trkpt lat="49.24221" lon="1.3987">
        <ele>7</ele>
        <time>2010-03-28T08:58:18Z</time>
      </trkpt>
      <trkpt lat="49.24208" lon="1.39879">
        <ele>7</ele>
        <time>2010-03-28T08:58:21Z</time>
      </trkpt>
      <trkpt lat="49.24196" lon="1.39887">
        <ele>7</ele>
        <time>2010-03-28T08:58:24Z</time>
      </trkpt>
      <trkpt lat="49.24188" lon="1.39896">
        <ele>7</ele>
        <time>2010-03-28T08:58:26Z</time>
      </trkpt>
      <trkpt lat="49.24178" lon="1.39908">
        <ele>7</ele>
        <time>2010-03-28T08:58:29Z</time>
      </trkpt>
      <trkpt lat="49.24167" lon="1.39917">
        <ele>7</ele>
        <time>2010-03-28T08:58:32Z</time>
      </trkpt>
      <trkpt lat="49.24156" lon="1.39925">
        <ele>7</ele>
        <time>2010-03-28T08:58:35Z</time>
      </trkpt>
      <trkpt lat="49.24144" lon="1.39933">
        <ele>7</ele>
        <time>2010-03-28T08:58:38Z</time>
      </trkpt>
      <trkpt lat="49.24133" lon="1.39941">
        <ele>7</ele>
        <time>2010-03-28T08:58:41Z</time>
      </trkpt>
      <trkpt lat="49.24122" lon="1.3995">
        <ele>12</ele>
        <time>2010-03-28T08:58:44Z</time>
      </trkpt>
      <trkpt lat="49.24111" lon="1.3996">
        <ele>12</ele>
        <time>2010-03-28T08:58:47Z</time>
      </trkpt>
      <trkpt lat="49.241" lon="1.39968">
        <ele>12</ele>
        <time>2010-03-28T08:58:50Z</time>
      </trkpt>
      <trkpt lat="49.2409" lon="1.39975">
        <ele>12</ele>
        <time>2010-03-28T08:58:53Z</time>
      </trkpt>
      <trkpt lat="49.24081" lon="1.39978">
        <ele>12</ele>
        <time>2010-03-28T08:58:56Z</time>
      </trkpt>
      <trkpt lat="49.24071" lon="1.39983">
        <ele>12</ele>
        <time>2010-03-28T08:59:00Z</time>
      </trkpt>
      <trkpt lat="49.24061" lon="1.39985">
        <ele>12</ele>
        <time>2010-03-28T08:59:04Z</time>
      </trkpt>
      <trkpt lat="49.24051" lon="1.39989">
        <ele>12</ele>
        <time>2010-03-28T08:59:08Z</time>
      </trkpt>
      <trkpt lat="49.24042" lon="1.39993">
        <ele>12</ele>
        <time>2010-03-28T08:59:12Z</time>
      </trkpt>
      <trkpt lat="49.24032" lon="1.39997">
        <ele>12</ele>
        <time>2010-03-28T08:59:16Z</time>
      </trkpt>
      <trkpt lat="49.24023" lon="1.40001">
        <ele>12</ele>
        <time>2010-03-28T08:59:21Z</time>
      </trkpt>
      <trkpt lat="49.24014" lon="1.40004">
        <ele>12</ele>
        <time>2010-03-28T08:59:28Z</time>
      </trkpt>
      <trkpt lat="49.2402" lon="1.39991">
        <ele>2</ele>
        <time>2010-03-28T09:04:20Z</time>
      </trkpt>
      <trkpt lat="49.24029" lon="1.39988">
        <ele>2</ele>
        <time>2010-03-28T09:04:27Z</time>
      </trkpt>
      <trkpt lat="49.24039" lon="1.39987">
        <ele>2</ele>
        <time>2010-03-28T09:04:35Z</time>
      </trkpt>
      <trkpt lat="49.24048" lon="1.39992">
        <ele>2</ele>
        <time>2010-03-28T09:04:42Z</time>
      </trkpt>
      <trkpt lat="49.24059" lon="1.39988">
        <ele>2</ele>
        <time>2010-03-28T09:04:48Z</time>
      </trkpt>
      <trkpt lat="49.24068" lon="1.39993">
        <ele>13</ele>
        <time>2010-03-28T09:05:15Z</time>
      </trkpt>
      <trkpt lat="49.24078" lon="1.3999">
        <ele>13</ele>
        <time>2010-03-28T09:05:24Z</time>
      </trkpt>
      <trkpt lat="49.24088" lon="1.39986">
        <ele>8</ele>
        <time>2010-03-28T09:06:06Z</time>
      </trkpt>
      <trkpt lat="49.24098" lon="1.39977">
        <ele>8</ele>
        <time>2010-03-28T09:06:12Z</time>
      </trkpt>
      <trkpt lat="49.24107" lon="1.3997">
        <ele>8</ele>
        <time>2010-03-28T09:06:16Z</time>
      </trkpt>
      <trkpt lat="49.24116" lon="1.39964">
        <ele>8</ele>
        <time>2010-03-28T09:06:20Z</time>
      </trkpt>
      <trkpt lat="49.24126" lon="1.39957">
        <ele>8</ele>
        <time>2010-03-28T09:06:24Z</time>
      </trkpt>
      <trkpt lat="49.24135" lon="1.3995">
        <ele>8</ele>
        <time>2010-03-28T09:06:27Z</time>
      </trkpt>
      <trkpt lat="49.24143" lon="1.39942">
        <ele>8</ele>
        <time>2010-03-28T09:06:30Z</time>
      </trkpt>
      <trkpt lat="49.24152" lon="1.39935">
        <ele>8</ele>
        <time>2010-03-28T09:06:33Z</time>
      </trkpt>
      <trkpt lat="49.24161" lon="1.39928">
        <ele>8</ele>
        <time>2010-03-28T09:06:36Z</time>
      </trkpt>
      <trkpt lat="49.24169" lon="1.39921">
        <ele>8</ele>
        <time>2010-03-28T09:06:39Z</time>
      </trkpt>
      <trkpt lat="49.24179" lon="1.39914">
        <ele>8</ele>
        <time>2010-03-28T09:06:42Z</time>
      </trkpt>
      <trkpt lat="49.24188" lon="1.3992">
        <ele>8</ele>
        <time>2010-03-28T09:06:47Z</time>
      </trkpt>
      <trkpt lat="49.24192" lon="1.39936">
        <ele>17</ele>
        <time>2010-03-28T09:06:52Z</time>
      </trkpt>
      <trkpt lat="49.24195" lon="1.39949">
        <ele>27</ele>
        <time>2010-03-28T09:06:58Z</time>
      </trkpt>
      <trkpt lat="49.24199" lon="1.39964">
        <ele>18</ele>
        <time>2010-03-28T09:07:06Z</time>
      </trkpt>
      <trkpt lat="49.24203" lon="1.39976">
        <ele>18</ele>
        <time>2010-03-28T09:07:09Z</time>
      </trkpt>
      <trkpt lat="49.24208" lon="1.39994">
        <ele>18</ele>
        <time>2010-03-28T09:07:12Z</time>
      </trkpt>
      <trkpt lat="49.24217" lon="1.40016">
        <ele>18</ele>
        <time>2010-03-28T09:07:17Z</time>
      </trkpt>
      <trkpt lat="49.24228" lon="1.40013">
        <ele>11</ele>
        <time>2010-03-28T09:07:20Z</time>
      </trkpt>
      <trkpt lat="49.24238" lon="1.40007">
        <ele>11</ele>
        <time>2010-03-28T09:07:23Z</time>
      </trkpt>
      <trkpt lat="49.24247" lon="1.40001">
        <ele>11</ele>
        <time>2010-03-28T09:07:26Z</time>
      </trkpt>
      <trkpt lat="49.24254" lon="1.39988">
        <ele>11</ele>
        <time>2010-03-28T09:07:29Z</time>
      </trkpt>
      <trkpt lat="49.24262" lon="1.39981">
        <ele>11</ele>
        <time>2010-03-28T09:07:32Z</time>
      </trkpt>
      <trkpt lat="49.24273" lon="1.39973">
        <ele>11</ele>
        <time>2010-03-28T09:07:36Z</time>
      </trkpt>
      <trkpt lat="49.24282" lon="1.39962">
        <ele>11</ele>
        <time>2010-03-28T09:07:39Z</time>
      </trkpt>
      <trkpt lat="49.2429" lon="1.39954">
        <ele>11</ele>
        <time>2010-03-28T09:07:41Z</time>
      </trkpt>
      <trkpt lat="49.24299" lon="1.39949">
        <ele>11</ele>
        <time>2010-03-28T09:07:43Z</time>
      </trkpt>
      <trkpt lat="49.24307" lon="1.3994">
        <ele>11</ele>
        <time>2010-03-28T09:07:45Z</time>
      </trkpt>
      <trkpt lat="49.24316" lon="1.39932">
        <ele>11</ele>
        <time>2010-03-28T09:07:47Z</time>
      </trkpt>
      <trkpt lat="49.24325" lon="1.39924">
        <ele>11</ele>
        <time>2010-03-28T09:07:49Z</time>
      </trkpt>
      <trkpt lat="49.24334" lon="1.39915">
        <ele>11</ele>
        <time>2010-03-28T09:07:51Z</time>
      </trkpt>
      <trkpt lat="49.24343" lon="1.39908">
        <ele>11</ele>
        <time>2010-03-28T09:07:53Z</time>
      </trkpt>
      <trkpt lat="49.24353" lon="1.39901">
        <ele>11</ele>
        <time>2010-03-28T09:07:55Z</time>
      </trkpt>
      <trkpt lat="49.24364" lon="1.39896">
        <ele>11</ele>
        <time>2010-03-28T09:07:57Z</time>
      </trkpt>
      <trkpt lat="49.24374" lon="1.3989">
        <ele>11</ele>
        <time>2010-03-28T09:07:59Z</time>
      </trkpt>
      <trkpt lat="49.24385" lon="1.39884">
        <ele>11</ele>
        <time>2010-03-28T09:08:01Z</time>
      </trkpt>
      <trkpt lat="49.24395" lon="1.39878">
        <ele>11</ele>
        <time>2010-03-28T09:08:03Z</time>
      </trkpt>
      <trkpt lat="49.24404" lon="1.3987">
        <ele>11</ele>
        <time>2010-03-28T09:08:05Z</time>
      </trkpt>
      <trkpt lat="49.24412" lon="1.39863">
        <ele>11</ele>
        <time>2010-03-28T09:08:07Z</time>
      </trkpt>
      <trkpt lat="49.2442" lon="1.39857">
        <ele>11</ele>
        <time>2010-03-28T09:08:09Z</time>
      </trkpt>
      <trkpt lat="49.2443" lon="1.3985">
        <ele>11</ele>
        <time>2010-03-28T09:08:11Z</time>
      </trkpt>
      <trkpt lat="49.24448" lon="1.3983">
        <ele>11</ele>
        <time>2010-03-28T09:08:16Z</time>
      </trkpt>
      <trkpt lat="49.24454" lon="1.39819">
        <ele>11</ele>
        <time>2010-03-28T09:08:18Z</time>
      </trkpt>
      <trkpt lat="49.24458" lon="1.39807">
        <ele>11</ele>
        <time>2010-03-28T09:08:20Z</time>
      </trkpt>
      <trkpt lat="49.24466" lon="1.39795">
        <ele>11</ele>
        <time>2010-03-28T09:08:23Z</time>
      </trkpt>
      <trkpt lat="49.24477" lon="1.39792">
        <ele>11</ele>
        <time>2010-03-28T09:08:26Z</time>
      </trkpt>
      <trkpt lat="49.24486" lon="1.39798">
        <ele>11</ele>
        <time>2010-03-28T09:08:28Z</time>
      </trkpt>
      <trkpt lat="49.24495" lon="1.39804">
        <ele>11</ele>
        <time>2010-03-28T09:08:30Z</time>
      </trkpt>
      <trkpt lat="49.24503" lon="1.39816">
        <ele>11</ele>
        <time>2010-03-28T09:08:33Z</time>
      </trkpt>
      <trkpt lat="49.24509" lon="1.39831">
        <ele>11</ele>
        <time>2010-03-28T09:08:36Z</time>
      </trkpt>
      <trkpt lat="49.24512" lon="1.39846">
        <ele>11</ele>
        <time>2010-03-28T09:08:38Z</time>
      </trkpt>
      <trkpt lat="49.24516" lon="1.39861">
        <ele>11</ele>
        <time>2010-03-28T09:08:41Z</time>
      </trkpt>
      <trkpt lat="49.24523" lon="1.39872">
        <ele>11</ele>
        <time>2010-03-28T09:08:46Z</time>
      </trkpt>
      <trkpt lat="49.24533" lon="1.3988">
        <ele>11</ele>
        <time>2010-03-28T09:08:49Z</time>
      </trkpt>
      <trkpt lat="49.24544" lon="1.39892">
        <ele>11</ele>
        <time>2010-03-28T09:08:52Z</time>
      </trkpt>
      <trkpt lat="49.24548" lon="1.39905">
        <ele>5</ele>
        <time>2010-03-28T09:08:55Z</time>
      </trkpt>
      <trkpt lat="49.24544" lon="1.39918">
        <ele>5</ele>
        <time>2010-03-28T09:08:57Z</time>
      </trkpt>
      <trkpt lat="49.24538" lon="1.39935">
        <ele>5</ele>
        <time>2010-03-28T09:09:00Z</time>
      </trkpt>
      <trkpt lat="49.24532" lon="1.39952">
        <ele>5</ele>
        <time>2010-03-28T09:09:03Z</time>
      </trkpt>
      <trkpt lat="49.24527" lon="1.39965">
        <ele>5</ele>
        <time>2010-03-28T09:09:05Z</time>
      </trkpt>
      <trkpt lat="49.2452" lon="1.39978">
        <ele>5</ele>
        <time>2010-03-28T09:09:08Z</time>
      </trkpt>
      <trkpt lat="49.24513" lon="1.39994">
        <ele>5</ele>
        <time>2010-03-28T09:09:11Z</time>
      </trkpt>
      <trkpt lat="49.24511" lon="1.40009">
        <ele>5</ele>
        <time>2010-03-28T09:09:13Z</time>
      </trkpt>
      <trkpt lat="49.24509" lon="1.40023">
        <ele>5</ele>
        <time>2010-03-28T09:09:15Z</time>
      </trkpt>
      <trkpt lat="49.24508" lon="1.40043">
        <ele>5</ele>
        <time>2010-03-28T09:09:18Z</time>
      </trkpt>
      <trkpt lat="49.24506" lon="1.4006">
        <ele>-2</ele>
        <time>2010-03-28T09:09:21Z</time>
      </trkpt>
      <trkpt lat="49.24505" lon="1.40074">
        <ele>-2</ele>
        <time>2010-03-28T09:09:24Z</time>
      </trkpt>
      <trkpt lat="49.24503" lon="1.40091">
        <ele>-2</ele>
        <time>2010-03-28T09:09:27Z</time>
      </trkpt>
      <trkpt lat="49.24502" lon="1.4011">
        <ele>-2</ele>
        <time>2010-03-28T09:09:30Z</time>
      </trkpt>
      <trkpt lat="49.24503" lon="1.40129">
        <ele>-2</ele>
        <time>2010-03-28T09:09:33Z</time>
      </trkpt>
      <trkpt lat="49.24502" lon="1.40144">
        <ele>-2</ele>
        <time>2010-03-28T09:09:35Z</time>
      </trkpt>
      <trkpt lat="49.24501" lon="1.40159">
        <ele>-2</ele>
        <time>2010-03-28T09:09:37Z</time>
      </trkpt>
      <trkpt lat="49.245" lon="1.40174">
        <ele>-2</ele>
        <time>2010-03-28T09:09:39Z</time>
      </trkpt>
      <trkpt lat="49.245" lon="1.40188">
        <ele>-2</ele>
        <time>2010-03-28T09:09:41Z</time>
      </trkpt>
      <trkpt lat="49.24499" lon="1.40204">
        <ele>4</ele>
        <time>2010-03-28T09:09:43Z</time>
      </trkpt>
      <trkpt lat="49.24499" lon="1.40219">
        <ele>4</ele>
        <time>2010-03-28T09:09:45Z</time>
      </trkpt>
      <trkpt lat="49.24499" lon="1.40233">
        <ele>4</ele>
        <time>2010-03-28T09:09:47Z</time>
      </trkpt>
      <trkpt lat="49.24499" lon="1.40248">
        <ele>4</ele>
        <time>2010-03-28T09:09:49Z</time>
      </trkpt>
      <trkpt lat="49.24498" lon="1.40268">
        <ele>4</ele>
        <time>2010-03-28T09:09:52Z</time>
      </trkpt>
      <trkpt lat="49.24498" lon="1.40283">
        <ele>4</ele>
        <time>2010-03-28T09:09:54Z</time>
      </trkpt>
      <trkpt lat="49.24496" lon="1.40302">
        <ele>4</ele>
        <time>2010-03-28T09:09:57Z</time>
      </trkpt>
      <trkpt lat="49.24496" lon="1.40321">
        <ele>4</ele>
        <time>2010-03-28T09:10:00Z</time>
      </trkpt>
      <trkpt lat="49.24496" lon="1.4034">
        <ele>4</ele>
        <time>2010-03-28T09:10:03Z</time>
      </trkpt>
      <trkpt lat="49.24496" lon="1.40359">
        <ele>4</ele>
        <time>2010-03-28T09:10:06Z</time>
      </trkpt>
      <trkpt lat="49.24496" lon="1.40378">
        <ele>4</ele>
        <time>2010-03-28T09:10:09Z</time>
      </trkpt>
      <trkpt lat="49.24496" lon="1.40396">
        <ele>4</ele>
        <time>2010-03-28T09:10:12Z</time>
      </trkpt>
      <trkpt lat="49.24497" lon="1.40415">
        <ele>4</ele>
        <time>2010-03-28T09:10:15Z</time>
      </trkpt>
      <trkpt lat="49.24497" lon="1.40432">
        <ele>4</ele>
        <time>2010-03-28T09:10:18Z</time>
      </trkpt>
      <trkpt lat="49.24495" lon="1.40447">
        <ele>10</ele>
        <time>2010-03-28T09:10:22Z</time>
      </trkpt>
      <trkpt lat="49.24495" lon="1.40463">
        <ele>10</ele>
        <time>2010-03-28T09:10:27Z</time>
      </trkpt>
      <trkpt lat="49.24496" lon="1.40478">
        <ele>10</ele>
        <time>2010-03-28T09:10:30Z</time>
      </trkpt>
      <trkpt lat="49.24496" lon="1.40494">
        <ele>10</ele>
        <time>2010-03-28T09:10:33Z</time>
      </trkpt>
      <trkpt lat="49.24496" lon="1.4051">
        <ele>10</ele>
        <time>2010-03-28T09:10:36Z</time>
      </trkpt>
      <trkpt lat="49.24498" lon="1.40528">
        <ele>10</ele>
        <time>2010-03-28T09:10:39Z</time>
      </trkpt>
      <trkpt lat="49.24496" lon="1.40548">
        <ele>10</ele>
        <time>2010-03-28T09:10:42Z</time>
      </trkpt>
      <trkpt lat="49.24496" lon="1.40565">
        <ele>10</ele>
        <time>2010-03-28T09:10:45Z</time>
      </trkpt>
      <trkpt lat="49.24495" lon="1.40583">
        <ele>10</ele>
        <time>2010-03-28T09:10:48Z</time>
      </trkpt>
      <trkpt lat="49.24495" lon="1.40602">
        <ele>10</ele>
        <time>2010-03-28T09:10:51Z</time>
      </trkpt>
      <trkpt lat="49.24495" lon="1.4062">
        <ele>10</ele>
        <time>2010-03-28T09:10:54Z</time>
      </trkpt>
      <trkpt lat="49.24493" lon="1.40637">
        <ele>10</ele>
        <time>2010-03-28T09:10:57Z</time>
      </trkpt>
      <trkpt lat="49.24492" lon="1.40651">
        <ele>10</ele>
        <time>2010-03-28T09:11:00Z</time>
      </trkpt>
      <trkpt lat="49.24495" lon="1.40668">
        <ele>10</ele>
        <time>2010-03-28T09:11:04Z</time>
      </trkpt>
      <trkpt lat="49.24494" lon="1.40685">
        <ele>10</ele>
        <time>2010-03-28T09:11:11Z</time>
      </trkpt>
      <trkpt lat="49.24495" lon="1.407">
        <ele>10</ele>
        <time>2010-03-28T09:11:14Z</time>
      </trkpt>
      <trkpt lat="49.24496" lon="1.40715">
        <ele>10</ele>
        <time>2010-03-28T09:11:17Z</time>
      </trkpt>
      <trkpt lat="49.24498" lon="1.4073">
        <ele>10</ele>
        <time>2010-03-28T09:11:20Z</time>
      </trkpt>
      <trkpt lat="49.245" lon="1.40749">
        <ele>10</ele>
        <time>2010-03-28T09:11:23Z</time>
      </trkpt>
      <trkpt lat="49.24498" lon="1.40769">
        <ele>10</ele>
        <time>2010-03-28T09:11:26Z</time>
      </trkpt>
      <trkpt lat="49.24495" lon="1.40787">
        <ele>10</ele>
        <time>2010-03-28T09:11:29Z</time>
      </trkpt>
      <trkpt lat="49.24495" lon="1.40806">
        <ele>10</ele>
        <time>2010-03-28T09:11:32Z</time>
      </trkpt>
      <trkpt lat="49.24497" lon="1.40821">
        <ele>10</ele>
        <time>2010-03-28T09:11:34Z</time>
      </trkpt>
      <trkpt lat="49.24503" lon="1.40841">
        <ele>10</ele>
        <time>2010-03-28T09:11:37Z</time>
      </trkpt>
      <trkpt lat="49.2451" lon="1.40859">
        <ele>20</ele>
        <time>2010-03-28T09:11:40Z</time>
      </trkpt>
      <trkpt lat="49.24513" lon="1.40873">
        <ele>20</ele>
        <time>2010-03-28T09:11:42Z</time>
      </trkpt>
      <trkpt lat="49.24518" lon="1.40886">
        <ele>20</ele>
        <time>2010-03-28T09:11:44Z</time>
      </trkpt>
      <trkpt lat="49.24526" lon="1.40902">
        <ele>20</ele>
        <time>2010-03-28T09:11:47Z</time>
      </trkpt>
      <trkpt lat="49.24531" lon="1.40914">
        <ele>20</ele>
        <time>2010-03-28T09:11:49Z</time>
      </trkpt>
      <trkpt lat="49.24534" lon="1.4093">
        <ele>20</ele>
        <time>2010-03-28T09:11:52Z</time>
      </trkpt>
      <trkpt lat="49.24539" lon="1.40947">
        <ele>20</ele>
        <time>2010-03-28T09:11:55Z</time>
      </trkpt>
      <trkpt lat="49.24544" lon="1.40965">
        <ele>20</ele>
        <time>2010-03-28T09:11:58Z</time>
      </trkpt>
      <trkpt lat="49.24551" lon="1.40977">
        <ele>20</ele>
        <time>2010-03-28T09:12:00Z</time>
      </trkpt>
      <trkpt lat="49.24559" lon="1.40993">
        <ele>15</ele>
        <time>2010-03-28T09:12:03Z</time>
      </trkpt>
      <trkpt lat="49.24563" lon="1.4101">
        <ele>15</ele>
        <time>2010-03-28T09:12:05Z</time>
      </trkpt>
      <trkpt lat="49.2457" lon="1.41022">
        <ele>15</ele>
        <time>2010-03-28T09:12:07Z</time>
      </trkpt>
      <trkpt lat="49.24577" lon="1.41034">
        <ele>15</ele>
        <time>2010-03-28T09:12:10Z</time>
      </trkpt>
      <trkpt lat="49.24584" lon="1.41056">
        <ele>15</ele>
        <time>2010-03-28T09:12:15Z</time>
      </trkpt>
      <trkpt lat="49.2459" lon="1.41071">
        <ele>15</ele>
        <time>2010-03-28T09:12:17Z</time>
      </trkpt>
      <trkpt lat="49.24593" lon="1.41085">
        <ele>15</ele>
        <time>2010-03-28T09:12:19Z</time>
      </trkpt>
      <trkpt lat="49.24598" lon="1.41098">
        <ele>22</ele>
        <time>2010-03-28T09:12:22Z</time>
      </trkpt>
      <trkpt lat="49.24608" lon="1.41111">
        <ele>22</ele>
        <time>2010-03-28T09:12:25Z</time>
      </trkpt>
      <trkpt lat="49.24619" lon="1.41122">
        <ele>30</ele>
        <time>2010-03-28T09:12:28Z</time>
      </trkpt>
      <trkpt lat="49.24628" lon="1.41136">
        <ele>30</ele>
        <time>2010-03-28T09:12:31Z</time>
      </trkpt>
      <trkpt lat="49.24634" lon="1.41152">
        <ele>30</ele>
        <time>2010-03-28T09:12:34Z</time>
      </trkpt>
      <trkpt lat="49.24642" lon="1.41161">
        <ele>30</ele>
        <time>2010-03-28T09:12:37Z</time>
      </trkpt>
      <trkpt lat="49.24655" lon="1.41166">
        <ele>23</ele>
        <time>2010-03-28T09:12:40Z</time>
      </trkpt>
      <trkpt lat="49.24666" lon="1.41169">
        <ele>23</ele>
        <time>2010-03-28T09:12:43Z</time>
      </trkpt>
      <trkpt lat="49.24677" lon="1.41175">
        <ele>23</ele>
        <time>2010-03-28T09:12:46Z</time>
      </trkpt>
      <trkpt lat="49.24689" lon="1.41182">
        <ele>15</ele>
        <time>2010-03-28T09:12:49Z</time>
      </trkpt>
      <trkpt lat="49.24701" lon="1.41187">
        <ele>15</ele>
        <time>2010-03-28T09:12:52Z</time>
      </trkpt>
      <trkpt lat="49.24713" lon="1.41195">
        <ele>15</ele>
        <time>2010-03-28T09:12:55Z</time>
      </trkpt>
      <trkpt lat="49.24723" lon="1.41199">
        <ele>15</ele>
        <time>2010-03-28T09:12:58Z</time>
      </trkpt>
      <trkpt lat="49.24733" lon="1.41204">
        <ele>15</ele>
        <time>2010-03-28T09:13:01Z</time>
      </trkpt>
      <trkpt lat="49.24743" lon="1.41205">
        <ele>15</ele>
        <time>2010-03-28T09:13:09Z</time>
      </trkpt>
      <trkpt lat="49.24749" lon="1.41194">
        <ele>15</ele>
        <time>2010-03-28T09:13:14Z</time>
      </trkpt>
      <trkpt lat="49.24753" lon="1.41179">
        <ele>15</ele>
        <time>2010-03-28T09:13:18Z</time>
      </trkpt>
      <trkpt lat="49.24757" lon="1.41164">
        <ele>15</ele>
        <time>2010-03-28T09:13:22Z</time>
      </trkpt>
      <trkpt lat="49.24759" lon="1.4115">
        <ele>21</ele>
        <time>2010-03-28T09:13:26Z</time>
      </trkpt>
      <trkpt lat="49.24763" lon="1.41135">
        <ele>21</ele>
        <time>2010-03-28T09:13:29Z</time>
      </trkpt>
      <trkpt lat="49.24771" lon="1.41129">
        <ele>21</ele>
        <time>2010-03-28T09:13:33Z</time>
      </trkpt>
      <trkpt lat="49.24781" lon="1.41133">
        <ele>21</ele>
        <time>2010-03-28T09:13:37Z</time>
      </trkpt>
      <trkpt lat="49.2479" lon="1.41136">
        <ele>21</ele>
        <time>2010-03-28T09:13:41Z</time>
      </trkpt>
      <trkpt lat="49.248" lon="1.41141">
        <ele>21</ele>
        <time>2010-03-28T09:13:45Z</time>
      </trkpt>
      <trkpt lat="49.24811" lon="1.41136">
        <ele>21</ele>
        <time>2010-03-28T09:13:49Z</time>
      </trkpt>
      <trkpt lat="49.24822" lon="1.4114">
        <ele>21</ele>
        <time>2010-03-28T09:13:53Z</time>
      </trkpt>
      <trkpt lat="49.24833" lon="1.41142">
        <ele>21</ele>
        <time>2010-03-28T09:13:58Z</time>
      </trkpt>
      <trkpt lat="49.24843" lon="1.41142">
        <ele>21</ele>
        <time>2010-03-28T09:14:03Z</time>
      </trkpt>
      <trkpt lat="49.24853" lon="1.41144">
        <ele>26</ele>
        <time>2010-03-28T09:14:09Z</time>
      </trkpt>
      <trkpt lat="49.24864" lon="1.41146">
        <ele>26</ele>
        <time>2010-03-28T09:14:13Z</time>
      </trkpt>
      <trkpt lat="49.24875" lon="1.41147">
        <ele>26</ele>
        <time>2010-03-28T09:14:17Z</time>
      </trkpt>
      <trkpt lat="49.24885" lon="1.41146">
        <ele>26</ele>
        <time>2010-03-28T09:14:21Z</time>
      </trkpt>
      <trkpt lat="49.24894" lon="1.41152">
        <ele>26</ele>
        <time>2010-03-28T09:14:25Z</time>
      </trkpt>
      <trkpt lat="49.24904" lon="1.41163">
        <ele>26</ele>
        <time>2010-03-28T09:14:29Z</time>
      </trkpt>
      <trkpt lat="49.2491" lon="1.41176">
        <ele>26</ele>
        <time>2010-03-28T09:14:31Z</time>
      </trkpt>
      <trkpt lat="49.24914" lon="1.41196">
        <ele>26</ele>
        <time>2010-03-28T09:14:33Z</time>
      </trkpt>
      <trkpt lat="49.24912" lon="1.41228">
        <ele>26</ele>
        <time>2010-03-28T09:14:35Z</time>
      </trkpt>
      <trkpt lat="49.2491" lon="1.41246">
        <ele>21</ele>
        <time>2010-03-28T09:14:36Z</time>
      </trkpt>
      <trkpt lat="49.24908" lon="1.41267">
        <ele>21</ele>
        <time>2010-03-28T09:14:37Z</time>
      </trkpt>
      <trkpt lat="49.24906" lon="1.41282">
        <ele>21</ele>
        <time>2010-03-28T09:14:38Z</time>
      </trkpt>
      <trkpt lat="49.24905" lon="1.41296">
        <ele>21</ele>
        <time>2010-03-28T09:14:39Z</time>
      </trkpt>
      <trkpt lat="49.24902" lon="1.41313">
        <ele>21</ele>
        <time>2010-03-28T09:14:41Z</time>
      </trkpt>
      <trkpt lat="49.24901" lon="1.4133">
        <ele>21</ele>
        <time>2010-03-28T09:14:44Z</time>
      </trkpt>
      <trkpt lat="49.24901" lon="1.41346">
        <ele>21</ele>
        <time>2010-03-28T09:14:56Z</time>
      </trkpt>
      <trkpt lat="49.24898" lon="1.41366">
        <ele>21</ele>
        <time>2010-03-28T09:15:02Z</time>
      </trkpt>
      <trkpt lat="49.24896" lon="1.41383">
        <ele>21</ele>
        <time>2010-03-28T09:15:07Z</time>
      </trkpt>
      <trkpt lat="49.24893" lon="1.41399">
        <ele>21</ele>
        <time>2010-03-28T09:15:11Z</time>
      </trkpt>
      <trkpt lat="49.24892" lon="1.41416">
        <ele>21</ele>
        <time>2010-03-28T09:15:15Z</time>
      </trkpt>
      <trkpt lat="49.24892" lon="1.41433">
        <ele>21</ele>
        <time>2010-03-28T09:15:18Z</time>
      </trkpt>
      <trkpt lat="49.24892" lon="1.41449">
        <ele>21</ele>
        <time>2010-03-28T09:15:22Z</time>
      </trkpt>
      <trkpt lat="49.24893" lon="1.41465">
        <ele>21</ele>
        <time>2010-03-28T09:15:29Z</time>
      </trkpt>
      <trkpt lat="49.24895" lon="1.41481">
        <ele>28</ele>
        <time>2010-03-28T09:15:37Z</time>
      </trkpt>
      <trkpt lat="49.24894" lon="1.41497">
        <ele>28</ele>
        <time>2010-03-28T09:15:42Z</time>
      </trkpt>
      <trkpt lat="49.24893" lon="1.41513">
        <ele>38</ele>
        <time>2010-03-28T09:15:47Z</time>
      </trkpt>
      <trkpt lat="49.24895" lon="1.4153">
        <ele>38</ele>
        <time>2010-03-28T09:15:53Z</time>
      </trkpt>
      <trkpt lat="49.24892" lon="1.41543">
        <ele>38</ele>
        <time>2010-03-28T09:16:01Z</time>
      </trkpt>
      <trkpt lat="49.24895" lon="1.41557">
        <ele>43</ele>
        <time>2010-03-28T09:16:48Z</time>
      </trkpt>
      <trkpt lat="49.24889" lon="1.41567">
        <ele>43</ele>
        <time>2010-03-28T09:16:53Z</time>
      </trkpt>
      <trkpt lat="49.24887" lon="1.41581">
        <ele>35</ele>
        <time>2010-03-28T09:16:57Z</time>
      </trkpt>
      <trkpt lat="49.24884" lon="1.41596">
        <ele>35</ele>
        <time>2010-03-28T09:17:02Z</time>
      </trkpt>
      <trkpt lat="49.24882" lon="1.4161">
        <ele>35</ele>
        <time>2010-03-28T09:17:06Z</time>
      </trkpt>
      <trkpt lat="49.24879" lon="1.41627">
        <ele>41</ele>
        <time>2010-03-28T09:17:11Z</time>
      </trkpt>
      <trkpt lat="49.24876" lon="1.41643">
        <ele>41</ele>
        <time>2010-03-28T09:17:14Z</time>
      </trkpt>
      <trkpt lat="49.24873" lon="1.41659">
        <ele>41</ele>
        <time>2010-03-28T09:17:17Z</time>
      </trkpt>
      <trkpt lat="49.24872" lon="1.41673">
        <ele>41</ele>
        <time>2010-03-28T09:17:19Z</time>
      </trkpt>
      <trkpt lat="49.2487" lon="1.41691">
        <ele>41</ele>
        <time>2010-03-28T09:17:22Z</time>
      </trkpt>
      <trkpt lat="49.24868" lon="1.41705">
        <ele>41</ele>
        <time>2010-03-28T09:17:25Z</time>
      </trkpt>
      <trkpt lat="49.24868" lon="1.41723">
        <ele>41</ele>
        <time>2010-03-28T09:17:28Z</time>
      </trkpt>
      <trkpt lat="49.24863" lon="1.41739">
        <ele>41</ele>
        <time>2010-03-28T09:17:31Z</time>
      </trkpt>
      <trkpt lat="49.24863" lon="1.41756">
        <ele>41</ele>
        <time>2010-03-28T09:17:34Z</time>
      </trkpt>
      <trkpt lat="49.2486" lon="1.4177">
        <ele>41</ele>
        <time>2010-03-28T09:17:37Z</time>
      </trkpt>
      <trkpt lat="49.24858" lon="1.41786">
        <ele>41</ele>
        <time>2010-03-28T09:17:40Z</time>
      </trkpt>
      <trkpt lat="49.24855" lon="1.41803">
        <ele>41</ele>
        <time>2010-03-28T09:17:43Z</time>
      </trkpt>
      <trkpt lat="49.24853" lon="1.41819">
        <ele>41</ele>
        <time>2010-03-28T09:17:46Z</time>
      </trkpt>
      <trkpt lat="49.24848" lon="1.41832">
        <ele>41</ele>
        <time>2010-03-28T09:17:49Z</time>
      </trkpt>
      <trkpt lat="49.24845" lon="1.41851">
        <ele>41</ele>
        <time>2010-03-28T09:17:52Z</time>
      </trkpt>
      <trkpt lat="49.24843" lon="1.41866">
        <ele>41</ele>
        <time>2010-03-28T09:17:54Z</time>
      </trkpt>
      <trkpt lat="49.24841" lon="1.41886">
        <ele>41</ele>
        <time>2010-03-28T09:17:57Z</time>
      </trkpt>
      <trkpt lat="49.24841" lon="1.41901">
        <ele>41</ele>
        <time>2010-03-28T09:17:59Z</time>
      </trkpt>
      <trkpt lat="49.2484" lon="1.41921">
        <ele>41</ele>
        <time>2010-03-28T09:18:02Z</time>
      </trkpt>
      <trkpt lat="49.24838" lon="1.41939">
        <ele>41</ele>
        <time>2010-03-28T09:18:05Z</time>
      </trkpt>
      <trkpt lat="49.24837" lon="1.41954">
        <ele>41</ele>
        <time>2010-03-28T09:18:07Z</time>
      </trkpt>
      <trkpt lat="49.24837" lon="1.41969">
        <ele>41</ele>
        <time>2010-03-28T09:18:09Z</time>
      </trkpt>
      <trkpt lat="49.24836" lon="1.41983">
        <ele>41</ele>
        <time>2010-03-28T09:18:11Z</time>
      </trkpt>
      <trkpt lat="49.24835" lon="1.42004">
        <ele>49</ele>
        <time>2010-03-28T09:18:14Z</time>
      </trkpt>
      <trkpt lat="49.24838" lon="1.42023">
        <ele>49</ele>
        <time>2010-03-28T09:18:16Z</time>
      </trkpt>
      <trkpt lat="49.24839" lon="1.42045">
        <ele>49</ele>
        <time>2010-03-28T09:18:19Z</time>
      </trkpt>
      <trkpt lat="49.24838" lon="1.4206">
        <ele>43</ele>
        <time>2010-03-28T09:18:21Z</time>
      </trkpt>
      <trkpt lat="49.24838" lon="1.42074">
        <ele>43</ele>
        <time>2010-03-28T09:18:23Z</time>
      </trkpt>
      <trkpt lat="49.24836" lon="1.42095">
        <ele>43</ele>
        <time>2010-03-28T09:18:26Z</time>
      </trkpt>
      <trkpt lat="49.24838" lon="1.42115">
        <ele>43</ele>
        <time>2010-03-28T09:18:29Z</time>
      </trkpt>
      <trkpt lat="49.24836" lon="1.42131">
        <ele>43</ele>
        <time>2010-03-28T09:18:31Z</time>
      </trkpt>
      <trkpt lat="49.24839" lon="1.42152">
        <ele>43</ele>
        <time>2010-03-28T09:18:33Z</time>
      </trkpt>
      <trkpt lat="49.24836" lon="1.42168">
        <ele>43</ele>
        <time>2010-03-28T09:18:36Z</time>
      </trkpt>
      <trkpt lat="49.24833" lon="1.42184">
        <ele>43</ele>
        <time>2010-03-28T09:18:39Z</time>
      </trkpt>
      <trkpt lat="49.2483" lon="1.42201">
        <ele>43</ele>
        <time>2010-03-28T09:18:42Z</time>
      </trkpt>
      <trkpt lat="49.24827" lon="1.42219">
        <ele>43</ele>
        <time>2010-03-28T09:18:45Z</time>
      </trkpt>
      <trkpt lat="49.24827" lon="1.42234">
        <ele>43</ele>
        <time>2010-03-28T09:18:47Z</time>
      </trkpt>
      <trkpt lat="49.24825" lon="1.4226">
        <ele>43</ele>
        <time>2010-03-28T09:18:51Z</time>
      </trkpt>
      <trkpt lat="49.24824" lon="1.42277">
        <ele>43</ele>
        <time>2010-03-28T09:18:53Z</time>
      </trkpt>
      <trkpt lat="49.24825" lon="1.42297">
        <ele>43</ele>
        <time>2010-03-28T09:18:56Z</time>
      </trkpt>
      <trkpt lat="49.24827" lon="1.42313">
        <ele>36</ele>
        <time>2010-03-28T09:18:58Z</time>
      </trkpt>
      <trkpt lat="49.24828" lon="1.42329">
        <ele>36</ele>
        <time>2010-03-28T09:19:00Z</time>
      </trkpt>
      <trkpt lat="49.24826" lon="1.42346">
        <ele>36</ele>
        <time>2010-03-28T09:19:03Z</time>
      </trkpt>
      <trkpt lat="49.24827" lon="1.42365">
        <ele>36</ele>
        <time>2010-03-28T09:19:06Z</time>
      </trkpt>
      <trkpt lat="49.24828" lon="1.42386">
        <ele>30</ele>
        <time>2010-03-28T09:19:09Z</time>
      </trkpt>
      <trkpt lat="49.24823" lon="1.42399">
        <ele>30</ele>
        <time>2010-03-28T09:19:12Z</time>
      </trkpt>
      <trkpt lat="49.24822" lon="1.42414">
        <ele>30</ele>
        <time>2010-03-28T09:19:14Z</time>
      </trkpt>
      <trkpt lat="49.24823" lon="1.42429">
        <ele>30</ele>
        <time>2010-03-28T09:19:16Z</time>
      </trkpt>
      <trkpt lat="49.24823" lon="1.42444">
        <ele>30</ele>
        <time>2010-03-28T09:19:18Z</time>
      </trkpt>
      <trkpt lat="49.24823" lon="1.42461">
        <ele>30</ele>
        <time>2010-03-28T09:19:20Z</time>
      </trkpt>
      <trkpt lat="49.24822" lon="1.42477">
        <ele>30</ele>
        <time>2010-03-28T09:19:22Z</time>
      </trkpt>
      <trkpt lat="49.24821" lon="1.42494">
        <ele>30</ele>
        <time>2010-03-28T09:19:25Z</time>
      </trkpt>
      <trkpt lat="49.24828" lon="1.42511">
        <ele>30</ele>
        <time>2010-03-28T09:19:28Z</time>
      </trkpt>
      <trkpt lat="49.24833" lon="1.42522">
        <ele>30</ele>
        <time>2010-03-28T09:19:31Z</time>
      </trkpt>
      <trkpt lat="49.24839" lon="1.42533">
        <ele>36</ele>
        <time>2010-03-28T09:19:37Z</time>
      </trkpt>
      <trkpt lat="49.24843" lon="1.42547">
        <ele>36</ele>
        <time>2010-03-28T09:19:44Z</time>
      </trkpt>
      <trkpt lat="49.2485" lon="1.42558">
        <ele>36</ele>
        <time>2010-03-28T09:19:48Z</time>
      </trkpt>
      <trkpt lat="49.24856" lon="1.42572">
        <ele>43</ele>
        <time>2010-03-28T09:19:53Z</time>
      </trkpt>
      <trkpt lat="49.2486" lon="1.42586">
        <ele>43</ele>
        <time>2010-03-28T09:19:59Z</time>
      </trkpt>
      <trkpt lat="49.24865" lon="1.426">
        <ele>43</ele>
        <time>2010-03-28T09:20:05Z</time>
      </trkpt>
      <trkpt lat="49.24872" lon="1.42611">
        <ele>43</ele>
        <time>2010-03-28T09:20:11Z</time>
      </trkpt>
      <trkpt lat="49.24876" lon="1.42626">
        <ele>43</ele>
        <time>2010-03-28T09:20:16Z</time>
      </trkpt>
      <trkpt lat="49.2488" lon="1.42638">
        <ele>43</ele>
        <time>2010-03-28T09:20:25Z</time>
      </trkpt>
      <trkpt lat="49.24884" lon="1.42652">
        <ele>43</ele>
        <time>2010-03-28T09:20:33Z</time>
      </trkpt>
      <trkpt lat="49.2489" lon="1.42662">
        <ele>50</ele>
        <time>2010-03-28T09:20:39Z</time>
      </trkpt>
      <trkpt lat="49.24897" lon="1.42671">
        <ele>50</ele>
        <time>2010-03-28T09:20:43Z</time>
      </trkpt>
      <trkpt lat="49.24904" lon="1.42685">
        <ele>45</ele>
        <time>2010-03-28T09:20:48Z</time>
      </trkpt>
      <trkpt lat="49.24912" lon="1.42692">
        <ele>45</ele>
        <time>2010-03-28T09:20:59Z</time>
      </trkpt>
      <trkpt lat="49.2492" lon="1.42699">
        <ele>51</ele>
        <time>2010-03-28T09:21:08Z</time>
      </trkpt>
      <trkpt lat="49.24928" lon="1.42708">
        <ele>59</ele>
        <time>2010-03-28T09:21:19Z</time>
      </trkpt>
      <trkpt lat="49.24932" lon="1.42721">
        <ele>68</ele>
        <time>2010-03-28T09:21:26Z</time>
      </trkpt>
      <trkpt lat="49.24939" lon="1.42734">
        <ele>68</ele>
        <time>2010-03-28T09:21:31Z</time>
      </trkpt>
      <trkpt lat="49.24946" lon="1.42743">
        <ele>61</ele>
        <time>2010-03-28T09:21:36Z</time>
      </trkpt>
      <trkpt lat="49.24953" lon="1.42754">
        <ele>61</ele>
        <time>2010-03-28T09:21:43Z</time>
      </trkpt>
      <trkpt lat="49.24959" lon="1.42767">
        <ele>55</ele>
        <time>2010-03-28T09:21:50Z</time>
      </trkpt>
      <trkpt lat="49.24957" lon="1.42783">
        <ele>67</ele>
        <time>2010-03-28T09:22:06Z</time>
      </trkpt>
      <trkpt lat="49.24964" lon="1.42793">
        <ele>67</ele>
        <time>2010-03-28T09:22:16Z</time>
      </trkpt>
      <trkpt lat="49.24969" lon="1.42804">
        <ele>67</ele>
        <time>2010-03-28T09:22:27Z</time>
      </trkpt>
      <trkpt lat="49.24975" lon="1.42817">
        <ele>67</ele>
        <time>2010-03-28T09:22:36Z</time>
      </trkpt>
      <trkpt lat="49.24981" lon="1.42829">
        <ele>67</ele>
        <time>2010-03-28T09:22:48Z</time>
      </trkpt>
      <trkpt lat="49.24982" lon="1.42844">
        <ele>67</ele>
        <time>2010-03-28T09:22:58Z</time>
      </trkpt>
      <trkpt lat="49.24988" lon="1.42856">
        <ele>67</ele>
        <time>2010-03-28T09:23:08Z</time>
      </trkpt>
      <trkpt lat="49.2499" lon="1.42869">
        <ele>75</ele>
        <time>2010-03-28T09:23:19Z</time>
      </trkpt>
      <trkpt lat="49.24993" lon="1.42885">
        <ele>80</ele>
        <time>2010-03-28T09:23:30Z</time>
      </trkpt>
      <trkpt lat="49.24997" lon="1.429">
        <ele>86</ele>
        <time>2010-03-28T09:23:46Z</time>
      </trkpt>
      <trkpt lat="49.25003" lon="1.4291">
        <ele>86</ele>
        <time>2010-03-28T09:23:56Z</time>
      </trkpt>
      <trkpt lat="49.25007" lon="1.42924">
        <ele>86</ele>
        <time>2010-03-28T09:24:12Z</time>
      </trkpt>
      <trkpt lat="49.25014" lon="1.42933">
        <ele>86</ele>
        <time>2010-03-28T09:24:16Z</time>
      </trkpt>
      <trkpt lat="49.2502" lon="1.42944">
        <ele>78</ele>
        <time>2010-03-28T09:24:21Z</time>
      </trkpt>
      <trkpt lat="49.25023" lon="1.42958">
        <ele>78</ele>
        <time>2010-03-28T09:24:28Z</time>
      </trkpt>
      <trkpt lat="49.25027" lon="1.42971">
        <ele>78</ele>
        <time>2010-03-28T09:24:33Z</time>
      </trkpt>
      <trkpt lat="49.25031" lon="1.42984">
        <ele>78</ele>
        <time>2010-03-28T09:24:41Z</time>
      </trkpt>
      <trkpt lat="49.25037" lon="1.42997">
        <ele>85</ele>
        <time>2010-03-28T09:24:48Z</time>
      </trkpt>
      <trkpt lat="49.25043" lon="1.43009">
        <ele>85</ele>
        <time>2010-03-28T09:24:55Z</time>
      </trkpt>
      <trkpt lat="49.25049" lon="1.43024">
        <ele>85</ele>
        <time>2010-03-28T09:25:03Z</time>
      </trkpt>
      <trkpt lat="49.25055" lon="1.43035">
        <ele>85</ele>
        <time>2010-03-28T09:25:14Z</time>
      </trkpt>
      <trkpt lat="49.2506" lon="1.43047">
        <ele>91</ele>
        <time>2010-03-28T09:25:26Z</time>
      </trkpt>
      <trkpt lat="49.25066" lon="1.4306">
        <ele>91</ele>
        <time>2010-03-28T09:25:40Z</time>
      </trkpt>
      <trkpt lat="49.25071" lon="1.43072">
        <ele>91</ele>
        <time>2010-03-28T09:25:46Z</time>
      </trkpt>
      <trkpt lat="49.25076" lon="1.43085">
        <ele>96</ele>
        <time>2010-03-28T09:25:56Z</time>
      </trkpt>
      <trkpt lat="49.25082" lon="1.43096">
        <ele>96</ele>
        <time>2010-03-28T09:26:06Z</time>
      </trkpt>
      <trkpt lat="49.25088" lon="1.43108">
        <ele>96</ele>
        <time>2010-03-28T09:26:16Z</time>
      </trkpt>
      <trkpt lat="49.25094" lon="1.4312">
        <ele>96</ele>
        <time>2010-03-28T09:26:23Z</time>
      </trkpt>
      <trkpt lat="49.25099" lon="1.43131">
        <ele>96</ele>
        <time>2010-03-28T09:26:29Z</time>
      </trkpt>
      <trkpt lat="49.25103" lon="1.43146">
        <ele>96</ele>
        <time>2010-03-28T09:26:36Z</time>
      </trkpt>
      <trkpt lat="49.25109" lon="1.43158">
        <ele>96</ele>
        <time>2010-03-28T09:26:45Z</time>
      </trkpt>
      <trkpt lat="49.25113" lon="1.43171">
        <ele>96</ele>
        <time>2010-03-28T09:26:52Z</time>
      </trkpt>
      <trkpt lat="49.25119" lon="1.43183">
        <ele>96</ele>
        <time>2010-03-28T09:27:00Z</time>
      </trkpt>
      <trkpt lat="49.25124" lon="1.43195">
        <ele>96</ele>
        <time>2010-03-28T09:27:09Z</time>
      </trkpt>
      <trkpt lat="49.2513" lon="1.43208">
        <ele>96</ele>
        <time>2010-03-28T09:27:17Z</time>
      </trkpt>
      <trkpt lat="49.25135" lon="1.4322">
        <ele>96</ele>
        <time>2010-03-28T09:27:27Z</time>
      </trkpt>
      <trkpt lat="49.25139" lon="1.43233">
        <ele>101</ele>
        <time>2010-03-28T09:27:35Z</time>
      </trkpt>
      <trkpt lat="49.25145" lon="1.43245">
        <ele>101</ele>
        <time>2010-03-28T09:27:43Z</time>
      </trkpt>
      <trkpt lat="49.2515" lon="1.43258">
        <ele>101</ele>
        <time>2010-03-28T09:27:53Z</time>
      </trkpt>
      <trkpt lat="49.25155" lon="1.43271">
        <ele>108</ele>
        <time>2010-03-28T09:28:02Z</time>
      </trkpt>
      <trkpt lat="49.25161" lon="1.43284">
        <ele>108</ele>
        <time>2010-03-28T09:28:11Z</time>
      </trkpt>
      <trkpt lat="49.25167" lon="1.43297">
        <ele>108</ele>
        <time>2010-03-28T09:28:19Z</time>
      </trkpt>
      <trkpt lat="49.25173" lon="1.43307">
        <ele>108</ele>
        <time>2010-03-28T09:28:27Z</time>
      </trkpt>
      <trkpt lat="49.25179" lon="1.43318">
        <ele>108</ele>
        <time>2010-03-28T09:28:35Z</time>
      </trkpt>
      <trkpt lat="49.25186" lon="1.43328">
        <ele>108</ele>
        <time>2010-03-28T09:28:43Z</time>
      </trkpt>
      <trkpt lat="49.25193" lon="1.43338">
        <ele>108</ele>
        <time>2010-03-28T09:28:50Z</time>
      </trkpt>
      <trkpt lat="49.252" lon="1.43348">
        <ele>108</ele>
        <time>2010-03-28T09:28:56Z</time>
      </trkpt>
      <trkpt lat="49.25208" lon="1.43356">
        <ele>108</ele>
        <time>2010-03-28T09:29:04Z</time>
      </trkpt>
      <trkpt lat="49.25215" lon="1.43366">
        <ele>108</ele>
        <time>2010-03-28T09:29:14Z</time>
      </trkpt>
      <trkpt lat="49.2522" lon="1.43377">
        <ele>116</ele>
        <time>2010-03-28T09:29:24Z</time>
      </trkpt>
      <trkpt lat="49.25224" lon="1.43391">
        <ele>116</ele>
        <time>2010-03-28T09:29:31Z</time>
      </trkpt>
      <trkpt lat="49.25228" lon="1.43404">
        <ele>121</ele>
        <time>2010-03-28T09:29:42Z</time>
      </trkpt>
      <trkpt lat="49.25233" lon="1.43418">
        <ele>121</ele>
        <time>2010-03-28T09:29:50Z</time>
      </trkpt>
      <trkpt lat="49.25237" lon="1.4343">
        <ele>121</ele>
        <time>2010-03-28T09:29:57Z</time>
      </trkpt>
      <trkpt lat="49.25244" lon="1.43441">
        <ele>121</ele>
        <time>2010-03-28T09:30:07Z</time>
      </trkpt>
      <trkpt lat="49.25252" lon="1.43451">
        <ele>121</ele>
        <time>2010-03-28T09:30:13Z</time>
      </trkpt>
      <trkpt lat="49.2526" lon="1.43459">
        <ele>121</ele>
        <time>2010-03-28T09:30:21Z</time>
      </trkpt>
      <trkpt lat="49.25264" lon="1.43474">
        <ele>121</ele>
        <time>2010-03-28T09:30:27Z</time>
      </trkpt>
      <trkpt lat="49.25272" lon="1.43483">
        <ele>121</ele>
        <time>2010-03-28T09:30:34Z</time>
      </trkpt>
      <trkpt lat="49.25279" lon="1.43495">
        <ele>121</ele>
        <time>2010-03-28T09:30:44Z</time>
      </trkpt>
      <trkpt lat="49.25284" lon="1.43508">
        <ele>131</ele>
        <time>2010-03-28T09:30:50Z</time>
      </trkpt>
      <trkpt lat="49.25287" lon="1.43523">
        <ele>131</ele>
        <time>2010-03-28T09:30:56Z</time>
      </trkpt>
      <trkpt lat="49.2529" lon="1.43536">
        <ele>126</ele>
        <time>2010-03-28T09:31:03Z</time>
      </trkpt>
      <trkpt lat="49.25292" lon="1.43551">
        <ele>126</ele>
        <time>2010-03-28T09:31:08Z</time>
      </trkpt>
      <trkpt lat="49.25295" lon="1.43566">
        <ele>126</ele>
        <time>2010-03-28T09:31:14Z</time>
      </trkpt>
      <trkpt lat="49.253" lon="1.43578">
        <ele>126</ele>
        <time>2010-03-28T09:31:19Z</time>
      </trkpt>
      <trkpt lat="49.25304" lon="1.43591">
        <ele>126</ele>
        <time>2010-03-28T09:31:24Z</time>
      </trkpt>
      <trkpt lat="49.25311" lon="1.43602">
        <ele>120</ele>
        <time>2010-03-28T09:31:30Z</time>
      </trkpt>
      <trkpt lat="49.25315" lon="1.43615">
        <ele>120</ele>
        <time>2010-03-28T09:31:36Z</time>
      </trkpt>
      <trkpt lat="49.25317" lon="1.43628">
        <ele>129</ele>
        <time>2010-03-28T09:31:46Z</time>
      </trkpt>
      <trkpt lat="49.25326" lon="1.43635">
        <ele>135</ele>
        <time>2010-03-28T09:32:35Z</time>
      </trkpt>
      <trkpt lat="49.25334" lon="1.43624">
        <ele>135</ele>
        <time>2010-03-28T09:32:40Z</time>
      </trkpt>
      <trkpt lat="49.25344" lon="1.43619">
        <ele>135</ele>
        <time>2010-03-28T09:32:45Z</time>
      </trkpt>
      <trkpt lat="49.25355" lon="1.43624">
        <ele>135</ele>
        <time>2010-03-28T09:32:50Z</time>
      </trkpt>
      <trkpt lat="49.25363" lon="1.43632">
        <ele>135</ele>
        <time>2010-03-28T09:32:54Z</time>
      </trkpt>
      <trkpt lat="49.25372" lon="1.43642">
        <ele>135</ele>
        <time>2010-03-28T09:32:58Z</time>
      </trkpt>
      <trkpt lat="49.2538" lon="1.43649">
        <ele>135</ele>
        <time>2010-03-28T09:33:01Z</time>
      </trkpt>
      <trkpt lat="49.25388" lon="1.43657">
        <ele>135</ele>
        <time>2010-03-28T09:33:04Z</time>
      </trkpt>
      <trkpt lat="49.25397" lon="1.43664">
        <ele>135</ele>
        <time>2010-03-28T09:33:07Z</time>
      </trkpt>
      <trkpt lat="49.25406" lon="1.43673">
        <ele>135</ele>
        <time>2010-03-28T09:33:10Z</time>
      </trkpt>
      <trkpt lat="49.25416" lon="1.43682">
        <ele>135</ele>
        <time>2010-03-28T09:33:13Z</time>
      </trkpt>
      <trkpt lat="49.25424" lon="1.43691">
        <ele>135</ele>
        <time>2010-03-28T09:33:16Z</time>
      </trkpt>
      <trkpt lat="49.25433" lon="1.437">
        <ele>135</ele>
        <time>2010-03-28T09:33:19Z</time>
      </trkpt>
      <trkpt lat="49.25443" lon="1.43704">
        <ele>135</ele>
        <time>2010-03-28T09:33:22Z</time>
      </trkpt>
      <trkpt lat="49.25451" lon="1.43698">
        <ele>135</ele>
        <time>2010-03-28T09:33:25Z</time>
      </trkpt>
      <trkpt lat="49.25459" lon="1.43689">
        <ele>135</ele>
        <time>2010-03-28T09:33:28Z</time>
      </trkpt>
      <trkpt lat="49.25467" lon="1.4368">
        <ele>135</ele>
        <time>2010-03-28T09:33:31Z</time>
      </trkpt>
      <trkpt lat="49.25476" lon="1.43669">
        <ele>135</ele>
        <time>2010-03-28T09:33:34Z</time>
      </trkpt>
      <trkpt lat="49.25485" lon="1.4366">
        <ele>135</ele>
        <time>2010-03-28T09:33:37Z</time>
      </trkpt>
      <trkpt lat="49.25494" lon="1.43651">
        <ele>135</ele>
        <time>2010-03-28T09:33:40Z</time>
      </trkpt>
      <trkpt lat="49.25504" lon="1.4364">
        <ele>135</ele>
        <time>2010-03-28T09:33:43Z</time>
      </trkpt>
      <trkpt lat="49.25513" lon="1.43631">
        <ele>135</ele>
        <time>2010-03-28T09:33:46Z</time>
      </trkpt>
      <trkpt lat="49.25521" lon="1.43621">
        <ele>135</ele>
        <time>2010-03-28T09:33:49Z</time>
      </trkpt>
      <trkpt lat="49.2553" lon="1.43612">
        <ele>135</ele>
        <time>2010-03-28T09:33:52Z</time>
      </trkpt>
      <trkpt lat="49.25538" lon="1.43602">
        <ele>135</ele>
        <time>2010-03-28T09:33:55Z</time>
      </trkpt>
      <trkpt lat="49.25547" lon="1.43594">
        <ele>135</ele>
        <time>2010-03-28T09:33:58Z</time>
      </trkpt>
      <trkpt lat="49.25554" lon="1.43585">
        <ele>135</ele>
        <time>2010-03-28T09:34:01Z</time>
      </trkpt>
      <trkpt lat="49.25564" lon="1.43575">
        <ele>135</ele>
        <time>2010-03-28T09:34:05Z</time>
      </trkpt>
      <trkpt lat="49.25573" lon="1.43565">
        <ele>135</ele>
        <time>2010-03-28T09:34:09Z</time>
      </trkpt>
      <trkpt lat="49.25583" lon="1.43555">
        <ele>135</ele>
        <time>2010-03-28T09:34:13Z</time>
      </trkpt>
      <trkpt lat="49.25591" lon="1.43546">
        <ele>135</ele>
        <time>2010-03-28T09:34:16Z</time>
      </trkpt>
      <trkpt lat="49.256" lon="1.43537">
        <ele>135</ele>
        <time>2010-03-28T09:34:19Z</time>
      </trkpt>
      <trkpt lat="49.25607" lon="1.43528">
        <ele>135</ele>
        <time>2010-03-28T09:34:22Z</time>
      </trkpt>
      <trkpt lat="49.25616" lon="1.43519">
        <ele>135</ele>
        <time>2010-03-28T09:34:25Z</time>
      </trkpt>
      <trkpt lat="49.25623" lon="1.43511">
        <ele>135</ele>
        <time>2010-03-28T09:34:28Z</time>
      </trkpt>
      <trkpt lat="49.25631" lon="1.43502">
        <ele>135</ele>
        <time>2010-03-28T09:34:31Z</time>
      </trkpt>
      <trkpt lat="49.2564" lon="1.43492">
        <ele>135</ele>
        <time>2010-03-28T09:34:34Z</time>
      </trkpt>
      <trkpt lat="49.25648" lon="1.43483">
        <ele>135</ele>
        <time>2010-03-28T09:34:37Z</time>
      </trkpt>
      <trkpt lat="49.25657" lon="1.43474">
        <ele>135</ele>
        <time>2010-03-28T09:34:40Z</time>
      </trkpt>
      <trkpt lat="49.25666" lon="1.43465">
        <ele>135</ele>
        <time>2010-03-28T09:34:43Z</time>
      </trkpt>
      <trkpt lat="49.25675" lon="1.43455">
        <ele>135</ele>
        <time>2010-03-28T09:34:46Z</time>
      </trkpt>
      <trkpt lat="49.25685" lon="1.43444">
        <ele>135</ele>
        <time>2010-03-28T09:34:49Z</time>
      </trkpt>
      <trkpt lat="49.25695" lon="1.43433">
        <ele>135</ele>
        <time>2010-03-28T09:34:52Z</time>
      </trkpt>
      <trkpt lat="49.25705" lon="1.43421">
        <ele>135</ele>
        <time>2010-03-28T09:34:55Z</time>
      </trkpt>
      <trkpt lat="49.25716" lon="1.4341">
        <ele>135</ele>
        <time>2010-03-28T09:34:58Z</time>
      </trkpt>
      <trkpt lat="49.25727" lon="1.43399">
        <ele>135</ele>
        <time>2010-03-28T09:35:01Z</time>
      </trkpt>
      <trkpt lat="49.25737" lon="1.43389">
        <ele>135</ele>
        <time>2010-03-28T09:35:04Z</time>
      </trkpt>
      <trkpt lat="49.25748" lon="1.4338">
        <ele>135</ele>
        <time>2010-03-28T09:35:07Z</time>
      </trkpt>
      <trkpt lat="49.25757" lon="1.43377">
        <ele>135</ele>
        <time>2010-03-28T09:35:09Z</time>
      </trkpt>
      <trkpt lat="49.25767" lon="1.43373">
        <ele>135</ele>
        <time>2010-03-28T09:35:11Z</time>
      </trkpt>
      <trkpt lat="49.25777" lon="1.43369">
        <ele>135</ele>
        <time>2010-03-28T09:35:13Z</time>
      </trkpt>
      <trkpt lat="49.25788" lon="1.43366">
        <ele>135</ele>
        <time>2010-03-28T09:35:15Z</time>
      </trkpt>
      <trkpt lat="49.25798" lon="1.43364">
        <ele>135</ele>
        <time>2010-03-28T09:35:17Z</time>
      </trkpt>
      <trkpt lat="49.25807" lon="1.43364">
        <ele>135</ele>
        <time>2010-03-28T09:35:19Z</time>
      </trkpt>
      <trkpt lat="49.25819" lon="1.43362">
        <ele>135</ele>
        <time>2010-03-28T09:35:22Z</time>
      </trkpt>
      <trkpt lat="49.25831" lon="1.43365">
        <ele>135</ele>
        <time>2010-03-28T09:35:25Z</time>
      </trkpt>
      <trkpt lat="49.25843" lon="1.43368">
        <ele>135</ele>
        <time>2010-03-28T09:35:28Z</time>
      </trkpt>
      <trkpt lat="49.25853" lon="1.43372">
        <ele>135</ele>
        <time>2010-03-28T09:35:31Z</time>
      </trkpt>
      <trkpt lat="49.25862" lon="1.43373">
        <ele>130</ele>
        <time>2010-03-28T09:35:34Z</time>
      </trkpt>
      <trkpt lat="49.25873" lon="1.4338">
        <ele>130</ele>
        <time>2010-03-28T09:35:38Z</time>
      </trkpt>
      <trkpt lat="49.25882" lon="1.43386">
        <ele>130</ele>
        <time>2010-03-28T09:35:41Z</time>
      </trkpt>
      <trkpt lat="49.25892" lon="1.43389">
        <ele>130</ele>
        <time>2010-03-28T09:35:44Z</time>
      </trkpt>
      <trkpt lat="49.25903" lon="1.43398">
        <ele>130</ele>
        <time>2010-03-28T09:35:47Z</time>
      </trkpt>
      <trkpt lat="49.25912" lon="1.4341">
        <ele>130</ele>
        <time>2010-03-28T09:35:50Z</time>
      </trkpt>
      <trkpt lat="49.25921" lon="1.43423">
        <ele>130</ele>
        <time>2010-03-28T09:35:53Z</time>
      </trkpt>
      <trkpt lat="49.2593" lon="1.43436">
        <ele>130</ele>
        <time>2010-03-28T09:35:56Z</time>
      </trkpt>
      <trkpt lat="49.25938" lon="1.43448">
        <ele>130</ele>
        <time>2010-03-28T09:35:59Z</time>
      </trkpt>
      <trkpt lat="49.25948" lon="1.43457">
        <ele>130</ele>
        <time>2010-03-28T09:36:02Z</time>
      </trkpt>
      <trkpt lat="49.25959" lon="1.43464">
        <ele>130</ele>
        <time>2010-03-28T09:36:05Z</time>
      </trkpt>
      <trkpt lat="49.25969" lon="1.43469">
        <ele>130</ele>
        <time>2010-03-28T09:36:10Z</time>
      </trkpt>
      <trkpt lat="49.25977" lon="1.43457">
        <ele>130</ele>
        <time>2010-03-28T09:36:34Z</time>
      </trkpt>
      <trkpt lat="49.25984" lon="1.43444">
        <ele>130</ele>
        <time>2010-03-28T09:36:37Z</time>
      </trkpt>
      <trkpt lat="49.25994" lon="1.43432">
        <ele>130</ele>
        <time>2010-03-28T09:36:40Z</time>
      </trkpt>
      <trkpt lat="49.26002" lon="1.43424">
        <ele>130</ele>
        <time>2010-03-28T09:36:42Z</time>
      </trkpt>
      <trkpt lat="49.26014" lon="1.43421">
        <ele>130</ele>
        <time>2010-03-28T09:36:44Z</time>
      </trkpt>
      <trkpt lat="49.26027" lon="1.4342">
        <ele>130</ele>
        <time>2010-03-28T09:36:46Z</time>
      </trkpt>
      <trkpt lat="49.26039" lon="1.43415">
        <ele>130</ele>
        <time>2010-03-28T09:36:48Z</time>
      </trkpt>
      <trkpt lat="49.26054" lon="1.4341">
        <ele>130</ele>
        <time>2010-03-28T09:36:50Z</time>
      </trkpt>
      <trkpt lat="49.26069" lon="1.43401">
        <ele>130</ele>
        <time>2010-03-28T09:36:52Z</time>
      </trkpt>
      <trkpt lat="49.26082" lon="1.43387">
        <ele>123</ele>
        <time>2010-03-28T09:36:54Z</time>
      </trkpt>
      <trkpt lat="49.2609" lon="1.43379">
        <ele>123</ele>
        <time>2010-03-28T09:36:55Z</time>
      </trkpt>
      <trkpt lat="49.26106" lon="1.43364">
        <ele>123</ele>
        <time>2010-03-28T09:36:57Z</time>
      </trkpt>
      <trkpt lat="49.26114" lon="1.43356">
        <ele>117</ele>
        <time>2010-03-28T09:36:58Z</time>
      </trkpt>
      <trkpt lat="49.26123" lon="1.43347">
        <ele>117</ele>
        <time>2010-03-28T09:36:59Z</time>
      </trkpt>
      <trkpt lat="49.26133" lon="1.43342">
        <ele>117</ele>
        <time>2010-03-28T09:37:00Z</time>
      </trkpt>
      <trkpt lat="49.26142" lon="1.43335">
        <ele>117</ele>
        <time>2010-03-28T09:37:01Z</time>
      </trkpt>
      <trkpt lat="49.26153" lon="1.43331">
        <ele>111</ele>
        <time>2010-03-28T09:37:02Z</time>
      </trkpt>
      <trkpt lat="49.26163" lon="1.43327">
        <ele>111</ele>
        <time>2010-03-28T09:37:03Z</time>
      </trkpt>
      <trkpt lat="49.26172" lon="1.43324">
        <ele>111</ele>
        <time>2010-03-28T09:37:04Z</time>
      </trkpt>
      <trkpt lat="49.26182" lon="1.43322">
        <ele>104</ele>
        <time>2010-03-28T09:37:05Z</time>
      </trkpt>
      <trkpt lat="49.26191" lon="1.43318">
        <ele>104</ele>
        <time>2010-03-28T09:37:06Z</time>
      </trkpt>
      <trkpt lat="49.26204" lon="1.43308">
        <ele>104</ele>
        <time>2010-03-28T09:37:08Z</time>
      </trkpt>
      <trkpt lat="49.26218" lon="1.43297">
        <ele>104</ele>
        <time>2010-03-28T09:37:10Z</time>
      </trkpt>
      <trkpt lat="49.26232" lon="1.43286">
        <ele>104</ele>
        <time>2010-03-28T09:37:12Z</time>
      </trkpt>
      <trkpt lat="49.26245" lon="1.43275">
        <ele>104</ele>
        <time>2010-03-28T09:37:14Z</time>
      </trkpt>
      <trkpt lat="49.26256" lon="1.43266">
        <ele>104</ele>
        <time>2010-03-28T09:37:16Z</time>
      </trkpt>
      <trkpt lat="49.26265" lon="1.4326">
        <ele>104</ele>
        <time>2010-03-28T09:37:18Z</time>
      </trkpt>
      <trkpt lat="49.26275" lon="1.43253">
        <ele>104</ele>
        <time>2010-03-28T09:37:20Z</time>
      </trkpt>
      <trkpt lat="49.26283" lon="1.43248">
        <ele>104</ele>
        <time>2010-03-28T09:37:22Z</time>
      </trkpt>
      <trkpt lat="49.26296" lon="1.43241">
        <ele>104</ele>
        <time>2010-03-28T09:37:25Z</time>
      </trkpt>
      <trkpt lat="49.26308" lon="1.43233">
        <ele>104</ele>
        <time>2010-03-28T09:37:28Z</time>
      </trkpt>
      <trkpt lat="49.2632" lon="1.43225">
        <ele>104</ele>
        <time>2010-03-28T09:37:31Z</time>
      </trkpt>
      <trkpt lat="49.26333" lon="1.43217">
        <ele>104</ele>
        <time>2010-03-28T09:37:34Z</time>
      </trkpt>
      <trkpt lat="49.26342" lon="1.43213">
        <ele>104</ele>
        <time>2010-03-28T09:37:36Z</time>
      </trkpt>
      <trkpt lat="49.26354" lon="1.43209">
        <ele>104</ele>
        <time>2010-03-28T09:37:38Z</time>
      </trkpt>
      <trkpt lat="49.26368" lon="1.43207">
        <ele>98</ele>
        <time>2010-03-28T09:37:40Z</time>
      </trkpt>
      <trkpt lat="49.26382" lon="1.43204">
        <ele>98</ele>
        <time>2010-03-28T09:37:42Z</time>
      </trkpt>
      <trkpt lat="49.26396" lon="1.43201">
        <ele>98</ele>
        <time>2010-03-28T09:37:44Z</time>
      </trkpt>
      <trkpt lat="49.26407" lon="1.43199">
        <ele>98</ele>
        <time>2010-03-28T09:37:46Z</time>
      </trkpt>
      <trkpt lat="49.26417" lon="1.43195">
        <ele>98</ele>
        <time>2010-03-28T09:37:48Z</time>
      </trkpt>
      <trkpt lat="49.26427" lon="1.43188">
        <ele>98</ele>
        <time>2010-03-28T09:37:50Z</time>
      </trkpt>
      <trkpt lat="49.26436" lon="1.43176">
        <ele>98</ele>
        <time>2010-03-28T09:37:52Z</time>
      </trkpt>
      <trkpt lat="49.26445" lon="1.43163">
        <ele>98</ele>
        <time>2010-03-28T09:37:54Z</time>
      </trkpt>
      <trkpt lat="49.26453" lon="1.43145">
        <ele>98</ele>
        <time>2010-03-28T09:37:56Z</time>
      </trkpt>
      <trkpt lat="49.26461" lon="1.43127">
        <ele>93</ele>
        <time>2010-03-28T09:37:58Z</time>
      </trkpt>
      <trkpt lat="49.26467" lon="1.4311">
        <ele>93</ele>
        <time>2010-03-28T09:38:00Z</time>
      </trkpt>
      <trkpt lat="49.26476" lon="1.43093">
        <ele>93</ele>
        <time>2010-03-28T09:38:02Z</time>
      </trkpt>
      <trkpt lat="49.26486" lon="1.43075">
        <ele>93</ele>
        <time>2010-03-28T09:38:04Z</time>
      </trkpt>
      <trkpt lat="49.26496" lon="1.43055">
        <ele>87</ele>
        <time>2010-03-28T09:38:06Z</time>
      </trkpt>
      <trkpt lat="49.26503" lon="1.43044">
        <ele>87</ele>
        <time>2010-03-28T09:38:07Z</time>
      </trkpt>
      <trkpt lat="49.26509" lon="1.43033">
        <ele>87</ele>
        <time>2010-03-28T09:38:08Z</time>
      </trkpt>
      <trkpt lat="49.26515" lon="1.43021">
        <ele>87</ele>
        <time>2010-03-28T09:38:09Z</time>
      </trkpt>
      <trkpt lat="49.26523" lon="1.43008">
        <ele>87</ele>
        <time>2010-03-28T09:38:10Z</time>
      </trkpt>
      <trkpt lat="49.26531" lon="1.42996">
        <ele>87</ele>
        <time>2010-03-28T09:38:11Z</time>
      </trkpt>
      <trkpt lat="49.26539" lon="1.42983">
        <ele>82</ele>
        <time>2010-03-28T09:38:12Z</time>
      </trkpt>
      <trkpt lat="49.26548" lon="1.42971">
        <ele>82</ele>
        <time>2010-03-28T09:38:13Z</time>
      </trkpt>
      <trkpt lat="49.26557" lon="1.42959">
        <ele>82</ele>
        <time>2010-03-28T09:38:14Z</time>
      </trkpt>
      <trkpt lat="49.26566" lon="1.42947">
        <ele>82</ele>
        <time>2010-03-28T09:38:15Z</time>
      </trkpt>
      <trkpt lat="49.26574" lon="1.42936">
        <ele>82</ele>
        <time>2010-03-28T09:38:16Z</time>
      </trkpt>
      <trkpt lat="49.26583" lon="1.42926">
        <ele>82</ele>
        <time>2010-03-28T09:38:17Z</time>
      </trkpt>
      <trkpt lat="49.26592" lon="1.42914">
        <ele>77</ele>
        <time>2010-03-28T09:38:18Z</time>
      </trkpt>
      <trkpt lat="49.26601" lon="1.42902">
        <ele>77</ele>
        <time>2010-03-28T09:38:19Z</time>
      </trkpt>
      <trkpt lat="49.2661" lon="1.42891">
        <ele>77</ele>
        <time>2010-03-28T09:38:20Z</time>
      </trkpt>
      <trkpt lat="49.26619" lon="1.4288">
        <ele>77</ele>
        <time>2010-03-28T09:38:21Z</time>
      </trkpt>
      <trkpt lat="49.26629" lon="1.42868">
        <ele>77</ele>
        <time>2010-03-28T09:38:22Z</time>
      </trkpt>
      <trkpt lat="49.26638" lon="1.42856">
        <ele>77</ele>
        <time>2010-03-28T09:38:23Z</time>
      </trkpt>
      <trkpt lat="49.26647" lon="1.42844">
        <ele>71</ele>
        <time>2010-03-28T09:38:24Z</time>
      </trkpt>
      <trkpt lat="49.26656" lon="1.42832">
        <ele>71</ele>
        <time>2010-03-28T09:38:25Z</time>
      </trkpt>
      <trkpt lat="49.26665" lon="1.42821">
        <ele>71</ele>
        <time>2010-03-28T09:38:26Z</time>
      </trkpt>
      <trkpt lat="49.26674" lon="1.4281">
        <ele>71</ele>
        <time>2010-03-28T09:38:27Z</time>
      </trkpt>
      <trkpt lat="49.26684" lon="1.42797">
        <ele>71</ele>
        <time>2010-03-28T09:38:28Z</time>
      </trkpt>
      <trkpt lat="49.26693" lon="1.42785">
        <ele>71</ele>
        <time>2010-03-28T09:38:29Z</time>
      </trkpt>
      <trkpt lat="49.26703" lon="1.42774">
        <ele>71</ele>
        <time>2010-03-28T09:38:30Z</time>
      </trkpt>
      <trkpt lat="49.26712" lon="1.42762">
        <ele>65</ele>
        <time>2010-03-28T09:38:31Z</time>
      </trkpt>
      <trkpt lat="49.2672" lon="1.42751">
        <ele>65</ele>
        <time>2010-03-28T09:38:32Z</time>
      </trkpt>
      <trkpt lat="49.26729" lon="1.42741">
        <ele>65</ele>
        <time>2010-03-28T09:38:33Z</time>
      </trkpt>
      <trkpt lat="49.26738" lon="1.42732">
        <ele>65</ele>
        <time>2010-03-28T09:38:34Z</time>
      </trkpt>
      <trkpt lat="49.26748" lon="1.42725">
        <ele>60</ele>
        <time>2010-03-28T09:38:35Z</time>
      </trkpt>
      <trkpt lat="49.26757" lon="1.42719">
        <ele>60</ele>
        <time>2010-03-28T09:38:36Z</time>
      </trkpt>
      <trkpt lat="49.26766" lon="1.42714">
        <ele>60</ele>
        <time>2010-03-28T09:38:37Z</time>
      </trkpt>
      <trkpt lat="49.26781" lon="1.42705">
        <ele>60</ele>
        <time>2010-03-28T09:38:39Z</time>
      </trkpt>
      <trkpt lat="49.26794" lon="1.42698">
        <ele>53</ele>
        <time>2010-03-28T09:38:41Z</time>
      </trkpt>
      <trkpt lat="49.26805" lon="1.42691">
        <ele>53</ele>
        <time>2010-03-28T09:38:43Z</time>
      </trkpt>
      <trkpt lat="49.26815" lon="1.42686">
        <ele>53</ele>
        <time>2010-03-28T09:38:45Z</time>
      </trkpt>
      <trkpt lat="49.26827" lon="1.42691">
        <ele>53</ele>
        <time>2010-03-28T09:38:48Z</time>
      </trkpt>
      <trkpt lat="49.26834" lon="1.42701">
        <ele>53</ele>
        <time>2010-03-28T09:38:51Z</time>
      </trkpt>
      <trkpt lat="49.26843" lon="1.42709">
        <ele>53</ele>
        <time>2010-03-28T09:38:54Z</time>
      </trkpt>
      <trkpt lat="49.26853" lon="1.42716">
        <ele>53</ele>
        <time>2010-03-28T09:38:57Z</time>
      </trkpt>
      <trkpt lat="49.26861" lon="1.42725">
        <ele>53</ele>
        <time>2010-03-28T09:39:00Z</time>
      </trkpt>
      <trkpt lat="49.26871" lon="1.42732">
        <ele>53</ele>
        <time>2010-03-28T09:39:03Z</time>
      </trkpt>
      <trkpt lat="49.2688" lon="1.42741">
        <ele>53</ele>
        <time>2010-03-28T09:39:06Z</time>
      </trkpt>
      <trkpt lat="49.2689" lon="1.42749">
        <ele>53</ele>
        <time>2010-03-28T09:39:09Z</time>
      </trkpt>
      <trkpt lat="49.269" lon="1.42757">
        <ele>53</ele>
        <time>2010-03-28T09:39:12Z</time>
      </trkpt>
      <trkpt lat="49.2691" lon="1.42766">
        <ele>53</ele>
        <time>2010-03-28T09:39:15Z</time>
      </trkpt>
      <trkpt lat="49.26917" lon="1.42776">
        <ele>53</ele>
        <time>2010-03-28T09:39:18Z</time>
      </trkpt>
      <trkpt lat="49.26922" lon="1.42791">
        <ele>53</ele>
        <time>2010-03-28T09:39:21Z</time>
      </trkpt>
      <trkpt lat="49.26926" lon="1.42804">
        <ele>53</ele>
        <time>2010-03-28T09:39:24Z</time>
      </trkpt>
      <trkpt lat="49.26931" lon="1.42821">
        <ele>53</ele>
        <time>2010-03-28T09:39:28Z</time>
      </trkpt>
      <trkpt lat="49.26935" lon="1.42835">
        <ele>53</ele>
        <time>2010-03-28T09:39:32Z</time>
      </trkpt>
      <trkpt lat="49.2694" lon="1.4285">
        <ele>53</ele>
        <time>2010-03-28T09:39:37Z</time>
      </trkpt>
      <trkpt lat="49.26944" lon="1.42865">
        <ele>53</ele>
        <time>2010-03-28T09:39:42Z</time>
      </trkpt>
      <trkpt lat="49.26947" lon="1.4288">
        <ele>53</ele>
        <time>2010-03-28T09:39:47Z</time>
      </trkpt>
      <trkpt lat="49.26951" lon="1.42894">
        <ele>59</ele>
        <time>2010-03-28T09:39:52Z</time>
      </trkpt>
      <trkpt lat="49.26954" lon="1.42909">
        <ele>59</ele>
        <time>2010-03-28T09:39:57Z</time>
      </trkpt>
      <trkpt lat="49.26958" lon="1.42923">
        <ele>59</ele>
        <time>2010-03-28T09:40:03Z</time>
      </trkpt>
      <trkpt lat="49.26962" lon="1.42938">
        <ele>59</ele>
        <time>2010-03-28T09:40:09Z</time>
      </trkpt>
      <trkpt lat="49.26964" lon="1.42952">
        <ele>59</ele>
        <time>2010-03-28T09:40:15Z</time>
      </trkpt>
      <trkpt lat="49.26967" lon="1.42967">
        <ele>59</ele>
        <time>2010-03-28T09:40:21Z</time>
      </trkpt>
      <trkpt lat="49.2697" lon="1.4298">
        <ele>65</ele>
        <time>2010-03-28T09:40:27Z</time>
      </trkpt>
      <trkpt lat="49.26971" lon="1.42995">
        <ele>65</ele>
        <time>2010-03-28T09:40:33Z</time>
      </trkpt>
      <trkpt lat="49.26971" lon="1.43009">
        <ele>65</ele>
        <time>2010-03-28T09:40:40Z</time>
      </trkpt>
      <trkpt lat="49.26973" lon="1.43024">
        <ele>65</ele>
        <time>2010-03-28T09:40:47Z</time>
      </trkpt>
      <trkpt lat="49.26974" lon="1.43039">
        <ele>65</ele>
        <time>2010-03-28T09:40:54Z</time>
      </trkpt>
      <trkpt lat="49.26975" lon="1.43053">
        <ele>72</ele>
        <time>2010-03-28T09:41:01Z</time>
      </trkpt>
      <trkpt lat="49.26977" lon="1.43068">
        <ele>72</ele>
        <time>2010-03-28T09:41:07Z</time>
      </trkpt>
      <trkpt lat="49.2698" lon="1.43082">
        <ele>72</ele>
        <time>2010-03-28T09:41:13Z</time>
      </trkpt>
      <trkpt lat="49.26983" lon="1.43096">
        <ele>72</ele>
        <time>2010-03-28T09:41:19Z</time>
      </trkpt>
      <trkpt lat="49.26986" lon="1.43111">
        <ele>72</ele>
        <time>2010-03-28T09:41:25Z</time>
      </trkpt>
      <trkpt lat="49.26989" lon="1.43124">
        <ele>72</ele>
        <time>2010-03-28T09:41:31Z</time>
      </trkpt>
      <trkpt lat="49.26993" lon="1.43139">
        <ele>78</ele>
        <time>2010-03-28T09:41:36Z</time>
      </trkpt>
      <trkpt lat="49.26997" lon="1.43154">
        <ele>78</ele>
        <time>2010-03-28T09:41:40Z</time>
      </trkpt>
      <trkpt lat="49.27001" lon="1.43166">
        <ele>78</ele>
        <time>2010-03-28T09:41:44Z</time>
      </trkpt>
      <trkpt lat="49.27007" lon="1.43181">
        <ele>78</ele>
        <time>2010-03-28T09:41:49Z</time>
      </trkpt>
      <trkpt lat="49.27012" lon="1.43194">
        <ele>78</ele>
        <time>2010-03-28T09:41:54Z</time>
      </trkpt>
      <trkpt lat="49.27016" lon="1.4321">
        <ele>78</ele>
        <time>2010-03-28T09:41:58Z</time>
      </trkpt>
      <trkpt lat="49.2702" lon="1.43227">
        <ele>78</ele>
        <time>2010-03-28T09:42:02Z</time>
      </trkpt>
      <trkpt lat="49.27024" lon="1.43244">
        <ele>78</ele>
        <time>2010-03-28T09:42:06Z</time>
      </trkpt>
      <trkpt lat="49.27027" lon="1.43257">
        <ele>78</ele>
        <time>2010-03-28T09:42:10Z</time>
      </trkpt>
      <trkpt lat="49.27031" lon="1.43271">
        <ele>78</ele>
        <time>2010-03-28T09:42:14Z</time>
      </trkpt>
      <trkpt lat="49.27033" lon="1.43288">
        <ele>78</ele>
        <time>2010-03-28T09:42:19Z</time>
      </trkpt>
      <trkpt lat="49.27035" lon="1.43304">
        <ele>78</ele>
        <time>2010-03-28T09:42:25Z</time>
      </trkpt>
      <trkpt lat="49.27038" lon="1.4332">
        <ele>78</ele>
        <time>2010-03-28T09:42:31Z</time>
      </trkpt>
      <trkpt lat="49.27039" lon="1.43338">
        <ele>78</ele>
        <time>2010-03-28T09:42:37Z</time>
      </trkpt>
      <trkpt lat="49.27042" lon="1.43355">
        <ele>71</ele>
        <time>2010-03-28T09:42:41Z</time>
      </trkpt>
      <trkpt lat="49.27045" lon="1.43368">
        <ele>71</ele>
        <time>2010-03-28T09:42:44Z</time>
      </trkpt>
      <trkpt lat="49.27048" lon="1.43385">
        <ele>71</ele>
        <time>2010-03-28T09:42:48Z</time>
      </trkpt>
      <trkpt lat="49.27052" lon="1.434">
        <ele>71</ele>
        <time>2010-03-28T09:42:52Z</time>
      </trkpt>
      <trkpt lat="49.27056" lon="1.43414">
        <ele>71</ele>
        <time>2010-03-28T09:42:56Z</time>
      </trkpt>
      <trkpt lat="49.27061" lon="1.43428">
        <ele>71</ele>
        <time>2010-03-28T09:43:00Z</time>
      </trkpt>
      <trkpt lat="49.27065" lon="1.43442">
        <ele>76</ele>
        <time>2010-03-28T09:43:05Z</time>
      </trkpt>
      <trkpt lat="49.27071" lon="1.43457">
        <ele>76</ele>
        <time>2010-03-28T09:43:10Z</time>
      </trkpt>
      <trkpt lat="49.27077" lon="1.43471">
        <ele>76</ele>
        <time>2010-03-28T09:43:14Z</time>
      </trkpt>
      <trkpt lat="49.2708" lon="1.43486">
        <ele>76</ele>
        <time>2010-03-28T09:43:19Z</time>
      </trkpt>
      <trkpt lat="49.27086" lon="1.43501">
        <ele>76</ele>
        <time>2010-03-28T09:43:23Z</time>
      </trkpt>
      <trkpt lat="49.27092" lon="1.43512">
        <ele>76</ele>
        <time>2010-03-28T09:43:28Z</time>
      </trkpt>
      <trkpt lat="49.27103" lon="1.43523">
        <ele>76</ele>
        <time>2010-03-28T09:43:33Z</time>
      </trkpt>
      <trkpt lat="49.2711" lon="1.43532">
        <ele>76</ele>
        <time>2010-03-28T09:43:36Z</time>
      </trkpt>
      <trkpt lat="49.27119" lon="1.43543">
        <ele>76</ele>
        <time>2010-03-28T09:43:41Z</time>
      </trkpt>
      <trkpt lat="49.27128" lon="1.43553">
        <ele>76</ele>
        <time>2010-03-28T09:43:45Z</time>
      </trkpt>
      <trkpt lat="49.27136" lon="1.43558">
        <ele>76</ele>
        <time>2010-03-28T09:43:50Z</time>
      </trkpt>
      <trkpt lat="49.27147" lon="1.43568">
        <ele>76</ele>
        <time>2010-03-28T09:43:55Z</time>
      </trkpt>
      <trkpt lat="49.27155" lon="1.43574">
        <ele>76</ele>
        <time>2010-03-28T09:43:58Z</time>
      </trkpt>
      <trkpt lat="49.27165" lon="1.4358">
        <ele>76</ele>
        <time>2010-03-28T09:44:02Z</time>
      </trkpt>
      <trkpt lat="49.27176" lon="1.4358">
        <ele>83</ele>
        <time>2010-03-28T09:44:06Z</time>
      </trkpt>
      <trkpt lat="49.27186" lon="1.43583">
        <ele>83</ele>
        <time>2010-03-28T09:44:09Z</time>
      </trkpt>
      <trkpt lat="49.27197" lon="1.43583">
        <ele>83</ele>
        <time>2010-03-28T09:44:13Z</time>
      </trkpt>
      <trkpt lat="49.27207" lon="1.43583">
        <ele>83</ele>
        <time>2010-03-28T09:44:16Z</time>
      </trkpt>
      <trkpt lat="49.27216" lon="1.43585">
        <ele>83</ele>
        <time>2010-03-28T09:44:19Z</time>
      </trkpt>
      <trkpt lat="49.27228" lon="1.43587">
        <ele>77</ele>
        <time>2010-03-28T09:44:23Z</time>
      </trkpt>
      <trkpt lat="49.27239" lon="1.43581">
        <ele>77</ele>
        <time>2010-03-28T09:44:27Z</time>
      </trkpt>
      <trkpt lat="49.27249" lon="1.43577">
        <ele>77</ele>
        <time>2010-03-28T09:44:32Z</time>
      </trkpt>
      <trkpt lat="49.2726" lon="1.43575">
        <ele>77</ele>
        <time>2010-03-28T09:44:36Z</time>
      </trkpt>
      <trkpt lat="49.27268" lon="1.43566">
        <ele>77</ele>
        <time>2010-03-28T09:44:40Z</time>
      </trkpt>
      <trkpt lat="49.27278" lon="1.43563">
        <ele>77</ele>
        <time>2010-03-28T09:44:44Z</time>
      </trkpt>
      <trkpt lat="49.27289" lon="1.4356">
        <ele>77</ele>
        <time>2010-03-28T09:44:48Z</time>
      </trkpt>
      <trkpt lat="49.273" lon="1.43555">
        <ele>77</ele>
        <time>2010-03-28T09:44:52Z</time>
      </trkpt>
      <trkpt lat="49.2731" lon="1.43545">
        <ele>77</ele>
        <time>2010-03-28T09:44:56Z</time>
      </trkpt>
      <trkpt lat="49.27319" lon="1.43541">
        <ele>77</ele>
        <time>2010-03-28T09:44:59Z</time>
      </trkpt>
      <trkpt lat="49.2733" lon="1.43536">
        <ele>71</ele>
        <time>2010-03-28T09:45:03Z</time>
      </trkpt>
      <trkpt lat="49.2734" lon="1.43533">
        <ele>71</ele>
        <time>2010-03-28T09:45:07Z</time>
      </trkpt>
      <trkpt lat="49.2735" lon="1.43529">
        <ele>71</ele>
        <time>2010-03-28T09:45:11Z</time>
      </trkpt>
      <trkpt lat="49.27361" lon="1.43527">
        <ele>71</ele>
        <time>2010-03-28T09:45:15Z</time>
      </trkpt>
      <trkpt lat="49.2737" lon="1.43521">
        <ele>71</ele>
        <time>2010-03-28T09:45:19Z</time>
      </trkpt>
      <trkpt lat="49.27381" lon="1.43519">
        <ele>71</ele>
        <time>2010-03-28T09:45:23Z</time>
      </trkpt>
      <trkpt lat="49.27392" lon="1.43517">
        <ele>71</ele>
        <time>2010-03-28T09:45:27Z</time>
      </trkpt>
      <trkpt lat="49.27401" lon="1.43521">
        <ele>71</ele>
        <time>2010-03-28T09:45:31Z</time>
      </trkpt>
      <trkpt lat="49.2741" lon="1.43527">
        <ele>71</ele>
        <time>2010-03-28T09:45:35Z</time>
      </trkpt>
      <trkpt lat="49.2742" lon="1.43532">
        <ele>71</ele>
        <time>2010-03-28T09:45:39Z</time>
      </trkpt>
      <trkpt lat="49.2743" lon="1.43536">
        <ele>71</ele>
        <time>2010-03-28T09:45:43Z</time>
      </trkpt>
      <trkpt lat="49.27439" lon="1.43541">
        <ele>71</ele>
        <time>2010-03-28T09:45:46Z</time>
      </trkpt>
      <trkpt lat="49.27449" lon="1.43547">
        <ele>71</ele>
        <time>2010-03-28T09:45:50Z</time>
      </trkpt>
      <trkpt lat="49.27457" lon="1.43556">
        <ele>71</ele>
        <time>2010-03-28T09:45:54Z</time>
      </trkpt>
      <trkpt lat="49.27464" lon="1.43566">
        <ele>71</ele>
        <time>2010-03-28T09:45:58Z</time>
      </trkpt>
      <trkpt lat="49.2747" lon="1.43577">
        <ele>71</ele>
        <time>2010-03-28T09:46:02Z</time>
      </trkpt>
      <trkpt lat="49.27479" lon="1.43587">
        <ele>77</ele>
        <time>2010-03-28T09:46:07Z</time>
      </trkpt>
      <trkpt lat="49.27485" lon="1.43601">
        <ele>77</ele>
        <time>2010-03-28T09:46:11Z</time>
      </trkpt>
      <trkpt lat="49.27494" lon="1.43616">
        <ele>77</ele>
        <time>2010-03-28T09:46:16Z</time>
      </trkpt>
      <trkpt lat="49.27498" lon="1.43629">
        <ele>77</ele>
        <time>2010-03-28T09:46:19Z</time>
      </trkpt>
      <trkpt lat="49.27504" lon="1.43643">
        <ele>77</ele>
        <time>2010-03-28T09:46:23Z</time>
      </trkpt>
      <trkpt lat="49.27509" lon="1.4366">
        <ele>77</ele>
        <time>2010-03-28T09:46:27Z</time>
      </trkpt>
      <trkpt lat="49.27512" lon="1.43677">
        <ele>77</ele>
        <time>2010-03-28T09:46:31Z</time>
      </trkpt>
      <trkpt lat="49.27517" lon="1.43692">
        <ele>77</ele>
        <time>2010-03-28T09:46:35Z</time>
      </trkpt>
      <trkpt lat="49.27524" lon="1.43704">
        <ele>83</ele>
        <time>2010-03-28T09:46:39Z</time>
      </trkpt>
      <trkpt lat="49.27533" lon="1.43725">
        <ele>83</ele>
        <time>2010-03-28T09:46:46Z</time>
      </trkpt>
      <trkpt lat="49.27531" lon="1.43739">
        <ele>83</ele>
        <time>2010-03-28T09:46:48Z</time>
      </trkpt>
      <trkpt lat="49.27535" lon="1.43756">
        <ele>83</ele>
        <time>2010-03-28T09:46:54Z</time>
      </trkpt>
      <trkpt lat="49.2754" lon="1.43769">
        <ele>83</ele>
        <time>2010-03-28T09:46:58Z</time>
      </trkpt>
      <trkpt lat="49.27546" lon="1.43783">
        <ele>90</ele>
        <time>2010-03-28T09:47:02Z</time>
      </trkpt>
      <trkpt lat="49.27551" lon="1.43799">
        <ele>90</ele>
        <time>2010-03-28T09:47:07Z</time>
      </trkpt>
      <trkpt lat="49.27556" lon="1.4381">
        <ele>82</ele>
        <time>2010-03-28T09:47:10Z</time>
      </trkpt>
      <trkpt lat="49.2756" lon="1.43825">
        <ele>82</ele>
        <time>2010-03-28T09:47:15Z</time>
      </trkpt>
      <trkpt lat="49.27552" lon="1.43813">
        <ele>82</ele>
        <time>2010-03-28T09:47:41Z</time>
      </trkpt>
      <trkpt lat="49.2755" lon="1.43792">
        <ele>77</ele>
        <time>2010-03-28T09:47:47Z</time>
      </trkpt>
      <trkpt lat="49.27546" lon="1.43778">
        <ele>77</ele>
        <time>2010-03-28T09:47:51Z</time>
      </trkpt>
      <trkpt lat="49.27543" lon="1.43764">
        <ele>77</ele>
        <time>2010-03-28T09:48:00Z</time>
      </trkpt>
      <trkpt lat="49.27547" lon="1.43779">
        <ele>82</ele>
        <time>2010-03-28T09:48:24Z</time>
      </trkpt>
      <trkpt lat="49.27548" lon="1.43794">
        <ele>82</ele>
        <time>2010-03-28T09:48:30Z</time>
      </trkpt>
      <trkpt lat="49.27552" lon="1.43808">
        <ele>76</ele>
        <time>2010-03-28T09:48:33Z</time>
      </trkpt>
      <trkpt lat="49.27557" lon="1.4382">
        <ele>76</ele>
        <time>2010-03-28T09:48:36Z</time>
      </trkpt>
      <trkpt lat="49.27561" lon="1.43836">
        <ele>76</ele>
        <time>2010-03-28T09:48:40Z</time>
      </trkpt>
      <trkpt lat="49.27567" lon="1.43846">
        <ele>76</ele>
        <time>2010-03-28T09:48:43Z</time>
      </trkpt>
      <trkpt lat="49.27573" lon="1.43859">
        <ele>76</ele>
        <time>2010-03-28T09:48:47Z</time>
      </trkpt>
      <trkpt lat="49.27576" lon="1.43873">
        <ele>76</ele>
        <time>2010-03-28T09:48:51Z</time>
      </trkpt>
      <trkpt lat="49.27578" lon="1.43887">
        <ele>76</ele>
        <time>2010-03-28T09:48:55Z</time>
      </trkpt>
      <trkpt lat="49.27583" lon="1.43899">
        <ele>76</ele>
        <time>2010-03-28T09:48:59Z</time>
      </trkpt>
      <trkpt lat="49.27589" lon="1.43912">
        <ele>76</ele>
        <time>2010-03-28T09:49:04Z</time>
      </trkpt>
      <trkpt lat="49.27593" lon="1.43926">
        <ele>76</ele>
        <time>2010-03-28T09:49:09Z</time>
      </trkpt>
      <trkpt lat="49.27598" lon="1.43941">
        <ele>76</ele>
        <time>2010-03-28T09:49:14Z</time>
      </trkpt>
      <trkpt lat="49.27602" lon="1.43955">
        <ele>76</ele>
        <time>2010-03-28T09:49:19Z</time>
      </trkpt>
      <trkpt lat="49.27606" lon="1.4397">
        <ele>76</ele>
        <time>2010-03-28T09:49:24Z</time>
      </trkpt>
      <trkpt lat="49.27611" lon="1.43984">
        <ele>76</ele>
        <time>2010-03-28T09:49:29Z</time>
      </trkpt>
      <trkpt lat="49.27615" lon="1.43997">
        <ele>76</ele>
        <time>2010-03-28T09:49:40Z</time>
      </trkpt>
      <trkpt lat="49.27624" lon="1.4399">
        <ele>76</ele>
        <time>2010-03-28T09:50:43Z</time>
      </trkpt>
      <trkpt lat="49.27615" lon="1.43994">
        <ele>76</ele>
        <time>2010-03-28T09:50:56Z</time>
      </trkpt>
      <trkpt lat="49.27618" lon="1.44009">
        <ele>83</ele>
        <time>2010-03-28T09:51:38Z</time>
      </trkpt>
      <trkpt lat="49.27622" lon="1.44025">
        <ele>83</ele>
        <time>2010-03-28T09:51:44Z</time>
      </trkpt>
      <trkpt lat="49.27627" lon="1.4404">
        <ele>83</ele>
        <time>2010-03-28T09:51:50Z</time>
      </trkpt>
      <trkpt lat="49.27632" lon="1.44056">
        <ele>83</ele>
        <time>2010-03-28T09:51:55Z</time>
      </trkpt>
      <trkpt lat="49.27637" lon="1.44068">
        <ele>83</ele>
        <time>2010-03-28T09:51:59Z</time>
      </trkpt>
      <trkpt lat="49.27642" lon="1.44082">
        <ele>83</ele>
        <time>2010-03-28T09:52:03Z</time>
      </trkpt>
      <trkpt lat="49.27647" lon="1.44094">
        <ele>83</ele>
        <time>2010-03-28T09:52:07Z</time>
      </trkpt>
      <trkpt lat="49.27651" lon="1.44109">
        <ele>83</ele>
        <time>2010-03-28T09:52:11Z</time>
      </trkpt>
      <trkpt lat="49.27654" lon="1.44123">
        <ele>83</ele>
        <time>2010-03-28T09:52:15Z</time>
      </trkpt>
      <trkpt lat="49.27658" lon="1.44139">
        <ele>83</ele>
        <time>2010-03-28T09:52:19Z</time>
      </trkpt>
      <trkpt lat="49.27662" lon="1.44154">
        <ele>83</ele>
        <time>2010-03-28T09:52:23Z</time>
      </trkpt>
      <trkpt lat="49.27667" lon="1.44165">
        <ele>83</ele>
        <time>2010-03-28T09:52:27Z</time>
      </trkpt>
      <trkpt lat="49.27672" lon="1.44178">
        <ele>83</ele>
        <time>2010-03-28T09:52:31Z</time>
      </trkpt>
      <trkpt lat="49.27677" lon="1.4419">
        <ele>83</ele>
        <time>2010-03-28T09:52:35Z</time>
      </trkpt>
      <trkpt lat="49.27681" lon="1.44203">
        <ele>83</ele>
        <time>2010-03-28T09:52:39Z</time>
      </trkpt>
      <trkpt lat="49.27686" lon="1.44216">
        <ele>83</ele>
        <time>2010-03-28T09:52:43Z</time>
      </trkpt>
      <trkpt lat="49.27692" lon="1.44229">
        <ele>83</ele>
        <time>2010-03-28T09:52:47Z</time>
      </trkpt>
      <trkpt lat="49.27699" lon="1.44239">
        <ele>83</ele>
        <time>2010-03-28T09:52:51Z</time>
      </trkpt>
      <trkpt lat="49.27706" lon="1.44251">
        <ele>83</ele>
        <time>2010-03-28T09:52:54Z</time>
      </trkpt>
      <trkpt lat="49.27713" lon="1.44262">
        <ele>83</ele>
        <time>2010-03-28T09:52:57Z</time>
      </trkpt>
      <trkpt lat="49.27721" lon="1.44275">
        <ele>83</ele>
        <time>2010-03-28T09:53:01Z</time>
      </trkpt>
      <trkpt lat="49.27728" lon="1.44284">
        <ele>83</ele>
        <time>2010-03-28T09:53:04Z</time>
      </trkpt>
      <trkpt lat="49.27735" lon="1.44295">
        <ele>83</ele>
        <time>2010-03-28T09:53:08Z</time>
      </trkpt>
      <trkpt lat="49.27741" lon="1.44309">
        <ele>83</ele>
        <time>2010-03-28T09:53:12Z</time>
      </trkpt>
      <trkpt lat="49.27751" lon="1.44316">
        <ele>83</ele>
        <time>2010-03-28T09:53:16Z</time>
      </trkpt>
      <trkpt lat="49.27758" lon="1.44324">
        <ele>90</ele>
        <time>2010-03-28T09:53:20Z</time>
      </trkpt>
      <trkpt lat="49.27767" lon="1.44332">
        <ele>90</ele>
        <time>2010-03-28T09:53:24Z</time>
      </trkpt>
      <trkpt lat="49.27776" lon="1.4434">
        <ele>90</ele>
        <time>2010-03-28T09:53:27Z</time>
      </trkpt>
      <trkpt lat="49.27784" lon="1.44348">
        <ele>85</ele>
        <time>2010-03-28T09:53:30Z</time>
      </trkpt>
      <trkpt lat="49.27793" lon="1.44357">
        <ele>85</ele>
        <time>2010-03-28T09:53:34Z</time>
      </trkpt>
      <trkpt lat="49.27801" lon="1.44365">
        <ele>85</ele>
        <time>2010-03-28T09:53:37Z</time>
      </trkpt>
      <trkpt lat="49.27812" lon="1.44371">
        <ele>85</ele>
        <time>2010-03-28T09:53:41Z</time>
      </trkpt>
      <trkpt lat="49.27821" lon="1.44377">
        <ele>79</ele>
        <time>2010-03-28T09:53:45Z</time>
      </trkpt>
      <trkpt lat="49.27829" lon="1.44384">
        <ele>79</ele>
        <time>2010-03-28T09:53:50Z</time>
      </trkpt>
      <trkpt lat="49.27839" lon="1.44391">
        <ele>79</ele>
        <time>2010-03-28T09:53:54Z</time>
      </trkpt>
      <trkpt lat="49.27848" lon="1.444">
        <ele>79</ele>
        <time>2010-03-28T09:53:58Z</time>
      </trkpt>
      <trkpt lat="49.27856" lon="1.4441">
        <ele>79</ele>
        <time>2010-03-28T09:54:02Z</time>
      </trkpt>
      <trkpt lat="49.27865" lon="1.44419">
        <ele>79</ele>
        <time>2010-03-28T09:54:06Z</time>
      </trkpt>
      <trkpt lat="49.27873" lon="1.44426">
        <ele>74</ele>
        <time>2010-03-28T09:54:09Z</time>
      </trkpt>
      <trkpt lat="49.27881" lon="1.44434">
        <ele>74</ele>
        <time>2010-03-28T09:54:12Z</time>
      </trkpt>
      <trkpt lat="49.2789" lon="1.44442">
        <ele>74</ele>
        <time>2010-03-28T09:54:15Z</time>
      </trkpt>
      <trkpt lat="49.27899" lon="1.4445">
        <ele>74</ele>
        <time>2010-03-28T09:54:18Z</time>
      </trkpt>
      <trkpt lat="49.2791" lon="1.44456">
        <ele>74</ele>
        <time>2010-03-28T09:54:21Z</time>
      </trkpt>
      <trkpt lat="49.27919" lon="1.44464">
        <ele>74</ele>
        <time>2010-03-28T09:54:24Z</time>
      </trkpt>
      <trkpt lat="49.27929" lon="1.44472">
        <ele>74</ele>
        <time>2010-03-28T09:54:27Z</time>
      </trkpt>
      <trkpt lat="49.27939" lon="1.44479">
        <ele>74</ele>
        <time>2010-03-28T09:54:30Z</time>
      </trkpt>
      <trkpt lat="49.27948" lon="1.44486">
        <ele>74</ele>
        <time>2010-03-28T09:54:33Z</time>
      </trkpt>
      <trkpt lat="49.27956" lon="1.44495">
        <ele>74</ele>
        <time>2010-03-28T09:54:36Z</time>
      </trkpt>
      <trkpt lat="49.27966" lon="1.44504">
        <ele>74</ele>
        <time>2010-03-28T09:54:40Z</time>
      </trkpt>
      <trkpt lat="49.27975" lon="1.44512">
        <ele>74</ele>
        <time>2010-03-28T09:54:43Z</time>
      </trkpt>
      <trkpt lat="49.27983" lon="1.44518">
        <ele>74</ele>
        <time>2010-03-28T09:54:46Z</time>
      </trkpt>
      <trkpt lat="49.27991" lon="1.44525">
        <ele>74</ele>
        <time>2010-03-28T09:54:49Z</time>
      </trkpt>
      <trkpt lat="49.28" lon="1.44533">
        <ele>74</ele>
        <time>2010-03-28T09:54:53Z</time>
      </trkpt>
      <trkpt lat="49.28009" lon="1.44539">
        <ele>74</ele>
        <time>2010-03-28T09:54:56Z</time>
      </trkpt>
      <trkpt lat="49.28019" lon="1.44547">
        <ele>74</ele>
        <time>2010-03-28T09:55:00Z</time>
      </trkpt>
    </trkseg>
  </trk>
</gpx>